<?xml version="1.0" encoding="UTF-8" standalone="no" ?>
<gpx xmlns="http://www.topografix.com/GPX/1/1" xmlns:xsi="http://www.w3.org/2001/XMLSchema-instance" xsi:schemaLocation="http://www.topografix.com/GPX/1/1 http://www.topografix.com/GPX/1/1/gpx.xsd" version="1.1" creator="VisuGPX - https://www.visugpx.com">
  <metadata>
    <name>Pornichet 04/07/2021</name>
    <desc><![CDATA[Sortie VTT du dimanche 04 juillet 2021]]></desc>
  </metadata>
  <trk>
    <name><![CDATA[Pornichet Cyclisme]]></name>
    <trkseg>
      <trkpt lat="47.26367" lon="-2.3154">
        <ele>8.8</ele>
        <time>2021-07-04T06:56:17.000Z</time>
      </trkpt>
      <trkpt lat="47.26368" lon="-2.31553">
        <ele>8.3</ele>
        <time>2021-07-04T06:56:20.000Z</time>
      </trkpt>
      <trkpt lat="47.26368" lon="-2.31557">
        <ele>0.20000000298023</ele>
        <time>2021-07-04T06:56:21.000Z</time>
      </trkpt>
      <trkpt lat="47.26367" lon="-2.3157">
        <ele>0.20000000298023</ele>
        <time>2021-07-04T06:56:24.000Z</time>
      </trkpt>
      <trkpt lat="47.26366" lon="-2.31609">
        <ele>0.20000000298023</ele>
        <time>2021-07-04T06:56:33.000Z</time>
      </trkpt>
      <trkpt lat="47.26364" lon="-2.31622">
        <ele>0.20000000298023</ele>
        <time>2021-07-04T06:56:38.000Z</time>
      </trkpt>
      <trkpt lat="47.26362" lon="-2.31622">
        <ele>0.20000000298023</ele>
        <time>2021-07-04T06:56:39.000Z</time>
      </trkpt>
      <trkpt lat="47.26352" lon="-2.31627">
        <ele>0.20000000298023</ele>
        <time>2021-07-04T06:56:43.000Z</time>
      </trkpt>
      <trkpt lat="47.26332" lon="-2.31634">
        <ele>0.20000000298023</ele>
        <time>2021-07-04T06:56:49.000Z</time>
      </trkpt>
      <trkpt lat="47.26306" lon="-2.31645">
        <ele>-0.20000000298023</ele>
        <time>2021-07-04T06:56:56.000Z</time>
      </trkpt>
      <trkpt lat="47.26303" lon="-2.31647">
        <ele>-0.60000002384186</ele>
        <time>2021-07-04T06:56:57.000Z</time>
      </trkpt>
      <trkpt lat="47.263" lon="-2.31648">
        <ele>-1</ele>
        <time>2021-07-04T06:56:58.000Z</time>
      </trkpt>
      <trkpt lat="47.26297" lon="-2.3165">
        <ele>-1.3999999761581</ele>
        <time>2021-07-04T06:56:59.000Z</time>
      </trkpt>
      <trkpt lat="47.26295" lon="-2.31653">
        <ele>-1.7999999523163</ele>
        <time>2021-07-04T06:57:00.000Z</time>
      </trkpt>
      <trkpt lat="47.26293" lon="-2.31657">
        <ele>-1.7999999523163</ele>
        <time>2021-07-04T06:57:01.000Z</time>
      </trkpt>
      <trkpt lat="47.26286" lon="-2.31668">
        <ele>-1.7999999523163</ele>
        <time>2021-07-04T06:57:05.000Z</time>
      </trkpt>
      <trkpt lat="47.26276" lon="-2.31682">
        <ele>-2.5999999046326</ele>
        <time>2021-07-04T06:57:10.000Z</time>
      </trkpt>
      <trkpt lat="47.26273" lon="-2.31687">
        <ele>-3</ele>
        <time>2021-07-04T06:57:11.000Z</time>
      </trkpt>
      <trkpt lat="47.2627" lon="-2.31693">
        <ele>-3.4000000953674</ele>
        <time>2021-07-04T06:57:12.000Z</time>
      </trkpt>
      <trkpt lat="47.26268" lon="-2.31699">
        <ele>-3.7999999523163</ele>
        <time>2021-07-04T06:57:13.000Z</time>
      </trkpt>
      <trkpt lat="47.26262" lon="-2.31715">
        <ele>-3.7999999523163</ele>
        <time>2021-07-04T06:57:16.000Z</time>
      </trkpt>
      <trkpt lat="47.26261" lon="-2.31725">
        <ele>-3.7999999523163</ele>
        <time>2021-07-04T06:57:18.000Z</time>
      </trkpt>
      <trkpt lat="47.26262" lon="-2.31735">
        <ele>-3.7999999523163</ele>
        <time>2021-07-04T06:57:20.000Z</time>
      </trkpt>
      <trkpt lat="47.26264" lon="-2.31777">
        <ele>-3.7999999523163</ele>
        <time>2021-07-04T06:57:27.000Z</time>
      </trkpt>
      <trkpt lat="47.26263" lon="-2.31797">
        <ele>-3.7999999523163</ele>
        <time>2021-07-04T06:57:32.000Z</time>
      </trkpt>
      <trkpt lat="47.26262" lon="-2.31825">
        <ele>-3.7999999523163</ele>
        <time>2021-07-04T06:57:38.000Z</time>
      </trkpt>
      <trkpt lat="47.26258" lon="-2.31844">
        <ele>-3.7999999523163</ele>
        <time>2021-07-04T06:57:43.000Z</time>
      </trkpt>
      <trkpt lat="47.26248" lon="-2.31854">
        <ele>-3.7999999523163</ele>
        <time>2021-07-04T06:57:47.000Z</time>
      </trkpt>
      <trkpt lat="47.26237" lon="-2.31877">
        <ele>-3.7999999523163</ele>
        <time>2021-07-04T06:57:53.000Z</time>
      </trkpt>
      <trkpt lat="47.26221" lon="-2.31909">
        <ele>-4.4000000953674</ele>
        <time>2021-07-04T06:58:01.000Z</time>
      </trkpt>
      <trkpt lat="47.26219" lon="-2.31912">
        <ele>-4.8000001907349</ele>
        <time>2021-07-04T06:58:02.000Z</time>
      </trkpt>
      <trkpt lat="47.26217" lon="-2.31916">
        <ele>-5.1999998092651</ele>
        <time>2021-07-04T06:58:03.000Z</time>
      </trkpt>
      <trkpt lat="47.26216" lon="-2.31919">
        <ele>-5.5999999046326</ele>
        <time>2021-07-04T06:58:04.000Z</time>
      </trkpt>
      <trkpt lat="47.26214" lon="-2.3192">
        <ele>-6</ele>
        <time>2021-07-04T06:58:05.000Z</time>
      </trkpt>
      <trkpt lat="47.26213" lon="-2.3192">
        <ele>-6</ele>
        <time>2021-07-04T06:58:06.000Z</time>
      </trkpt>
      <trkpt lat="47.26203" lon="-2.31927">
        <ele>-6</ele>
        <time>2021-07-04T06:58:11.000Z</time>
      </trkpt>
      <trkpt lat="47.26186" lon="-2.31939">
        <ele>-6</ele>
        <time>2021-07-04T06:58:16.000Z</time>
      </trkpt>
      <trkpt lat="47.2617" lon="-2.31958">
        <ele>-6</ele>
        <time>2021-07-04T06:58:22.000Z</time>
      </trkpt>
      <trkpt lat="47.26162" lon="-2.31968">
        <ele>-6</ele>
        <time>2021-07-04T06:58:26.000Z</time>
      </trkpt>
      <trkpt lat="47.2616" lon="-2.31968">
        <ele>-6</ele>
        <time>2021-07-04T06:58:27.000Z</time>
      </trkpt>
      <trkpt lat="47.26153" lon="-2.31973">
        <ele>-6</ele>
        <time>2021-07-04T06:58:33.000Z</time>
      </trkpt>
      <trkpt lat="47.26139" lon="-2.31986">
        <ele>-6</ele>
        <time>2021-07-04T06:58:38.000Z</time>
      </trkpt>
      <trkpt lat="47.26125" lon="-2.32013">
        <ele>-6</ele>
        <time>2021-07-04T06:58:43.000Z</time>
      </trkpt>
      <trkpt lat="47.26111" lon="-2.32055">
        <ele>-6</ele>
        <time>2021-07-04T06:58:50.000Z</time>
      </trkpt>
      <trkpt lat="47.26097" lon="-2.32097">
        <ele>-6</ele>
        <time>2021-07-04T06:58:57.000Z</time>
      </trkpt>
      <trkpt lat="47.26092" lon="-2.32115">
        <ele>-6</ele>
        <time>2021-07-04T06:59:00.000Z</time>
      </trkpt>
      <trkpt lat="47.26084" lon="-2.32132">
        <ele>-6</ele>
        <time>2021-07-04T06:59:03.000Z</time>
      </trkpt>
      <trkpt lat="47.26065" lon="-2.32174">
        <ele>-6</ele>
        <time>2021-07-04T06:59:11.000Z</time>
      </trkpt>
      <trkpt lat="47.26056" lon="-2.32188">
        <ele>-6</ele>
        <time>2021-07-04T06:59:14.000Z</time>
      </trkpt>
      <trkpt lat="47.26048" lon="-2.32197">
        <ele>-6</ele>
        <time>2021-07-04T06:59:16.000Z</time>
      </trkpt>
      <trkpt lat="47.26024" lon="-2.32223">
        <ele>-6</ele>
        <time>2021-07-04T06:59:22.000Z</time>
      </trkpt>
      <trkpt lat="47.26016" lon="-2.3223">
        <ele>-6</ele>
        <time>2021-07-04T06:59:24.000Z</time>
      </trkpt>
      <trkpt lat="47.25986" lon="-2.32269">
        <ele>-6</ele>
        <time>2021-07-04T06:59:32.000Z</time>
      </trkpt>
      <trkpt lat="47.25963" lon="-2.323">
        <ele>-6</ele>
        <time>2021-07-04T06:59:39.000Z</time>
      </trkpt>
      <trkpt lat="47.25933" lon="-2.32338">
        <ele>-6</ele>
        <time>2021-07-04T06:59:48.000Z</time>
      </trkpt>
      <trkpt lat="47.25926" lon="-2.32368">
        <ele>-6</ele>
        <time>2021-07-04T06:59:56.000Z</time>
      </trkpt>
      <trkpt lat="47.25907" lon="-2.324">
        <ele>-6</ele>
        <time>2021-07-04T07:00:03.000Z</time>
      </trkpt>
      <trkpt lat="47.25905" lon="-2.32408">
        <ele>-6</ele>
        <time>2021-07-04T07:00:04.000Z</time>
      </trkpt>
      <trkpt lat="47.25885" lon="-2.32448">
        <ele>-6</ele>
        <time>2021-07-04T07:00:12.000Z</time>
      </trkpt>
      <trkpt lat="47.25865" lon="-2.3246">
        <ele>-6</ele>
        <time>2021-07-04T07:00:18.000Z</time>
      </trkpt>
      <trkpt lat="47.25845" lon="-2.32462">
        <ele>-6</ele>
        <time>2021-07-04T07:00:23.000Z</time>
      </trkpt>
      <trkpt lat="47.25837" lon="-2.32459">
        <ele>-6</ele>
        <time>2021-07-04T07:00:25.000Z</time>
      </trkpt>
      <trkpt lat="47.2582" lon="-2.32449">
        <ele>-6</ele>
        <time>2021-07-04T07:00:29.000Z</time>
      </trkpt>
      <trkpt lat="47.25816" lon="-2.32448">
        <ele>-6</ele>
        <time>2021-07-04T07:00:30.000Z</time>
      </trkpt>
      <trkpt lat="47.25799" lon="-2.32445">
        <ele>-6</ele>
        <time>2021-07-04T07:00:35.000Z</time>
      </trkpt>
      <trkpt lat="47.25783" lon="-2.32441">
        <ele>-6</ele>
        <time>2021-07-04T07:00:40.000Z</time>
      </trkpt>
      <trkpt lat="47.25775" lon="-2.32425">
        <ele>-6</ele>
        <time>2021-07-04T07:00:44.000Z</time>
      </trkpt>
      <trkpt lat="47.25765" lon="-2.32416">
        <ele>-6</ele>
        <time>2021-07-04T07:00:47.000Z</time>
      </trkpt>
      <trkpt lat="47.2576" lon="-2.32414">
        <ele>-6</ele>
        <time>2021-07-04T07:00:48.000Z</time>
      </trkpt>
      <trkpt lat="47.25746" lon="-2.32412">
        <ele>-6</ele>
        <time>2021-07-04T07:00:51.000Z</time>
      </trkpt>
      <trkpt lat="47.25732" lon="-2.32412">
        <ele>-6</ele>
        <time>2021-07-04T07:00:54.000Z</time>
      </trkpt>
      <trkpt lat="47.25701" lon="-2.32412">
        <ele>-6</ele>
        <time>2021-07-04T07:01:01.000Z</time>
      </trkpt>
      <trkpt lat="47.2567" lon="-2.32414">
        <ele>-6</ele>
        <time>2021-07-04T07:01:09.000Z</time>
      </trkpt>
      <trkpt lat="47.25667" lon="-2.32419">
        <ele>-6</ele>
        <time>2021-07-04T07:01:10.000Z</time>
      </trkpt>
      <trkpt lat="47.25663" lon="-2.32431">
        <ele>-6</ele>
        <time>2021-07-04T07:01:12.000Z</time>
      </trkpt>
      <trkpt lat="47.25661" lon="-2.32444">
        <ele>-6</ele>
        <time>2021-07-04T07:01:14.000Z</time>
      </trkpt>
      <trkpt lat="47.25662" lon="-2.32457">
        <ele>-6</ele>
        <time>2021-07-04T07:01:16.000Z</time>
      </trkpt>
      <trkpt lat="47.25665" lon="-2.32469">
        <ele>-6</ele>
        <time>2021-07-04T07:01:18.000Z</time>
      </trkpt>
      <trkpt lat="47.25673" lon="-2.32496">
        <ele>-6</ele>
        <time>2021-07-04T07:01:23.000Z</time>
      </trkpt>
      <trkpt lat="47.25684" lon="-2.32532">
        <ele>-6</ele>
        <time>2021-07-04T07:01:30.000Z</time>
      </trkpt>
      <trkpt lat="47.25695" lon="-2.32562">
        <ele>-6</ele>
        <time>2021-07-04T07:01:36.000Z</time>
      </trkpt>
      <trkpt lat="47.25705" lon="-2.32596">
        <ele>-5.4000000953674</ele>
        <time>2021-07-04T07:01:43.000Z</time>
      </trkpt>
      <trkpt lat="47.25706" lon="-2.32601">
        <ele>-5</ele>
        <time>2021-07-04T07:01:44.000Z</time>
      </trkpt>
      <trkpt lat="47.25707" lon="-2.32605">
        <ele>-4.5999999046326</ele>
        <time>2021-07-04T07:01:45.000Z</time>
      </trkpt>
      <trkpt lat="47.25708" lon="-2.32609">
        <ele>-4.1999998092651</ele>
        <time>2021-07-04T07:01:46.000Z</time>
      </trkpt>
      <trkpt lat="47.25709" lon="-2.32612">
        <ele>-3.7999999523163</ele>
        <time>2021-07-04T07:01:47.000Z</time>
      </trkpt>
      <trkpt lat="47.25711" lon="-2.32617">
        <ele>-3.7999999523163</ele>
        <time>2021-07-04T07:01:49.000Z</time>
      </trkpt>
      <trkpt lat="47.25711" lon="-2.32631">
        <ele>-3.7999999523163</ele>
        <time>2021-07-04T07:01:55.000Z</time>
      </trkpt>
      <trkpt lat="47.2571" lon="-2.32636">
        <ele>-3.7999999523163</ele>
        <time>2021-07-04T07:01:57.000Z</time>
      </trkpt>
      <trkpt lat="47.25708" lon="-2.32634">
        <ele>-3.7999999523163</ele>
        <time>2021-07-04T07:01:59.000Z</time>
      </trkpt>
      <trkpt lat="47.25699" lon="-2.32626">
        <ele>-3.7999999523163</ele>
        <time>2021-07-04T07:02:03.000Z</time>
      </trkpt>
      <trkpt lat="47.25685" lon="-2.32629">
        <ele>-3.7999999523163</ele>
        <time>2021-07-04T07:02:08.000Z</time>
      </trkpt>
      <trkpt lat="47.25679" lon="-2.32632">
        <ele>-3.7999999523163</ele>
        <time>2021-07-04T07:02:10.000Z</time>
      </trkpt>
      <trkpt lat="47.25665" lon="-2.32638">
        <ele>-3.7999999523163</ele>
        <time>2021-07-04T07:02:14.000Z</time>
      </trkpt>
      <trkpt lat="47.25662" lon="-2.3264">
        <ele>-3.2000000476837</ele>
        <time>2021-07-04T07:02:15.000Z</time>
      </trkpt>
      <trkpt lat="47.25658" lon="-2.32642">
        <ele>-2.7999999523163</ele>
        <time>2021-07-04T07:02:16.000Z</time>
      </trkpt>
      <trkpt lat="47.25655" lon="-2.32644">
        <ele>-2.2000000476837</ele>
        <time>2021-07-04T07:02:17.000Z</time>
      </trkpt>
      <trkpt lat="47.25652" lon="-2.32645">
        <ele>-1.7999999523163</ele>
        <time>2021-07-04T07:02:18.000Z</time>
      </trkpt>
      <trkpt lat="47.2565" lon="-2.32647">
        <ele>-1.3999999761581</ele>
        <time>2021-07-04T07:02:19.000Z</time>
      </trkpt>
      <trkpt lat="47.25644" lon="-2.32652">
        <ele>-1.3999999761581</ele>
        <time>2021-07-04T07:02:21.000Z</time>
      </trkpt>
      <trkpt lat="47.25624" lon="-2.3266">
        <ele>-1.3999999761581</ele>
        <time>2021-07-04T07:02:27.000Z</time>
      </trkpt>
      <trkpt lat="47.256" lon="-2.32673">
        <ele>-1.3999999761581</ele>
        <time>2021-07-04T07:02:34.000Z</time>
      </trkpt>
      <trkpt lat="47.2557" lon="-2.32687">
        <ele>-1.3999999761581</ele>
        <time>2021-07-04T07:02:42.000Z</time>
      </trkpt>
      <trkpt lat="47.25538" lon="-2.32698">
        <ele>-1.3999999761581</ele>
        <time>2021-07-04T07:02:50.000Z</time>
      </trkpt>
      <trkpt lat="47.25515" lon="-2.327">
        <ele>-1.3999999761581</ele>
        <time>2021-07-04T07:02:56.000Z</time>
      </trkpt>
      <trkpt lat="47.25502" lon="-2.327">
        <ele>-1.3999999761581</ele>
        <time>2021-07-04T07:02:59.000Z</time>
      </trkpt>
      <trkpt lat="47.25491" lon="-2.32705">
        <ele>-1.3999999761581</ele>
        <time>2021-07-04T07:03:02.000Z</time>
      </trkpt>
      <trkpt lat="47.25482" lon="-2.32716">
        <ele>-1.3999999761581</ele>
        <time>2021-07-04T07:03:05.000Z</time>
      </trkpt>
      <trkpt lat="47.25475" lon="-2.32724">
        <ele>-1.3999999761581</ele>
        <time>2021-07-04T07:03:07.000Z</time>
      </trkpt>
      <trkpt lat="47.25463" lon="-2.32742">
        <ele>-1.3999999761581</ele>
        <time>2021-07-04T07:03:11.000Z</time>
      </trkpt>
      <trkpt lat="47.25456" lon="-2.3275">
        <ele>-1.3999999761581</ele>
        <time>2021-07-04T07:03:13.000Z</time>
      </trkpt>
      <trkpt lat="47.25444" lon="-2.32768">
        <ele>-1.3999999761581</ele>
        <time>2021-07-04T07:03:17.000Z</time>
      </trkpt>
      <trkpt lat="47.2544" lon="-2.32779">
        <ele>-1.7999999523163</ele>
        <time>2021-07-04T07:03:19.000Z</time>
      </trkpt>
      <trkpt lat="47.25438" lon="-2.32784">
        <ele>-2.5999999046326</ele>
        <time>2021-07-04T07:03:20.000Z</time>
      </trkpt>
      <trkpt lat="47.25436" lon="-2.32788">
        <ele>-3</ele>
        <time>2021-07-04T07:03:21.000Z</time>
      </trkpt>
      <trkpt lat="47.25433" lon="-2.32792">
        <ele>-3.4000000953674</ele>
        <time>2021-07-04T07:03:22.000Z</time>
      </trkpt>
      <trkpt lat="47.25424" lon="-2.32804">
        <ele>-3.4000000953674</ele>
        <time>2021-07-04T07:03:25.000Z</time>
      </trkpt>
      <trkpt lat="47.25421" lon="-2.32809">
        <ele>-3.4000000953674</ele>
        <time>2021-07-04T07:03:26.000Z</time>
      </trkpt>
      <trkpt lat="47.25397" lon="-2.3284">
        <ele>-3.4000000953674</ele>
        <time>2021-07-04T07:03:33.000Z</time>
      </trkpt>
      <trkpt lat="47.2537" lon="-2.32869">
        <ele>-3.4000000953674</ele>
        <time>2021-07-04T07:03:41.000Z</time>
      </trkpt>
      <trkpt lat="47.25363" lon="-2.32875">
        <ele>-3.7999999523163</ele>
        <time>2021-07-04T07:03:43.000Z</time>
      </trkpt>
      <trkpt lat="47.2536" lon="-2.32878">
        <ele>-4.1999998092651</ele>
        <time>2021-07-04T07:03:44.000Z</time>
      </trkpt>
      <trkpt lat="47.25357" lon="-2.32881">
        <ele>-5.1999998092651</ele>
        <time>2021-07-04T07:03:45.000Z</time>
      </trkpt>
      <trkpt lat="47.25353" lon="-2.32885">
        <ele>-5.5999999046326</ele>
        <time>2021-07-04T07:03:46.000Z</time>
      </trkpt>
      <trkpt lat="47.25347" lon="-2.32891">
        <ele>-5.5999999046326</ele>
        <time>2021-07-04T07:03:48.000Z</time>
      </trkpt>
      <trkpt lat="47.2532" lon="-2.32917">
        <ele>-5.5999999046326</ele>
        <time>2021-07-04T07:03:56.000Z</time>
      </trkpt>
      <trkpt lat="47.25313" lon="-2.3293">
        <ele>-5.5999999046326</ele>
        <time>2021-07-04T07:03:59.000Z</time>
      </trkpt>
      <trkpt lat="47.25312" lon="-2.32936">
        <ele>-5.5999999046326</ele>
        <time>2021-07-04T07:04:00.000Z</time>
      </trkpt>
      <trkpt lat="47.25312" lon="-2.32965">
        <ele>-5.5999999046326</ele>
        <time>2021-07-04T07:04:05.000Z</time>
      </trkpt>
      <trkpt lat="47.25313" lon="-2.3297">
        <ele>-5.5999999046326</ele>
        <time>2021-07-04T07:04:06.000Z</time>
      </trkpt>
      <trkpt lat="47.25319" lon="-2.32987">
        <ele>-5.5999999046326</ele>
        <time>2021-07-04T07:04:09.000Z</time>
      </trkpt>
      <trkpt lat="47.25321" lon="-2.32992">
        <ele>-5.5999999046326</ele>
        <time>2021-07-04T07:04:10.000Z</time>
      </trkpt>
      <trkpt lat="47.25327" lon="-2.33009">
        <ele>-6</ele>
        <time>2021-07-04T07:04:13.000Z</time>
      </trkpt>
      <trkpt lat="47.25329" lon="-2.33015">
        <ele>-6.4000000953674</ele>
        <time>2021-07-04T07:04:14.000Z</time>
      </trkpt>
      <trkpt lat="47.25332" lon="-2.33021">
        <ele>-6.8000001907349</ele>
        <time>2021-07-04T07:04:15.000Z</time>
      </trkpt>
      <trkpt lat="47.25334" lon="-2.33027">
        <ele>-7.1999998092651</ele>
        <time>2021-07-04T07:04:16.000Z</time>
      </trkpt>
      <trkpt lat="47.25336" lon="-2.33033">
        <ele>-7.5999999046326</ele>
        <time>2021-07-04T07:04:17.000Z</time>
      </trkpt>
      <trkpt lat="47.25344" lon="-2.33049">
        <ele>-7.5999999046326</ele>
        <time>2021-07-04T07:04:20.000Z</time>
      </trkpt>
      <trkpt lat="47.25359" lon="-2.33084">
        <ele>-7.5999999046326</ele>
        <time>2021-07-04T07:04:27.000Z</time>
      </trkpt>
      <trkpt lat="47.2537" lon="-2.33108">
        <ele>-7.5999999046326</ele>
        <time>2021-07-04T07:04:33.000Z</time>
      </trkpt>
      <trkpt lat="47.2537" lon="-2.33109">
        <ele>-8</ele>
        <time>2021-07-04T07:04:35.000Z</time>
      </trkpt>
      <trkpt lat="47.2537" lon="-2.33109">
        <ele>-8.3999996185303</ele>
        <time>2021-07-04T07:04:36.000Z</time>
      </trkpt>
      <trkpt lat="47.25373" lon="-2.33118">
        <ele>-11.60000038147</ele>
        <time>2021-07-04T07:06:28.000Z</time>
      </trkpt>
      <trkpt lat="47.2538" lon="-2.33132">
        <ele>-11.60000038147</ele>
        <time>2021-07-04T07:06:33.000Z</time>
      </trkpt>
      <trkpt lat="47.25387" lon="-2.33136">
        <ele>-11.60000038147</ele>
        <time>2021-07-04T07:06:36.000Z</time>
      </trkpt>
      <trkpt lat="47.2539" lon="-2.33135">
        <ele>-11.60000038147</ele>
        <time>2021-07-04T07:06:37.000Z</time>
      </trkpt>
      <trkpt lat="47.25413" lon="-2.33122">
        <ele>-11.60000038147</ele>
        <time>2021-07-04T07:06:44.000Z</time>
      </trkpt>
      <trkpt lat="47.25441" lon="-2.3311">
        <ele>-11.60000038147</ele>
        <time>2021-07-04T07:06:51.000Z</time>
      </trkpt>
      <trkpt lat="47.25463" lon="-2.33101">
        <ele>-11.60000038147</ele>
        <time>2021-07-04T07:06:56.000Z</time>
      </trkpt>
      <trkpt lat="47.25468" lon="-2.33099">
        <ele>-11.60000038147</ele>
        <time>2021-07-04T07:06:57.000Z</time>
      </trkpt>
      <trkpt lat="47.25484" lon="-2.33086">
        <ele>-11.60000038147</ele>
        <time>2021-07-04T07:07:01.000Z</time>
      </trkpt>
      <trkpt lat="47.25488" lon="-2.33083">
        <ele>-11.60000038147</ele>
        <time>2021-07-04T07:07:02.000Z</time>
      </trkpt>
      <trkpt lat="47.25495" lon="-2.33075">
        <ele>-11.60000038147</ele>
        <time>2021-07-04T07:07:04.000Z</time>
      </trkpt>
      <trkpt lat="47.25499" lon="-2.33071">
        <ele>-12.199999809265</ele>
        <time>2021-07-04T07:07:05.000Z</time>
      </trkpt>
      <trkpt lat="47.25503" lon="-2.33066">
        <ele>-12.60000038147</ele>
        <time>2021-07-04T07:07:06.000Z</time>
      </trkpt>
      <trkpt lat="47.25506" lon="-2.33062">
        <ele>-13</ele>
        <time>2021-07-04T07:07:07.000Z</time>
      </trkpt>
      <trkpt lat="47.2551" lon="-2.33058">
        <ele>-13.39999961853</ele>
        <time>2021-07-04T07:07:08.000Z</time>
      </trkpt>
      <trkpt lat="47.25514" lon="-2.33054">
        <ele>-13.800000190735</ele>
        <time>2021-07-04T07:07:09.000Z</time>
      </trkpt>
      <trkpt lat="47.25525" lon="-2.33045">
        <ele>-13.800000190735</ele>
        <time>2021-07-04T07:07:12.000Z</time>
      </trkpt>
      <trkpt lat="47.25534" lon="-2.33042">
        <ele>-13.800000190735</ele>
        <time>2021-07-04T07:07:14.000Z</time>
      </trkpt>
      <trkpt lat="47.25576" lon="-2.33033">
        <ele>-13.800000190735</ele>
        <time>2021-07-04T07:07:23.000Z</time>
      </trkpt>
      <trkpt lat="47.25594" lon="-2.33031">
        <ele>-13.39999961853</ele>
        <time>2021-07-04T07:07:27.000Z</time>
      </trkpt>
      <trkpt lat="47.25598" lon="-2.3303">
        <ele>-13</ele>
        <time>2021-07-04T07:07:28.000Z</time>
      </trkpt>
      <trkpt lat="47.25603" lon="-2.33029">
        <ele>-12.60000038147</ele>
        <time>2021-07-04T07:07:29.000Z</time>
      </trkpt>
      <trkpt lat="47.25607" lon="-2.33028">
        <ele>-12.199999809265</ele>
        <time>2021-07-04T07:07:30.000Z</time>
      </trkpt>
      <trkpt lat="47.25611" lon="-2.33025">
        <ele>-11.800000190735</ele>
        <time>2021-07-04T07:07:31.000Z</time>
      </trkpt>
      <trkpt lat="47.2562" lon="-2.33009">
        <ele>-11.800000190735</ele>
        <time>2021-07-04T07:07:34.000Z</time>
      </trkpt>
      <trkpt lat="47.25621" lon="-2.3299">
        <ele>-11.800000190735</ele>
        <time>2021-07-04T07:07:37.000Z</time>
      </trkpt>
      <trkpt lat="47.25619" lon="-2.32977">
        <ele>-11.800000190735</ele>
        <time>2021-07-04T07:07:39.000Z</time>
      </trkpt>
      <trkpt lat="47.25612" lon="-2.3295">
        <ele>-11.800000190735</ele>
        <time>2021-07-04T07:07:43.000Z</time>
      </trkpt>
      <trkpt lat="47.25602" lon="-2.32895">
        <ele>-11.800000190735</ele>
        <time>2021-07-04T07:07:51.000Z</time>
      </trkpt>
      <trkpt lat="47.25595" lon="-2.32838">
        <ele>-11.800000190735</ele>
        <time>2021-07-04T07:07:59.000Z</time>
      </trkpt>
      <trkpt lat="47.25594" lon="-2.32824">
        <ele>-11.800000190735</ele>
        <time>2021-07-04T07:08:01.000Z</time>
      </trkpt>
      <trkpt lat="47.25596" lon="-2.32801">
        <ele>-11.800000190735</ele>
        <time>2021-07-04T07:08:04.000Z</time>
      </trkpt>
      <trkpt lat="47.25598" lon="-2.32794">
        <ele>-11.800000190735</ele>
        <time>2021-07-04T07:08:05.000Z</time>
      </trkpt>
      <trkpt lat="47.25601" lon="-2.32772">
        <ele>-11.800000190735</ele>
        <time>2021-07-04T07:08:08.000Z</time>
      </trkpt>
      <trkpt lat="47.25602" lon="-2.3275">
        <ele>-11.39999961853</ele>
        <time>2021-07-04T07:08:11.000Z</time>
      </trkpt>
      <trkpt lat="47.25602" lon="-2.32743">
        <ele>-11</ele>
        <time>2021-07-04T07:08:12.000Z</time>
      </trkpt>
      <trkpt lat="47.25603" lon="-2.32736">
        <ele>-10.60000038147</ele>
        <time>2021-07-04T07:08:13.000Z</time>
      </trkpt>
      <trkpt lat="47.25603" lon="-2.32729">
        <ele>-10.199999809265</ele>
        <time>2021-07-04T07:08:14.000Z</time>
      </trkpt>
      <trkpt lat="47.25604" lon="-2.32723">
        <ele>-9.8000001907349</ele>
        <time>2021-07-04T07:08:15.000Z</time>
      </trkpt>
      <trkpt lat="47.25604" lon="-2.3271">
        <ele>-9.8000001907349</ele>
        <time>2021-07-04T07:08:17.000Z</time>
      </trkpt>
      <trkpt lat="47.25604" lon="-2.3269">
        <ele>-9.8000001907349</ele>
        <time>2021-07-04T07:08:20.000Z</time>
      </trkpt>
      <trkpt lat="47.25606" lon="-2.32671">
        <ele>-9.8000001907349</ele>
        <time>2021-07-04T07:08:23.000Z</time>
      </trkpt>
      <trkpt lat="47.2561" lon="-2.32663">
        <ele>-9.8000001907349</ele>
        <time>2021-07-04T07:08:25.000Z</time>
      </trkpt>
      <trkpt lat="47.25621" lon="-2.32657">
        <ele>-9.8000001907349</ele>
        <time>2021-07-04T07:08:28.000Z</time>
      </trkpt>
      <trkpt lat="47.25625" lon="-2.32655">
        <ele>-9.8000001907349</ele>
        <time>2021-07-04T07:08:29.000Z</time>
      </trkpt>
      <trkpt lat="47.25654" lon="-2.32642">
        <ele>-9.8000001907349</ele>
        <time>2021-07-04T07:08:35.000Z</time>
      </trkpt>
      <trkpt lat="47.25664" lon="-2.32637">
        <ele>-10.199999809265</ele>
        <time>2021-07-04T07:08:37.000Z</time>
      </trkpt>
      <trkpt lat="47.2567" lon="-2.32635">
        <ele>-10.60000038147</ele>
        <time>2021-07-04T07:08:38.000Z</time>
      </trkpt>
      <trkpt lat="47.25675" lon="-2.32632">
        <ele>-11</ele>
        <time>2021-07-04T07:08:39.000Z</time>
      </trkpt>
      <trkpt lat="47.2568" lon="-2.3263">
        <ele>-11.39999961853</ele>
        <time>2021-07-04T07:08:40.000Z</time>
      </trkpt>
      <trkpt lat="47.25685" lon="-2.32628">
        <ele>-11.800000190735</ele>
        <time>2021-07-04T07:08:41.000Z</time>
      </trkpt>
      <trkpt lat="47.25694" lon="-2.32624">
        <ele>-11.800000190735</ele>
        <time>2021-07-04T07:08:43.000Z</time>
      </trkpt>
      <trkpt lat="47.25706" lon="-2.32613">
        <ele>-12.199999809265</ele>
        <time>2021-07-04T07:08:47.000Z</time>
      </trkpt>
      <trkpt lat="47.25708" lon="-2.32607">
        <ele>-12.60000038147</ele>
        <time>2021-07-04T07:08:48.000Z</time>
      </trkpt>
      <trkpt lat="47.25708" lon="-2.32602">
        <ele>-13</ele>
        <time>2021-07-04T07:08:49.000Z</time>
      </trkpt>
      <trkpt lat="47.25708" lon="-2.32595">
        <ele>-13.60000038147</ele>
        <time>2021-07-04T07:08:50.000Z</time>
      </trkpt>
      <trkpt lat="47.25708" lon="-2.32589">
        <ele>-14</ele>
        <time>2021-07-04T07:08:51.000Z</time>
      </trkpt>
      <trkpt lat="47.25702" lon="-2.32561">
        <ele>-14</ele>
        <time>2021-07-04T07:08:55.000Z</time>
      </trkpt>
      <trkpt lat="47.25699" lon="-2.32554">
        <ele>-14</ele>
        <time>2021-07-04T07:08:56.000Z</time>
      </trkpt>
      <trkpt lat="47.2568" lon="-2.325">
        <ele>-14</ele>
        <time>2021-07-04T07:09:03.000Z</time>
      </trkpt>
      <trkpt lat="47.25678" lon="-2.32492">
        <ele>-14.39999961853</ele>
        <time>2021-07-04T07:09:04.000Z</time>
      </trkpt>
      <trkpt lat="47.25675" lon="-2.32484">
        <ele>-14.800000190735</ele>
        <time>2021-07-04T07:09:05.000Z</time>
      </trkpt>
      <trkpt lat="47.25673" lon="-2.32476">
        <ele>-15.60000038147</ele>
        <time>2021-07-04T07:09:06.000Z</time>
      </trkpt>
      <trkpt lat="47.2567" lon="-2.32468">
        <ele>-16</ele>
        <time>2021-07-04T07:09:07.000Z</time>
      </trkpt>
      <trkpt lat="47.25662" lon="-2.32447">
        <ele>-16</ele>
        <time>2021-07-04T07:09:10.000Z</time>
      </trkpt>
      <trkpt lat="47.25659" lon="-2.32427">
        <ele>-16.39999961853</ele>
        <time>2021-07-04T07:09:13.000Z</time>
      </trkpt>
      <trkpt lat="47.25658" lon="-2.3242">
        <ele>-16.799999237061</ele>
        <time>2021-07-04T07:09:14.000Z</time>
      </trkpt>
      <trkpt lat="47.25656" lon="-2.32414">
        <ele>-17.200000762939</ele>
        <time>2021-07-04T07:09:15.000Z</time>
      </trkpt>
      <trkpt lat="47.25655" lon="-2.32409">
        <ele>-17.60000038147</ele>
        <time>2021-07-04T07:09:16.000Z</time>
      </trkpt>
      <trkpt lat="47.25654" lon="-2.32404">
        <ele>-18</ele>
        <time>2021-07-04T07:09:17.000Z</time>
      </trkpt>
      <trkpt lat="47.25656" lon="-2.32402">
        <ele>-18</ele>
        <time>2021-07-04T07:09:18.000Z</time>
      </trkpt>
      <trkpt lat="47.25658" lon="-2.32403">
        <ele>-18</ele>
        <time>2021-07-04T07:09:19.000Z</time>
      </trkpt>
      <trkpt lat="47.25669" lon="-2.32414">
        <ele>-18</ele>
        <time>2021-07-04T07:09:22.000Z</time>
      </trkpt>
      <trkpt lat="47.25672" lon="-2.32417">
        <ele>-18</ele>
        <time>2021-07-04T07:09:23.000Z</time>
      </trkpt>
      <trkpt lat="47.25687" lon="-2.32421">
        <ele>-18</ele>
        <time>2021-07-04T07:09:26.000Z</time>
      </trkpt>
      <trkpt lat="47.25692" lon="-2.32421">
        <ele>-18.60000038147</ele>
        <time>2021-07-04T07:09:27.000Z</time>
      </trkpt>
      <trkpt lat="47.25698" lon="-2.32421">
        <ele>-19</ele>
        <time>2021-07-04T07:09:28.000Z</time>
      </trkpt>
      <trkpt lat="47.25703" lon="-2.32422">
        <ele>-19.39999961853</ele>
        <time>2021-07-04T07:09:29.000Z</time>
      </trkpt>
      <trkpt lat="47.25708" lon="-2.32422">
        <ele>-20.200000762939</ele>
        <time>2021-07-04T07:09:30.000Z</time>
      </trkpt>
      <trkpt lat="47.25719" lon="-2.32422">
        <ele>-20.200000762939</ele>
        <time>2021-07-04T07:09:32.000Z</time>
      </trkpt>
      <trkpt lat="47.25755" lon="-2.32421">
        <ele>-20.200000762939</ele>
        <time>2021-07-04T07:09:39.000Z</time>
      </trkpt>
      <trkpt lat="47.2576" lon="-2.32419">
        <ele>-20.200000762939</ele>
        <time>2021-07-04T07:09:40.000Z</time>
      </trkpt>
      <trkpt lat="47.25773" lon="-2.32412">
        <ele>-20.200000762939</ele>
        <time>2021-07-04T07:09:43.000Z</time>
      </trkpt>
      <trkpt lat="47.25782" lon="-2.3242">
        <ele>-20.200000762939</ele>
        <time>2021-07-04T07:09:46.000Z</time>
      </trkpt>
      <trkpt lat="47.25791" lon="-2.32436">
        <ele>-20.200000762939</ele>
        <time>2021-07-04T07:09:49.000Z</time>
      </trkpt>
      <trkpt lat="47.25794" lon="-2.32441">
        <ele>-20.200000762939</ele>
        <time>2021-07-04T07:09:50.000Z</time>
      </trkpt>
      <trkpt lat="47.25798" lon="-2.32445">
        <ele>-20.200000762939</ele>
        <time>2021-07-04T07:09:51.000Z</time>
      </trkpt>
      <trkpt lat="47.25816" lon="-2.32459">
        <ele>-20.200000762939</ele>
        <time>2021-07-04T07:09:55.000Z</time>
      </trkpt>
      <trkpt lat="47.25821" lon="-2.32463">
        <ele>-20.200000762939</ele>
        <time>2021-07-04T07:09:56.000Z</time>
      </trkpt>
      <trkpt lat="47.25837" lon="-2.32471">
        <ele>-20.200000762939</ele>
        <time>2021-07-04T07:09:59.000Z</time>
      </trkpt>
      <trkpt lat="47.25852" lon="-2.32474">
        <ele>-20.200000762939</ele>
        <time>2021-07-04T07:10:02.000Z</time>
      </trkpt>
      <trkpt lat="47.25868" lon="-2.32472">
        <ele>-20.200000762939</ele>
        <time>2021-07-04T07:10:05.000Z</time>
      </trkpt>
      <trkpt lat="47.25877" lon="-2.3247">
        <ele>-20.200000762939</ele>
        <time>2021-07-04T07:10:07.000Z</time>
      </trkpt>
      <trkpt lat="47.25886" lon="-2.32466">
        <ele>-20.200000762939</ele>
        <time>2021-07-04T07:10:09.000Z</time>
      </trkpt>
      <trkpt lat="47.25895" lon="-2.32458">
        <ele>-20.200000762939</ele>
        <time>2021-07-04T07:10:11.000Z</time>
      </trkpt>
      <trkpt lat="47.25909" lon="-2.32444">
        <ele>-20.200000762939</ele>
        <time>2021-07-04T07:10:14.000Z</time>
      </trkpt>
      <trkpt lat="47.25919" lon="-2.32435">
        <ele>-20.200000762939</ele>
        <time>2021-07-04T07:10:16.000Z</time>
      </trkpt>
      <trkpt lat="47.25924" lon="-2.3243">
        <ele>-20.200000762939</ele>
        <time>2021-07-04T07:10:17.000Z</time>
      </trkpt>
      <trkpt lat="47.25949" lon="-2.32397">
        <ele>-20.200000762939</ele>
        <time>2021-07-04T07:10:23.000Z</time>
      </trkpt>
      <trkpt lat="47.25979" lon="-2.32357">
        <ele>-20.200000762939</ele>
        <time>2021-07-04T07:10:31.000Z</time>
      </trkpt>
      <trkpt lat="47.26004" lon="-2.32323">
        <ele>-20.200000762939</ele>
        <time>2021-07-04T07:10:38.000Z</time>
      </trkpt>
      <trkpt lat="47.26014" lon="-2.32309">
        <ele>-20.60000038147</ele>
        <time>2021-07-04T07:10:41.000Z</time>
      </trkpt>
      <trkpt lat="47.26018" lon="-2.32304">
        <ele>-21</ele>
        <time>2021-07-04T07:10:42.000Z</time>
      </trkpt>
      <trkpt lat="47.26022" lon="-2.32299">
        <ele>-21.39999961853</ele>
        <time>2021-07-04T07:10:43.000Z</time>
      </trkpt>
      <trkpt lat="47.26026" lon="-2.32294">
        <ele>-22.200000762939</ele>
        <time>2021-07-04T07:10:44.000Z</time>
      </trkpt>
      <trkpt lat="47.2603" lon="-2.32289">
        <ele>-22.200000762939</ele>
        <time>2021-07-04T07:10:45.000Z</time>
      </trkpt>
      <trkpt lat="47.26055" lon="-2.32259">
        <ele>-22.200000762939</ele>
        <time>2021-07-04T07:10:52.000Z</time>
      </trkpt>
      <trkpt lat="47.26062" lon="-2.32252">
        <ele>-22.200000762939</ele>
        <time>2021-07-04T07:10:54.000Z</time>
      </trkpt>
      <trkpt lat="47.26072" lon="-2.32238">
        <ele>-22.200000762939</ele>
        <time>2021-07-04T07:10:57.000Z</time>
      </trkpt>
      <trkpt lat="47.26092" lon="-2.32204">
        <ele>-22.200000762939</ele>
        <time>2021-07-04T07:11:03.000Z</time>
      </trkpt>
      <trkpt lat="47.26113" lon="-2.32163">
        <ele>-22.200000762939</ele>
        <time>2021-07-04T07:11:09.000Z</time>
      </trkpt>
      <trkpt lat="47.26133" lon="-2.32111">
        <ele>-22.200000762939</ele>
        <time>2021-07-04T07:11:16.000Z</time>
      </trkpt>
      <trkpt lat="47.26151" lon="-2.32053">
        <ele>-22.200000762939</ele>
        <time>2021-07-04T07:11:24.000Z</time>
      </trkpt>
      <trkpt lat="47.2616" lon="-2.32005">
        <ele>-22.200000762939</ele>
        <time>2021-07-04T07:11:30.000Z</time>
      </trkpt>
      <trkpt lat="47.2616" lon="-2.31997">
        <ele>-22.200000762939</ele>
        <time>2021-07-04T07:11:31.000Z</time>
      </trkpt>
      <trkpt lat="47.26161" lon="-2.31958">
        <ele>-22.200000762939</ele>
        <time>2021-07-04T07:11:36.000Z</time>
      </trkpt>
      <trkpt lat="47.26158" lon="-2.31941">
        <ele>-22.200000762939</ele>
        <time>2021-07-04T07:11:38.000Z</time>
      </trkpt>
      <trkpt lat="47.26151" lon="-2.31885">
        <ele>-22.200000762939</ele>
        <time>2021-07-04T07:11:45.000Z</time>
      </trkpt>
      <trkpt lat="47.26142" lon="-2.31837">
        <ele>-22.200000762939</ele>
        <time>2021-07-04T07:11:51.000Z</time>
      </trkpt>
      <trkpt lat="47.26133" lon="-2.3178">
        <ele>-22.200000762939</ele>
        <time>2021-07-04T07:11:57.000Z</time>
      </trkpt>
      <trkpt lat="47.26128" lon="-2.31717">
        <ele>-22.200000762939</ele>
        <time>2021-07-04T07:12:04.000Z</time>
      </trkpt>
      <trkpt lat="47.26119" lon="-2.31668">
        <ele>-22.200000762939</ele>
        <time>2021-07-04T07:12:10.000Z</time>
      </trkpt>
      <trkpt lat="47.26114" lon="-2.31624">
        <ele>-22.200000762939</ele>
        <time>2021-07-04T07:12:16.000Z</time>
      </trkpt>
      <trkpt lat="47.26125" lon="-2.31613">
        <ele>-22.200000762939</ele>
        <time>2021-07-04T07:12:19.000Z</time>
      </trkpt>
      <trkpt lat="47.26136" lon="-2.31614">
        <ele>-22.200000762939</ele>
        <time>2021-07-04T07:12:21.000Z</time>
      </trkpt>
      <trkpt lat="47.26141" lon="-2.31613">
        <ele>-22.200000762939</ele>
        <time>2021-07-04T07:12:22.000Z</time>
      </trkpt>
      <trkpt lat="47.26146" lon="-2.31612">
        <ele>-22.200000762939</ele>
        <time>2021-07-04T07:12:23.000Z</time>
      </trkpt>
      <trkpt lat="47.2618" lon="-2.31598">
        <ele>-22.200000762939</ele>
        <time>2021-07-04T07:12:29.000Z</time>
      </trkpt>
      <trkpt lat="47.26208" lon="-2.3159">
        <ele>-22.200000762939</ele>
        <time>2021-07-04T07:12:34.000Z</time>
      </trkpt>
      <trkpt lat="47.26214" lon="-2.3159">
        <ele>-22.200000762939</ele>
        <time>2021-07-04T07:12:35.000Z</time>
      </trkpt>
      <trkpt lat="47.26235" lon="-2.31599">
        <ele>-22.200000762939</ele>
        <time>2021-07-04T07:12:39.000Z</time>
      </trkpt>
      <trkpt lat="47.26239" lon="-2.31602">
        <ele>-22.200000762939</ele>
        <time>2021-07-04T07:12:40.000Z</time>
      </trkpt>
      <trkpt lat="47.26244" lon="-2.31607">
        <ele>-22.200000762939</ele>
        <time>2021-07-04T07:12:41.000Z</time>
      </trkpt>
      <trkpt lat="47.26258" lon="-2.31629">
        <ele>-22.200000762939</ele>
        <time>2021-07-04T07:12:45.000Z</time>
      </trkpt>
      <trkpt lat="47.26261" lon="-2.31635">
        <ele>-22.200000762939</ele>
        <time>2021-07-04T07:12:46.000Z</time>
      </trkpt>
      <trkpt lat="47.26271" lon="-2.3166">
        <ele>-22.200000762939</ele>
        <time>2021-07-04T07:12:50.000Z</time>
      </trkpt>
      <trkpt lat="47.26289" lon="-2.31698">
        <ele>-22.200000762939</ele>
        <time>2021-07-04T07:12:56.000Z</time>
      </trkpt>
      <trkpt lat="47.26298" lon="-2.31726">
        <ele>-22.200000762939</ele>
        <time>2021-07-04T07:13:01.000Z</time>
      </trkpt>
      <trkpt lat="47.26303" lon="-2.31755">
        <ele>-22.200000762939</ele>
        <time>2021-07-04T07:13:06.000Z</time>
      </trkpt>
      <trkpt lat="47.26306" lon="-2.31768">
        <ele>-22.200000762939</ele>
        <time>2021-07-04T07:13:08.000Z</time>
      </trkpt>
      <trkpt lat="47.26307" lon="-2.31815">
        <ele>-22.200000762939</ele>
        <time>2021-07-04T07:13:14.000Z</time>
      </trkpt>
      <trkpt lat="47.26303" lon="-2.31865">
        <ele>-22.200000762939</ele>
        <time>2021-07-04T07:13:20.000Z</time>
      </trkpt>
      <trkpt lat="47.26303" lon="-2.31872">
        <ele>-22.200000762939</ele>
        <time>2021-07-04T07:13:21.000Z</time>
      </trkpt>
      <trkpt lat="47.26303" lon="-2.31886">
        <ele>-22.60000038147</ele>
        <time>2021-07-04T07:13:23.000Z</time>
      </trkpt>
      <trkpt lat="47.26304" lon="-2.31892">
        <ele>-23</ele>
        <time>2021-07-04T07:13:24.000Z</time>
      </trkpt>
      <trkpt lat="47.26304" lon="-2.31898">
        <ele>-23.39999961853</ele>
        <time>2021-07-04T07:13:25.000Z</time>
      </trkpt>
      <trkpt lat="47.26304" lon="-2.31903">
        <ele>-23.799999237061</ele>
        <time>2021-07-04T07:13:26.000Z</time>
      </trkpt>
      <trkpt lat="47.26305" lon="-2.31909">
        <ele>-24.200000762939</ele>
        <time>2021-07-04T07:13:27.000Z</time>
      </trkpt>
      <trkpt lat="47.26308" lon="-2.31919">
        <ele>-24.200000762939</ele>
        <time>2021-07-04T07:13:29.000Z</time>
      </trkpt>
      <trkpt lat="47.26313" lon="-2.31922">
        <ele>-24.200000762939</ele>
        <time>2021-07-04T07:13:31.000Z</time>
      </trkpt>
      <trkpt lat="47.26318" lon="-2.31922">
        <ele>-24.200000762939</ele>
        <time>2021-07-04T07:13:33.000Z</time>
      </trkpt>
      <trkpt lat="47.26329" lon="-2.31921">
        <ele>-24.200000762939</ele>
        <time>2021-07-04T07:13:37.000Z</time>
      </trkpt>
      <trkpt lat="47.2634" lon="-2.31934">
        <ele>-24.200000762939</ele>
        <time>2021-07-04T07:13:41.000Z</time>
      </trkpt>
      <trkpt lat="47.26352" lon="-2.31964">
        <ele>-24.200000762939</ele>
        <time>2021-07-04T07:13:47.000Z</time>
      </trkpt>
      <trkpt lat="47.26356" lon="-2.3197">
        <ele>-24.200000762939</ele>
        <time>2021-07-04T07:13:49.000Z</time>
      </trkpt>
      <trkpt lat="47.26361" lon="-2.31973">
        <ele>-23.799999237061</ele>
        <time>2021-07-04T07:13:51.000Z</time>
      </trkpt>
      <trkpt lat="47.26364" lon="-2.31974">
        <ele>-23.39999961853</ele>
        <time>2021-07-04T07:13:52.000Z</time>
      </trkpt>
      <trkpt lat="47.26368" lon="-2.31975">
        <ele>-23</ele>
        <time>2021-07-04T07:13:53.000Z</time>
      </trkpt>
      <trkpt lat="47.26373" lon="-2.31978">
        <ele>-22.60000038147</ele>
        <time>2021-07-04T07:13:54.000Z</time>
      </trkpt>
      <trkpt lat="47.26378" lon="-2.31981">
        <ele>-22.200000762939</ele>
        <time>2021-07-04T07:13:55.000Z</time>
      </trkpt>
      <trkpt lat="47.26387" lon="-2.31984">
        <ele>-22.200000762939</ele>
        <time>2021-07-04T07:13:57.000Z</time>
      </trkpt>
      <trkpt lat="47.26401" lon="-2.31989">
        <ele>-21.799999237061</ele>
        <time>2021-07-04T07:14:01.000Z</time>
      </trkpt>
      <trkpt lat="47.26406" lon="-2.3199">
        <ele>-21</ele>
        <time>2021-07-04T07:14:02.000Z</time>
      </trkpt>
      <trkpt lat="47.2641" lon="-2.31992">
        <ele>-20.39999961853</ele>
        <time>2021-07-04T07:14:03.000Z</time>
      </trkpt>
      <trkpt lat="47.26413" lon="-2.31994">
        <ele>-20</ele>
        <time>2021-07-04T07:14:04.000Z</time>
      </trkpt>
      <trkpt lat="47.26437" lon="-2.31997">
        <ele>-19.60000038147</ele>
        <time>2021-07-04T07:14:11.000Z</time>
      </trkpt>
      <trkpt lat="47.2644" lon="-2.31997">
        <ele>-19.200000762939</ele>
        <time>2021-07-04T07:14:12.000Z</time>
      </trkpt>
      <trkpt lat="47.26443" lon="-2.31997">
        <ele>-18.60000038147</ele>
        <time>2021-07-04T07:14:13.000Z</time>
      </trkpt>
      <trkpt lat="47.26446" lon="-2.31998">
        <ele>-18.200000762939</ele>
        <time>2021-07-04T07:14:14.000Z</time>
      </trkpt>
      <trkpt lat="47.2645" lon="-2.31998">
        <ele>-17.799999237061</ele>
        <time>2021-07-04T07:14:15.000Z</time>
      </trkpt>
      <trkpt lat="47.26464" lon="-2.31998">
        <ele>-17.799999237061</ele>
        <time>2021-07-04T07:14:18.000Z</time>
      </trkpt>
      <trkpt lat="47.26479" lon="-2.31996">
        <ele>-17.39999961853</ele>
        <time>2021-07-04T07:14:22.000Z</time>
      </trkpt>
      <trkpt lat="47.26482" lon="-2.31996">
        <ele>-17</ele>
        <time>2021-07-04T07:14:23.000Z</time>
      </trkpt>
      <trkpt lat="47.26485" lon="-2.31996">
        <ele>-16.60000038147</ele>
        <time>2021-07-04T07:14:24.000Z</time>
      </trkpt>
      <trkpt lat="47.26488" lon="-2.31997">
        <ele>-16.200000762939</ele>
        <time>2021-07-04T07:14:25.000Z</time>
      </trkpt>
      <trkpt lat="47.26491" lon="-2.31997">
        <ele>-15.800000190735</ele>
        <time>2021-07-04T07:14:26.000Z</time>
      </trkpt>
      <trkpt lat="47.26507" lon="-2.31996">
        <ele>-15.199999809265</ele>
        <time>2021-07-04T07:14:31.000Z</time>
      </trkpt>
      <trkpt lat="47.26509" lon="-2.31996">
        <ele>-14.800000190735</ele>
        <time>2021-07-04T07:14:32.000Z</time>
      </trkpt>
      <trkpt lat="47.26512" lon="-2.31996">
        <ele>-14.39999961853</ele>
        <time>2021-07-04T07:14:33.000Z</time>
      </trkpt>
      <trkpt lat="47.26513" lon="-2.31996">
        <ele>-13.800000190735</ele>
        <time>2021-07-04T07:14:34.000Z</time>
      </trkpt>
      <trkpt lat="47.26515" lon="-2.31998">
        <ele>-13.39999961853</ele>
        <time>2021-07-04T07:14:35.000Z</time>
      </trkpt>
      <trkpt lat="47.26518" lon="-2.32001">
        <ele>-13.39999961853</ele>
        <time>2021-07-04T07:14:37.000Z</time>
      </trkpt>
      <trkpt lat="47.26531" lon="-2.32013">
        <ele>-13.39999961853</ele>
        <time>2021-07-04T07:14:43.000Z</time>
      </trkpt>
      <trkpt lat="47.26541" lon="-2.32029">
        <ele>-13</ele>
        <time>2021-07-04T07:14:49.000Z</time>
      </trkpt>
      <trkpt lat="47.26543" lon="-2.32032">
        <ele>-12.60000038147</ele>
        <time>2021-07-04T07:14:50.000Z</time>
      </trkpt>
      <trkpt lat="47.26545" lon="-2.32032">
        <ele>-11.800000190735</ele>
        <time>2021-07-04T07:14:51.000Z</time>
      </trkpt>
      <trkpt lat="47.26548" lon="-2.32031">
        <ele>-11.39999961853</ele>
        <time>2021-07-04T07:14:52.000Z</time>
      </trkpt>
      <trkpt lat="47.26551" lon="-2.32031">
        <ele>-11.39999961853</ele>
        <time>2021-07-04T07:14:53.000Z</time>
      </trkpt>
      <trkpt lat="47.26574" lon="-2.32027">
        <ele>-11.39999961853</ele>
        <time>2021-07-04T07:14:59.000Z</time>
      </trkpt>
      <trkpt lat="47.2659" lon="-2.3202">
        <ele>-10.800000190735</ele>
        <time>2021-07-04T07:15:04.000Z</time>
      </trkpt>
      <trkpt lat="47.26593" lon="-2.32019">
        <ele>-10.39999961853</ele>
        <time>2021-07-04T07:15:05.000Z</time>
      </trkpt>
      <trkpt lat="47.26597" lon="-2.32018">
        <ele>-10</ele>
        <time>2021-07-04T07:15:06.000Z</time>
      </trkpt>
      <trkpt lat="47.266" lon="-2.32018">
        <ele>-9.6000003814697</ele>
        <time>2021-07-04T07:15:07.000Z</time>
      </trkpt>
      <trkpt lat="47.26603" lon="-2.32016">
        <ele>-9.1999998092651</ele>
        <time>2021-07-04T07:15:08.000Z</time>
      </trkpt>
      <trkpt lat="47.26612" lon="-2.32014">
        <ele>-9.1999998092651</ele>
        <time>2021-07-04T07:15:11.000Z</time>
      </trkpt>
      <trkpt lat="47.26629" lon="-2.32006">
        <ele>-9.1999998092651</ele>
        <time>2021-07-04T07:15:17.000Z</time>
      </trkpt>
      <trkpt lat="47.26637" lon="-2.32002">
        <ele>-9.1999998092651</ele>
        <time>2021-07-04T07:15:22.000Z</time>
      </trkpt>
      <trkpt lat="47.26637" lon="-2.32002">
        <ele>-9.1999998092651</ele>
        <time>2021-07-04T07:15:24.000Z</time>
      </trkpt>
      <trkpt lat="47.26639" lon="-2.32005">
        <ele>-9.1999998092651</ele>
        <time>2021-07-04T07:15:36.000Z</time>
      </trkpt>
      <trkpt lat="47.26641" lon="-2.32007">
        <ele>-9.1999998092651</ele>
        <time>2021-07-04T07:15:37.000Z</time>
      </trkpt>
      <trkpt lat="47.26648" lon="-2.32026">
        <ele>-9.1999998092651</ele>
        <time>2021-07-04T07:15:41.000Z</time>
      </trkpt>
      <trkpt lat="47.26661" lon="-2.32073">
        <ele>-9.1999998092651</ele>
        <time>2021-07-04T07:15:49.000Z</time>
      </trkpt>
      <trkpt lat="47.26672" lon="-2.32119">
        <ele>-9.1999998092651</ele>
        <time>2021-07-04T07:15:57.000Z</time>
      </trkpt>
      <trkpt lat="47.26675" lon="-2.32122">
        <ele>-9.1999998092651</ele>
        <time>2021-07-04T07:15:59.000Z</time>
      </trkpt>
      <trkpt lat="47.26678" lon="-2.3212">
        <ele>-9.1999998092651</ele>
        <time>2021-07-04T07:16:00.000Z</time>
      </trkpt>
      <trkpt lat="47.26681" lon="-2.32107">
        <ele>-9.1999998092651</ele>
        <time>2021-07-04T07:16:03.000Z</time>
      </trkpt>
      <trkpt lat="47.26682" lon="-2.32102">
        <ele>-9.1999998092651</ele>
        <time>2021-07-04T07:16:04.000Z</time>
      </trkpt>
      <trkpt lat="47.26683" lon="-2.32066">
        <ele>-9.1999998092651</ele>
        <time>2021-07-04T07:16:10.000Z</time>
      </trkpt>
      <trkpt lat="47.26685" lon="-2.32034">
        <ele>-9.1999998092651</ele>
        <time>2021-07-04T07:16:17.000Z</time>
      </trkpt>
      <trkpt lat="47.26692" lon="-2.32016">
        <ele>-9.1999998092651</ele>
        <time>2021-07-04T07:16:22.000Z</time>
      </trkpt>
      <trkpt lat="47.26704" lon="-2.32001">
        <ele>-9.1999998092651</ele>
        <time>2021-07-04T07:16:26.000Z</time>
      </trkpt>
      <trkpt lat="47.26724" lon="-2.31984">
        <ele>-9.6000003814697</ele>
        <time>2021-07-04T07:16:31.000Z</time>
      </trkpt>
      <trkpt lat="47.2673" lon="-2.3198">
        <ele>-10</ele>
        <time>2021-07-04T07:16:32.000Z</time>
      </trkpt>
      <trkpt lat="47.26736" lon="-2.31976">
        <ele>-10.39999961853</ele>
        <time>2021-07-04T07:16:33.000Z</time>
      </trkpt>
      <trkpt lat="47.2674" lon="-2.31973">
        <ele>-10.800000190735</ele>
        <time>2021-07-04T07:16:34.000Z</time>
      </trkpt>
      <trkpt lat="47.26745" lon="-2.31968">
        <ele>-11.199999809265</ele>
        <time>2021-07-04T07:16:35.000Z</time>
      </trkpt>
      <trkpt lat="47.26748" lon="-2.31962">
        <ele>-11.199999809265</ele>
        <time>2021-07-04T07:16:36.000Z</time>
      </trkpt>
      <trkpt lat="47.26761" lon="-2.3195">
        <ele>-11.199999809265</ele>
        <time>2021-07-04T07:16:40.000Z</time>
      </trkpt>
      <trkpt lat="47.26773" lon="-2.31967">
        <ele>-11.60000038147</ele>
        <time>2021-07-04T07:16:43.000Z</time>
      </trkpt>
      <trkpt lat="47.26777" lon="-2.31974">
        <ele>-12</ele>
        <time>2021-07-04T07:16:44.000Z</time>
      </trkpt>
      <trkpt lat="47.26781" lon="-2.31981">
        <ele>-12.60000038147</ele>
        <time>2021-07-04T07:16:45.000Z</time>
      </trkpt>
      <trkpt lat="47.26786" lon="-2.31988">
        <ele>-13</ele>
        <time>2021-07-04T07:16:46.000Z</time>
      </trkpt>
      <trkpt lat="47.2679" lon="-2.31995">
        <ele>-13.39999961853</ele>
        <time>2021-07-04T07:16:47.000Z</time>
      </trkpt>
      <trkpt lat="47.26794" lon="-2.32003">
        <ele>-13.39999961853</ele>
        <time>2021-07-04T07:16:48.000Z</time>
      </trkpt>
      <trkpt lat="47.26813" lon="-2.32051">
        <ele>-13.39999961853</ele>
        <time>2021-07-04T07:16:53.000Z</time>
      </trkpt>
      <trkpt lat="47.26821" lon="-2.32082">
        <ele>-13.800000190735</ele>
        <time>2021-07-04T07:16:56.000Z</time>
      </trkpt>
      <trkpt lat="47.26824" lon="-2.32091">
        <ele>-14.199999809265</ele>
        <time>2021-07-04T07:16:57.000Z</time>
      </trkpt>
      <trkpt lat="47.26827" lon="-2.32101">
        <ele>-14.800000190735</ele>
        <time>2021-07-04T07:16:58.000Z</time>
      </trkpt>
      <trkpt lat="47.2683" lon="-2.32109">
        <ele>-15.199999809265</ele>
        <time>2021-07-04T07:16:59.000Z</time>
      </trkpt>
      <trkpt lat="47.26832" lon="-2.32118">
        <ele>-15.60000038147</ele>
        <time>2021-07-04T07:17:00.000Z</time>
      </trkpt>
      <trkpt lat="47.26849" lon="-2.32175">
        <ele>-15.60000038147</ele>
        <time>2021-07-04T07:17:06.000Z</time>
      </trkpt>
      <trkpt lat="47.26863" lon="-2.32209">
        <ele>-16.200000762939</ele>
        <time>2021-07-04T07:17:10.000Z</time>
      </trkpt>
      <trkpt lat="47.26867" lon="-2.32218">
        <ele>-16.60000038147</ele>
        <time>2021-07-04T07:17:11.000Z</time>
      </trkpt>
      <trkpt lat="47.26872" lon="-2.32227">
        <ele>-17</ele>
        <time>2021-07-04T07:17:12.000Z</time>
      </trkpt>
      <trkpt lat="47.26876" lon="-2.32236">
        <ele>-17.39999961853</ele>
        <time>2021-07-04T07:17:13.000Z</time>
      </trkpt>
      <trkpt lat="47.26882" lon="-2.32244">
        <ele>-17.799999237061</ele>
        <time>2021-07-04T07:17:14.000Z</time>
      </trkpt>
      <trkpt lat="47.26903" lon="-2.3228">
        <ele>-17.799999237061</ele>
        <time>2021-07-04T07:17:18.000Z</time>
      </trkpt>
      <trkpt lat="47.26908" lon="-2.32291">
        <ele>-18.39999961853</ele>
        <time>2021-07-04T07:17:19.000Z</time>
      </trkpt>
      <trkpt lat="47.26913" lon="-2.32301">
        <ele>-19.200000762939</ele>
        <time>2021-07-04T07:17:20.000Z</time>
      </trkpt>
      <trkpt lat="47.26917" lon="-2.32312">
        <ele>-19.60000038147</ele>
        <time>2021-07-04T07:17:21.000Z</time>
      </trkpt>
      <trkpt lat="47.26921" lon="-2.32322">
        <ele>-20</ele>
        <time>2021-07-04T07:17:22.000Z</time>
      </trkpt>
      <trkpt lat="47.26926" lon="-2.32339">
        <ele>-20.60000038147</ele>
        <time>2021-07-04T07:17:24.000Z</time>
      </trkpt>
      <trkpt lat="47.26928" lon="-2.32346">
        <ele>-21.200000762939</ele>
        <time>2021-07-04T07:17:25.000Z</time>
      </trkpt>
      <trkpt lat="47.26931" lon="-2.3235">
        <ele>-21.60000038147</ele>
        <time>2021-07-04T07:17:26.000Z</time>
      </trkpt>
      <trkpt lat="47.26934" lon="-2.32357">
        <ele>-22.200000762939</ele>
        <time>2021-07-04T07:17:27.000Z</time>
      </trkpt>
      <trkpt lat="47.26937" lon="-2.32363">
        <ele>-22.60000038147</ele>
        <time>2021-07-04T07:17:28.000Z</time>
      </trkpt>
      <trkpt lat="47.26942" lon="-2.32378">
        <ele>-22.60000038147</ele>
        <time>2021-07-04T07:17:30.000Z</time>
      </trkpt>
      <trkpt lat="47.26944" lon="-2.32386">
        <ele>-22.60000038147</ele>
        <time>2021-07-04T07:17:31.000Z</time>
      </trkpt>
      <trkpt lat="47.26953" lon="-2.32419">
        <ele>-22.60000038147</ele>
        <time>2021-07-04T07:17:35.000Z</time>
      </trkpt>
      <trkpt lat="47.26957" lon="-2.32427">
        <ele>-22.60000038147</ele>
        <time>2021-07-04T07:17:36.000Z</time>
      </trkpt>
      <trkpt lat="47.26961" lon="-2.32434">
        <ele>-22.60000038147</ele>
        <time>2021-07-04T07:17:37.000Z</time>
      </trkpt>
      <trkpt lat="47.26977" lon="-2.32453">
        <ele>-23</ele>
        <time>2021-07-04T07:17:40.000Z</time>
      </trkpt>
      <trkpt lat="47.26981" lon="-2.32459">
        <ele>-23.60000038147</ele>
        <time>2021-07-04T07:17:41.000Z</time>
      </trkpt>
      <trkpt lat="47.26985" lon="-2.32467">
        <ele>-24</ele>
        <time>2021-07-04T07:17:42.000Z</time>
      </trkpt>
      <trkpt lat="47.26989" lon="-2.32475">
        <ele>-24.39999961853</ele>
        <time>2021-07-04T07:17:43.000Z</time>
      </trkpt>
      <trkpt lat="47.26993" lon="-2.32483">
        <ele>-24.799999237061</ele>
        <time>2021-07-04T07:17:44.000Z</time>
      </trkpt>
      <trkpt lat="47.26996" lon="-2.32491">
        <ele>-24.799999237061</ele>
        <time>2021-07-04T07:17:45.000Z</time>
      </trkpt>
      <trkpt lat="47.27004" lon="-2.32503">
        <ele>-24.799999237061</ele>
        <time>2021-07-04T07:17:47.000Z</time>
      </trkpt>
      <trkpt lat="47.27009" lon="-2.32504">
        <ele>-24.799999237061</ele>
        <time>2021-07-04T07:17:48.000Z</time>
      </trkpt>
      <trkpt lat="47.27021" lon="-2.32501">
        <ele>-25.200000762939</ele>
        <time>2021-07-04T07:17:50.000Z</time>
      </trkpt>
      <trkpt lat="47.27026" lon="-2.32497">
        <ele>-25.60000038147</ele>
        <time>2021-07-04T07:17:51.000Z</time>
      </trkpt>
      <trkpt lat="47.27031" lon="-2.32492">
        <ele>-26</ele>
        <time>2021-07-04T07:17:52.000Z</time>
      </trkpt>
      <trkpt lat="47.27034" lon="-2.32484">
        <ele>-26.60000038147</ele>
        <time>2021-07-04T07:17:53.000Z</time>
      </trkpt>
      <trkpt lat="47.27035" lon="-2.32476">
        <ele>-27</ele>
        <time>2021-07-04T07:17:54.000Z</time>
      </trkpt>
      <trkpt lat="47.27036" lon="-2.32441">
        <ele>-27</ele>
        <time>2021-07-04T07:17:58.000Z</time>
      </trkpt>
      <trkpt lat="47.27031" lon="-2.32375">
        <ele>-27</ele>
        <time>2021-07-04T07:18:05.000Z</time>
      </trkpt>
      <trkpt lat="47.27024" lon="-2.32313">
        <ele>-27</ele>
        <time>2021-07-04T07:18:12.000Z</time>
      </trkpt>
      <trkpt lat="47.27021" lon="-2.32258">
        <ele>-27</ele>
        <time>2021-07-04T07:18:19.000Z</time>
      </trkpt>
      <trkpt lat="47.27021" lon="-2.3225">
        <ele>-27</ele>
        <time>2021-07-04T07:18:20.000Z</time>
      </trkpt>
      <trkpt lat="47.27019" lon="-2.32227">
        <ele>-27</ele>
        <time>2021-07-04T07:18:23.000Z</time>
      </trkpt>
      <trkpt lat="47.27015" lon="-2.32211">
        <ele>-27</ele>
        <time>2021-07-04T07:18:25.000Z</time>
      </trkpt>
      <trkpt lat="47.27009" lon="-2.32196">
        <ele>-27</ele>
        <time>2021-07-04T07:18:27.000Z</time>
      </trkpt>
      <trkpt lat="47.27003" lon="-2.32183">
        <ele>-27</ele>
        <time>2021-07-04T07:18:29.000Z</time>
      </trkpt>
      <trkpt lat="47.26986" lon="-2.32145">
        <ele>-27</ele>
        <time>2021-07-04T07:18:34.000Z</time>
      </trkpt>
      <trkpt lat="47.26992" lon="-2.32129">
        <ele>-27</ele>
        <time>2021-07-04T07:18:37.000Z</time>
      </trkpt>
      <trkpt lat="47.26999" lon="-2.32121">
        <ele>-27</ele>
        <time>2021-07-04T07:18:39.000Z</time>
      </trkpt>
      <trkpt lat="47.27005" lon="-2.32111">
        <ele>-27</ele>
        <time>2021-07-04T07:18:41.000Z</time>
      </trkpt>
      <trkpt lat="47.27006" lon="-2.32106">
        <ele>-27</ele>
        <time>2021-07-04T07:18:42.000Z</time>
      </trkpt>
      <trkpt lat="47.2701" lon="-2.32079">
        <ele>-27</ele>
        <time>2021-07-04T07:18:47.000Z</time>
      </trkpt>
      <trkpt lat="47.27009" lon="-2.32043">
        <ele>-27</ele>
        <time>2021-07-04T07:18:53.000Z</time>
      </trkpt>
      <trkpt lat="47.27008" lon="-2.32036">
        <ele>-27</ele>
        <time>2021-07-04T07:18:54.000Z</time>
      </trkpt>
      <trkpt lat="47.27004" lon="-2.32009">
        <ele>-27</ele>
        <time>2021-07-04T07:18:58.000Z</time>
      </trkpt>
      <trkpt lat="47.27003" lon="-2.32">
        <ele>-26.60000038147</ele>
        <time>2021-07-04T07:19:00.000Z</time>
      </trkpt>
      <trkpt lat="47.27002" lon="-2.31995">
        <ele>-26.200000762939</ele>
        <time>2021-07-04T07:19:01.000Z</time>
      </trkpt>
      <trkpt lat="47.27002" lon="-2.31991">
        <ele>-25.799999237061</ele>
        <time>2021-07-04T07:19:02.000Z</time>
      </trkpt>
      <trkpt lat="47.27002" lon="-2.31987">
        <ele>-25.200000762939</ele>
        <time>2021-07-04T07:19:03.000Z</time>
      </trkpt>
      <trkpt lat="47.27003" lon="-2.31985">
        <ele>-24.799999237061</ele>
        <time>2021-07-04T07:19:04.000Z</time>
      </trkpt>
      <trkpt lat="47.27004" lon="-2.31983">
        <ele>-24.799999237061</ele>
        <time>2021-07-04T07:19:05.000Z</time>
      </trkpt>
      <trkpt lat="47.27008" lon="-2.31975">
        <ele>-24.799999237061</ele>
        <time>2021-07-04T07:19:08.000Z</time>
      </trkpt>
      <trkpt lat="47.27011" lon="-2.31973">
        <ele>-24.799999237061</ele>
        <time>2021-07-04T07:19:09.000Z</time>
      </trkpt>
      <trkpt lat="47.27017" lon="-2.31968">
        <ele>-24.799999237061</ele>
        <time>2021-07-04T07:19:13.000Z</time>
      </trkpt>
      <trkpt lat="47.27028" lon="-2.31958">
        <ele>-24.799999237061</ele>
        <time>2021-07-04T07:19:18.000Z</time>
      </trkpt>
      <trkpt lat="47.27042" lon="-2.31957">
        <ele>-24.799999237061</ele>
        <time>2021-07-04T07:19:24.000Z</time>
      </trkpt>
      <trkpt lat="47.27055" lon="-2.31956">
        <ele>-24.799999237061</ele>
        <time>2021-07-04T07:19:33.000Z</time>
      </trkpt>
      <trkpt lat="47.27064" lon="-2.31953">
        <ele>-24.799999237061</ele>
        <time>2021-07-04T07:19:40.000Z</time>
      </trkpt>
      <trkpt lat="47.27065" lon="-2.31951">
        <ele>-24.799999237061</ele>
        <time>2021-07-04T07:19:41.000Z</time>
      </trkpt>
      <trkpt lat="47.27067" lon="-2.3194">
        <ele>-24.799999237061</ele>
        <time>2021-07-04T07:19:46.000Z</time>
      </trkpt>
      <trkpt lat="47.2707" lon="-2.3192">
        <ele>-24.799999237061</ele>
        <time>2021-07-04T07:19:50.000Z</time>
      </trkpt>
      <trkpt lat="47.27069" lon="-2.31897">
        <ele>-24.799999237061</ele>
        <time>2021-07-04T07:19:56.000Z</time>
      </trkpt>
      <trkpt lat="47.27072" lon="-2.31869">
        <ele>-24.799999237061</ele>
        <time>2021-07-04T07:20:04.000Z</time>
      </trkpt>
      <trkpt lat="47.27059" lon="-2.31854">
        <ele>-24.799999237061</ele>
        <time>2021-07-04T07:20:09.000Z</time>
      </trkpt>
      <trkpt lat="47.27045" lon="-2.31828">
        <ele>-24.799999237061</ele>
        <time>2021-07-04T07:20:15.000Z</time>
      </trkpt>
      <trkpt lat="47.27046" lon="-2.31822">
        <ele>-24.799999237061</ele>
        <time>2021-07-04T07:20:16.000Z</time>
      </trkpt>
      <trkpt lat="47.27048" lon="-2.31813">
        <ele>-24.39999961853</ele>
        <time>2021-07-04T07:20:17.000Z</time>
      </trkpt>
      <trkpt lat="47.27048" lon="-2.31806">
        <ele>-24</ele>
        <time>2021-07-04T07:20:18.000Z</time>
      </trkpt>
      <trkpt lat="47.27048" lon="-2.31799">
        <ele>-23.60000038147</ele>
        <time>2021-07-04T07:20:19.000Z</time>
      </trkpt>
      <trkpt lat="47.27049" lon="-2.31792">
        <ele>-23.200000762939</ele>
        <time>2021-07-04T07:20:20.000Z</time>
      </trkpt>
      <trkpt lat="47.27049" lon="-2.31786">
        <ele>-22.799999237061</ele>
        <time>2021-07-04T07:20:21.000Z</time>
      </trkpt>
      <trkpt lat="47.27047" lon="-2.31771">
        <ele>-22.799999237061</ele>
        <time>2021-07-04T07:20:24.000Z</time>
      </trkpt>
      <trkpt lat="47.27046" lon="-2.31747">
        <ele>-22.799999237061</ele>
        <time>2021-07-04T07:20:29.000Z</time>
      </trkpt>
      <trkpt lat="47.27044" lon="-2.31738">
        <ele>-22.799999237061</ele>
        <time>2021-07-04T07:20:31.000Z</time>
      </trkpt>
      <trkpt lat="47.27038" lon="-2.31732">
        <ele>-22.799999237061</ele>
        <time>2021-07-04T07:20:33.000Z</time>
      </trkpt>
      <trkpt lat="47.27029" lon="-2.31725">
        <ele>-22</ele>
        <time>2021-07-04T07:20:36.000Z</time>
      </trkpt>
      <trkpt lat="47.27027" lon="-2.31722">
        <ele>-21.39999961853</ele>
        <time>2021-07-04T07:20:37.000Z</time>
      </trkpt>
      <trkpt lat="47.27024" lon="-2.3172">
        <ele>-21</ele>
        <time>2021-07-04T07:20:38.000Z</time>
      </trkpt>
      <trkpt lat="47.27022" lon="-2.31718">
        <ele>-20.60000038147</ele>
        <time>2021-07-04T07:20:39.000Z</time>
      </trkpt>
      <trkpt lat="47.27021" lon="-2.31714">
        <ele>-20.60000038147</ele>
        <time>2021-07-04T07:20:40.000Z</time>
      </trkpt>
      <trkpt lat="47.27018" lon="-2.31682">
        <ele>-20.60000038147</ele>
        <time>2021-07-04T07:20:48.000Z</time>
      </trkpt>
      <trkpt lat="47.27018" lon="-2.31665">
        <ele>-20.60000038147</ele>
        <time>2021-07-04T07:20:53.000Z</time>
      </trkpt>
      <trkpt lat="47.27018" lon="-2.31656">
        <ele>-20.200000762939</ele>
        <time>2021-07-04T07:20:55.000Z</time>
      </trkpt>
      <trkpt lat="47.27017" lon="-2.31653">
        <ele>-19.799999237061</ele>
        <time>2021-07-04T07:20:56.000Z</time>
      </trkpt>
      <trkpt lat="47.27017" lon="-2.31649">
        <ele>-19.39999961853</ele>
        <time>2021-07-04T07:20:57.000Z</time>
      </trkpt>
      <trkpt lat="47.27017" lon="-2.31646">
        <ele>-19</ele>
        <time>2021-07-04T07:20:58.000Z</time>
      </trkpt>
      <trkpt lat="47.27017" lon="-2.31642">
        <ele>-18.60000038147</ele>
        <time>2021-07-04T07:20:59.000Z</time>
      </trkpt>
      <trkpt lat="47.27016" lon="-2.31639">
        <ele>-18.60000038147</ele>
        <time>2021-07-04T07:21:00.000Z</time>
      </trkpt>
      <trkpt lat="47.27017" lon="-2.31605">
        <ele>-18.60000038147</ele>
        <time>2021-07-04T07:21:07.000Z</time>
      </trkpt>
      <trkpt lat="47.27018" lon="-2.31595">
        <ele>-18.200000762939</ele>
        <time>2021-07-04T07:21:09.000Z</time>
      </trkpt>
      <trkpt lat="47.27017" lon="-2.31589">
        <ele>-17.60000038147</ele>
        <time>2021-07-04T07:21:10.000Z</time>
      </trkpt>
      <trkpt lat="47.27016" lon="-2.31585">
        <ele>-17.200000762939</ele>
        <time>2021-07-04T07:21:11.000Z</time>
      </trkpt>
      <trkpt lat="47.27015" lon="-2.31582">
        <ele>-16.799999237061</ele>
        <time>2021-07-04T07:21:12.000Z</time>
      </trkpt>
      <trkpt lat="47.27014" lon="-2.31579">
        <ele>-16.39999961853</ele>
        <time>2021-07-04T07:21:13.000Z</time>
      </trkpt>
      <trkpt lat="47.27006" lon="-2.3156">
        <ele>-16.39999961853</ele>
        <time>2021-07-04T07:21:20.000Z</time>
      </trkpt>
      <trkpt lat="47.27005" lon="-2.31555">
        <ele>-15.800000190735</ele>
        <time>2021-07-04T07:21:22.000Z</time>
      </trkpt>
      <trkpt lat="47.27004" lon="-2.31552">
        <ele>-15.39999961853</ele>
        <time>2021-07-04T07:21:23.000Z</time>
      </trkpt>
      <trkpt lat="47.27003" lon="-2.31549">
        <ele>-15</ele>
        <time>2021-07-04T07:21:24.000Z</time>
      </trkpt>
      <trkpt lat="47.27002" lon="-2.31545">
        <ele>-14.60000038147</ele>
        <time>2021-07-04T07:21:25.000Z</time>
      </trkpt>
      <trkpt lat="47.27002" lon="-2.31541">
        <ele>-14.199999809265</ele>
        <time>2021-07-04T07:21:26.000Z</time>
      </trkpt>
      <trkpt lat="47.27001" lon="-2.31536">
        <ele>-14.199999809265</ele>
        <time>2021-07-04T07:21:27.000Z</time>
      </trkpt>
      <trkpt lat="47.26994" lon="-2.31511">
        <ele>-13.800000190735</ele>
        <time>2021-07-04T07:21:33.000Z</time>
      </trkpt>
      <trkpt lat="47.26993" lon="-2.31508">
        <ele>-13.199999809265</ele>
        <time>2021-07-04T07:21:34.000Z</time>
      </trkpt>
      <trkpt lat="47.26991" lon="-2.31503">
        <ele>-12.800000190735</ele>
        <time>2021-07-04T07:21:35.000Z</time>
      </trkpt>
      <trkpt lat="47.2699" lon="-2.31497">
        <ele>-12.39999961853</ele>
        <time>2021-07-04T07:21:36.000Z</time>
      </trkpt>
      <trkpt lat="47.26989" lon="-2.31492">
        <ele>-12</ele>
        <time>2021-07-04T07:21:37.000Z</time>
      </trkpt>
      <trkpt lat="47.26987" lon="-2.31487">
        <ele>-12</ele>
        <time>2021-07-04T07:21:38.000Z</time>
      </trkpt>
      <trkpt lat="47.26985" lon="-2.31454">
        <ele>-12</ele>
        <time>2021-07-04T07:21:44.000Z</time>
      </trkpt>
      <trkpt lat="47.26984" lon="-2.3143">
        <ele>-11.39999961853</ele>
        <time>2021-07-04T07:21:48.000Z</time>
      </trkpt>
      <trkpt lat="47.26984" lon="-2.31425">
        <ele>-11</ele>
        <time>2021-07-04T07:21:49.000Z</time>
      </trkpt>
      <trkpt lat="47.26983" lon="-2.3142">
        <ele>-10.60000038147</ele>
        <time>2021-07-04T07:21:50.000Z</time>
      </trkpt>
      <trkpt lat="47.26983" lon="-2.31415">
        <ele>-9.8000001907349</ele>
        <time>2021-07-04T07:21:51.000Z</time>
      </trkpt>
      <trkpt lat="47.26981" lon="-2.31378">
        <ele>-9.8000001907349</ele>
        <time>2021-07-04T07:21:59.000Z</time>
      </trkpt>
      <trkpt lat="47.2698" lon="-2.31368">
        <ele>-9.3999996185303</ele>
        <time>2021-07-04T07:22:01.000Z</time>
      </trkpt>
      <trkpt lat="47.2698" lon="-2.31363">
        <ele>-9</ele>
        <time>2021-07-04T07:22:02.000Z</time>
      </trkpt>
      <trkpt lat="47.2698" lon="-2.31357">
        <ele>-8.6000003814697</ele>
        <time>2021-07-04T07:22:03.000Z</time>
      </trkpt>
      <trkpt lat="47.26979" lon="-2.31351">
        <ele>-8.1999998092651</ele>
        <time>2021-07-04T07:22:04.000Z</time>
      </trkpt>
      <trkpt lat="47.26979" lon="-2.31345">
        <ele>-7.5999999046326</ele>
        <time>2021-07-04T07:22:05.000Z</time>
      </trkpt>
      <trkpt lat="47.26979" lon="-2.31339">
        <ele>-7.5999999046326</ele>
        <time>2021-07-04T07:22:06.000Z</time>
      </trkpt>
      <trkpt lat="47.26973" lon="-2.31296">
        <ele>-7.5999999046326</ele>
        <time>2021-07-04T07:22:13.000Z</time>
      </trkpt>
      <trkpt lat="47.26972" lon="-2.31251">
        <ele>-7.5999999046326</ele>
        <time>2021-07-04T07:22:19.000Z</time>
      </trkpt>
      <trkpt lat="47.26976" lon="-2.3121">
        <ele>-7.5999999046326</ele>
        <time>2021-07-04T07:22:24.000Z</time>
      </trkpt>
      <trkpt lat="47.26982" lon="-2.31149">
        <ele>-7.5999999046326</ele>
        <time>2021-07-04T07:22:30.000Z</time>
      </trkpt>
      <trkpt lat="47.26983" lon="-2.31139">
        <ele>-8.1999998092651</ele>
        <time>2021-07-04T07:22:31.000Z</time>
      </trkpt>
      <trkpt lat="47.26984" lon="-2.31129">
        <ele>-8.6000003814697</ele>
        <time>2021-07-04T07:22:32.000Z</time>
      </trkpt>
      <trkpt lat="47.26983" lon="-2.31119">
        <ele>-9</ele>
        <time>2021-07-04T07:22:33.000Z</time>
      </trkpt>
      <trkpt lat="47.26983" lon="-2.31109">
        <ele>-9.3999996185303</ele>
        <time>2021-07-04T07:22:34.000Z</time>
      </trkpt>
      <trkpt lat="47.26982" lon="-2.31099">
        <ele>-9.8000001907349</ele>
        <time>2021-07-04T07:22:35.000Z</time>
      </trkpt>
      <trkpt lat="47.26983" lon="-2.31079">
        <ele>-10.199999809265</ele>
        <time>2021-07-04T07:22:38.000Z</time>
      </trkpt>
      <trkpt lat="47.26986" lon="-2.31074">
        <ele>-10.60000038147</ele>
        <time>2021-07-04T07:22:39.000Z</time>
      </trkpt>
      <trkpt lat="47.26989" lon="-2.31069">
        <ele>-11.39999961853</ele>
        <time>2021-07-04T07:22:40.000Z</time>
      </trkpt>
      <trkpt lat="47.26993" lon="-2.31064">
        <ele>-11.800000190735</ele>
        <time>2021-07-04T07:22:41.000Z</time>
      </trkpt>
      <trkpt lat="47.26997" lon="-2.3106">
        <ele>-11.800000190735</ele>
        <time>2021-07-04T07:22:42.000Z</time>
      </trkpt>
      <trkpt lat="47.27002" lon="-2.31056">
        <ele>-11.800000190735</ele>
        <time>2021-07-04T07:22:43.000Z</time>
      </trkpt>
      <trkpt lat="47.27022" lon="-2.31043">
        <ele>-11.800000190735</ele>
        <time>2021-07-04T07:22:47.000Z</time>
      </trkpt>
      <trkpt lat="47.27027" lon="-2.31039">
        <ele>-12.199999809265</ele>
        <time>2021-07-04T07:22:48.000Z</time>
      </trkpt>
      <trkpt lat="47.27032" lon="-2.31036">
        <ele>-12.60000038147</ele>
        <time>2021-07-04T07:22:49.000Z</time>
      </trkpt>
      <trkpt lat="47.27037" lon="-2.31032">
        <ele>-13</ele>
        <time>2021-07-04T07:22:50.000Z</time>
      </trkpt>
      <trkpt lat="47.27042" lon="-2.31028">
        <ele>-13.39999961853</ele>
        <time>2021-07-04T07:22:51.000Z</time>
      </trkpt>
      <trkpt lat="47.27046" lon="-2.31024">
        <ele>-14</ele>
        <time>2021-07-04T07:22:52.000Z</time>
      </trkpt>
      <trkpt lat="47.27053" lon="-2.31018">
        <ele>-14</ele>
        <time>2021-07-04T07:22:54.000Z</time>
      </trkpt>
      <trkpt lat="47.27062" lon="-2.31">
        <ele>-14</ele>
        <time>2021-07-04T07:22:58.000Z</time>
      </trkpt>
      <trkpt lat="47.27062" lon="-2.30964">
        <ele>-14</ele>
        <time>2021-07-04T07:23:04.000Z</time>
      </trkpt>
      <trkpt lat="47.27055" lon="-2.30945">
        <ele>-14</ele>
        <time>2021-07-04T07:23:08.000Z</time>
      </trkpt>
      <trkpt lat="47.27038" lon="-2.30918">
        <ele>-14</ele>
        <time>2021-07-04T07:23:13.000Z</time>
      </trkpt>
      <trkpt lat="47.27027" lon="-2.30886">
        <ele>-14</ele>
        <time>2021-07-04T07:23:19.000Z</time>
      </trkpt>
      <trkpt lat="47.27001" lon="-2.3084">
        <ele>-14</ele>
        <time>2021-07-04T07:23:27.000Z</time>
      </trkpt>
      <trkpt lat="47.2699" lon="-2.30819">
        <ele>-14</ele>
        <time>2021-07-04T07:23:31.000Z</time>
      </trkpt>
      <trkpt lat="47.26987" lon="-2.30814">
        <ele>-14</ele>
        <time>2021-07-04T07:23:32.000Z</time>
      </trkpt>
      <trkpt lat="47.2697" lon="-2.30786">
        <ele>-13.39999961853</ele>
        <time>2021-07-04T07:23:38.000Z</time>
      </trkpt>
      <trkpt lat="47.26968" lon="-2.30782">
        <ele>-13</ele>
        <time>2021-07-04T07:23:39.000Z</time>
      </trkpt>
      <trkpt lat="47.26966" lon="-2.30777">
        <ele>-12.60000038147</ele>
        <time>2021-07-04T07:23:40.000Z</time>
      </trkpt>
      <trkpt lat="47.26963" lon="-2.30772">
        <ele>-12.199999809265</ele>
        <time>2021-07-04T07:23:41.000Z</time>
      </trkpt>
      <trkpt lat="47.2696" lon="-2.30767">
        <ele>-11.800000190735</ele>
        <time>2021-07-04T07:23:42.000Z</time>
      </trkpt>
      <trkpt lat="47.26948" lon="-2.3075">
        <ele>-11.800000190735</ele>
        <time>2021-07-04T07:23:46.000Z</time>
      </trkpt>
      <trkpt lat="47.26932" lon="-2.30726">
        <ele>-11.39999961853</ele>
        <time>2021-07-04T07:23:51.000Z</time>
      </trkpt>
      <trkpt lat="47.2693" lon="-2.30721">
        <ele>-11</ele>
        <time>2021-07-04T07:23:52.000Z</time>
      </trkpt>
      <trkpt lat="47.26927" lon="-2.30716">
        <ele>-10.60000038147</ele>
        <time>2021-07-04T07:23:53.000Z</time>
      </trkpt>
      <trkpt lat="47.26924" lon="-2.30712">
        <ele>-9.8000001907349</ele>
        <time>2021-07-04T07:23:54.000Z</time>
      </trkpt>
      <trkpt lat="47.26912" lon="-2.30693">
        <ele>-9.8000001907349</ele>
        <time>2021-07-04T07:23:58.000Z</time>
      </trkpt>
      <trkpt lat="47.26906" lon="-2.30684">
        <ele>-9.8000001907349</ele>
        <time>2021-07-04T07:24:00.000Z</time>
      </trkpt>
      <trkpt lat="47.269" lon="-2.30675">
        <ele>-9.3999996185303</ele>
        <time>2021-07-04T07:24:02.000Z</time>
      </trkpt>
      <trkpt lat="47.26899" lon="-2.30671">
        <ele>-9</ele>
        <time>2021-07-04T07:24:03.000Z</time>
      </trkpt>
      <trkpt lat="47.26898" lon="-2.30666">
        <ele>-8.6000003814697</ele>
        <time>2021-07-04T07:24:04.000Z</time>
      </trkpt>
      <trkpt lat="47.26899" lon="-2.30662">
        <ele>-8.1999998092651</ele>
        <time>2021-07-04T07:24:05.000Z</time>
      </trkpt>
      <trkpt lat="47.269" lon="-2.30658">
        <ele>-7.8000001907349</ele>
        <time>2021-07-04T07:24:06.000Z</time>
      </trkpt>
      <trkpt lat="47.26905" lon="-2.30652">
        <ele>-7.8000001907349</ele>
        <time>2021-07-04T07:24:08.000Z</time>
      </trkpt>
      <trkpt lat="47.26913" lon="-2.30644">
        <ele>-7.8000001907349</ele>
        <time>2021-07-04T07:24:11.000Z</time>
      </trkpt>
      <trkpt lat="47.2692" lon="-2.30635">
        <ele>-7.8000001907349</ele>
        <time>2021-07-04T07:24:16.000Z</time>
      </trkpt>
      <trkpt lat="47.26922" lon="-2.30635">
        <ele>-7.8000001907349</ele>
        <time>2021-07-04T07:24:25.000Z</time>
      </trkpt>
      <trkpt lat="47.26929" lon="-2.30634">
        <ele>-7.8000001907349</ele>
        <time>2021-07-04T07:24:28.000Z</time>
      </trkpt>
      <trkpt lat="47.26937" lon="-2.30633">
        <ele>-8.1999998092651</ele>
        <time>2021-07-04T07:24:30.000Z</time>
      </trkpt>
      <trkpt lat="47.26941" lon="-2.30632">
        <ele>-8.6000003814697</ele>
        <time>2021-07-04T07:24:31.000Z</time>
      </trkpt>
      <trkpt lat="47.26945" lon="-2.30631">
        <ele>-9.1999998092651</ele>
        <time>2021-07-04T07:24:32.000Z</time>
      </trkpt>
      <trkpt lat="47.2695" lon="-2.3063">
        <ele>-9.6000003814697</ele>
        <time>2021-07-04T07:24:33.000Z</time>
      </trkpt>
      <trkpt lat="47.26955" lon="-2.30628">
        <ele>-10</ele>
        <time>2021-07-04T07:24:34.000Z</time>
      </trkpt>
      <trkpt lat="47.2697" lon="-2.30622">
        <ele>-10</ele>
        <time>2021-07-04T07:24:37.000Z</time>
      </trkpt>
      <trkpt lat="47.2698" lon="-2.30616">
        <ele>-10</ele>
        <time>2021-07-04T07:24:39.000Z</time>
      </trkpt>
      <trkpt lat="47.27006" lon="-2.30598">
        <ele>-10</ele>
        <time>2021-07-04T07:24:44.000Z</time>
      </trkpt>
      <trkpt lat="47.27015" lon="-2.30579">
        <ele>-10</ele>
        <time>2021-07-04T07:24:47.000Z</time>
      </trkpt>
      <trkpt lat="47.27018" lon="-2.30571">
        <ele>-10</ele>
        <time>2021-07-04T07:24:48.000Z</time>
      </trkpt>
      <trkpt lat="47.27028" lon="-2.30532">
        <ele>-10</ele>
        <time>2021-07-04T07:24:53.000Z</time>
      </trkpt>
      <trkpt lat="47.27037" lon="-2.30484">
        <ele>-10</ele>
        <time>2021-07-04T07:24:59.000Z</time>
      </trkpt>
      <trkpt lat="47.27048" lon="-2.30434">
        <ele>-10</ele>
        <time>2021-07-04T07:25:05.000Z</time>
      </trkpt>
      <trkpt lat="47.27055" lon="-2.30371">
        <ele>-10</ele>
        <time>2021-07-04T07:25:13.000Z</time>
      </trkpt>
      <trkpt lat="47.27063" lon="-2.30319">
        <ele>-10</ele>
        <time>2021-07-04T07:25:20.000Z</time>
      </trkpt>
      <trkpt lat="47.2707" lon="-2.30284">
        <ele>-10</ele>
        <time>2021-07-04T07:25:26.000Z</time>
      </trkpt>
      <trkpt lat="47.27081" lon="-2.30268">
        <ele>-10.39999961853</ele>
        <time>2021-07-04T07:25:30.000Z</time>
      </trkpt>
      <trkpt lat="47.27084" lon="-2.30265">
        <ele>-10.800000190735</ele>
        <time>2021-07-04T07:25:31.000Z</time>
      </trkpt>
      <trkpt lat="47.27088" lon="-2.30262">
        <ele>-11.800000190735</ele>
        <time>2021-07-04T07:25:32.000Z</time>
      </trkpt>
      <trkpt lat="47.27092" lon="-2.30261">
        <ele>-12.199999809265</ele>
        <time>2021-07-04T07:25:33.000Z</time>
      </trkpt>
      <trkpt lat="47.271" lon="-2.30257">
        <ele>-12.199999809265</ele>
        <time>2021-07-04T07:25:35.000Z</time>
      </trkpt>
      <trkpt lat="47.27103" lon="-2.30255">
        <ele>-12.199999809265</ele>
        <time>2021-07-04T07:25:36.000Z</time>
      </trkpt>
      <trkpt lat="47.27117" lon="-2.30249">
        <ele>-12.60000038147</ele>
        <time>2021-07-04T07:25:40.000Z</time>
      </trkpt>
      <trkpt lat="47.2712" lon="-2.30246">
        <ele>-13</ele>
        <time>2021-07-04T07:25:41.000Z</time>
      </trkpt>
      <trkpt lat="47.27123" lon="-2.30244">
        <ele>-13.39999961853</ele>
        <time>2021-07-04T07:25:42.000Z</time>
      </trkpt>
      <trkpt lat="47.27127" lon="-2.30242">
        <ele>-13.800000190735</ele>
        <time>2021-07-04T07:25:43.000Z</time>
      </trkpt>
      <trkpt lat="47.2713" lon="-2.30241">
        <ele>-14.39999961853</ele>
        <time>2021-07-04T07:25:44.000Z</time>
      </trkpt>
      <trkpt lat="47.27136" lon="-2.30239">
        <ele>-14.39999961853</ele>
        <time>2021-07-04T07:25:46.000Z</time>
      </trkpt>
      <trkpt lat="47.27146" lon="-2.30233">
        <ele>-14.39999961853</ele>
        <time>2021-07-04T07:25:52.000Z</time>
      </trkpt>
      <trkpt lat="47.27153" lon="-2.30221">
        <ele>-14.39999961853</ele>
        <time>2021-07-04T07:25:56.000Z</time>
      </trkpt>
      <trkpt lat="47.27154" lon="-2.30203">
        <ele>-14.39999961853</ele>
        <time>2021-07-04T07:26:00.000Z</time>
      </trkpt>
      <trkpt lat="47.27151" lon="-2.3017">
        <ele>-14.39999961853</ele>
        <time>2021-07-04T07:26:06.000Z</time>
      </trkpt>
      <trkpt lat="47.27151" lon="-2.30164">
        <ele>-13.800000190735</ele>
        <time>2021-07-04T07:26:07.000Z</time>
      </trkpt>
      <trkpt lat="47.27151" lon="-2.30158">
        <ele>-13.39999961853</ele>
        <time>2021-07-04T07:26:08.000Z</time>
      </trkpt>
      <trkpt lat="47.27151" lon="-2.30152">
        <ele>-13</ele>
        <time>2021-07-04T07:26:09.000Z</time>
      </trkpt>
      <trkpt lat="47.27151" lon="-2.30146">
        <ele>-12.60000038147</ele>
        <time>2021-07-04T07:26:10.000Z</time>
      </trkpt>
      <trkpt lat="47.2715" lon="-2.30139">
        <ele>-12.199999809265</ele>
        <time>2021-07-04T07:26:11.000Z</time>
      </trkpt>
      <trkpt lat="47.27146" lon="-2.30129">
        <ele>-12.199999809265</ele>
        <time>2021-07-04T07:26:13.000Z</time>
      </trkpt>
      <trkpt lat="47.27139" lon="-2.30123">
        <ele>-12.199999809265</ele>
        <time>2021-07-04T07:26:15.000Z</time>
      </trkpt>
      <trkpt lat="47.27131" lon="-2.3012">
        <ele>-11.800000190735</ele>
        <time>2021-07-04T07:26:17.000Z</time>
      </trkpt>
      <trkpt lat="47.27127" lon="-2.30119">
        <ele>-11.39999961853</ele>
        <time>2021-07-04T07:26:18.000Z</time>
      </trkpt>
      <trkpt lat="47.27123" lon="-2.30118">
        <ele>-11</ele>
        <time>2021-07-04T07:26:19.000Z</time>
      </trkpt>
      <trkpt lat="47.27119" lon="-2.30117">
        <ele>-10.60000038147</ele>
        <time>2021-07-04T07:26:20.000Z</time>
      </trkpt>
      <trkpt lat="47.27115" lon="-2.30116">
        <ele>-10.199999809265</ele>
        <time>2021-07-04T07:26:21.000Z</time>
      </trkpt>
      <trkpt lat="47.27111" lon="-2.30114">
        <ele>-10.199999809265</ele>
        <time>2021-07-04T07:26:22.000Z</time>
      </trkpt>
      <trkpt lat="47.27091" lon="-2.30099">
        <ele>-10.199999809265</ele>
        <time>2021-07-04T07:26:28.000Z</time>
      </trkpt>
      <trkpt lat="47.27077" lon="-2.30079">
        <ele>-10.199999809265</ele>
        <time>2021-07-04T07:26:33.000Z</time>
      </trkpt>
      <trkpt lat="47.27074" lon="-2.30076">
        <ele>-10.199999809265</ele>
        <time>2021-07-04T07:26:34.000Z</time>
      </trkpt>
      <trkpt lat="47.2706" lon="-2.30071">
        <ele>-10.199999809265</ele>
        <time>2021-07-04T07:26:37.000Z</time>
      </trkpt>
      <trkpt lat="47.27034" lon="-2.30067">
        <ele>-10.199999809265</ele>
        <time>2021-07-04T07:26:43.000Z</time>
      </trkpt>
      <trkpt lat="47.2703" lon="-2.30067">
        <ele>-9.6000003814697</ele>
        <time>2021-07-04T07:26:44.000Z</time>
      </trkpt>
      <trkpt lat="47.27026" lon="-2.30067">
        <ele>-9.1999998092651</ele>
        <time>2021-07-04T07:26:45.000Z</time>
      </trkpt>
      <trkpt lat="47.27023" lon="-2.30067">
        <ele>-8.3999996185303</ele>
        <time>2021-07-04T07:26:46.000Z</time>
      </trkpt>
      <trkpt lat="47.27021" lon="-2.30067">
        <ele>-8</ele>
        <time>2021-07-04T07:26:47.000Z</time>
      </trkpt>
      <trkpt lat="47.27017" lon="-2.30066">
        <ele>-8</ele>
        <time>2021-07-04T07:26:49.000Z</time>
      </trkpt>
      <trkpt lat="47.27015" lon="-2.30065">
        <ele>-8</ele>
        <time>2021-07-04T07:26:50.000Z</time>
      </trkpt>
      <trkpt lat="47.27014" lon="-2.30062">
        <ele>-8</ele>
        <time>2021-07-04T07:26:52.000Z</time>
      </trkpt>
      <trkpt lat="47.27014" lon="-2.30056">
        <ele>-8</ele>
        <time>2021-07-04T07:27:01.000Z</time>
      </trkpt>
      <trkpt lat="47.27017" lon="-2.30036">
        <ele>-8</ele>
        <time>2021-07-04T07:27:06.000Z</time>
      </trkpt>
      <trkpt lat="47.27026" lon="-2.30001">
        <ele>-8</ele>
        <time>2021-07-04T07:27:13.000Z</time>
      </trkpt>
      <trkpt lat="47.27041" lon="-2.29968">
        <ele>-8</ele>
        <time>2021-07-04T07:27:20.000Z</time>
      </trkpt>
      <trkpt lat="47.27056" lon="-2.29934">
        <ele>-8</ele>
        <time>2021-07-04T07:27:26.000Z</time>
      </trkpt>
      <trkpt lat="47.2708" lon="-2.29906">
        <ele>-8</ele>
        <time>2021-07-04T07:27:32.000Z</time>
      </trkpt>
      <trkpt lat="47.27095" lon="-2.29876">
        <ele>-8</ele>
        <time>2021-07-04T07:27:37.000Z</time>
      </trkpt>
      <trkpt lat="47.27106" lon="-2.29839">
        <ele>-8</ele>
        <time>2021-07-04T07:27:43.000Z</time>
      </trkpt>
      <trkpt lat="47.27107" lon="-2.29832">
        <ele>-8</ele>
        <time>2021-07-04T07:27:44.000Z</time>
      </trkpt>
      <trkpt lat="47.27109" lon="-2.29814">
        <ele>-8</ele>
        <time>2021-07-04T07:27:47.000Z</time>
      </trkpt>
      <trkpt lat="47.27109" lon="-2.29801">
        <ele>-8</ele>
        <time>2021-07-04T07:27:49.000Z</time>
      </trkpt>
      <trkpt lat="47.27108" lon="-2.29778">
        <ele>-8</ele>
        <time>2021-07-04T07:27:52.000Z</time>
      </trkpt>
      <trkpt lat="47.27109" lon="-2.29754">
        <ele>-8</ele>
        <time>2021-07-04T07:27:55.000Z</time>
      </trkpt>
      <trkpt lat="47.27112" lon="-2.29704">
        <ele>-8</ele>
        <time>2021-07-04T07:28:02.000Z</time>
      </trkpt>
      <trkpt lat="47.27112" lon="-2.29688">
        <ele>-8</ele>
        <time>2021-07-04T07:28:06.000Z</time>
      </trkpt>
      <trkpt lat="47.27112" lon="-2.29688">
        <ele>-8</ele>
        <time>2021-07-04T07:28:07.000Z</time>
      </trkpt>
      <trkpt lat="47.27113" lon="-2.29682">
        <ele>-8</ele>
        <time>2021-07-04T07:28:59.000Z</time>
      </trkpt>
      <trkpt lat="47.27113" lon="-2.29675">
        <ele>-8</ele>
        <time>2021-07-04T07:29:01.000Z</time>
      </trkpt>
      <trkpt lat="47.27121" lon="-2.29658">
        <ele>-8</ele>
        <time>2021-07-04T07:29:05.000Z</time>
      </trkpt>
      <trkpt lat="47.27127" lon="-2.29652">
        <ele>-8</ele>
        <time>2021-07-04T07:29:07.000Z</time>
      </trkpt>
      <trkpt lat="47.27136" lon="-2.2965">
        <ele>-8</ele>
        <time>2021-07-04T07:29:09.000Z</time>
      </trkpt>
      <trkpt lat="47.27149" lon="-2.29648">
        <ele>-8</ele>
        <time>2021-07-04T07:29:13.000Z</time>
      </trkpt>
      <trkpt lat="47.27155" lon="-2.29644">
        <ele>-8</ele>
        <time>2021-07-04T07:29:18.000Z</time>
      </trkpt>
      <trkpt lat="47.27165" lon="-2.29633">
        <ele>-8</ele>
        <time>2021-07-04T07:29:23.000Z</time>
      </trkpt>
      <trkpt lat="47.2718" lon="-2.29619">
        <ele>-8</ele>
        <time>2021-07-04T07:29:28.000Z</time>
      </trkpt>
      <trkpt lat="47.27205" lon="-2.29597">
        <ele>-8</ele>
        <time>2021-07-04T07:29:35.000Z</time>
      </trkpt>
      <trkpt lat="47.27226" lon="-2.29583">
        <ele>-8</ele>
        <time>2021-07-04T07:29:41.000Z</time>
      </trkpt>
      <trkpt lat="47.27232" lon="-2.29574">
        <ele>-8</ele>
        <time>2021-07-04T07:29:43.000Z</time>
      </trkpt>
      <trkpt lat="47.27235" lon="-2.29562">
        <ele>-8</ele>
        <time>2021-07-04T07:29:45.000Z</time>
      </trkpt>
      <trkpt lat="47.27236" lon="-2.29548">
        <ele>-8</ele>
        <time>2021-07-04T07:29:47.000Z</time>
      </trkpt>
      <trkpt lat="47.27233" lon="-2.29527">
        <ele>-8</ele>
        <time>2021-07-04T07:29:50.000Z</time>
      </trkpt>
      <trkpt lat="47.27231" lon="-2.2952">
        <ele>-8</ele>
        <time>2021-07-04T07:29:51.000Z</time>
      </trkpt>
      <trkpt lat="47.27216" lon="-2.29482">
        <ele>-8</ele>
        <time>2021-07-04T07:29:56.000Z</time>
      </trkpt>
      <trkpt lat="47.27203" lon="-2.29434">
        <ele>-8</ele>
        <time>2021-07-04T07:30:02.000Z</time>
      </trkpt>
      <trkpt lat="47.27201" lon="-2.29425">
        <ele>-8</ele>
        <time>2021-07-04T07:30:03.000Z</time>
      </trkpt>
      <trkpt lat="47.27189" lon="-2.29388">
        <ele>-8</ele>
        <time>2021-07-04T07:30:08.000Z</time>
      </trkpt>
      <trkpt lat="47.27174" lon="-2.29354">
        <ele>-8</ele>
        <time>2021-07-04T07:30:13.000Z</time>
      </trkpt>
      <trkpt lat="47.2717" lon="-2.29349">
        <ele>-8</ele>
        <time>2021-07-04T07:30:14.000Z</time>
      </trkpt>
      <trkpt lat="47.2715" lon="-2.29322">
        <ele>-8</ele>
        <time>2021-07-04T07:30:20.000Z</time>
      </trkpt>
      <trkpt lat="47.27148" lon="-2.29312">
        <ele>-8.3999996185303</ele>
        <time>2021-07-04T07:30:22.000Z</time>
      </trkpt>
      <trkpt lat="47.27148" lon="-2.29306">
        <ele>-8.8000001907349</ele>
        <time>2021-07-04T07:30:23.000Z</time>
      </trkpt>
      <trkpt lat="47.27148" lon="-2.29301">
        <ele>-9.1999998092651</ele>
        <time>2021-07-04T07:30:24.000Z</time>
      </trkpt>
      <trkpt lat="47.27148" lon="-2.29296">
        <ele>-9.8000001907349</ele>
        <time>2021-07-04T07:30:25.000Z</time>
      </trkpt>
      <trkpt lat="47.27148" lon="-2.29291">
        <ele>-10.199999809265</ele>
        <time>2021-07-04T07:30:26.000Z</time>
      </trkpt>
      <trkpt lat="47.27152" lon="-2.29272">
        <ele>-10.199999809265</ele>
        <time>2021-07-04T07:30:29.000Z</time>
      </trkpt>
      <trkpt lat="47.27154" lon="-2.29265">
        <ele>-10.199999809265</ele>
        <time>2021-07-04T07:30:30.000Z</time>
      </trkpt>
      <trkpt lat="47.27156" lon="-2.29243">
        <ele>-10.199999809265</ele>
        <time>2021-07-04T07:30:33.000Z</time>
      </trkpt>
      <trkpt lat="47.27154" lon="-2.29234">
        <ele>-10.199999809265</ele>
        <time>2021-07-04T07:30:34.000Z</time>
      </trkpt>
      <trkpt lat="47.27142" lon="-2.29187">
        <ele>-10.199999809265</ele>
        <time>2021-07-04T07:30:40.000Z</time>
      </trkpt>
      <trkpt lat="47.27141" lon="-2.29175">
        <ele>-10.199999809265</ele>
        <time>2021-07-04T07:30:42.000Z</time>
      </trkpt>
      <trkpt lat="47.27144" lon="-2.29165">
        <ele>-10.199999809265</ele>
        <time>2021-07-04T07:30:44.000Z</time>
      </trkpt>
      <trkpt lat="47.2715" lon="-2.29154">
        <ele>-10.199999809265</ele>
        <time>2021-07-04T07:30:46.000Z</time>
      </trkpt>
      <trkpt lat="47.27158" lon="-2.29144">
        <ele>-10.199999809265</ele>
        <time>2021-07-04T07:30:48.000Z</time>
      </trkpt>
      <trkpt lat="47.27171" lon="-2.29131">
        <ele>-10.199999809265</ele>
        <time>2021-07-04T07:30:51.000Z</time>
      </trkpt>
      <trkpt lat="47.27175" lon="-2.29123">
        <ele>-10.199999809265</ele>
        <time>2021-07-04T07:30:53.000Z</time>
      </trkpt>
      <trkpt lat="47.27171" lon="-2.29114">
        <ele>-10.199999809265</ele>
        <time>2021-07-04T07:30:56.000Z</time>
      </trkpt>
      <trkpt lat="47.27162" lon="-2.29111">
        <ele>-10.199999809265</ele>
        <time>2021-07-04T07:30:58.000Z</time>
      </trkpt>
      <trkpt lat="47.27157" lon="-2.29109">
        <ele>-10.199999809265</ele>
        <time>2021-07-04T07:30:59.000Z</time>
      </trkpt>
      <trkpt lat="47.27138" lon="-2.291">
        <ele>-10.199999809265</ele>
        <time>2021-07-04T07:31:03.000Z</time>
      </trkpt>
      <trkpt lat="47.27134" lon="-2.29097">
        <ele>-10.199999809265</ele>
        <time>2021-07-04T07:31:04.000Z</time>
      </trkpt>
      <trkpt lat="47.27103" lon="-2.29079">
        <ele>-10.199999809265</ele>
        <time>2021-07-04T07:31:10.000Z</time>
      </trkpt>
      <trkpt lat="47.27067" lon="-2.29063">
        <ele>-10.199999809265</ele>
        <time>2021-07-04T07:31:17.000Z</time>
      </trkpt>
      <trkpt lat="47.27057" lon="-2.29058">
        <ele>-10.199999809265</ele>
        <time>2021-07-04T07:31:19.000Z</time>
      </trkpt>
      <trkpt lat="47.27045" lon="-2.29044">
        <ele>-10.199999809265</ele>
        <time>2021-07-04T07:31:22.000Z</time>
      </trkpt>
      <trkpt lat="47.27041" lon="-2.29038">
        <ele>-10.199999809265</ele>
        <time>2021-07-04T07:31:23.000Z</time>
      </trkpt>
      <trkpt lat="47.27031" lon="-2.29018">
        <ele>-10.199999809265</ele>
        <time>2021-07-04T07:31:26.000Z</time>
      </trkpt>
      <trkpt lat="47.27012" lon="-2.29008">
        <ele>-10.199999809265</ele>
        <time>2021-07-04T07:31:30.000Z</time>
      </trkpt>
      <trkpt lat="47.27" lon="-2.29005">
        <ele>-10.199999809265</ele>
        <time>2021-07-04T07:31:32.000Z</time>
      </trkpt>
      <trkpt lat="47.26989" lon="-2.29002">
        <ele>-10.199999809265</ele>
        <time>2021-07-04T07:31:34.000Z</time>
      </trkpt>
      <trkpt lat="47.26983" lon="-2.29">
        <ele>-10.199999809265</ele>
        <time>2021-07-04T07:31:35.000Z</time>
      </trkpt>
      <trkpt lat="47.26943" lon="-2.2899">
        <ele>-10.199999809265</ele>
        <time>2021-07-04T07:31:42.000Z</time>
      </trkpt>
      <trkpt lat="47.26911" lon="-2.28976">
        <ele>-10.199999809265</ele>
        <time>2021-07-04T07:31:48.000Z</time>
      </trkpt>
      <trkpt lat="47.26881" lon="-2.28966">
        <ele>-10.199999809265</ele>
        <time>2021-07-04T07:31:54.000Z</time>
      </trkpt>
      <trkpt lat="47.26877" lon="-2.28964">
        <ele>-10.199999809265</ele>
        <time>2021-07-04T07:31:55.000Z</time>
      </trkpt>
      <trkpt lat="47.26858" lon="-2.28954">
        <ele>-10.199999809265</ele>
        <time>2021-07-04T07:31:59.000Z</time>
      </trkpt>
      <trkpt lat="47.26824" lon="-2.28932">
        <ele>-10.199999809265</ele>
        <time>2021-07-04T07:32:06.000Z</time>
      </trkpt>
      <trkpt lat="47.26798" lon="-2.28919">
        <ele>-10.199999809265</ele>
        <time>2021-07-04T07:32:12.000Z</time>
      </trkpt>
      <trkpt lat="47.26786" lon="-2.28913">
        <ele>-10.199999809265</ele>
        <time>2021-07-04T07:32:16.000Z</time>
      </trkpt>
      <trkpt lat="47.26775" lon="-2.28901">
        <ele>-10.199999809265</ele>
        <time>2021-07-04T07:32:23.000Z</time>
      </trkpt>
      <trkpt lat="47.26757" lon="-2.28887">
        <ele>-10.199999809265</ele>
        <time>2021-07-04T07:32:28.000Z</time>
      </trkpt>
      <trkpt lat="47.26752" lon="-2.28883">
        <ele>-10.199999809265</ele>
        <time>2021-07-04T07:32:29.000Z</time>
      </trkpt>
      <trkpt lat="47.26738" lon="-2.28869">
        <ele>-9.8000001907349</ele>
        <time>2021-07-04T07:32:32.000Z</time>
      </trkpt>
      <trkpt lat="47.26733" lon="-2.28865">
        <ele>-9.3999996185303</ele>
        <time>2021-07-04T07:32:33.000Z</time>
      </trkpt>
      <trkpt lat="47.26729" lon="-2.28861">
        <ele>-8.8000001907349</ele>
        <time>2021-07-04T07:32:34.000Z</time>
      </trkpt>
      <trkpt lat="47.26724" lon="-2.28856">
        <ele>-8.3999996185303</ele>
        <time>2021-07-04T07:32:35.000Z</time>
      </trkpt>
      <trkpt lat="47.2672" lon="-2.28852">
        <ele>-8</ele>
        <time>2021-07-04T07:32:36.000Z</time>
      </trkpt>
      <trkpt lat="47.26701" lon="-2.28836">
        <ele>-8</ele>
        <time>2021-07-04T07:32:40.000Z</time>
      </trkpt>
      <trkpt lat="47.26684" lon="-2.28819">
        <ele>-8</ele>
        <time>2021-07-04T07:32:44.000Z</time>
      </trkpt>
      <trkpt lat="47.26676" lon="-2.28809">
        <ele>-8</ele>
        <time>2021-07-04T07:32:46.000Z</time>
      </trkpt>
      <trkpt lat="47.2665" lon="-2.28781">
        <ele>-8</ele>
        <time>2021-07-04T07:32:52.000Z</time>
      </trkpt>
      <trkpt lat="47.26645" lon="-2.28776">
        <ele>-8</ele>
        <time>2021-07-04T07:32:53.000Z</time>
      </trkpt>
      <trkpt lat="47.2661" lon="-2.2874">
        <ele>-8</ele>
        <time>2021-07-04T07:33:01.000Z</time>
      </trkpt>
      <trkpt lat="47.26593" lon="-2.28721">
        <ele>-7.5999999046326</ele>
        <time>2021-07-04T07:33:05.000Z</time>
      </trkpt>
      <trkpt lat="47.26588" lon="-2.28716">
        <ele>-7.1999998092651</ele>
        <time>2021-07-04T07:33:06.000Z</time>
      </trkpt>
      <trkpt lat="47.26584" lon="-2.2871">
        <ele>-6.8000001907349</ele>
        <time>2021-07-04T07:33:07.000Z</time>
      </trkpt>
      <trkpt lat="47.26578" lon="-2.28704">
        <ele>-6.4000000953674</ele>
        <time>2021-07-04T07:33:08.000Z</time>
      </trkpt>
      <trkpt lat="47.26573" lon="-2.28698">
        <ele>-6</ele>
        <time>2021-07-04T07:33:09.000Z</time>
      </trkpt>
      <trkpt lat="47.26559" lon="-2.28683">
        <ele>-6</ele>
        <time>2021-07-04T07:33:12.000Z</time>
      </trkpt>
      <trkpt lat="47.26548" lon="-2.28675">
        <ele>-6</ele>
        <time>2021-07-04T07:33:14.000Z</time>
      </trkpt>
      <trkpt lat="47.26534" lon="-2.28661">
        <ele>-6</ele>
        <time>2021-07-04T07:33:17.000Z</time>
      </trkpt>
      <trkpt lat="47.26531" lon="-2.28656">
        <ele>-6</ele>
        <time>2021-07-04T07:33:18.000Z</time>
      </trkpt>
      <trkpt lat="47.2652" lon="-2.28638">
        <ele>-5.1999998092651</ele>
        <time>2021-07-04T07:33:21.000Z</time>
      </trkpt>
      <trkpt lat="47.26516" lon="-2.28633">
        <ele>-4.8000001907349</ele>
        <time>2021-07-04T07:33:22.000Z</time>
      </trkpt>
      <trkpt lat="47.26512" lon="-2.28628">
        <ele>-4.4000000953674</ele>
        <time>2021-07-04T07:33:23.000Z</time>
      </trkpt>
      <trkpt lat="47.26507" lon="-2.28624">
        <ele>-3.7999999523163</ele>
        <time>2021-07-04T07:33:24.000Z</time>
      </trkpt>
      <trkpt lat="47.26504" lon="-2.28619">
        <ele>-3.7999999523163</ele>
        <time>2021-07-04T07:33:25.000Z</time>
      </trkpt>
      <trkpt lat="47.26501" lon="-2.28599">
        <ele>-3.7999999523163</ele>
        <time>2021-07-04T07:33:28.000Z</time>
      </trkpt>
      <trkpt lat="47.26501" lon="-2.28591">
        <ele>-3.7999999523163</ele>
        <time>2021-07-04T07:33:29.000Z</time>
      </trkpt>
      <trkpt lat="47.265" lon="-2.28576">
        <ele>-3.7999999523163</ele>
        <time>2021-07-04T07:33:31.000Z</time>
      </trkpt>
      <trkpt lat="47.26497" lon="-2.28562">
        <ele>-3.7999999523163</ele>
        <time>2021-07-04T07:33:33.000Z</time>
      </trkpt>
      <trkpt lat="47.2649" lon="-2.28548">
        <ele>-3.7999999523163</ele>
        <time>2021-07-04T07:33:35.000Z</time>
      </trkpt>
      <trkpt lat="47.26475" lon="-2.28523">
        <ele>-3.7999999523163</ele>
        <time>2021-07-04T07:33:39.000Z</time>
      </trkpt>
      <trkpt lat="47.26452" lon="-2.28481">
        <ele>-3.7999999523163</ele>
        <time>2021-07-04T07:33:46.000Z</time>
      </trkpt>
      <trkpt lat="47.26446" lon="-2.28469">
        <ele>-3.4000000953674</ele>
        <time>2021-07-04T07:33:48.000Z</time>
      </trkpt>
      <trkpt lat="47.26443" lon="-2.28464">
        <ele>-3</ele>
        <time>2021-07-04T07:33:49.000Z</time>
      </trkpt>
      <trkpt lat="47.2644" lon="-2.28458">
        <ele>-2.5999999046326</ele>
        <time>2021-07-04T07:33:50.000Z</time>
      </trkpt>
      <trkpt lat="47.26437" lon="-2.28452">
        <ele>-2.2000000476837</ele>
        <time>2021-07-04T07:33:51.000Z</time>
      </trkpt>
      <trkpt lat="47.26434" lon="-2.28446">
        <ele>-1.7999999523163</ele>
        <time>2021-07-04T07:33:52.000Z</time>
      </trkpt>
      <trkpt lat="47.26429" lon="-2.28434">
        <ele>-1.7999999523163</ele>
        <time>2021-07-04T07:33:54.000Z</time>
      </trkpt>
      <trkpt lat="47.26417" lon="-2.28409">
        <ele>-1.7999999523163</ele>
        <time>2021-07-04T07:33:58.000Z</time>
      </trkpt>
      <trkpt lat="47.26397" lon="-2.28365">
        <ele>-1.7999999523163</ele>
        <time>2021-07-04T07:34:05.000Z</time>
      </trkpt>
      <trkpt lat="47.26386" lon="-2.28341">
        <ele>-1.3999999761581</ele>
        <time>2021-07-04T07:34:09.000Z</time>
      </trkpt>
      <trkpt lat="47.26383" lon="-2.28336">
        <ele>-1</ele>
        <time>2021-07-04T07:34:10.000Z</time>
      </trkpt>
      <trkpt lat="47.26381" lon="-2.2833">
        <ele>-0.20000000298023</ele>
        <time>2021-07-04T07:34:11.000Z</time>
      </trkpt>
      <trkpt lat="47.26378" lon="-2.28324">
        <ele>0.20000000298023</ele>
        <time>2021-07-04T07:34:12.000Z</time>
      </trkpt>
      <trkpt lat="47.26376" lon="-2.28317">
        <ele>0.20000000298023</ele>
        <time>2021-07-04T07:34:13.000Z</time>
      </trkpt>
      <trkpt lat="47.26365" lon="-2.28285">
        <ele>0.20000000298023</ele>
        <time>2021-07-04T07:34:18.000Z</time>
      </trkpt>
      <trkpt lat="47.26354" lon="-2.2824">
        <ele>0.20000000298023</ele>
        <time>2021-07-04T07:34:24.000Z</time>
      </trkpt>
      <trkpt lat="47.2634" lon="-2.28177">
        <ele>0.20000000298023</ele>
        <time>2021-07-04T07:34:32.000Z</time>
      </trkpt>
      <trkpt lat="47.26331" lon="-2.2812">
        <ele>0.20000000298023</ele>
        <time>2021-07-04T07:34:39.000Z</time>
      </trkpt>
      <trkpt lat="47.26325" lon="-2.28076">
        <ele>-0.20000000298023</ele>
        <time>2021-07-04T07:34:44.000Z</time>
      </trkpt>
      <trkpt lat="47.26323" lon="-2.28068">
        <ele>-0.60000002384186</ele>
        <time>2021-07-04T07:34:45.000Z</time>
      </trkpt>
      <trkpt lat="47.2632" lon="-2.2806">
        <ele>-1</ele>
        <time>2021-07-04T07:34:46.000Z</time>
      </trkpt>
      <trkpt lat="47.26318" lon="-2.28051">
        <ele>-1.3999999761581</ele>
        <time>2021-07-04T07:34:47.000Z</time>
      </trkpt>
      <trkpt lat="47.26316" lon="-2.28043">
        <ele>-1.7999999523163</ele>
        <time>2021-07-04T07:34:48.000Z</time>
      </trkpt>
      <trkpt lat="47.26313" lon="-2.28035">
        <ele>-1.7999999523163</ele>
        <time>2021-07-04T07:34:49.000Z</time>
      </trkpt>
      <trkpt lat="47.26305" lon="-2.28012">
        <ele>-1.7999999523163</ele>
        <time>2021-07-04T07:34:52.000Z</time>
      </trkpt>
      <trkpt lat="47.26296" lon="-2.27982">
        <ele>-1.7999999523163</ele>
        <time>2021-07-04T07:34:57.000Z</time>
      </trkpt>
      <trkpt lat="47.26296" lon="-2.2798">
        <ele>-1.7999999523163</ele>
        <time>2021-07-04T07:34:58.000Z</time>
      </trkpt>
      <trkpt lat="47.26298" lon="-2.27977">
        <ele>-1.7999999523163</ele>
        <time>2021-07-04T07:35:00.000Z</time>
      </trkpt>
      <trkpt lat="47.26299" lon="-2.27976">
        <ele>-1.7999999523163</ele>
        <time>2021-07-04T07:35:02.000Z</time>
      </trkpt>
      <trkpt lat="47.26296" lon="-2.27973">
        <ele>-1.7999999523163</ele>
        <time>2021-07-04T07:35:16.000Z</time>
      </trkpt>
      <trkpt lat="47.26295" lon="-2.27971">
        <ele>-1.7999999523163</ele>
        <time>2021-07-04T07:35:17.000Z</time>
      </trkpt>
      <trkpt lat="47.26293" lon="-2.2797">
        <ele>-1.7999999523163</ele>
        <time>2021-07-04T07:35:18.000Z</time>
      </trkpt>
      <trkpt lat="47.26284" lon="-2.27965">
        <ele>-2.2000000476837</ele>
        <time>2021-07-04T07:35:21.000Z</time>
      </trkpt>
      <trkpt lat="47.2628" lon="-2.27962">
        <ele>-2.7999999523163</ele>
        <time>2021-07-04T07:35:22.000Z</time>
      </trkpt>
      <trkpt lat="47.26277" lon="-2.27958">
        <ele>-3.2000000476837</ele>
        <time>2021-07-04T07:35:23.000Z</time>
      </trkpt>
      <trkpt lat="47.26275" lon="-2.27953">
        <ele>-3.5999999046326</ele>
        <time>2021-07-04T07:35:24.000Z</time>
      </trkpt>
      <trkpt lat="47.26272" lon="-2.27948">
        <ele>-4</ele>
        <time>2021-07-04T07:35:25.000Z</time>
      </trkpt>
      <trkpt lat="47.26251" lon="-2.27907">
        <ele>-4</ele>
        <time>2021-07-04T07:35:33.000Z</time>
      </trkpt>
      <trkpt lat="47.26234" lon="-2.27875">
        <ele>-4</ele>
        <time>2021-07-04T07:35:39.000Z</time>
      </trkpt>
      <trkpt lat="47.26229" lon="-2.27864">
        <ele>-4</ele>
        <time>2021-07-04T07:35:41.000Z</time>
      </trkpt>
      <trkpt lat="47.26217" lon="-2.27841">
        <ele>-4</ele>
        <time>2021-07-04T07:35:45.000Z</time>
      </trkpt>
      <trkpt lat="47.26192" lon="-2.2779">
        <ele>-4</ele>
        <time>2021-07-04T07:35:54.000Z</time>
      </trkpt>
      <trkpt lat="47.2618" lon="-2.27748">
        <ele>-4</ele>
        <time>2021-07-04T07:36:00.000Z</time>
      </trkpt>
      <trkpt lat="47.26174" lon="-2.27728">
        <ele>-4</ele>
        <time>2021-07-04T07:36:03.000Z</time>
      </trkpt>
      <trkpt lat="47.26167" lon="-2.27708">
        <ele>-4</ele>
        <time>2021-07-04T07:36:06.000Z</time>
      </trkpt>
      <trkpt lat="47.26157" lon="-2.27668">
        <ele>-4</ele>
        <time>2021-07-04T07:36:12.000Z</time>
      </trkpt>
      <trkpt lat="47.26157" lon="-2.27663">
        <ele>-4</ele>
        <time>2021-07-04T07:36:13.000Z</time>
      </trkpt>
      <trkpt lat="47.26155" lon="-2.27652">
        <ele>-4</ele>
        <time>2021-07-04T07:36:17.000Z</time>
      </trkpt>
      <trkpt lat="47.26155" lon="-2.27652">
        <ele>-4</ele>
        <time>2021-07-04T07:36:18.000Z</time>
      </trkpt>
      <trkpt lat="47.26151" lon="-2.27645">
        <ele>-2</ele>
        <time>2021-07-04T07:40:00.000Z</time>
      </trkpt>
      <trkpt lat="47.2615" lon="-2.27644">
        <ele>-2</ele>
        <time>2021-07-04T07:40:01.000Z</time>
      </trkpt>
      <trkpt lat="47.26149" lon="-2.27642">
        <ele>-2</ele>
        <time>2021-07-04T07:40:02.000Z</time>
      </trkpt>
      <trkpt lat="47.26147" lon="-2.27632">
        <ele>-2</ele>
        <time>2021-07-04T07:40:05.000Z</time>
      </trkpt>
      <trkpt lat="47.26145" lon="-2.27624">
        <ele>-2</ele>
        <time>2021-07-04T07:40:07.000Z</time>
      </trkpt>
      <trkpt lat="47.26139" lon="-2.27598">
        <ele>-2</ele>
        <time>2021-07-04T07:40:12.000Z</time>
      </trkpt>
      <trkpt lat="47.26126" lon="-2.27587">
        <ele>-2</ele>
        <time>2021-07-04T07:40:15.000Z</time>
      </trkpt>
      <trkpt lat="47.26114" lon="-2.27591">
        <ele>-2</ele>
        <time>2021-07-04T07:40:18.000Z</time>
      </trkpt>
      <trkpt lat="47.26106" lon="-2.27595">
        <ele>-2</ele>
        <time>2021-07-04T07:40:20.000Z</time>
      </trkpt>
      <trkpt lat="47.26089" lon="-2.27605">
        <ele>-2</ele>
        <time>2021-07-04T07:40:25.000Z</time>
      </trkpt>
      <trkpt lat="47.2607" lon="-2.27615">
        <ele>-2</ele>
        <time>2021-07-04T07:40:30.000Z</time>
      </trkpt>
      <trkpt lat="47.26061" lon="-2.27617">
        <ele>-2</ele>
        <time>2021-07-04T07:40:32.000Z</time>
      </trkpt>
      <trkpt lat="47.26048" lon="-2.27621">
        <ele>-2</ele>
        <time>2021-07-04T07:40:35.000Z</time>
      </trkpt>
      <trkpt lat="47.26039" lon="-2.27617">
        <ele>-2</ele>
        <time>2021-07-04T07:40:37.000Z</time>
      </trkpt>
      <trkpt lat="47.26032" lon="-2.27601">
        <ele>-2</ele>
        <time>2021-07-04T07:40:40.000Z</time>
      </trkpt>
      <trkpt lat="47.2603" lon="-2.27596">
        <ele>-2</ele>
        <time>2021-07-04T07:40:41.000Z</time>
      </trkpt>
      <trkpt lat="47.26024" lon="-2.27571">
        <ele>-2</ele>
        <time>2021-07-04T07:40:45.000Z</time>
      </trkpt>
      <trkpt lat="47.26023" lon="-2.27565">
        <ele>-2</ele>
        <time>2021-07-04T07:40:46.000Z</time>
      </trkpt>
      <trkpt lat="47.26017" lon="-2.2754">
        <ele>-2</ele>
        <time>2021-07-04T07:40:50.000Z</time>
      </trkpt>
      <trkpt lat="47.26017" lon="-2.27534">
        <ele>-2</ele>
        <time>2021-07-04T07:40:51.000Z</time>
      </trkpt>
      <trkpt lat="47.26019" lon="-2.27518">
        <ele>-2</ele>
        <time>2021-07-04T07:40:54.000Z</time>
      </trkpt>
      <trkpt lat="47.26025" lon="-2.27495">
        <ele>-2</ele>
        <time>2021-07-04T07:40:58.000Z</time>
      </trkpt>
      <trkpt lat="47.26026" lon="-2.27489">
        <ele>-2</ele>
        <time>2021-07-04T07:40:59.000Z</time>
      </trkpt>
      <trkpt lat="47.26038" lon="-2.27452">
        <ele>-2</ele>
        <time>2021-07-04T07:41:05.000Z</time>
      </trkpt>
      <trkpt lat="47.26046" lon="-2.27432">
        <ele>-2</ele>
        <time>2021-07-04T07:41:08.000Z</time>
      </trkpt>
      <trkpt lat="47.26058" lon="-2.2741">
        <ele>-2</ele>
        <time>2021-07-04T07:41:11.000Z</time>
      </trkpt>
      <trkpt lat="47.26082" lon="-2.27377">
        <ele>-2</ele>
        <time>2021-07-04T07:41:17.000Z</time>
      </trkpt>
      <trkpt lat="47.26091" lon="-2.27366">
        <ele>-2</ele>
        <time>2021-07-04T07:41:19.000Z</time>
      </trkpt>
      <trkpt lat="47.26101" lon="-2.27355">
        <ele>-2</ele>
        <time>2021-07-04T07:41:21.000Z</time>
      </trkpt>
      <trkpt lat="47.26106" lon="-2.27349">
        <ele>-2</ele>
        <time>2021-07-04T07:41:22.000Z</time>
      </trkpt>
      <trkpt lat="47.26133" lon="-2.27322">
        <ele>-2</ele>
        <time>2021-07-04T07:41:28.000Z</time>
      </trkpt>
      <trkpt lat="47.26139" lon="-2.2732">
        <ele>-2</ele>
        <time>2021-07-04T07:41:29.000Z</time>
      </trkpt>
      <trkpt lat="47.26154" lon="-2.27321">
        <ele>-2</ele>
        <time>2021-07-04T07:41:32.000Z</time>
      </trkpt>
      <trkpt lat="47.2616" lon="-2.27321">
        <ele>-2</ele>
        <time>2021-07-04T07:41:33.000Z</time>
      </trkpt>
      <trkpt lat="47.26165" lon="-2.2732">
        <ele>-2</ele>
        <time>2021-07-04T07:41:34.000Z</time>
      </trkpt>
      <trkpt lat="47.26193" lon="-2.27315">
        <ele>-2</ele>
        <time>2021-07-04T07:41:39.000Z</time>
      </trkpt>
      <trkpt lat="47.26209" lon="-2.27317">
        <ele>-2</ele>
        <time>2021-07-04T07:41:42.000Z</time>
      </trkpt>
      <trkpt lat="47.2622" lon="-2.27319">
        <ele>-2</ele>
        <time>2021-07-04T07:41:44.000Z</time>
      </trkpt>
      <trkpt lat="47.26255" lon="-2.27322">
        <ele>-2</ele>
        <time>2021-07-04T07:41:50.000Z</time>
      </trkpt>
      <trkpt lat="47.26292" lon="-2.27326">
        <ele>-2</ele>
        <time>2021-07-04T07:41:56.000Z</time>
      </trkpt>
      <trkpt lat="47.26325" lon="-2.27329">
        <ele>-2</ele>
        <time>2021-07-04T07:42:01.000Z</time>
      </trkpt>
      <trkpt lat="47.26361" lon="-2.27332">
        <ele>-2</ele>
        <time>2021-07-04T07:42:07.000Z</time>
      </trkpt>
      <trkpt lat="47.26404" lon="-2.27332">
        <ele>-2</ele>
        <time>2021-07-04T07:42:14.000Z</time>
      </trkpt>
      <trkpt lat="47.26415" lon="-2.27335">
        <ele>-2</ele>
        <time>2021-07-04T07:42:16.000Z</time>
      </trkpt>
      <trkpt lat="47.26424" lon="-2.27342">
        <ele>-2</ele>
        <time>2021-07-04T07:42:18.000Z</time>
      </trkpt>
      <trkpt lat="47.26431" lon="-2.27353">
        <ele>-2</ele>
        <time>2021-07-04T07:42:20.000Z</time>
      </trkpt>
      <trkpt lat="47.26437" lon="-2.27366">
        <ele>-2</ele>
        <time>2021-07-04T07:42:22.000Z</time>
      </trkpt>
      <trkpt lat="47.26449" lon="-2.274">
        <ele>-2</ele>
        <time>2021-07-04T07:42:28.000Z</time>
      </trkpt>
      <trkpt lat="47.26462" lon="-2.27439">
        <ele>-2</ele>
        <time>2021-07-04T07:42:33.000Z</time>
      </trkpt>
      <trkpt lat="47.26476" lon="-2.27485">
        <ele>-2</ele>
        <time>2021-07-04T07:42:39.000Z</time>
      </trkpt>
      <trkpt lat="47.26485" lon="-2.27516">
        <ele>-2</ele>
        <time>2021-07-04T07:42:43.000Z</time>
      </trkpt>
      <trkpt lat="47.26488" lon="-2.27534">
        <ele>-2</ele>
        <time>2021-07-04T07:42:45.000Z</time>
      </trkpt>
      <trkpt lat="47.26494" lon="-2.27567">
        <ele>-2</ele>
        <time>2021-07-04T07:42:49.000Z</time>
      </trkpt>
      <trkpt lat="47.26497" lon="-2.27572">
        <ele>-2</ele>
        <time>2021-07-04T07:42:50.000Z</time>
      </trkpt>
      <trkpt lat="47.2651" lon="-2.27577">
        <ele>-2</ele>
        <time>2021-07-04T07:42:53.000Z</time>
      </trkpt>
      <trkpt lat="47.26531" lon="-2.27581">
        <ele>-2</ele>
        <time>2021-07-04T07:42:57.000Z</time>
      </trkpt>
      <trkpt lat="47.26545" lon="-2.27587">
        <ele>-2</ele>
        <time>2021-07-04T07:43:00.000Z</time>
      </trkpt>
      <trkpt lat="47.26551" lon="-2.27587">
        <ele>-2</ele>
        <time>2021-07-04T07:43:01.000Z</time>
      </trkpt>
      <trkpt lat="47.26574" lon="-2.27587">
        <ele>-2</ele>
        <time>2021-07-04T07:43:05.000Z</time>
      </trkpt>
      <trkpt lat="47.26581" lon="-2.27588">
        <ele>-2</ele>
        <time>2021-07-04T07:43:06.000Z</time>
      </trkpt>
      <trkpt lat="47.26605" lon="-2.27595">
        <ele>-2</ele>
        <time>2021-07-04T07:43:10.000Z</time>
      </trkpt>
      <trkpt lat="47.26617" lon="-2.27602">
        <ele>-2</ele>
        <time>2021-07-04T07:43:12.000Z</time>
      </trkpt>
      <trkpt lat="47.26628" lon="-2.27608">
        <ele>-2</ele>
        <time>2021-07-04T07:43:14.000Z</time>
      </trkpt>
      <trkpt lat="47.2665" lon="-2.2762">
        <ele>-2</ele>
        <time>2021-07-04T07:43:18.000Z</time>
      </trkpt>
      <trkpt lat="47.2669" lon="-2.27634">
        <ele>-2</ele>
        <time>2021-07-04T07:43:25.000Z</time>
      </trkpt>
      <trkpt lat="47.26719" lon="-2.27645">
        <ele>-2</ele>
        <time>2021-07-04T07:43:30.000Z</time>
      </trkpt>
      <trkpt lat="47.26737" lon="-2.27652">
        <ele>-2</ele>
        <time>2021-07-04T07:43:33.000Z</time>
      </trkpt>
      <trkpt lat="47.26749" lon="-2.27656">
        <ele>-2</ele>
        <time>2021-07-04T07:43:35.000Z</time>
      </trkpt>
      <trkpt lat="47.26754" lon="-2.27655">
        <ele>-2</ele>
        <time>2021-07-04T07:43:36.000Z</time>
      </trkpt>
      <trkpt lat="47.26762" lon="-2.27648">
        <ele>-2</ele>
        <time>2021-07-04T07:43:38.000Z</time>
      </trkpt>
      <trkpt lat="47.26767" lon="-2.27631">
        <ele>-2</ele>
        <time>2021-07-04T07:43:41.000Z</time>
      </trkpt>
      <trkpt lat="47.26762" lon="-2.27599">
        <ele>-2</ele>
        <time>2021-07-04T07:43:45.000Z</time>
      </trkpt>
      <trkpt lat="47.26756" lon="-2.27548">
        <ele>-2</ele>
        <time>2021-07-04T07:43:51.000Z</time>
      </trkpt>
      <trkpt lat="47.26755" lon="-2.2754">
        <ele>-2</ele>
        <time>2021-07-04T07:43:52.000Z</time>
      </trkpt>
      <trkpt lat="47.26754" lon="-2.27469">
        <ele>-2</ele>
        <time>2021-07-04T07:44:01.000Z</time>
      </trkpt>
      <trkpt lat="47.26753" lon="-2.27439">
        <ele>-2</ele>
        <time>2021-07-04T07:44:05.000Z</time>
      </trkpt>
      <trkpt lat="47.26754" lon="-2.27419">
        <ele>-2</ele>
        <time>2021-07-04T07:44:08.000Z</time>
      </trkpt>
      <trkpt lat="47.26764" lon="-2.27413">
        <ele>-2</ele>
        <time>2021-07-04T07:44:11.000Z</time>
      </trkpt>
      <trkpt lat="47.26772" lon="-2.27415">
        <ele>-2</ele>
        <time>2021-07-04T07:44:13.000Z</time>
      </trkpt>
      <trkpt lat="47.2678" lon="-2.27416">
        <ele>-2</ele>
        <time>2021-07-04T07:44:15.000Z</time>
      </trkpt>
      <trkpt lat="47.26804" lon="-2.27418">
        <ele>-2</ele>
        <time>2021-07-04T07:44:22.000Z</time>
      </trkpt>
      <trkpt lat="47.26819" lon="-2.27416">
        <ele>-2</ele>
        <time>2021-07-04T07:44:28.000Z</time>
      </trkpt>
      <trkpt lat="47.26836" lon="-2.27411">
        <ele>-2</ele>
        <time>2021-07-04T07:44:34.000Z</time>
      </trkpt>
      <trkpt lat="47.26856" lon="-2.27403">
        <ele>-2</ele>
        <time>2021-07-04T07:44:39.000Z</time>
      </trkpt>
      <trkpt lat="47.26873" lon="-2.27394">
        <ele>-2</ele>
        <time>2021-07-04T07:44:44.000Z</time>
      </trkpt>
      <trkpt lat="47.26885" lon="-2.27388">
        <ele>-2</ele>
        <time>2021-07-04T07:44:49.000Z</time>
      </trkpt>
      <trkpt lat="47.26887" lon="-2.27386">
        <ele>-2.4000000953674</ele>
        <time>2021-07-04T07:44:50.000Z</time>
      </trkpt>
      <trkpt lat="47.26889" lon="-2.27384">
        <ele>-2.7999999523163</ele>
        <time>2021-07-04T07:44:51.000Z</time>
      </trkpt>
      <trkpt lat="47.2689" lon="-2.27382">
        <ele>-3.5999999046326</ele>
        <time>2021-07-04T07:44:52.000Z</time>
      </trkpt>
      <trkpt lat="47.26892" lon="-2.27379">
        <ele>-4</ele>
        <time>2021-07-04T07:44:53.000Z</time>
      </trkpt>
      <trkpt lat="47.26896" lon="-2.27371">
        <ele>-4</ele>
        <time>2021-07-04T07:44:55.000Z</time>
      </trkpt>
      <trkpt lat="47.26903" lon="-2.27351">
        <ele>-4</ele>
        <time>2021-07-04T07:45:02.000Z</time>
      </trkpt>
      <trkpt lat="47.26913" lon="-2.27331">
        <ele>-4</ele>
        <time>2021-07-04T07:45:08.000Z</time>
      </trkpt>
      <trkpt lat="47.26927" lon="-2.27306">
        <ele>-4</ele>
        <time>2021-07-04T07:45:15.000Z</time>
      </trkpt>
      <trkpt lat="47.26929" lon="-2.27291">
        <ele>-4</ele>
        <time>2021-07-04T07:45:21.000Z</time>
      </trkpt>
      <trkpt lat="47.26933" lon="-2.2727">
        <ele>-4</ele>
        <time>2021-07-04T07:45:26.000Z</time>
      </trkpt>
      <trkpt lat="47.26939" lon="-2.27262">
        <ele>-4</ele>
        <time>2021-07-04T07:45:30.000Z</time>
      </trkpt>
      <trkpt lat="47.26945" lon="-2.2726">
        <ele>-4</ele>
        <time>2021-07-04T07:45:32.000Z</time>
      </trkpt>
      <trkpt lat="47.26953" lon="-2.27259">
        <ele>-4</ele>
        <time>2021-07-04T07:45:35.000Z</time>
      </trkpt>
      <trkpt lat="47.2696" lon="-2.27248">
        <ele>-4</ele>
        <time>2021-07-04T07:45:39.000Z</time>
      </trkpt>
      <trkpt lat="47.26962" lon="-2.27244">
        <ele>-4</ele>
        <time>2021-07-04T07:45:40.000Z</time>
      </trkpt>
      <trkpt lat="47.26969" lon="-2.2723">
        <ele>-4</ele>
        <time>2021-07-04T07:45:45.000Z</time>
      </trkpt>
      <trkpt lat="47.26969" lon="-2.27227">
        <ele>-4</ele>
        <time>2021-07-04T07:45:46.000Z</time>
      </trkpt>
      <trkpt lat="47.26967" lon="-2.27211">
        <ele>-4</ele>
        <time>2021-07-04T07:45:50.000Z</time>
      </trkpt>
      <trkpt lat="47.26968" lon="-2.27204">
        <ele>-4</ele>
        <time>2021-07-04T07:45:52.000Z</time>
      </trkpt>
      <trkpt lat="47.26971" lon="-2.27201">
        <ele>-4</ele>
        <time>2021-07-04T07:45:54.000Z</time>
      </trkpt>
      <trkpt lat="47.26973" lon="-2.27199">
        <ele>-4</ele>
        <time>2021-07-04T07:45:55.000Z</time>
      </trkpt>
      <trkpt lat="47.26982" lon="-2.27194">
        <ele>-4</ele>
        <time>2021-07-04T07:46:01.000Z</time>
      </trkpt>
      <trkpt lat="47.26993" lon="-2.27189">
        <ele>-4</ele>
        <time>2021-07-04T07:46:07.000Z</time>
      </trkpt>
      <trkpt lat="47.27003" lon="-2.2718">
        <ele>-4</ele>
        <time>2021-07-04T07:46:15.000Z</time>
      </trkpt>
      <trkpt lat="47.27007" lon="-2.27167">
        <ele>-6</ele>
        <time>2021-07-04T07:46:25.000Z</time>
      </trkpt>
      <trkpt lat="47.27009" lon="-2.27164">
        <ele>-6</ele>
        <time>2021-07-04T07:46:28.000Z</time>
      </trkpt>
      <trkpt lat="47.27013" lon="-2.27161">
        <ele>-6</ele>
        <time>2021-07-04T07:46:30.000Z</time>
      </trkpt>
      <trkpt lat="47.27019" lon="-2.27155">
        <ele>-6</ele>
        <time>2021-07-04T07:46:34.000Z</time>
      </trkpt>
      <trkpt lat="47.27022" lon="-2.27157">
        <ele>-6</ele>
        <time>2021-07-04T07:46:36.000Z</time>
      </trkpt>
      <trkpt lat="47.27026" lon="-2.27161">
        <ele>-6</ele>
        <time>2021-07-04T07:46:39.000Z</time>
      </trkpt>
      <trkpt lat="47.27038" lon="-2.27178">
        <ele>-6</ele>
        <time>2021-07-04T07:46:45.000Z</time>
      </trkpt>
      <trkpt lat="47.27049" lon="-2.27187">
        <ele>-6.4000000953674</ele>
        <time>2021-07-04T07:46:48.000Z</time>
      </trkpt>
      <trkpt lat="47.27053" lon="-2.27191">
        <ele>-6.8000001907349</ele>
        <time>2021-07-04T07:46:49.000Z</time>
      </trkpt>
      <trkpt lat="47.27058" lon="-2.27194">
        <ele>-7.1999998092651</ele>
        <time>2021-07-04T07:46:50.000Z</time>
      </trkpt>
      <trkpt lat="47.27061" lon="-2.27198">
        <ele>-7.5999999046326</ele>
        <time>2021-07-04T07:46:51.000Z</time>
      </trkpt>
      <trkpt lat="47.27064" lon="-2.27202">
        <ele>-8</ele>
        <time>2021-07-04T07:46:52.000Z</time>
      </trkpt>
      <trkpt lat="47.27076" lon="-2.27217">
        <ele>-8</ele>
        <time>2021-07-04T07:46:56.000Z</time>
      </trkpt>
      <trkpt lat="47.27095" lon="-2.27246">
        <ele>-8</ele>
        <time>2021-07-04T07:47:03.000Z</time>
      </trkpt>
      <trkpt lat="47.27108" lon="-2.27266">
        <ele>-8</ele>
        <time>2021-07-04T07:47:08.000Z</time>
      </trkpt>
      <trkpt lat="47.27122" lon="-2.27293">
        <ele>-8</ele>
        <time>2021-07-04T07:47:14.000Z</time>
      </trkpt>
      <trkpt lat="47.27128" lon="-2.2732">
        <ele>-8</ele>
        <time>2021-07-04T07:47:19.000Z</time>
      </trkpt>
      <trkpt lat="47.27129" lon="-2.27328">
        <ele>-8</ele>
        <time>2021-07-04T07:47:20.000Z</time>
      </trkpt>
      <trkpt lat="47.27133" lon="-2.27355">
        <ele>-8</ele>
        <time>2021-07-04T07:47:24.000Z</time>
      </trkpt>
      <trkpt lat="47.27141" lon="-2.27393">
        <ele>-8</ele>
        <time>2021-07-04T07:47:30.000Z</time>
      </trkpt>
      <trkpt lat="47.27146" lon="-2.27427">
        <ele>-8</ele>
        <time>2021-07-04T07:47:36.000Z</time>
      </trkpt>
      <trkpt lat="47.27147" lon="-2.27433">
        <ele>-8</ele>
        <time>2021-07-04T07:47:37.000Z</time>
      </trkpt>
      <trkpt lat="47.27153" lon="-2.27468">
        <ele>-8</ele>
        <time>2021-07-04T07:47:42.000Z</time>
      </trkpt>
      <trkpt lat="47.27153" lon="-2.27477">
        <ele>-8</ele>
        <time>2021-07-04T07:47:43.000Z</time>
      </trkpt>
      <trkpt lat="47.27154" lon="-2.27514">
        <ele>-8</ele>
        <time>2021-07-04T07:47:47.000Z</time>
      </trkpt>
      <trkpt lat="47.27154" lon="-2.27548">
        <ele>-8</ele>
        <time>2021-07-04T07:47:51.000Z</time>
      </trkpt>
      <trkpt lat="47.27151" lon="-2.27572">
        <ele>-8</ele>
        <time>2021-07-04T07:47:54.000Z</time>
      </trkpt>
      <trkpt lat="47.27146" lon="-2.27586">
        <ele>-8</ele>
        <time>2021-07-04T07:47:56.000Z</time>
      </trkpt>
      <trkpt lat="47.27129" lon="-2.27605">
        <ele>-8</ele>
        <time>2021-07-04T07:48:00.000Z</time>
      </trkpt>
      <trkpt lat="47.27117" lon="-2.27613">
        <ele>-8</ele>
        <time>2021-07-04T07:48:02.000Z</time>
      </trkpt>
      <trkpt lat="47.27101" lon="-2.27625">
        <ele>-8</ele>
        <time>2021-07-04T07:48:05.000Z</time>
      </trkpt>
      <trkpt lat="47.27069" lon="-2.27649">
        <ele>-8</ele>
        <time>2021-07-04T07:48:11.000Z</time>
      </trkpt>
      <trkpt lat="47.27045" lon="-2.27676">
        <ele>-8</ele>
        <time>2021-07-04T07:48:17.000Z</time>
      </trkpt>
      <trkpt lat="47.27032" lon="-2.27695">
        <ele>-8</ele>
        <time>2021-07-04T07:48:21.000Z</time>
      </trkpt>
      <trkpt lat="47.27029" lon="-2.27707">
        <ele>-8</ele>
        <time>2021-07-04T07:48:23.000Z</time>
      </trkpt>
      <trkpt lat="47.27034" lon="-2.27722">
        <ele>-8</ele>
        <time>2021-07-04T07:48:26.000Z</time>
      </trkpt>
      <trkpt lat="47.27046" lon="-2.27728">
        <ele>-8</ele>
        <time>2021-07-04T07:48:29.000Z</time>
      </trkpt>
      <trkpt lat="47.27054" lon="-2.27733">
        <ele>-8</ele>
        <time>2021-07-04T07:48:31.000Z</time>
      </trkpt>
      <trkpt lat="47.27077" lon="-2.27745">
        <ele>-8</ele>
        <time>2021-07-04T07:48:36.000Z</time>
      </trkpt>
      <trkpt lat="47.27087" lon="-2.27751">
        <ele>-8</ele>
        <time>2021-07-04T07:48:38.000Z</time>
      </trkpt>
      <trkpt lat="47.27095" lon="-2.27758">
        <ele>-8</ele>
        <time>2021-07-04T07:48:40.000Z</time>
      </trkpt>
      <trkpt lat="47.27101" lon="-2.27769">
        <ele>-8</ele>
        <time>2021-07-04T07:48:42.000Z</time>
      </trkpt>
      <trkpt lat="47.27105" lon="-2.27788">
        <ele>-8</ele>
        <time>2021-07-04T07:48:45.000Z</time>
      </trkpt>
      <trkpt lat="47.27111" lon="-2.27806">
        <ele>-8</ele>
        <time>2021-07-04T07:48:48.000Z</time>
      </trkpt>
      <trkpt lat="47.27112" lon="-2.27812">
        <ele>-8</ele>
        <time>2021-07-04T07:48:49.000Z</time>
      </trkpt>
      <trkpt lat="47.27108" lon="-2.27834">
        <ele>-8</ele>
        <time>2021-07-04T07:48:53.000Z</time>
      </trkpt>
      <trkpt lat="47.27106" lon="-2.27841">
        <ele>-8</ele>
        <time>2021-07-04T07:48:54.000Z</time>
      </trkpt>
      <trkpt lat="47.27099" lon="-2.27874">
        <ele>-8</ele>
        <time>2021-07-04T07:48:59.000Z</time>
      </trkpt>
      <trkpt lat="47.27097" lon="-2.27879">
        <ele>-8</ele>
        <time>2021-07-04T07:49:00.000Z</time>
      </trkpt>
      <trkpt lat="47.27089" lon="-2.27891">
        <ele>-8</ele>
        <time>2021-07-04T07:49:03.000Z</time>
      </trkpt>
      <trkpt lat="47.27082" lon="-2.27899">
        <ele>-8</ele>
        <time>2021-07-04T07:49:05.000Z</time>
      </trkpt>
      <trkpt lat="47.27074" lon="-2.27913">
        <ele>-8</ele>
        <time>2021-07-04T07:49:08.000Z</time>
      </trkpt>
      <trkpt lat="47.27069" lon="-2.27936">
        <ele>-8</ele>
        <time>2021-07-04T07:49:12.000Z</time>
      </trkpt>
      <trkpt lat="47.27075" lon="-2.27966">
        <ele>-8</ele>
        <time>2021-07-04T07:49:17.000Z</time>
      </trkpt>
      <trkpt lat="47.27089" lon="-2.27983">
        <ele>-8</ele>
        <time>2021-07-04T07:49:21.000Z</time>
      </trkpt>
      <trkpt lat="47.27104" lon="-2.27989">
        <ele>-8</ele>
        <time>2021-07-04T07:49:24.000Z</time>
      </trkpt>
      <trkpt lat="47.27109" lon="-2.27992">
        <ele>-8</ele>
        <time>2021-07-04T07:49:25.000Z</time>
      </trkpt>
      <trkpt lat="47.27118" lon="-2.28012">
        <ele>-8</ele>
        <time>2021-07-04T07:49:28.000Z</time>
      </trkpt>
      <trkpt lat="47.27121" lon="-2.28044">
        <ele>-8</ele>
        <time>2021-07-04T07:49:32.000Z</time>
      </trkpt>
      <trkpt lat="47.27124" lon="-2.28068">
        <ele>-8</ele>
        <time>2021-07-04T07:49:35.000Z</time>
      </trkpt>
      <trkpt lat="47.27124" lon="-2.28091">
        <ele>-8</ele>
        <time>2021-07-04T07:49:38.000Z</time>
      </trkpt>
      <trkpt lat="47.27126" lon="-2.28134">
        <ele>-8</ele>
        <time>2021-07-04T07:49:44.000Z</time>
      </trkpt>
      <trkpt lat="47.27129" lon="-2.28163">
        <ele>-8</ele>
        <time>2021-07-04T07:49:48.000Z</time>
      </trkpt>
      <trkpt lat="47.27127" lon="-2.2818">
        <ele>-8</ele>
        <time>2021-07-04T07:49:50.000Z</time>
      </trkpt>
      <trkpt lat="47.2712" lon="-2.28235">
        <ele>-8</ele>
        <time>2021-07-04T07:49:56.000Z</time>
      </trkpt>
      <trkpt lat="47.2712" lon="-2.28244">
        <ele>-8</ele>
        <time>2021-07-04T07:49:57.000Z</time>
      </trkpt>
      <trkpt lat="47.27126" lon="-2.28266">
        <ele>-8</ele>
        <time>2021-07-04T07:50:00.000Z</time>
      </trkpt>
      <trkpt lat="47.2714" lon="-2.2831">
        <ele>-8</ele>
        <time>2021-07-04T07:50:06.000Z</time>
      </trkpt>
      <trkpt lat="47.27144" lon="-2.28326">
        <ele>-8</ele>
        <time>2021-07-04T07:50:08.000Z</time>
      </trkpt>
      <trkpt lat="47.27146" lon="-2.28349">
        <ele>-8</ele>
        <time>2021-07-04T07:50:11.000Z</time>
      </trkpt>
      <trkpt lat="47.27147" lon="-2.28357">
        <ele>-8</ele>
        <time>2021-07-04T07:50:12.000Z</time>
      </trkpt>
      <trkpt lat="47.2715" lon="-2.28393">
        <ele>-8</ele>
        <time>2021-07-04T07:50:16.000Z</time>
      </trkpt>
      <trkpt lat="47.27158" lon="-2.28454">
        <ele>-8</ele>
        <time>2021-07-04T07:50:23.000Z</time>
      </trkpt>
      <trkpt lat="47.27166" lon="-2.28516">
        <ele>-8</ele>
        <time>2021-07-04T07:50:29.000Z</time>
      </trkpt>
      <trkpt lat="47.27182" lon="-2.28582">
        <ele>-8</ele>
        <time>2021-07-04T07:50:36.000Z</time>
      </trkpt>
      <trkpt lat="47.27196" lon="-2.28591">
        <ele>-8</ele>
        <time>2021-07-04T07:50:39.000Z</time>
      </trkpt>
      <trkpt lat="47.27206" lon="-2.28589">
        <ele>-8</ele>
        <time>2021-07-04T07:50:41.000Z</time>
      </trkpt>
      <trkpt lat="47.27211" lon="-2.28587">
        <ele>-8</ele>
        <time>2021-07-04T07:50:42.000Z</time>
      </trkpt>
      <trkpt lat="47.27216" lon="-2.28585">
        <ele>-8</ele>
        <time>2021-07-04T07:50:43.000Z</time>
      </trkpt>
      <trkpt lat="47.27257" lon="-2.28581">
        <ele>-8</ele>
        <time>2021-07-04T07:50:50.000Z</time>
      </trkpt>
      <trkpt lat="47.27293" lon="-2.28586">
        <ele>-8</ele>
        <time>2021-07-04T07:50:56.000Z</time>
      </trkpt>
      <trkpt lat="47.27313" lon="-2.28594">
        <ele>-8</ele>
        <time>2021-07-04T07:50:59.000Z</time>
      </trkpt>
      <trkpt lat="47.27328" lon="-2.28601">
        <ele>-8</ele>
        <time>2021-07-04T07:51:01.000Z</time>
      </trkpt>
      <trkpt lat="47.27334" lon="-2.28602">
        <ele>-8</ele>
        <time>2021-07-04T07:51:02.000Z</time>
      </trkpt>
      <trkpt lat="47.27352" lon="-2.28606">
        <ele>-8</ele>
        <time>2021-07-04T07:51:05.000Z</time>
      </trkpt>
      <trkpt lat="47.27365" lon="-2.28594">
        <ele>-8</ele>
        <time>2021-07-04T07:51:08.000Z</time>
      </trkpt>
      <trkpt lat="47.27372" lon="-2.28576">
        <ele>-8</ele>
        <time>2021-07-04T07:51:11.000Z</time>
      </trkpt>
      <trkpt lat="47.27375" lon="-2.28571">
        <ele>-8</ele>
        <time>2021-07-04T07:51:12.000Z</time>
      </trkpt>
      <trkpt lat="47.2738" lon="-2.28559">
        <ele>-8</ele>
        <time>2021-07-04T07:51:14.000Z</time>
      </trkpt>
      <trkpt lat="47.27387" lon="-2.28531">
        <ele>-8</ele>
        <time>2021-07-04T07:51:18.000Z</time>
      </trkpt>
      <trkpt lat="47.27399" lon="-2.28479">
        <ele>-8</ele>
        <time>2021-07-04T07:51:25.000Z</time>
      </trkpt>
      <trkpt lat="47.274" lon="-2.2847">
        <ele>-8</ele>
        <time>2021-07-04T07:51:26.000Z</time>
      </trkpt>
      <trkpt lat="47.27403" lon="-2.28446">
        <ele>-8</ele>
        <time>2021-07-04T07:51:29.000Z</time>
      </trkpt>
      <trkpt lat="47.27404" lon="-2.28439">
        <ele>-8</ele>
        <time>2021-07-04T07:51:30.000Z</time>
      </trkpt>
      <trkpt lat="47.27405" lon="-2.28418">
        <ele>-8</ele>
        <time>2021-07-04T07:51:33.000Z</time>
      </trkpt>
      <trkpt lat="47.27404" lon="-2.28405">
        <ele>-8</ele>
        <time>2021-07-04T07:51:35.000Z</time>
      </trkpt>
      <trkpt lat="47.27402" lon="-2.28361">
        <ele>-8</ele>
        <time>2021-07-04T07:51:40.000Z</time>
      </trkpt>
      <trkpt lat="47.27407" lon="-2.28303">
        <ele>-8</ele>
        <time>2021-07-04T07:51:46.000Z</time>
      </trkpt>
      <trkpt lat="47.27416" lon="-2.28252">
        <ele>-8</ele>
        <time>2021-07-04T07:51:52.000Z</time>
      </trkpt>
      <trkpt lat="47.27427" lon="-2.282">
        <ele>-8</ele>
        <time>2021-07-04T07:51:58.000Z</time>
      </trkpt>
      <trkpt lat="47.27438" lon="-2.2817">
        <ele>-8</ele>
        <time>2021-07-04T07:52:03.000Z</time>
      </trkpt>
      <trkpt lat="47.27454" lon="-2.28158">
        <ele>-8</ele>
        <time>2021-07-04T07:52:07.000Z</time>
      </trkpt>
      <trkpt lat="47.2747" lon="-2.28155">
        <ele>-8</ele>
        <time>2021-07-04T07:52:10.000Z</time>
      </trkpt>
      <trkpt lat="47.27476" lon="-2.28154">
        <ele>-8</ele>
        <time>2021-07-04T07:52:11.000Z</time>
      </trkpt>
      <trkpt lat="47.27504" lon="-2.28149">
        <ele>-8</ele>
        <time>2021-07-04T07:52:16.000Z</time>
      </trkpt>
      <trkpt lat="47.27509" lon="-2.28152">
        <ele>-8</ele>
        <time>2021-07-04T07:52:17.000Z</time>
      </trkpt>
      <trkpt lat="47.27527" lon="-2.28172">
        <ele>-8</ele>
        <time>2021-07-04T07:52:21.000Z</time>
      </trkpt>
      <trkpt lat="47.27532" lon="-2.28175">
        <ele>-8</ele>
        <time>2021-07-04T07:52:22.000Z</time>
      </trkpt>
      <trkpt lat="47.27553" lon="-2.28189">
        <ele>-8</ele>
        <time>2021-07-04T07:52:26.000Z</time>
      </trkpt>
      <trkpt lat="47.27585" lon="-2.28214">
        <ele>-8</ele>
        <time>2021-07-04T07:52:32.000Z</time>
      </trkpt>
      <trkpt lat="47.27624" lon="-2.28253">
        <ele>-8</ele>
        <time>2021-07-04T07:52:40.000Z</time>
      </trkpt>
      <trkpt lat="47.27638" lon="-2.28268">
        <ele>-8.3999996185303</ele>
        <time>2021-07-04T07:52:43.000Z</time>
      </trkpt>
      <trkpt lat="47.27642" lon="-2.28273">
        <ele>-8.8000001907349</ele>
        <time>2021-07-04T07:52:44.000Z</time>
      </trkpt>
      <trkpt lat="47.27646" lon="-2.28277">
        <ele>-9.1999998092651</ele>
        <time>2021-07-04T07:52:45.000Z</time>
      </trkpt>
      <trkpt lat="47.2765" lon="-2.28281">
        <ele>-9.6000003814697</ele>
        <time>2021-07-04T07:52:46.000Z</time>
      </trkpt>
      <trkpt lat="47.27654" lon="-2.28284">
        <ele>-10</ele>
        <time>2021-07-04T07:52:47.000Z</time>
      </trkpt>
      <trkpt lat="47.27664" lon="-2.28281">
        <ele>-10</ele>
        <time>2021-07-04T07:52:49.000Z</time>
      </trkpt>
      <trkpt lat="47.27674" lon="-2.28263">
        <ele>-10</ele>
        <time>2021-07-04T07:52:52.000Z</time>
      </trkpt>
      <trkpt lat="47.27683" lon="-2.28251">
        <ele>-10</ele>
        <time>2021-07-04T07:52:54.000Z</time>
      </trkpt>
      <trkpt lat="47.27694" lon="-2.28232">
        <ele>-10</ele>
        <time>2021-07-04T07:52:57.000Z</time>
      </trkpt>
      <trkpt lat="47.27715" lon="-2.28193">
        <ele>-10</ele>
        <time>2021-07-04T07:53:03.000Z</time>
      </trkpt>
      <trkpt lat="47.27728" lon="-2.28159">
        <ele>-10</ele>
        <time>2021-07-04T07:53:08.000Z</time>
      </trkpt>
      <trkpt lat="47.2774" lon="-2.2811">
        <ele>-10</ele>
        <time>2021-07-04T07:53:14.000Z</time>
      </trkpt>
      <trkpt lat="47.27749" lon="-2.28055">
        <ele>-10</ele>
        <time>2021-07-04T07:53:20.000Z</time>
      </trkpt>
      <trkpt lat="47.27757" lon="-2.28005">
        <ele>-10</ele>
        <time>2021-07-04T07:53:26.000Z</time>
      </trkpt>
      <trkpt lat="47.27768" lon="-2.27948">
        <ele>-10</ele>
        <time>2021-07-04T07:53:33.000Z</time>
      </trkpt>
      <trkpt lat="47.27773" lon="-2.27923">
        <ele>-10</ele>
        <time>2021-07-04T07:53:36.000Z</time>
      </trkpt>
      <trkpt lat="47.27778" lon="-2.27907">
        <ele>-10</ele>
        <time>2021-07-04T07:53:38.000Z</time>
      </trkpt>
      <trkpt lat="47.27781" lon="-2.279">
        <ele>-10</ele>
        <time>2021-07-04T07:53:39.000Z</time>
      </trkpt>
      <trkpt lat="47.27795" lon="-2.27868">
        <ele>-10</ele>
        <time>2021-07-04T07:53:43.000Z</time>
      </trkpt>
      <trkpt lat="47.27819" lon="-2.27822">
        <ele>-10</ele>
        <time>2021-07-04T07:53:49.000Z</time>
      </trkpt>
      <trkpt lat="47.27843" lon="-2.27768">
        <ele>-10</ele>
        <time>2021-07-04T07:53:56.000Z</time>
      </trkpt>
      <trkpt lat="47.27874" lon="-2.27706">
        <ele>-10</ele>
        <time>2021-07-04T07:54:04.000Z</time>
      </trkpt>
      <trkpt lat="47.27894" lon="-2.27653">
        <ele>-10</ele>
        <time>2021-07-04T07:54:10.000Z</time>
      </trkpt>
      <trkpt lat="47.27909" lon="-2.27595">
        <ele>-10.39999961853</ele>
        <time>2021-07-04T07:54:16.000Z</time>
      </trkpt>
      <trkpt lat="47.27912" lon="-2.27587">
        <ele>-11</ele>
        <time>2021-07-04T07:54:17.000Z</time>
      </trkpt>
      <trkpt lat="47.27916" lon="-2.27579">
        <ele>-11.39999961853</ele>
        <time>2021-07-04T07:54:18.000Z</time>
      </trkpt>
      <trkpt lat="47.27921" lon="-2.27574">
        <ele>-11.800000190735</ele>
        <time>2021-07-04T07:54:19.000Z</time>
      </trkpt>
      <trkpt lat="47.27927" lon="-2.27569">
        <ele>-12.199999809265</ele>
        <time>2021-07-04T07:54:20.000Z</time>
      </trkpt>
      <trkpt lat="47.27938" lon="-2.27562">
        <ele>-12.199999809265</ele>
        <time>2021-07-04T07:54:22.000Z</time>
      </trkpt>
      <trkpt lat="47.27945" lon="-2.27558">
        <ele>-12.199999809265</ele>
        <time>2021-07-04T07:54:24.000Z</time>
      </trkpt>
      <trkpt lat="47.27949" lon="-2.27555">
        <ele>-12.199999809265</ele>
        <time>2021-07-04T07:54:27.000Z</time>
      </trkpt>
      <trkpt lat="47.27964" lon="-2.27554">
        <ele>-12.199999809265</ele>
        <time>2021-07-04T07:54:32.000Z</time>
      </trkpt>
      <trkpt lat="47.28003" lon="-2.27557">
        <ele>-12.199999809265</ele>
        <time>2021-07-04T07:54:40.000Z</time>
      </trkpt>
      <trkpt lat="47.28035" lon="-2.27554">
        <ele>-12.199999809265</ele>
        <time>2021-07-04T07:54:47.000Z</time>
      </trkpt>
      <trkpt lat="47.28039" lon="-2.27553">
        <ele>-12.199999809265</ele>
        <time>2021-07-04T07:54:48.000Z</time>
      </trkpt>
      <trkpt lat="47.28063" lon="-2.27535">
        <ele>-12.199999809265</ele>
        <time>2021-07-04T07:54:55.000Z</time>
      </trkpt>
      <trkpt lat="47.28066" lon="-2.2753">
        <ele>-12.199999809265</ele>
        <time>2021-07-04T07:54:56.000Z</time>
      </trkpt>
      <trkpt lat="47.28077" lon="-2.275">
        <ele>-12.199999809265</ele>
        <time>2021-07-04T07:55:01.000Z</time>
      </trkpt>
      <trkpt lat="47.28096" lon="-2.27453">
        <ele>-12.199999809265</ele>
        <time>2021-07-04T07:55:09.000Z</time>
      </trkpt>
      <trkpt lat="47.28114" lon="-2.27407">
        <ele>-12.199999809265</ele>
        <time>2021-07-04T07:55:17.000Z</time>
      </trkpt>
      <trkpt lat="47.28119" lon="-2.27396">
        <ele>-12.199999809265</ele>
        <time>2021-07-04T07:55:19.000Z</time>
      </trkpt>
      <trkpt lat="47.2813" lon="-2.27372">
        <ele>-12.199999809265</ele>
        <time>2021-07-04T07:55:25.000Z</time>
      </trkpt>
      <trkpt lat="47.28141" lon="-2.27374">
        <ele>-12.199999809265</ele>
        <time>2021-07-04T07:55:28.000Z</time>
      </trkpt>
      <trkpt lat="47.28153" lon="-2.27377">
        <ele>-12.199999809265</ele>
        <time>2021-07-04T07:55:31.000Z</time>
      </trkpt>
      <trkpt lat="47.28171" lon="-2.27377">
        <ele>-12.199999809265</ele>
        <time>2021-07-04T07:55:35.000Z</time>
      </trkpt>
      <trkpt lat="47.28215" lon="-2.27363">
        <ele>-12.199999809265</ele>
        <time>2021-07-04T07:55:43.000Z</time>
      </trkpt>
      <trkpt lat="47.28254" lon="-2.27355">
        <ele>-12.199999809265</ele>
        <time>2021-07-04T07:55:49.000Z</time>
      </trkpt>
      <trkpt lat="47.28293" lon="-2.27352">
        <ele>-12.199999809265</ele>
        <time>2021-07-04T07:55:54.000Z</time>
      </trkpt>
      <trkpt lat="47.28339" lon="-2.27349">
        <ele>-12.199999809265</ele>
        <time>2021-07-04T07:55:59.000Z</time>
      </trkpt>
      <trkpt lat="47.28347" lon="-2.27349">
        <ele>-12.60000038147</ele>
        <time>2021-07-04T07:56:00.000Z</time>
      </trkpt>
      <trkpt lat="47.28355" lon="-2.27349">
        <ele>-13</ele>
        <time>2021-07-04T07:56:01.000Z</time>
      </trkpt>
      <trkpt lat="47.28362" lon="-2.2735">
        <ele>-13.39999961853</ele>
        <time>2021-07-04T07:56:02.000Z</time>
      </trkpt>
      <trkpt lat="47.28368" lon="-2.27351">
        <ele>-13.800000190735</ele>
        <time>2021-07-04T07:56:03.000Z</time>
      </trkpt>
      <trkpt lat="47.28373" lon="-2.27352">
        <ele>-14.199999809265</ele>
        <time>2021-07-04T07:56:04.000Z</time>
      </trkpt>
      <trkpt lat="47.28378" lon="-2.27353">
        <ele>-14.199999809265</ele>
        <time>2021-07-04T07:56:05.000Z</time>
      </trkpt>
      <trkpt lat="47.28384" lon="-2.27359">
        <ele>-14.199999809265</ele>
        <time>2021-07-04T07:56:07.000Z</time>
      </trkpt>
      <trkpt lat="47.28385" lon="-2.27373">
        <ele>-14.199999809265</ele>
        <time>2021-07-04T07:56:10.000Z</time>
      </trkpt>
      <trkpt lat="47.28382" lon="-2.27385">
        <ele>-14.199999809265</ele>
        <time>2021-07-04T07:56:13.000Z</time>
      </trkpt>
      <trkpt lat="47.2838" lon="-2.27394">
        <ele>-14.199999809265</ele>
        <time>2021-07-04T07:56:15.000Z</time>
      </trkpt>
      <trkpt lat="47.28373" lon="-2.27429">
        <ele>-14.199999809265</ele>
        <time>2021-07-04T07:56:22.000Z</time>
      </trkpt>
      <trkpt lat="47.28368" lon="-2.27471">
        <ele>-14.199999809265</ele>
        <time>2021-07-04T07:56:29.000Z</time>
      </trkpt>
      <trkpt lat="47.2836" lon="-2.2752">
        <ele>-14.199999809265</ele>
        <time>2021-07-04T07:56:37.000Z</time>
      </trkpt>
      <trkpt lat="47.28357" lon="-2.27538">
        <ele>-14.199999809265</ele>
        <time>2021-07-04T07:56:40.000Z</time>
      </trkpt>
      <trkpt lat="47.28355" lon="-2.27555">
        <ele>-14.199999809265</ele>
        <time>2021-07-04T07:56:43.000Z</time>
      </trkpt>
      <trkpt lat="47.28354" lon="-2.2756">
        <ele>-14.199999809265</ele>
        <time>2021-07-04T07:56:44.000Z</time>
      </trkpt>
      <trkpt lat="47.28351" lon="-2.27579">
        <ele>-14.199999809265</ele>
        <time>2021-07-04T07:56:47.000Z</time>
      </trkpt>
      <trkpt lat="47.28351" lon="-2.27598">
        <ele>-14.199999809265</ele>
        <time>2021-07-04T07:56:50.000Z</time>
      </trkpt>
      <trkpt lat="47.28351" lon="-2.27604">
        <ele>-14.199999809265</ele>
        <time>2021-07-04T07:56:51.000Z</time>
      </trkpt>
      <trkpt lat="47.28349" lon="-2.27643">
        <ele>-14.60000038147</ele>
        <time>2021-07-04T07:56:57.000Z</time>
      </trkpt>
      <trkpt lat="47.28349" lon="-2.27649">
        <ele>-15</ele>
        <time>2021-07-04T07:56:58.000Z</time>
      </trkpt>
      <trkpt lat="47.28348" lon="-2.27655">
        <ele>-15.39999961853</ele>
        <time>2021-07-04T07:56:59.000Z</time>
      </trkpt>
      <trkpt lat="47.28347" lon="-2.27662">
        <ele>-15.800000190735</ele>
        <time>2021-07-04T07:57:00.000Z</time>
      </trkpt>
      <trkpt lat="47.28346" lon="-2.27669">
        <ele>-16.39999961853</ele>
        <time>2021-07-04T07:57:01.000Z</time>
      </trkpt>
      <trkpt lat="47.28344" lon="-2.27689">
        <ele>-16.39999961853</ele>
        <time>2021-07-04T07:57:04.000Z</time>
      </trkpt>
      <trkpt lat="47.28344" lon="-2.27695">
        <ele>-16.39999961853</ele>
        <time>2021-07-04T07:57:05.000Z</time>
      </trkpt>
      <trkpt lat="47.2834" lon="-2.27738">
        <ele>-16.39999961853</ele>
        <time>2021-07-04T07:57:11.000Z</time>
      </trkpt>
      <trkpt lat="47.28337" lon="-2.27775">
        <ele>-16.39999961853</ele>
        <time>2021-07-04T07:57:17.000Z</time>
      </trkpt>
      <trkpt lat="47.28333" lon="-2.27823">
        <ele>-16.39999961853</ele>
        <time>2021-07-04T07:57:25.000Z</time>
      </trkpt>
      <trkpt lat="47.28328" lon="-2.27867">
        <ele>-16.39999961853</ele>
        <time>2021-07-04T07:57:32.000Z</time>
      </trkpt>
      <trkpt lat="47.28324" lon="-2.27911">
        <ele>-16.39999961853</ele>
        <time>2021-07-04T07:57:39.000Z</time>
      </trkpt>
      <trkpt lat="47.28324" lon="-2.27945">
        <ele>-16.39999961853</ele>
        <time>2021-07-04T07:57:44.000Z</time>
      </trkpt>
      <trkpt lat="47.28321" lon="-2.27975">
        <ele>-16.39999961853</ele>
        <time>2021-07-04T07:57:49.000Z</time>
      </trkpt>
      <trkpt lat="47.2832" lon="-2.27981">
        <ele>-16.39999961853</ele>
        <time>2021-07-04T07:57:50.000Z</time>
      </trkpt>
      <trkpt lat="47.28322" lon="-2.27993">
        <ele>-16.39999961853</ele>
        <time>2021-07-04T07:57:52.000Z</time>
      </trkpt>
      <trkpt lat="47.28324" lon="-2.28005">
        <ele>-16.39999961853</ele>
        <time>2021-07-04T07:57:54.000Z</time>
      </trkpt>
      <trkpt lat="47.28325" lon="-2.28011">
        <ele>-16.39999961853</ele>
        <time>2021-07-04T07:57:55.000Z</time>
      </trkpt>
      <trkpt lat="47.28326" lon="-2.28024">
        <ele>-16.39999961853</ele>
        <time>2021-07-04T07:57:57.000Z</time>
      </trkpt>
      <trkpt lat="47.2833" lon="-2.28059">
        <ele>-16.39999961853</ele>
        <time>2021-07-04T07:58:01.000Z</time>
      </trkpt>
      <trkpt lat="47.28331" lon="-2.28081">
        <ele>-16.39999961853</ele>
        <time>2021-07-04T07:58:05.000Z</time>
      </trkpt>
      <trkpt lat="47.28341" lon="-2.28088">
        <ele>-16.39999961853</ele>
        <time>2021-07-04T07:58:10.000Z</time>
      </trkpt>
      <trkpt lat="47.28356" lon="-2.28085">
        <ele>-16.39999961853</ele>
        <time>2021-07-04T07:58:17.000Z</time>
      </trkpt>
      <trkpt lat="47.28358" lon="-2.28082">
        <ele>-16.39999961853</ele>
        <time>2021-07-04T07:58:18.000Z</time>
      </trkpt>
      <trkpt lat="47.28367" lon="-2.28069">
        <ele>-16.39999961853</ele>
        <time>2021-07-04T07:58:25.000Z</time>
      </trkpt>
      <trkpt lat="47.28379" lon="-2.28069">
        <ele>-16.39999961853</ele>
        <time>2021-07-04T07:58:32.000Z</time>
      </trkpt>
      <trkpt lat="47.28393" lon="-2.28072">
        <ele>-16.39999961853</ele>
        <time>2021-07-04T07:58:39.000Z</time>
      </trkpt>
      <trkpt lat="47.28404" lon="-2.28079">
        <ele>-16.39999961853</ele>
        <time>2021-07-04T07:58:44.000Z</time>
      </trkpt>
      <trkpt lat="47.28415" lon="-2.28083">
        <ele>-16.39999961853</ele>
        <time>2021-07-04T07:58:49.000Z</time>
      </trkpt>
      <trkpt lat="47.28427" lon="-2.28084">
        <ele>-16.39999961853</ele>
        <time>2021-07-04T07:58:55.000Z</time>
      </trkpt>
      <trkpt lat="47.28434" lon="-2.28086">
        <ele>-16.39999961853</ele>
        <time>2021-07-04T07:58:59.000Z</time>
      </trkpt>
      <trkpt lat="47.28437" lon="-2.28086">
        <ele>-16.39999961853</ele>
        <time>2021-07-04T07:59:00.000Z</time>
      </trkpt>
      <trkpt lat="47.28455" lon="-2.28095">
        <ele>-16.39999961853</ele>
        <time>2021-07-04T07:59:05.000Z</time>
      </trkpt>
      <trkpt lat="47.28467" lon="-2.28096">
        <ele>-16.39999961853</ele>
        <time>2021-07-04T07:59:09.000Z</time>
      </trkpt>
      <trkpt lat="47.28475" lon="-2.2809">
        <ele>-16.39999961853</ele>
        <time>2021-07-04T07:59:12.000Z</time>
      </trkpt>
      <trkpt lat="47.28481" lon="-2.28086">
        <ele>-16.39999961853</ele>
        <time>2021-07-04T07:59:15.000Z</time>
      </trkpt>
      <trkpt lat="47.28481" lon="-2.28076">
        <ele>-16.39999961853</ele>
        <time>2021-07-04T07:59:19.000Z</time>
      </trkpt>
      <trkpt lat="47.28477" lon="-2.28061">
        <ele>-16.39999961853</ele>
        <time>2021-07-04T07:59:25.000Z</time>
      </trkpt>
      <trkpt lat="47.28479" lon="-2.28052">
        <ele>-16.39999961853</ele>
        <time>2021-07-04T07:59:29.000Z</time>
      </trkpt>
      <trkpt lat="47.28487" lon="-2.28046">
        <ele>-16.39999961853</ele>
        <time>2021-07-04T07:59:33.000Z</time>
      </trkpt>
      <trkpt lat="47.28492" lon="-2.28047">
        <ele>-16.39999961853</ele>
        <time>2021-07-04T07:59:35.000Z</time>
      </trkpt>
      <trkpt lat="47.28497" lon="-2.28049">
        <ele>-16.39999961853</ele>
        <time>2021-07-04T07:59:37.000Z</time>
      </trkpt>
      <trkpt lat="47.28514" lon="-2.28052">
        <ele>-16.39999961853</ele>
        <time>2021-07-04T07:59:43.000Z</time>
      </trkpt>
      <trkpt lat="47.28535" lon="-2.28051">
        <ele>-16.39999961853</ele>
        <time>2021-07-04T07:59:49.000Z</time>
      </trkpt>
      <trkpt lat="47.28538" lon="-2.28051">
        <ele>-16.799999237061</ele>
        <time>2021-07-04T07:59:50.000Z</time>
      </trkpt>
      <trkpt lat="47.28541" lon="-2.28051">
        <ele>-17.200000762939</ele>
        <time>2021-07-04T07:59:51.000Z</time>
      </trkpt>
      <trkpt lat="47.28544" lon="-2.28052">
        <ele>-17.60000038147</ele>
        <time>2021-07-04T07:59:52.000Z</time>
      </trkpt>
      <trkpt lat="47.28547" lon="-2.28054">
        <ele>-18</ele>
        <time>2021-07-04T07:59:53.000Z</time>
      </trkpt>
      <trkpt lat="47.28551" lon="-2.28055">
        <ele>-18.39999961853</ele>
        <time>2021-07-04T07:59:54.000Z</time>
      </trkpt>
      <trkpt lat="47.28561" lon="-2.28054">
        <ele>-18.39999961853</ele>
        <time>2021-07-04T07:59:58.000Z</time>
      </trkpt>
      <trkpt lat="47.28572" lon="-2.28047">
        <ele>-18.39999961853</ele>
        <time>2021-07-04T08:00:03.000Z</time>
      </trkpt>
      <trkpt lat="47.28585" lon="-2.28031">
        <ele>-18.39999961853</ele>
        <time>2021-07-04T08:00:08.000Z</time>
      </trkpt>
      <trkpt lat="47.28601" lon="-2.28005">
        <ele>-18.39999961853</ele>
        <time>2021-07-04T08:00:14.000Z</time>
      </trkpt>
      <trkpt lat="47.2861" lon="-2.2797">
        <ele>-18.39999961853</ele>
        <time>2021-07-04T08:00:20.000Z</time>
      </trkpt>
      <trkpt lat="47.28616" lon="-2.27953">
        <ele>-18.39999961853</ele>
        <time>2021-07-04T08:00:24.000Z</time>
      </trkpt>
      <trkpt lat="47.2862" lon="-2.27946">
        <ele>-18.39999961853</ele>
        <time>2021-07-04T08:00:29.000Z</time>
      </trkpt>
      <trkpt lat="47.2862" lon="-2.27946">
        <ele>-18.39999961853</ele>
        <time>2021-07-04T08:00:30.000Z</time>
      </trkpt>
      <trkpt lat="47.28621" lon="-2.27943">
        <ele>-20.39999961853</ele>
        <time>2021-07-04T08:00:52.000Z</time>
      </trkpt>
      <trkpt lat="47.28624" lon="-2.27937">
        <ele>-20.39999961853</ele>
        <time>2021-07-04T08:00:54.000Z</time>
      </trkpt>
      <trkpt lat="47.28627" lon="-2.27917">
        <ele>-20.799999237061</ele>
        <time>2021-07-04T08:00:58.000Z</time>
      </trkpt>
      <trkpt lat="47.28628" lon="-2.27911">
        <ele>-21.200000762939</ele>
        <time>2021-07-04T08:00:59.000Z</time>
      </trkpt>
      <trkpt lat="47.28629" lon="-2.27904">
        <ele>-21.60000038147</ele>
        <time>2021-07-04T08:01:00.000Z</time>
      </trkpt>
      <trkpt lat="47.2863" lon="-2.27895">
        <ele>-22</ele>
        <time>2021-07-04T08:01:01.000Z</time>
      </trkpt>
      <trkpt lat="47.28631" lon="-2.27887">
        <ele>-22.60000038147</ele>
        <time>2021-07-04T08:01:02.000Z</time>
      </trkpt>
      <trkpt lat="47.28632" lon="-2.27878">
        <ele>-22.60000038147</ele>
        <time>2021-07-04T08:01:03.000Z</time>
      </trkpt>
      <trkpt lat="47.28642" lon="-2.27815">
        <ele>-22.60000038147</ele>
        <time>2021-07-04T08:01:10.000Z</time>
      </trkpt>
      <trkpt lat="47.28653" lon="-2.27771">
        <ele>-22.60000038147</ele>
        <time>2021-07-04T08:01:15.000Z</time>
      </trkpt>
      <trkpt lat="47.2866" lon="-2.27754">
        <ele>-22.60000038147</ele>
        <time>2021-07-04T08:01:17.000Z</time>
      </trkpt>
      <trkpt lat="47.28669" lon="-2.27737">
        <ele>-22.60000038147</ele>
        <time>2021-07-04T08:01:19.000Z</time>
      </trkpt>
      <trkpt lat="47.28701" lon="-2.27682">
        <ele>-22.60000038147</ele>
        <time>2021-07-04T08:01:26.000Z</time>
      </trkpt>
      <trkpt lat="47.28734" lon="-2.27632">
        <ele>-22.60000038147</ele>
        <time>2021-07-04T08:01:33.000Z</time>
      </trkpt>
      <trkpt lat="47.28763" lon="-2.27591">
        <ele>-22.60000038147</ele>
        <time>2021-07-04T08:01:39.000Z</time>
      </trkpt>
      <trkpt lat="47.28783" lon="-2.27568">
        <ele>-22.60000038147</ele>
        <time>2021-07-04T08:01:43.000Z</time>
      </trkpt>
      <trkpt lat="47.28791" lon="-2.27553">
        <ele>-22.60000038147</ele>
        <time>2021-07-04T08:01:45.000Z</time>
      </trkpt>
      <trkpt lat="47.28803" lon="-2.27538">
        <ele>-22.60000038147</ele>
        <time>2021-07-04T08:01:48.000Z</time>
      </trkpt>
      <trkpt lat="47.28814" lon="-2.27537">
        <ele>-22.60000038147</ele>
        <time>2021-07-04T08:01:50.000Z</time>
      </trkpt>
      <trkpt lat="47.28827" lon="-2.27536">
        <ele>-22.60000038147</ele>
        <time>2021-07-04T08:01:52.000Z</time>
      </trkpt>
      <trkpt lat="47.28867" lon="-2.27529">
        <ele>-22.60000038147</ele>
        <time>2021-07-04T08:01:58.000Z</time>
      </trkpt>
      <trkpt lat="47.28907" lon="-2.27523">
        <ele>-22.60000038147</ele>
        <time>2021-07-04T08:02:04.000Z</time>
      </trkpt>
      <trkpt lat="47.28921" lon="-2.27523">
        <ele>-22.60000038147</ele>
        <time>2021-07-04T08:02:06.000Z</time>
      </trkpt>
      <trkpt lat="47.28941" lon="-2.27523">
        <ele>-22.60000038147</ele>
        <time>2021-07-04T08:02:09.000Z</time>
      </trkpt>
      <trkpt lat="47.28954" lon="-2.27522">
        <ele>-23</ele>
        <time>2021-07-04T08:02:11.000Z</time>
      </trkpt>
      <trkpt lat="47.28961" lon="-2.27522">
        <ele>-23.39999961853</ele>
        <time>2021-07-04T08:02:12.000Z</time>
      </trkpt>
      <trkpt lat="47.28967" lon="-2.27522">
        <ele>-23.799999237061</ele>
        <time>2021-07-04T08:02:13.000Z</time>
      </trkpt>
      <trkpt lat="47.28973" lon="-2.27522">
        <ele>-24.200000762939</ele>
        <time>2021-07-04T08:02:14.000Z</time>
      </trkpt>
      <trkpt lat="47.28979" lon="-2.27522">
        <ele>-24.60000038147</ele>
        <time>2021-07-04T08:02:15.000Z</time>
      </trkpt>
      <trkpt lat="47.29028" lon="-2.2752">
        <ele>-24.60000038147</ele>
        <time>2021-07-04T08:02:23.000Z</time>
      </trkpt>
      <trkpt lat="47.29065" lon="-2.27522">
        <ele>-24.60000038147</ele>
        <time>2021-07-04T08:02:29.000Z</time>
      </trkpt>
      <trkpt lat="47.29093" lon="-2.27527">
        <ele>-24.60000038147</ele>
        <time>2021-07-04T08:02:34.000Z</time>
      </trkpt>
      <trkpt lat="47.291" lon="-2.27527">
        <ele>-24.60000038147</ele>
        <time>2021-07-04T08:02:36.000Z</time>
      </trkpt>
      <trkpt lat="47.29102" lon="-2.27525">
        <ele>-24.60000038147</ele>
        <time>2021-07-04T08:02:37.000Z</time>
      </trkpt>
      <trkpt lat="47.29104" lon="-2.27512">
        <ele>-24.60000038147</ele>
        <time>2021-07-04T08:02:40.000Z</time>
      </trkpt>
      <trkpt lat="47.29104" lon="-2.27481">
        <ele>-24.60000038147</ele>
        <time>2021-07-04T08:02:45.000Z</time>
      </trkpt>
      <trkpt lat="47.29104" lon="-2.27474">
        <ele>-24.60000038147</ele>
        <time>2021-07-04T08:02:46.000Z</time>
      </trkpt>
      <trkpt lat="47.29107" lon="-2.27445">
        <ele>-24.60000038147</ele>
        <time>2021-07-04T08:02:50.000Z</time>
      </trkpt>
      <trkpt lat="47.29108" lon="-2.2742">
        <ele>-24.60000038147</ele>
        <time>2021-07-04T08:02:53.000Z</time>
      </trkpt>
      <trkpt lat="47.29105" lon="-2.27404">
        <ele>-24.60000038147</ele>
        <time>2021-07-04T08:02:55.000Z</time>
      </trkpt>
      <trkpt lat="47.29098" lon="-2.27361">
        <ele>-24.60000038147</ele>
        <time>2021-07-04T08:03:01.000Z</time>
      </trkpt>
      <trkpt lat="47.29097" lon="-2.27335">
        <ele>-24.60000038147</ele>
        <time>2021-07-04T08:03:06.000Z</time>
      </trkpt>
      <trkpt lat="47.29108" lon="-2.27301">
        <ele>-24.60000038147</ele>
        <time>2021-07-04T08:03:13.000Z</time>
      </trkpt>
      <trkpt lat="47.29113" lon="-2.27277">
        <ele>-24.60000038147</ele>
        <time>2021-07-04T08:03:18.000Z</time>
      </trkpt>
      <trkpt lat="47.29117" lon="-2.27258">
        <ele>-25</ele>
        <time>2021-07-04T08:03:22.000Z</time>
      </trkpt>
      <trkpt lat="47.29118" lon="-2.27254">
        <ele>-25.39999961853</ele>
        <time>2021-07-04T08:03:23.000Z</time>
      </trkpt>
      <trkpt lat="47.29118" lon="-2.2725">
        <ele>-25.799999237061</ele>
        <time>2021-07-04T08:03:24.000Z</time>
      </trkpt>
      <trkpt lat="47.29119" lon="-2.27247">
        <ele>-26.200000762939</ele>
        <time>2021-07-04T08:03:25.000Z</time>
      </trkpt>
      <trkpt lat="47.2912" lon="-2.27243">
        <ele>-26.60000038147</ele>
        <time>2021-07-04T08:03:26.000Z</time>
      </trkpt>
      <trkpt lat="47.29123" lon="-2.27232">
        <ele>-26.60000038147</ele>
        <time>2021-07-04T08:03:29.000Z</time>
      </trkpt>
      <trkpt lat="47.29124" lon="-2.27227">
        <ele>-26.60000038147</ele>
        <time>2021-07-04T08:03:31.000Z</time>
      </trkpt>
      <trkpt lat="47.29125" lon="-2.27218">
        <ele>-26.60000038147</ele>
        <time>2021-07-04T08:03:34.000Z</time>
      </trkpt>
      <trkpt lat="47.2913" lon="-2.27209">
        <ele>-26.60000038147</ele>
        <time>2021-07-04T08:03:37.000Z</time>
      </trkpt>
      <trkpt lat="47.29132" lon="-2.27205">
        <ele>-26.60000038147</ele>
        <time>2021-07-04T08:03:39.000Z</time>
      </trkpt>
      <trkpt lat="47.29137" lon="-2.27199">
        <ele>-30.799999237061</ele>
        <time>2021-07-04T08:05:03.000Z</time>
      </trkpt>
      <trkpt lat="47.29141" lon="-2.27198">
        <ele>-30.799999237061</ele>
        <time>2021-07-04T08:05:05.000Z</time>
      </trkpt>
      <trkpt lat="47.29143" lon="-2.27198">
        <ele>-30.799999237061</ele>
        <time>2021-07-04T08:05:06.000Z</time>
      </trkpt>
      <trkpt lat="47.2915" lon="-2.27196">
        <ele>-30.799999237061</ele>
        <time>2021-07-04T08:05:10.000Z</time>
      </trkpt>
      <trkpt lat="47.29156" lon="-2.27192">
        <ele>-30.799999237061</ele>
        <time>2021-07-04T08:05:13.000Z</time>
      </trkpt>
      <trkpt lat="47.29159" lon="-2.27192">
        <ele>-30.799999237061</ele>
        <time>2021-07-04T08:05:14.000Z</time>
      </trkpt>
      <trkpt lat="47.29161" lon="-2.27191">
        <ele>-30.799999237061</ele>
        <time>2021-07-04T08:05:15.000Z</time>
      </trkpt>
      <trkpt lat="47.29169" lon="-2.27188">
        <ele>-30.799999237061</ele>
        <time>2021-07-04T08:05:18.000Z</time>
      </trkpt>
      <trkpt lat="47.29187" lon="-2.27183">
        <ele>-31.200000762939</ele>
        <time>2021-07-04T08:05:22.000Z</time>
      </trkpt>
      <trkpt lat="47.29191" lon="-2.27182">
        <ele>-31.60000038147</ele>
        <time>2021-07-04T08:05:23.000Z</time>
      </trkpt>
      <trkpt lat="47.29195" lon="-2.27181">
        <ele>-32</ele>
        <time>2021-07-04T08:05:24.000Z</time>
      </trkpt>
      <trkpt lat="47.29198" lon="-2.27179">
        <ele>-32.400001525879</ele>
        <time>2021-07-04T08:05:25.000Z</time>
      </trkpt>
      <trkpt lat="47.29201" lon="-2.27176">
        <ele>-32.799999237061</ele>
        <time>2021-07-04T08:05:26.000Z</time>
      </trkpt>
      <trkpt lat="47.29208" lon="-2.27172">
        <ele>-32.799999237061</ele>
        <time>2021-07-04T08:05:28.000Z</time>
      </trkpt>
      <trkpt lat="47.29214" lon="-2.27156">
        <ele>-32.799999237061</ele>
        <time>2021-07-04T08:05:31.000Z</time>
      </trkpt>
      <trkpt lat="47.29216" lon="-2.27151">
        <ele>-32.799999237061</ele>
        <time>2021-07-04T08:05:32.000Z</time>
      </trkpt>
      <trkpt lat="47.29223" lon="-2.27132">
        <ele>-32.799999237061</ele>
        <time>2021-07-04T08:05:35.000Z</time>
      </trkpt>
      <trkpt lat="47.29225" lon="-2.27125">
        <ele>-32.799999237061</ele>
        <time>2021-07-04T08:05:36.000Z</time>
      </trkpt>
      <trkpt lat="47.29225" lon="-2.27102">
        <ele>-32.799999237061</ele>
        <time>2021-07-04T08:05:40.000Z</time>
      </trkpt>
      <trkpt lat="47.29225" lon="-2.271">
        <ele>-32.799999237061</ele>
        <time>2021-07-04T08:05:41.000Z</time>
      </trkpt>
      <trkpt lat="47.29225" lon="-2.27097">
        <ele>-32.799999237061</ele>
        <time>2021-07-04T08:05:43.000Z</time>
      </trkpt>
      <trkpt lat="47.29225" lon="-2.27092">
        <ele>-30.60000038147</ele>
        <time>2021-07-04T08:06:12.000Z</time>
      </trkpt>
      <trkpt lat="47.29226" lon="-2.27072">
        <ele>-30.60000038147</ele>
        <time>2021-07-04T08:06:17.000Z</time>
      </trkpt>
      <trkpt lat="47.29223" lon="-2.2705">
        <ele>-30.60000038147</ele>
        <time>2021-07-04T08:06:22.000Z</time>
      </trkpt>
      <trkpt lat="47.2922" lon="-2.27018">
        <ele>-30.60000038147</ele>
        <time>2021-07-04T08:06:28.000Z</time>
      </trkpt>
      <trkpt lat="47.29221" lon="-2.26977">
        <ele>-30.60000038147</ele>
        <time>2021-07-04T08:06:34.000Z</time>
      </trkpt>
      <trkpt lat="47.29221" lon="-2.2696">
        <ele>-30.200000762939</ele>
        <time>2021-07-04T08:06:37.000Z</time>
      </trkpt>
      <trkpt lat="47.29222" lon="-2.26956">
        <ele>-29.799999237061</ele>
        <time>2021-07-04T08:06:38.000Z</time>
      </trkpt>
      <trkpt lat="47.29223" lon="-2.26952">
        <ele>-29</ele>
        <time>2021-07-04T08:06:39.000Z</time>
      </trkpt>
      <trkpt lat="47.29224" lon="-2.26949">
        <ele>-28.60000038147</ele>
        <time>2021-07-04T08:06:40.000Z</time>
      </trkpt>
      <trkpt lat="47.29226" lon="-2.26943">
        <ele>-28.60000038147</ele>
        <time>2021-07-04T08:06:43.000Z</time>
      </trkpt>
      <trkpt lat="47.29227" lon="-2.26942">
        <ele>-28.60000038147</ele>
        <time>2021-07-04T08:06:44.000Z</time>
      </trkpt>
      <trkpt lat="47.29228" lon="-2.26937">
        <ele>-28.60000038147</ele>
        <time>2021-07-04T08:06:55.000Z</time>
      </trkpt>
      <trkpt lat="47.2923" lon="-2.26929">
        <ele>-28.60000038147</ele>
        <time>2021-07-04T08:06:57.000Z</time>
      </trkpt>
      <trkpt lat="47.29228" lon="-2.26904">
        <ele>-28.60000038147</ele>
        <time>2021-07-04T08:07:01.000Z</time>
      </trkpt>
      <trkpt lat="47.29223" lon="-2.26857">
        <ele>-28.60000038147</ele>
        <time>2021-07-04T08:07:07.000Z</time>
      </trkpt>
      <trkpt lat="47.29218" lon="-2.26808">
        <ele>-28.60000038147</ele>
        <time>2021-07-04T08:07:13.000Z</time>
      </trkpt>
      <trkpt lat="47.29217" lon="-2.268">
        <ele>-28.60000038147</ele>
        <time>2021-07-04T08:07:14.000Z</time>
      </trkpt>
      <trkpt lat="47.29207" lon="-2.26748">
        <ele>-28.60000038147</ele>
        <time>2021-07-04T08:07:21.000Z</time>
      </trkpt>
      <trkpt lat="47.29206" lon="-2.2673">
        <ele>-28.60000038147</ele>
        <time>2021-07-04T08:07:25.000Z</time>
      </trkpt>
      <trkpt lat="47.29208" lon="-2.26728">
        <ele>-28.60000038147</ele>
        <time>2021-07-04T08:07:26.000Z</time>
      </trkpt>
      <trkpt lat="47.29209" lon="-2.26725">
        <ele>-28.60000038147</ele>
        <time>2021-07-04T08:07:30.000Z</time>
      </trkpt>
      <trkpt lat="47.29209" lon="-2.26725">
        <ele>-28.60000038147</ele>
        <time>2021-07-04T08:07:34.000Z</time>
      </trkpt>
      <trkpt lat="47.29212" lon="-2.26722">
        <ele>-28.60000038147</ele>
        <time>2021-07-04T08:07:53.000Z</time>
      </trkpt>
      <trkpt lat="47.29213" lon="-2.2672">
        <ele>-28.60000038147</ele>
        <time>2021-07-04T08:07:54.000Z</time>
      </trkpt>
      <trkpt lat="47.29226" lon="-2.26706">
        <ele>-28.60000038147</ele>
        <time>2021-07-04T08:08:01.000Z</time>
      </trkpt>
      <trkpt lat="47.29231" lon="-2.267">
        <ele>-28.60000038147</ele>
        <time>2021-07-04T08:08:06.000Z</time>
      </trkpt>
      <trkpt lat="47.29219" lon="-2.26715">
        <ele>-41</ele>
        <time>2021-07-04T08:11:44.000Z</time>
      </trkpt>
      <trkpt lat="47.29231" lon="-2.26703">
        <ele>-41</ele>
        <time>2021-07-04T08:11:50.000Z</time>
      </trkpt>
      <trkpt lat="47.29242" lon="-2.26689">
        <ele>-41</ele>
        <time>2021-07-04T08:11:55.000Z</time>
      </trkpt>
      <trkpt lat="47.2926" lon="-2.26685">
        <ele>-41</ele>
        <time>2021-07-04T08:12:00.000Z</time>
      </trkpt>
      <trkpt lat="47.29291" lon="-2.2668">
        <ele>-41</ele>
        <time>2021-07-04T08:12:07.000Z</time>
      </trkpt>
      <trkpt lat="47.29311" lon="-2.26669">
        <ele>-40.599998474121</ele>
        <time>2021-07-04T08:12:12.000Z</time>
      </trkpt>
      <trkpt lat="47.29315" lon="-2.26667">
        <ele>-40.200000762939</ele>
        <time>2021-07-04T08:12:13.000Z</time>
      </trkpt>
      <trkpt lat="47.29318" lon="-2.26665">
        <ele>-39.799999237061</ele>
        <time>2021-07-04T08:12:14.000Z</time>
      </trkpt>
      <trkpt lat="47.29322" lon="-2.26663">
        <ele>-39.400001525879</ele>
        <time>2021-07-04T08:12:15.000Z</time>
      </trkpt>
      <trkpt lat="47.29326" lon="-2.26661">
        <ele>-39</ele>
        <time>2021-07-04T08:12:16.000Z</time>
      </trkpt>
      <trkpt lat="47.29336" lon="-2.26656">
        <ele>-39</ele>
        <time>2021-07-04T08:12:20.000Z</time>
      </trkpt>
      <trkpt lat="47.29345" lon="-2.26654">
        <ele>-39</ele>
        <time>2021-07-04T08:12:22.000Z</time>
      </trkpt>
      <trkpt lat="47.2936" lon="-2.26649">
        <ele>-39</ele>
        <time>2021-07-04T08:12:25.000Z</time>
      </trkpt>
      <trkpt lat="47.2937" lon="-2.26645">
        <ele>-39</ele>
        <time>2021-07-04T08:12:27.000Z</time>
      </trkpt>
      <trkpt lat="47.29389" lon="-2.26636">
        <ele>-39</ele>
        <time>2021-07-04T08:12:31.000Z</time>
      </trkpt>
      <trkpt lat="47.29418" lon="-2.26626">
        <ele>-38.599998474121</ele>
        <time>2021-07-04T08:12:38.000Z</time>
      </trkpt>
      <trkpt lat="47.29423" lon="-2.26624">
        <ele>-38.200000762939</ele>
        <time>2021-07-04T08:12:39.000Z</time>
      </trkpt>
      <trkpt lat="47.29427" lon="-2.26623">
        <ele>-37.599998474121</ele>
        <time>2021-07-04T08:12:40.000Z</time>
      </trkpt>
      <trkpt lat="47.29432" lon="-2.26621">
        <ele>-37.200000762939</ele>
        <time>2021-07-04T08:12:41.000Z</time>
      </trkpt>
      <trkpt lat="47.29436" lon="-2.26619">
        <ele>-36.799999237061</ele>
        <time>2021-07-04T08:12:42.000Z</time>
      </trkpt>
      <trkpt lat="47.29446" lon="-2.26616">
        <ele>-36.799999237061</ele>
        <time>2021-07-04T08:12:44.000Z</time>
      </trkpt>
      <trkpt lat="47.29469" lon="-2.26605">
        <ele>-36.799999237061</ele>
        <time>2021-07-04T08:12:49.000Z</time>
      </trkpt>
      <trkpt lat="47.29493" lon="-2.26591">
        <ele>-36.799999237061</ele>
        <time>2021-07-04T08:12:55.000Z</time>
      </trkpt>
      <trkpt lat="47.29505" lon="-2.26581">
        <ele>-36.799999237061</ele>
        <time>2021-07-04T08:12:58.000Z</time>
      </trkpt>
      <trkpt lat="47.29512" lon="-2.26573">
        <ele>-36.799999237061</ele>
        <time>2021-07-04T08:13:00.000Z</time>
      </trkpt>
      <trkpt lat="47.29537" lon="-2.26546">
        <ele>-36.799999237061</ele>
        <time>2021-07-04T08:13:07.000Z</time>
      </trkpt>
      <trkpt lat="47.29566" lon="-2.26522">
        <ele>-36.799999237061</ele>
        <time>2021-07-04T08:13:13.000Z</time>
      </trkpt>
      <trkpt lat="47.29594" lon="-2.26497">
        <ele>-36.799999237061</ele>
        <time>2021-07-04T08:13:19.000Z</time>
      </trkpt>
      <trkpt lat="47.29595" lon="-2.2649">
        <ele>-36.799999237061</ele>
        <time>2021-07-04T08:13:20.000Z</time>
      </trkpt>
      <trkpt lat="47.29597" lon="-2.26462">
        <ele>-36.799999237061</ele>
        <time>2021-07-04T08:13:24.000Z</time>
      </trkpt>
      <trkpt lat="47.296" lon="-2.26438">
        <ele>-36.799999237061</ele>
        <time>2021-07-04T08:13:27.000Z</time>
      </trkpt>
      <trkpt lat="47.29606" lon="-2.26419">
        <ele>-36.799999237061</ele>
        <time>2021-07-04T08:13:30.000Z</time>
      </trkpt>
      <trkpt lat="47.29612" lon="-2.26392">
        <ele>-36.799999237061</ele>
        <time>2021-07-04T08:13:34.000Z</time>
      </trkpt>
      <trkpt lat="47.29608" lon="-2.26371">
        <ele>-36.799999237061</ele>
        <time>2021-07-04T08:13:38.000Z</time>
      </trkpt>
      <trkpt lat="47.29606" lon="-2.26369">
        <ele>-36.799999237061</ele>
        <time>2021-07-04T08:13:39.000Z</time>
      </trkpt>
      <trkpt lat="47.29605" lon="-2.26365">
        <ele>-36.799999237061</ele>
        <time>2021-07-04T08:13:41.000Z</time>
      </trkpt>
      <trkpt lat="47.29604" lon="-2.26363">
        <ele>-36.799999237061</ele>
        <time>2021-07-04T08:13:43.000Z</time>
      </trkpt>
      <trkpt lat="47.29604" lon="-2.26361">
        <ele>-36.799999237061</ele>
        <time>2021-07-04T08:13:44.000Z</time>
      </trkpt>
      <trkpt lat="47.29609" lon="-2.26349">
        <ele>-36.799999237061</ele>
        <time>2021-07-04T08:13:48.000Z</time>
      </trkpt>
      <trkpt lat="47.2961" lon="-2.26342">
        <ele>-36.799999237061</ele>
        <time>2021-07-04T08:13:52.000Z</time>
      </trkpt>
      <trkpt lat="47.2961" lon="-2.2634">
        <ele>-36.799999237061</ele>
        <time>2021-07-04T08:13:53.000Z</time>
      </trkpt>
      <trkpt lat="47.29604" lon="-2.2633">
        <ele>-36.799999237061</ele>
        <time>2021-07-04T08:13:58.000Z</time>
      </trkpt>
      <trkpt lat="47.29602" lon="-2.26328">
        <ele>-36.799999237061</ele>
        <time>2021-07-04T08:14:02.000Z</time>
      </trkpt>
      <trkpt lat="47.29598" lon="-2.26296">
        <ele>-36.799999237061</ele>
        <time>2021-07-04T08:14:41.000Z</time>
      </trkpt>
      <trkpt lat="47.29604" lon="-2.26287">
        <ele>-36.799999237061</ele>
        <time>2021-07-04T08:14:47.000Z</time>
      </trkpt>
      <trkpt lat="47.29611" lon="-2.26277">
        <ele>-36.799999237061</ele>
        <time>2021-07-04T08:14:52.000Z</time>
      </trkpt>
      <trkpt lat="47.29613" lon="-2.2627">
        <ele>-36.799999237061</ele>
        <time>2021-07-04T08:14:56.000Z</time>
      </trkpt>
      <trkpt lat="47.29614" lon="-2.26263">
        <ele>-36.799999237061</ele>
        <time>2021-07-04T08:15:35.000Z</time>
      </trkpt>
      <trkpt lat="47.29605" lon="-2.26263">
        <ele>-36.799999237061</ele>
        <time>2021-07-04T08:15:39.000Z</time>
      </trkpt>
      <trkpt lat="47.29589" lon="-2.2626">
        <ele>-37.200000762939</ele>
        <time>2021-07-04T08:15:44.000Z</time>
      </trkpt>
      <trkpt lat="47.29587" lon="-2.2626">
        <ele>-37.599998474121</ele>
        <time>2021-07-04T08:15:45.000Z</time>
      </trkpt>
      <trkpt lat="47.29584" lon="-2.2626">
        <ele>-38</ele>
        <time>2021-07-04T08:15:46.000Z</time>
      </trkpt>
      <trkpt lat="47.29582" lon="-2.2626">
        <ele>-38.400001525879</ele>
        <time>2021-07-04T08:15:47.000Z</time>
      </trkpt>
      <trkpt lat="47.29579" lon="-2.26259">
        <ele>-38.799999237061</ele>
        <time>2021-07-04T08:15:48.000Z</time>
      </trkpt>
      <trkpt lat="47.29567" lon="-2.26258">
        <ele>-38.799999237061</ele>
        <time>2021-07-04T08:15:52.000Z</time>
      </trkpt>
      <trkpt lat="47.29541" lon="-2.26254">
        <ele>-38.799999237061</ele>
        <time>2021-07-04T08:15:59.000Z</time>
      </trkpt>
      <trkpt lat="47.29533" lon="-2.26246">
        <ele>-38.799999237061</ele>
        <time>2021-07-04T08:16:02.000Z</time>
      </trkpt>
      <trkpt lat="47.29532" lon="-2.26241">
        <ele>-38.799999237061</ele>
        <time>2021-07-04T08:16:03.000Z</time>
      </trkpt>
      <trkpt lat="47.29538" lon="-2.26229">
        <ele>-38.799999237061</ele>
        <time>2021-07-04T08:16:06.000Z</time>
      </trkpt>
      <trkpt lat="47.29545" lon="-2.26224">
        <ele>-38.799999237061</ele>
        <time>2021-07-04T08:16:08.000Z</time>
      </trkpt>
      <trkpt lat="47.29551" lon="-2.26218">
        <ele>-38.799999237061</ele>
        <time>2021-07-04T08:16:10.000Z</time>
      </trkpt>
      <trkpt lat="47.29558" lon="-2.26207">
        <ele>-38.799999237061</ele>
        <time>2021-07-04T08:16:14.000Z</time>
      </trkpt>
      <trkpt lat="47.29557" lon="-2.26203">
        <ele>-38.799999237061</ele>
        <time>2021-07-04T08:16:15.000Z</time>
      </trkpt>
      <trkpt lat="47.29553" lon="-2.26199">
        <ele>-38.799999237061</ele>
        <time>2021-07-04T08:16:18.000Z</time>
      </trkpt>
      <trkpt lat="47.29541" lon="-2.26203">
        <ele>-38.799999237061</ele>
        <time>2021-07-04T08:16:22.000Z</time>
      </trkpt>
      <trkpt lat="47.29537" lon="-2.26202">
        <ele>-38.799999237061</ele>
        <time>2021-07-04T08:16:23.000Z</time>
      </trkpt>
      <trkpt lat="47.29526" lon="-2.26203">
        <ele>-38.799999237061</ele>
        <time>2021-07-04T08:16:27.000Z</time>
      </trkpt>
      <trkpt lat="47.29512" lon="-2.26198">
        <ele>-38.799999237061</ele>
        <time>2021-07-04T08:16:32.000Z</time>
      </trkpt>
      <trkpt lat="47.29492" lon="-2.26188">
        <ele>-38.799999237061</ele>
        <time>2021-07-04T08:16:38.000Z</time>
      </trkpt>
      <trkpt lat="47.29472" lon="-2.26183">
        <ele>-38.799999237061</ele>
        <time>2021-07-04T08:16:44.000Z</time>
      </trkpt>
      <trkpt lat="47.29446" lon="-2.26184">
        <ele>-38.799999237061</ele>
        <time>2021-07-04T08:16:51.000Z</time>
      </trkpt>
      <trkpt lat="47.29433" lon="-2.26183">
        <ele>-38.799999237061</ele>
        <time>2021-07-04T08:16:56.000Z</time>
      </trkpt>
      <trkpt lat="47.29412" lon="-2.26175">
        <ele>-38.799999237061</ele>
        <time>2021-07-04T08:17:02.000Z</time>
      </trkpt>
      <trkpt lat="47.29394" lon="-2.26168">
        <ele>-38.799999237061</ele>
        <time>2021-07-04T08:17:08.000Z</time>
      </trkpt>
      <trkpt lat="47.29383" lon="-2.26166">
        <ele>-38.400001525879</ele>
        <time>2021-07-04T08:17:12.000Z</time>
      </trkpt>
      <trkpt lat="47.2938" lon="-2.26166">
        <ele>-38</ele>
        <time>2021-07-04T08:17:13.000Z</time>
      </trkpt>
      <trkpt lat="47.29377" lon="-2.26166">
        <ele>-37.599998474121</ele>
        <time>2021-07-04T08:17:14.000Z</time>
      </trkpt>
      <trkpt lat="47.29374" lon="-2.26167">
        <ele>-37.200000762939</ele>
        <time>2021-07-04T08:17:15.000Z</time>
      </trkpt>
      <trkpt lat="47.2937" lon="-2.26168">
        <ele>-36.799999237061</ele>
        <time>2021-07-04T08:17:16.000Z</time>
      </trkpt>
      <trkpt lat="47.29361" lon="-2.26168">
        <ele>-36.799999237061</ele>
        <time>2021-07-04T08:17:19.000Z</time>
      </trkpt>
      <trkpt lat="47.29345" lon="-2.26168">
        <ele>-36.799999237061</ele>
        <time>2021-07-04T08:17:25.000Z</time>
      </trkpt>
      <trkpt lat="47.29337" lon="-2.2617">
        <ele>-36.799999237061</ele>
        <time>2021-07-04T08:17:31.000Z</time>
      </trkpt>
      <trkpt lat="47.29327" lon="-2.26168">
        <ele>-36.799999237061</ele>
        <time>2021-07-04T08:17:40.000Z</time>
      </trkpt>
      <trkpt lat="47.29322" lon="-2.26175">
        <ele>-36.799999237061</ele>
        <time>2021-07-04T08:17:46.000Z</time>
      </trkpt>
      <trkpt lat="47.29315" lon="-2.26178">
        <ele>-36.799999237061</ele>
        <time>2021-07-04T08:17:49.000Z</time>
      </trkpt>
      <trkpt lat="47.2931" lon="-2.26177">
        <ele>-36.400001525879</ele>
        <time>2021-07-04T08:17:51.000Z</time>
      </trkpt>
      <trkpt lat="47.29306" lon="-2.26177">
        <ele>-36</ele>
        <time>2021-07-04T08:17:52.000Z</time>
      </trkpt>
      <trkpt lat="47.29302" lon="-2.26177">
        <ele>-35.599998474121</ele>
        <time>2021-07-04T08:17:53.000Z</time>
      </trkpt>
      <trkpt lat="47.29298" lon="-2.26178">
        <ele>-35.200000762939</ele>
        <time>2021-07-04T08:17:54.000Z</time>
      </trkpt>
      <trkpt lat="47.29295" lon="-2.26179">
        <ele>-34.799999237061</ele>
        <time>2021-07-04T08:17:55.000Z</time>
      </trkpt>
      <trkpt lat="47.29276" lon="-2.26183">
        <ele>-34.799999237061</ele>
        <time>2021-07-04T08:18:01.000Z</time>
      </trkpt>
      <trkpt lat="47.29267" lon="-2.26178">
        <ele>-34.799999237061</ele>
        <time>2021-07-04T08:18:04.000Z</time>
      </trkpt>
      <trkpt lat="47.29265" lon="-2.26174">
        <ele>-34.799999237061</ele>
        <time>2021-07-04T08:18:05.000Z</time>
      </trkpt>
      <trkpt lat="47.29256" lon="-2.26152">
        <ele>-34.799999237061</ele>
        <time>2021-07-04T08:18:10.000Z</time>
      </trkpt>
      <trkpt lat="47.29255" lon="-2.26148">
        <ele>-34.799999237061</ele>
        <time>2021-07-04T08:18:11.000Z</time>
      </trkpt>
      <trkpt lat="47.29248" lon="-2.26132">
        <ele>-34.799999237061</ele>
        <time>2021-07-04T08:18:16.000Z</time>
      </trkpt>
      <trkpt lat="47.29238" lon="-2.26109">
        <ele>-34.799999237061</ele>
        <time>2021-07-04T08:18:22.000Z</time>
      </trkpt>
      <trkpt lat="47.29238" lon="-2.261">
        <ele>-34.799999237061</ele>
        <time>2021-07-04T08:18:24.000Z</time>
      </trkpt>
      <trkpt lat="47.29241" lon="-2.26097">
        <ele>-34.799999237061</ele>
        <time>2021-07-04T08:18:25.000Z</time>
      </trkpt>
      <trkpt lat="47.29259" lon="-2.26088">
        <ele>-34.799999237061</ele>
        <time>2021-07-04T08:18:31.000Z</time>
      </trkpt>
      <trkpt lat="47.2928" lon="-2.2607">
        <ele>-34.799999237061</ele>
        <time>2021-07-04T08:18:37.000Z</time>
      </trkpt>
      <trkpt lat="47.29281" lon="-2.26065">
        <ele>-34.799999237061</ele>
        <time>2021-07-04T08:18:38.000Z</time>
      </trkpt>
      <trkpt lat="47.29278" lon="-2.26056">
        <ele>-34.799999237061</ele>
        <time>2021-07-04T08:18:41.000Z</time>
      </trkpt>
      <trkpt lat="47.29277" lon="-2.26052">
        <ele>-34.799999237061</ele>
        <time>2021-07-04T08:18:42.000Z</time>
      </trkpt>
      <trkpt lat="47.29271" lon="-2.26022">
        <ele>-34.799999237061</ele>
        <time>2021-07-04T08:18:47.000Z</time>
      </trkpt>
      <trkpt lat="47.29266" lon="-2.25994">
        <ele>-34.799999237061</ele>
        <time>2021-07-04T08:18:53.000Z</time>
      </trkpt>
      <trkpt lat="47.29272" lon="-2.25976">
        <ele>-34.799999237061</ele>
        <time>2021-07-04T08:18:58.000Z</time>
      </trkpt>
      <trkpt lat="47.29276" lon="-2.25974">
        <ele>-34.799999237061</ele>
        <time>2021-07-04T08:18:59.000Z</time>
      </trkpt>
      <trkpt lat="47.29285" lon="-2.25972">
        <ele>-34</ele>
        <time>2021-07-04T08:19:01.000Z</time>
      </trkpt>
      <trkpt lat="47.29291" lon="-2.25972">
        <ele>-33.599998474121</ele>
        <time>2021-07-04T08:19:02.000Z</time>
      </trkpt>
      <trkpt lat="47.29297" lon="-2.25973">
        <ele>-33.200000762939</ele>
        <time>2021-07-04T08:19:03.000Z</time>
      </trkpt>
      <trkpt lat="47.29301" lon="-2.25973">
        <ele>-32.799999237061</ele>
        <time>2021-07-04T08:19:04.000Z</time>
      </trkpt>
      <trkpt lat="47.29316" lon="-2.25967">
        <ele>-32.799999237061</ele>
        <time>2021-07-04T08:19:07.000Z</time>
      </trkpt>
      <trkpt lat="47.29323" lon="-2.25968">
        <ele>-32.799999237061</ele>
        <time>2021-07-04T08:19:09.000Z</time>
      </trkpt>
      <trkpt lat="47.29333" lon="-2.25974">
        <ele>-32.799999237061</ele>
        <time>2021-07-04T08:19:12.000Z</time>
      </trkpt>
      <trkpt lat="47.29349" lon="-2.25972">
        <ele>-32.799999237061</ele>
        <time>2021-07-04T08:19:18.000Z</time>
      </trkpt>
      <trkpt lat="47.29359" lon="-2.25958">
        <ele>-32.799999237061</ele>
        <time>2021-07-04T08:19:23.000Z</time>
      </trkpt>
      <trkpt lat="47.29367" lon="-2.25949">
        <ele>-32.799999237061</ele>
        <time>2021-07-04T08:19:27.000Z</time>
      </trkpt>
      <trkpt lat="47.29368" lon="-2.25946">
        <ele>-32.799999237061</ele>
        <time>2021-07-04T08:19:28.000Z</time>
      </trkpt>
      <trkpt lat="47.29369" lon="-2.25925">
        <ele>-32.799999237061</ele>
        <time>2021-07-04T08:19:32.000Z</time>
      </trkpt>
      <trkpt lat="47.2937" lon="-2.25922">
        <ele>-32.799999237061</ele>
        <time>2021-07-04T08:19:33.000Z</time>
      </trkpt>
      <trkpt lat="47.29372" lon="-2.259">
        <ele>-32.799999237061</ele>
        <time>2021-07-04T08:19:39.000Z</time>
      </trkpt>
      <trkpt lat="47.29376" lon="-2.25887">
        <ele>-32.799999237061</ele>
        <time>2021-07-04T08:19:44.000Z</time>
      </trkpt>
      <trkpt lat="47.29373" lon="-2.25876">
        <ele>-32.799999237061</ele>
        <time>2021-07-04T08:19:48.000Z</time>
      </trkpt>
      <trkpt lat="47.29372" lon="-2.25873">
        <ele>-32.799999237061</ele>
        <time>2021-07-04T08:19:49.000Z</time>
      </trkpt>
      <trkpt lat="47.29366" lon="-2.25858">
        <ele>-32.799999237061</ele>
        <time>2021-07-04T08:19:55.000Z</time>
      </trkpt>
      <trkpt lat="47.29364" lon="-2.2585">
        <ele>-32.799999237061</ele>
        <time>2021-07-04T08:19:57.000Z</time>
      </trkpt>
      <trkpt lat="47.29366" lon="-2.25831">
        <ele>-32.799999237061</ele>
        <time>2021-07-04T08:20:01.000Z</time>
      </trkpt>
      <trkpt lat="47.29365" lon="-2.25822">
        <ele>-32.799999237061</ele>
        <time>2021-07-04T08:20:03.000Z</time>
      </trkpt>
      <trkpt lat="47.29363" lon="-2.25815">
        <ele>-32.799999237061</ele>
        <time>2021-07-04T08:20:05.000Z</time>
      </trkpt>
      <trkpt lat="47.29359" lon="-2.25791">
        <ele>-32.799999237061</ele>
        <time>2021-07-04T08:20:11.000Z</time>
      </trkpt>
      <trkpt lat="47.29359" lon="-2.25785">
        <ele>-32.400001525879</ele>
        <time>2021-07-04T08:20:13.000Z</time>
      </trkpt>
      <trkpt lat="47.29359" lon="-2.25781">
        <ele>-31.799999237061</ele>
        <time>2021-07-04T08:20:14.000Z</time>
      </trkpt>
      <trkpt lat="47.29359" lon="-2.25777">
        <ele>-31</ele>
        <time>2021-07-04T08:20:15.000Z</time>
      </trkpt>
      <trkpt lat="47.2936" lon="-2.25774">
        <ele>-30.60000038147</ele>
        <time>2021-07-04T08:20:16.000Z</time>
      </trkpt>
      <trkpt lat="47.29362" lon="-2.2577">
        <ele>-30.60000038147</ele>
        <time>2021-07-04T08:20:18.000Z</time>
      </trkpt>
      <trkpt lat="47.29365" lon="-2.25767">
        <ele>-30.60000038147</ele>
        <time>2021-07-04T08:20:20.000Z</time>
      </trkpt>
      <trkpt lat="47.29373" lon="-2.25766">
        <ele>-30.60000038147</ele>
        <time>2021-07-04T08:20:24.000Z</time>
      </trkpt>
      <trkpt lat="47.29376" lon="-2.25764">
        <ele>-30.60000038147</ele>
        <time>2021-07-04T08:20:26.000Z</time>
      </trkpt>
      <trkpt lat="47.29385" lon="-2.25756">
        <ele>-30.60000038147</ele>
        <time>2021-07-04T08:20:30.000Z</time>
      </trkpt>
      <trkpt lat="47.29392" lon="-2.25755">
        <ele>-30.60000038147</ele>
        <time>2021-07-04T08:20:34.000Z</time>
      </trkpt>
      <trkpt lat="47.29396" lon="-2.25756">
        <ele>-30.60000038147</ele>
        <time>2021-07-04T08:20:36.000Z</time>
      </trkpt>
      <trkpt lat="47.29404" lon="-2.25758">
        <ele>-30.60000038147</ele>
        <time>2021-07-04T08:20:39.000Z</time>
      </trkpt>
      <trkpt lat="47.29409" lon="-2.25763">
        <ele>-30.60000038147</ele>
        <time>2021-07-04T08:20:41.000Z</time>
      </trkpt>
      <trkpt lat="47.29417" lon="-2.25769">
        <ele>-30.60000038147</ele>
        <time>2021-07-04T08:20:47.000Z</time>
      </trkpt>
      <trkpt lat="47.29417" lon="-2.25775">
        <ele>-30.60000038147</ele>
        <time>2021-07-04T08:21:04.000Z</time>
      </trkpt>
      <trkpt lat="47.29419" lon="-2.25783">
        <ele>-30.60000038147</ele>
        <time>2021-07-04T08:21:07.000Z</time>
      </trkpt>
      <trkpt lat="47.29424" lon="-2.25793">
        <ele>-30.60000038147</ele>
        <time>2021-07-04T08:21:10.000Z</time>
      </trkpt>
      <trkpt lat="47.29425" lon="-2.25797">
        <ele>-30.60000038147</ele>
        <time>2021-07-04T08:21:11.000Z</time>
      </trkpt>
      <trkpt lat="47.29425" lon="-2.25801">
        <ele>-30.60000038147</ele>
        <time>2021-07-04T08:21:12.000Z</time>
      </trkpt>
      <trkpt lat="47.29424" lon="-2.25821">
        <ele>-30.60000038147</ele>
        <time>2021-07-04T08:21:18.000Z</time>
      </trkpt>
      <trkpt lat="47.29423" lon="-2.25826">
        <ele>-30.60000038147</ele>
        <time>2021-07-04T08:21:19.000Z</time>
      </trkpt>
      <trkpt lat="47.29421" lon="-2.25839">
        <ele>-30.60000038147</ele>
        <time>2021-07-04T08:21:24.000Z</time>
      </trkpt>
      <trkpt lat="47.29422" lon="-2.25841">
        <ele>-30.60000038147</ele>
        <time>2021-07-04T08:21:25.000Z</time>
      </trkpt>
      <trkpt lat="47.29429" lon="-2.25861">
        <ele>-30.60000038147</ele>
        <time>2021-07-04T08:21:29.000Z</time>
      </trkpt>
      <trkpt lat="47.29436" lon="-2.25887">
        <ele>-30.60000038147</ele>
        <time>2021-07-04T08:21:32.000Z</time>
      </trkpt>
      <trkpt lat="47.29438" lon="-2.259">
        <ele>-30.60000038147</ele>
        <time>2021-07-04T08:21:34.000Z</time>
      </trkpt>
      <trkpt lat="47.29443" lon="-2.25924">
        <ele>-30.60000038147</ele>
        <time>2021-07-04T08:21:39.000Z</time>
      </trkpt>
      <trkpt lat="47.2944" lon="-2.25932">
        <ele>-30.60000038147</ele>
        <time>2021-07-04T08:21:41.000Z</time>
      </trkpt>
      <trkpt lat="47.29438" lon="-2.25935">
        <ele>-30.60000038147</ele>
        <time>2021-07-04T08:21:42.000Z</time>
      </trkpt>
      <trkpt lat="47.2943" lon="-2.25942">
        <ele>-30.60000038147</ele>
        <time>2021-07-04T08:21:45.000Z</time>
      </trkpt>
      <trkpt lat="47.29424" lon="-2.25946">
        <ele>-30.60000038147</ele>
        <time>2021-07-04T08:21:47.000Z</time>
      </trkpt>
      <trkpt lat="47.29413" lon="-2.25952">
        <ele>-30.60000038147</ele>
        <time>2021-07-04T08:21:52.000Z</time>
      </trkpt>
      <trkpt lat="47.29403" lon="-2.2595">
        <ele>-30.60000038147</ele>
        <time>2021-07-04T08:21:57.000Z</time>
      </trkpt>
      <trkpt lat="47.29402" lon="-2.25952">
        <ele>-30.60000038147</ele>
        <time>2021-07-04T08:21:58.000Z</time>
      </trkpt>
      <trkpt lat="47.29401" lon="-2.25956">
        <ele>-30.60000038147</ele>
        <time>2021-07-04T08:22:00.000Z</time>
      </trkpt>
      <trkpt lat="47.29402" lon="-2.25959">
        <ele>-30.60000038147</ele>
        <time>2021-07-04T08:22:01.000Z</time>
      </trkpt>
      <trkpt lat="47.29403" lon="-2.25969">
        <ele>-30.60000038147</ele>
        <time>2021-07-04T08:22:04.000Z</time>
      </trkpt>
      <trkpt lat="47.294" lon="-2.25975">
        <ele>-30.60000038147</ele>
        <time>2021-07-04T08:22:05.000Z</time>
      </trkpt>
      <trkpt lat="47.29398" lon="-2.2598">
        <ele>-30.60000038147</ele>
        <time>2021-07-04T08:22:06.000Z</time>
      </trkpt>
      <trkpt lat="47.29397" lon="-2.25989">
        <ele>-30.60000038147</ele>
        <time>2021-07-04T08:22:08.000Z</time>
      </trkpt>
      <trkpt lat="47.29396" lon="-2.26002">
        <ele>-30.60000038147</ele>
        <time>2021-07-04T08:22:11.000Z</time>
      </trkpt>
      <trkpt lat="47.29399" lon="-2.26027">
        <ele>-30.60000038147</ele>
        <time>2021-07-04T08:22:17.000Z</time>
      </trkpt>
      <trkpt lat="47.29408" lon="-2.26055">
        <ele>-30.60000038147</ele>
        <time>2021-07-04T08:22:24.000Z</time>
      </trkpt>
      <trkpt lat="47.29414" lon="-2.26079">
        <ele>-30.60000038147</ele>
        <time>2021-07-04T08:22:30.000Z</time>
      </trkpt>
      <trkpt lat="47.29416" lon="-2.26105">
        <ele>-30.60000038147</ele>
        <time>2021-07-04T08:22:34.000Z</time>
      </trkpt>
      <trkpt lat="47.29414" lon="-2.26127">
        <ele>-30.60000038147</ele>
        <time>2021-07-04T08:22:39.000Z</time>
      </trkpt>
      <trkpt lat="47.29412" lon="-2.26142">
        <ele>-30.60000038147</ele>
        <time>2021-07-04T08:22:43.000Z</time>
      </trkpt>
      <trkpt lat="47.29409" lon="-2.26145">
        <ele>-30.60000038147</ele>
        <time>2021-07-04T08:22:44.000Z</time>
      </trkpt>
      <trkpt lat="47.29397" lon="-2.26148">
        <ele>-30.60000038147</ele>
        <time>2021-07-04T08:22:48.000Z</time>
      </trkpt>
      <trkpt lat="47.29392" lon="-2.26148">
        <ele>-30.60000038147</ele>
        <time>2021-07-04T08:22:50.000Z</time>
      </trkpt>
      <trkpt lat="47.29381" lon="-2.26147">
        <ele>-30.60000038147</ele>
        <time>2021-07-04T08:22:54.000Z</time>
      </trkpt>
      <trkpt lat="47.29364" lon="-2.26134">
        <ele>-30.60000038147</ele>
        <time>2021-07-04T08:23:00.000Z</time>
      </trkpt>
      <trkpt lat="47.29351" lon="-2.26118">
        <ele>-30.60000038147</ele>
        <time>2021-07-04T08:23:06.000Z</time>
      </trkpt>
      <trkpt lat="47.2934" lon="-2.26101">
        <ele>-30.60000038147</ele>
        <time>2021-07-04T08:23:12.000Z</time>
      </trkpt>
      <trkpt lat="47.29331" lon="-2.26083">
        <ele>-30.60000038147</ele>
        <time>2021-07-04T08:23:19.000Z</time>
      </trkpt>
      <trkpt lat="47.29321" lon="-2.26059">
        <ele>-30.60000038147</ele>
        <time>2021-07-04T08:23:25.000Z</time>
      </trkpt>
      <trkpt lat="47.29303" lon="-2.2601">
        <ele>-30.60000038147</ele>
        <time>2021-07-04T08:23:32.000Z</time>
      </trkpt>
      <trkpt lat="47.29297" lon="-2.25976">
        <ele>-30.60000038147</ele>
        <time>2021-07-04T08:23:38.000Z</time>
      </trkpt>
      <trkpt lat="47.29287" lon="-2.25945">
        <ele>-30.60000038147</ele>
        <time>2021-07-04T08:23:44.000Z</time>
      </trkpt>
      <trkpt lat="47.2928" lon="-2.25918">
        <ele>-30.60000038147</ele>
        <time>2021-07-04T08:23:50.000Z</time>
      </trkpt>
      <trkpt lat="47.29282" lon="-2.25903">
        <ele>-30.60000038147</ele>
        <time>2021-07-04T08:23:54.000Z</time>
      </trkpt>
      <trkpt lat="47.29284" lon="-2.25899">
        <ele>-30.60000038147</ele>
        <time>2021-07-04T08:23:55.000Z</time>
      </trkpt>
      <trkpt lat="47.29289" lon="-2.25881">
        <ele>-30.60000038147</ele>
        <time>2021-07-04T08:24:00.000Z</time>
      </trkpt>
      <trkpt lat="47.29294" lon="-2.25873">
        <ele>-30.60000038147</ele>
        <time>2021-07-04T08:24:03.000Z</time>
      </trkpt>
      <trkpt lat="47.29296" lon="-2.25875">
        <ele>-30.60000038147</ele>
        <time>2021-07-04T08:24:04.000Z</time>
      </trkpt>
      <trkpt lat="47.29306" lon="-2.2588">
        <ele>-30.60000038147</ele>
        <time>2021-07-04T08:24:10.000Z</time>
      </trkpt>
      <trkpt lat="47.29315" lon="-2.25888">
        <ele>-30.60000038147</ele>
        <time>2021-07-04T08:24:16.000Z</time>
      </trkpt>
      <trkpt lat="47.29315" lon="-2.25883">
        <ele>-30.60000038147</ele>
        <time>2021-07-04T08:24:20.000Z</time>
      </trkpt>
      <trkpt lat="47.29314" lon="-2.2588">
        <ele>-30.60000038147</ele>
        <time>2021-07-04T08:24:21.000Z</time>
      </trkpt>
      <trkpt lat="47.29306" lon="-2.25867">
        <ele>-30.60000038147</ele>
        <time>2021-07-04T08:24:26.000Z</time>
      </trkpt>
      <trkpt lat="47.29305" lon="-2.25856">
        <ele>-30.60000038147</ele>
        <time>2021-07-04T08:24:31.000Z</time>
      </trkpt>
      <trkpt lat="47.29309" lon="-2.25852">
        <ele>-30.60000038147</ele>
        <time>2021-07-04T08:24:34.000Z</time>
      </trkpt>
      <trkpt lat="47.29316" lon="-2.25852">
        <ele>-30.60000038147</ele>
        <time>2021-07-04T08:24:37.000Z</time>
      </trkpt>
      <trkpt lat="47.29319" lon="-2.25854">
        <ele>-30.60000038147</ele>
        <time>2021-07-04T08:24:39.000Z</time>
      </trkpt>
      <trkpt lat="47.29321" lon="-2.25861">
        <ele>-30.60000038147</ele>
        <time>2021-07-04T08:24:41.000Z</time>
      </trkpt>
      <trkpt lat="47.29321" lon="-2.25865">
        <ele>-30.60000038147</ele>
        <time>2021-07-04T08:24:42.000Z</time>
      </trkpt>
      <trkpt lat="47.2933" lon="-2.25883">
        <ele>-30.60000038147</ele>
        <time>2021-07-04T08:24:48.000Z</time>
      </trkpt>
      <trkpt lat="47.29333" lon="-2.25883">
        <ele>-30.60000038147</ele>
        <time>2021-07-04T08:24:49.000Z</time>
      </trkpt>
      <trkpt lat="47.29341" lon="-2.2588">
        <ele>-30.60000038147</ele>
        <time>2021-07-04T08:24:52.000Z</time>
      </trkpt>
      <trkpt lat="47.29344" lon="-2.25878">
        <ele>-30.60000038147</ele>
        <time>2021-07-04T08:24:53.000Z</time>
      </trkpt>
      <trkpt lat="47.29352" lon="-2.25869">
        <ele>-30.60000038147</ele>
        <time>2021-07-04T08:24:58.000Z</time>
      </trkpt>
      <trkpt lat="47.2936" lon="-2.25867">
        <ele>-30.60000038147</ele>
        <time>2021-07-04T08:25:03.000Z</time>
      </trkpt>
      <trkpt lat="47.29372" lon="-2.25864">
        <ele>-30.60000038147</ele>
        <time>2021-07-04T08:25:07.000Z</time>
      </trkpt>
      <trkpt lat="47.2938" lon="-2.25856">
        <ele>-30.60000038147</ele>
        <time>2021-07-04T08:25:11.000Z</time>
      </trkpt>
      <trkpt lat="47.29389" lon="-2.25859">
        <ele>-30.60000038147</ele>
        <time>2021-07-04T08:25:18.000Z</time>
      </trkpt>
      <trkpt lat="47.29402" lon="-2.25859">
        <ele>-30.60000038147</ele>
        <time>2021-07-04T08:25:22.000Z</time>
      </trkpt>
      <trkpt lat="47.29407" lon="-2.25859">
        <ele>-30.60000038147</ele>
        <time>2021-07-04T08:25:24.000Z</time>
      </trkpt>
      <trkpt lat="47.29412" lon="-2.25855">
        <ele>-30.60000038147</ele>
        <time>2021-07-04T08:25:26.000Z</time>
      </trkpt>
      <trkpt lat="47.29419" lon="-2.25846">
        <ele>-30.60000038147</ele>
        <time>2021-07-04T08:25:28.000Z</time>
      </trkpt>
      <trkpt lat="47.29426" lon="-2.25826">
        <ele>-30.60000038147</ele>
        <time>2021-07-04T08:25:33.000Z</time>
      </trkpt>
      <trkpt lat="47.29426" lon="-2.25823">
        <ele>-30.60000038147</ele>
        <time>2021-07-04T08:25:34.000Z</time>
      </trkpt>
      <trkpt lat="47.29424" lon="-2.2581">
        <ele>-30.60000038147</ele>
        <time>2021-07-04T08:25:38.000Z</time>
      </trkpt>
      <trkpt lat="47.29424" lon="-2.25797">
        <ele>-30.60000038147</ele>
        <time>2021-07-04T08:25:44.000Z</time>
      </trkpt>
      <trkpt lat="47.29425" lon="-2.25795">
        <ele>-30.60000038147</ele>
        <time>2021-07-04T08:25:45.000Z</time>
      </trkpt>
      <trkpt lat="47.29421" lon="-2.25786">
        <ele>-30.60000038147</ele>
        <time>2021-07-04T08:25:50.000Z</time>
      </trkpt>
      <trkpt lat="47.29418" lon="-2.25783">
        <ele>-30.60000038147</ele>
        <time>2021-07-04T08:25:53.000Z</time>
      </trkpt>
      <trkpt lat="47.29417" lon="-2.25777">
        <ele>-30.60000038147</ele>
        <time>2021-07-04T08:25:56.000Z</time>
      </trkpt>
      <trkpt lat="47.29417" lon="-2.25776">
        <ele>-30.60000038147</ele>
        <time>2021-07-04T08:25:57.000Z</time>
      </trkpt>
      <trkpt lat="47.29413" lon="-2.25774">
        <ele>-30.60000038147</ele>
        <time>2021-07-04T08:25:59.000Z</time>
      </trkpt>
      <trkpt lat="47.29407" lon="-2.25772">
        <ele>-30.60000038147</ele>
        <time>2021-07-04T08:26:02.000Z</time>
      </trkpt>
      <trkpt lat="47.29403" lon="-2.25768">
        <ele>-30.60000038147</ele>
        <time>2021-07-04T08:26:04.000Z</time>
      </trkpt>
      <trkpt lat="47.294" lon="-2.25768">
        <ele>-30.60000038147</ele>
        <time>2021-07-04T08:26:06.000Z</time>
      </trkpt>
      <trkpt lat="47.29398" lon="-2.25768">
        <ele>-30.60000038147</ele>
        <time>2021-07-04T08:26:07.000Z</time>
      </trkpt>
      <trkpt lat="47.29387" lon="-2.25771">
        <ele>-30.60000038147</ele>
        <time>2021-07-04T08:26:13.000Z</time>
      </trkpt>
      <trkpt lat="47.29376" lon="-2.25773">
        <ele>-30.60000038147</ele>
        <time>2021-07-04T08:26:20.000Z</time>
      </trkpt>
      <trkpt lat="47.29371" lon="-2.25779">
        <ele>-30.60000038147</ele>
        <time>2021-07-04T08:26:24.000Z</time>
      </trkpt>
      <trkpt lat="47.2937" lon="-2.25783">
        <ele>-30.60000038147</ele>
        <time>2021-07-04T08:26:26.000Z</time>
      </trkpt>
      <trkpt lat="47.29365" lon="-2.25788">
        <ele>-30.60000038147</ele>
        <time>2021-07-04T08:26:29.000Z</time>
      </trkpt>
      <trkpt lat="47.29361" lon="-2.2579">
        <ele>-30.60000038147</ele>
        <time>2021-07-04T08:26:32.000Z</time>
      </trkpt>
      <trkpt lat="47.29347" lon="-2.25789">
        <ele>-30.60000038147</ele>
        <time>2021-07-04T08:26:39.000Z</time>
      </trkpt>
      <trkpt lat="47.29333" lon="-2.25786">
        <ele>-30.60000038147</ele>
        <time>2021-07-04T08:26:45.000Z</time>
      </trkpt>
      <trkpt lat="47.29329" lon="-2.25788">
        <ele>-30.60000038147</ele>
        <time>2021-07-04T08:26:47.000Z</time>
      </trkpt>
      <trkpt lat="47.29325" lon="-2.25778">
        <ele>-30.60000038147</ele>
        <time>2021-07-04T08:26:59.000Z</time>
      </trkpt>
      <trkpt lat="47.29328" lon="-2.25774">
        <ele>-30.60000038147</ele>
        <time>2021-07-04T08:27:01.000Z</time>
      </trkpt>
      <trkpt lat="47.29335" lon="-2.25766">
        <ele>-30.60000038147</ele>
        <time>2021-07-04T08:27:05.000Z</time>
      </trkpt>
      <trkpt lat="47.2934" lon="-2.25762">
        <ele>-30.60000038147</ele>
        <time>2021-07-04T08:27:07.000Z</time>
      </trkpt>
      <trkpt lat="47.29355" lon="-2.25747">
        <ele>-30.60000038147</ele>
        <time>2021-07-04T08:27:12.000Z</time>
      </trkpt>
      <trkpt lat="47.29365" lon="-2.25728">
        <ele>-30.60000038147</ele>
        <time>2021-07-04T08:27:17.000Z</time>
      </trkpt>
      <trkpt lat="47.29374" lon="-2.25685">
        <ele>-30.60000038147</ele>
        <time>2021-07-04T08:27:24.000Z</time>
      </trkpt>
      <trkpt lat="47.29379" lon="-2.25656">
        <ele>-30.60000038147</ele>
        <time>2021-07-04T08:27:29.000Z</time>
      </trkpt>
      <trkpt lat="47.29381" lon="-2.25644">
        <ele>-30.60000038147</ele>
        <time>2021-07-04T08:27:34.000Z</time>
      </trkpt>
      <trkpt lat="47.29383" lon="-2.25644">
        <ele>-30.60000038147</ele>
        <time>2021-07-04T08:27:37.000Z</time>
      </trkpt>
      <trkpt lat="47.29393" lon="-2.25639">
        <ele>-32.799999237061</ele>
        <time>2021-07-04T08:27:58.000Z</time>
      </trkpt>
      <trkpt lat="47.29396" lon="-2.25636">
        <ele>-32.799999237061</ele>
        <time>2021-07-04T08:27:59.000Z</time>
      </trkpt>
      <trkpt lat="47.29404" lon="-2.25628">
        <ele>-33.200000762939</ele>
        <time>2021-07-04T08:28:01.000Z</time>
      </trkpt>
      <trkpt lat="47.2941" lon="-2.25625">
        <ele>-33.599998474121</ele>
        <time>2021-07-04T08:28:02.000Z</time>
      </trkpt>
      <trkpt lat="47.29415" lon="-2.25623">
        <ele>-34</ele>
        <time>2021-07-04T08:28:03.000Z</time>
      </trkpt>
      <trkpt lat="47.29421" lon="-2.2562">
        <ele>-34.400001525879</ele>
        <time>2021-07-04T08:28:04.000Z</time>
      </trkpt>
      <trkpt lat="47.29428" lon="-2.25616">
        <ele>-34.799999237061</ele>
        <time>2021-07-04T08:28:05.000Z</time>
      </trkpt>
      <trkpt lat="47.29447" lon="-2.25607">
        <ele>-34.799999237061</ele>
        <time>2021-07-04T08:28:08.000Z</time>
      </trkpt>
      <trkpt lat="47.29505" lon="-2.25575">
        <ele>-34.799999237061</ele>
        <time>2021-07-04T08:28:16.000Z</time>
      </trkpt>
      <trkpt lat="47.29556" lon="-2.2554">
        <ele>-34.799999237061</ele>
        <time>2021-07-04T08:28:23.000Z</time>
      </trkpt>
      <trkpt lat="47.29571" lon="-2.25528">
        <ele>-34.799999237061</ele>
        <time>2021-07-04T08:28:25.000Z</time>
      </trkpt>
      <trkpt lat="47.2958" lon="-2.25509">
        <ele>-34.799999237061</ele>
        <time>2021-07-04T08:28:27.000Z</time>
      </trkpt>
      <trkpt lat="47.29585" lon="-2.25476">
        <ele>-34.799999237061</ele>
        <time>2021-07-04T08:28:30.000Z</time>
      </trkpt>
      <trkpt lat="47.29583" lon="-2.25443">
        <ele>-34.799999237061</ele>
        <time>2021-07-04T08:28:33.000Z</time>
      </trkpt>
      <trkpt lat="47.29582" lon="-2.25432">
        <ele>-34.799999237061</ele>
        <time>2021-07-04T08:28:34.000Z</time>
      </trkpt>
      <trkpt lat="47.29577" lon="-2.25389">
        <ele>-35.200000762939</ele>
        <time>2021-07-04T08:28:38.000Z</time>
      </trkpt>
      <trkpt lat="47.29575" lon="-2.25379">
        <ele>-35.599998474121</ele>
        <time>2021-07-04T08:28:39.000Z</time>
      </trkpt>
      <trkpt lat="47.29572" lon="-2.25368">
        <ele>-36</ele>
        <time>2021-07-04T08:28:40.000Z</time>
      </trkpt>
      <trkpt lat="47.29569" lon="-2.25359">
        <ele>-36.400001525879</ele>
        <time>2021-07-04T08:28:41.000Z</time>
      </trkpt>
      <trkpt lat="47.29565" lon="-2.25349">
        <ele>-36.799999237061</ele>
        <time>2021-07-04T08:28:42.000Z</time>
      </trkpt>
      <trkpt lat="47.29553" lon="-2.25323">
        <ele>-36.799999237061</ele>
        <time>2021-07-04T08:28:45.000Z</time>
      </trkpt>
      <trkpt lat="47.29541" lon="-2.25292">
        <ele>-36.799999237061</ele>
        <time>2021-07-04T08:28:48.000Z</time>
      </trkpt>
      <trkpt lat="47.29537" lon="-2.2527">
        <ele>-36.799999237061</ele>
        <time>2021-07-04T08:28:50.000Z</time>
      </trkpt>
      <trkpt lat="47.29537" lon="-2.25225">
        <ele>-36.799999237061</ele>
        <time>2021-07-04T08:28:54.000Z</time>
      </trkpt>
      <trkpt lat="47.29538" lon="-2.25216">
        <ele>-36.799999237061</ele>
        <time>2021-07-04T08:28:55.000Z</time>
      </trkpt>
      <trkpt lat="47.2954" lon="-2.25206">
        <ele>-36.799999237061</ele>
        <time>2021-07-04T08:28:56.000Z</time>
      </trkpt>
      <trkpt lat="47.29544" lon="-2.25191">
        <ele>-36.799999237061</ele>
        <time>2021-07-04T08:28:58.000Z</time>
      </trkpt>
      <trkpt lat="47.29544" lon="-2.25178">
        <ele>-36.799999237061</ele>
        <time>2021-07-04T08:29:01.000Z</time>
      </trkpt>
      <trkpt lat="47.29534" lon="-2.2518">
        <ele>-36.799999237061</ele>
        <time>2021-07-04T08:29:04.000Z</time>
      </trkpt>
      <trkpt lat="47.2953" lon="-2.25181">
        <ele>-36.799999237061</ele>
        <time>2021-07-04T08:29:05.000Z</time>
      </trkpt>
      <trkpt lat="47.29511" lon="-2.2519">
        <ele>-36.799999237061</ele>
        <time>2021-07-04T08:29:09.000Z</time>
      </trkpt>
      <trkpt lat="47.29477" lon="-2.25199">
        <ele>-36.799999237061</ele>
        <time>2021-07-04T08:29:15.000Z</time>
      </trkpt>
      <trkpt lat="47.29437" lon="-2.25212">
        <ele>-36.799999237061</ele>
        <time>2021-07-04T08:29:22.000Z</time>
      </trkpt>
      <trkpt lat="47.29416" lon="-2.2522">
        <ele>-36.799999237061</ele>
        <time>2021-07-04T08:29:26.000Z</time>
      </trkpt>
      <trkpt lat="47.29411" lon="-2.2522">
        <ele>-36.799999237061</ele>
        <time>2021-07-04T08:29:27.000Z</time>
      </trkpt>
      <trkpt lat="47.29394" lon="-2.25218">
        <ele>-36.799999237061</ele>
        <time>2021-07-04T08:29:30.000Z</time>
      </trkpt>
      <trkpt lat="47.29374" lon="-2.25214">
        <ele>-36.799999237061</ele>
        <time>2021-07-04T08:29:33.000Z</time>
      </trkpt>
      <trkpt lat="47.29335" lon="-2.25205">
        <ele>-36.799999237061</ele>
        <time>2021-07-04T08:29:39.000Z</time>
      </trkpt>
      <trkpt lat="47.29315" lon="-2.252">
        <ele>-36.799999237061</ele>
        <time>2021-07-04T08:29:43.000Z</time>
      </trkpt>
      <trkpt lat="47.29312" lon="-2.25194">
        <ele>-36.799999237061</ele>
        <time>2021-07-04T08:29:44.000Z</time>
      </trkpt>
      <trkpt lat="47.29307" lon="-2.2517">
        <ele>-36.799999237061</ele>
        <time>2021-07-04T08:29:47.000Z</time>
      </trkpt>
      <trkpt lat="47.29298" lon="-2.25116">
        <ele>-36.799999237061</ele>
        <time>2021-07-04T08:29:53.000Z</time>
      </trkpt>
      <trkpt lat="47.29283" lon="-2.25056">
        <ele>-36.799999237061</ele>
        <time>2021-07-04T08:30:00.000Z</time>
      </trkpt>
      <trkpt lat="47.29265" lon="-2.24989">
        <ele>-36.799999237061</ele>
        <time>2021-07-04T08:30:09.000Z</time>
      </trkpt>
      <trkpt lat="47.29257" lon="-2.24948">
        <ele>-36.799999237061</ele>
        <time>2021-07-04T08:30:15.000Z</time>
      </trkpt>
      <trkpt lat="47.29262" lon="-2.24926">
        <ele>-36.799999237061</ele>
        <time>2021-07-04T08:30:19.000Z</time>
      </trkpt>
      <trkpt lat="47.29268" lon="-2.24922">
        <ele>-36.799999237061</ele>
        <time>2021-07-04T08:30:21.000Z</time>
      </trkpt>
      <trkpt lat="47.29272" lon="-2.24921">
        <ele>-36.799999237061</ele>
        <time>2021-07-04T08:30:22.000Z</time>
      </trkpt>
      <trkpt lat="47.29277" lon="-2.24919">
        <ele>-36.799999237061</ele>
        <time>2021-07-04T08:30:23.000Z</time>
      </trkpt>
      <trkpt lat="47.29285" lon="-2.24916">
        <ele>-36.799999237061</ele>
        <time>2021-07-04T08:30:25.000Z</time>
      </trkpt>
      <trkpt lat="47.2929" lon="-2.24915">
        <ele>-36.799999237061</ele>
        <time>2021-07-04T08:30:26.000Z</time>
      </trkpt>
      <trkpt lat="47.29313" lon="-2.24913">
        <ele>-36.799999237061</ele>
        <time>2021-07-04T08:30:31.000Z</time>
      </trkpt>
      <trkpt lat="47.29318" lon="-2.24914">
        <ele>-37.200000762939</ele>
        <time>2021-07-04T08:30:32.000Z</time>
      </trkpt>
      <trkpt lat="47.29322" lon="-2.24915">
        <ele>-37.599998474121</ele>
        <time>2021-07-04T08:30:33.000Z</time>
      </trkpt>
      <trkpt lat="47.29326" lon="-2.24915">
        <ele>-38</ele>
        <time>2021-07-04T08:30:34.000Z</time>
      </trkpt>
      <trkpt lat="47.29329" lon="-2.24912">
        <ele>-38.400001525879</ele>
        <time>2021-07-04T08:30:35.000Z</time>
      </trkpt>
      <trkpt lat="47.29332" lon="-2.24908">
        <ele>-38.799999237061</ele>
        <time>2021-07-04T08:30:36.000Z</time>
      </trkpt>
      <trkpt lat="47.29338" lon="-2.24891">
        <ele>-38.799999237061</ele>
        <time>2021-07-04T08:30:39.000Z</time>
      </trkpt>
      <trkpt lat="47.29338" lon="-2.24885">
        <ele>-38.799999237061</ele>
        <time>2021-07-04T08:30:40.000Z</time>
      </trkpt>
      <trkpt lat="47.29338" lon="-2.24879">
        <ele>-38.799999237061</ele>
        <time>2021-07-04T08:30:41.000Z</time>
      </trkpt>
      <trkpt lat="47.29336" lon="-2.2485">
        <ele>-38.799999237061</ele>
        <time>2021-07-04T08:30:45.000Z</time>
      </trkpt>
      <trkpt lat="47.29331" lon="-2.24813">
        <ele>-38.799999237061</ele>
        <time>2021-07-04T08:30:51.000Z</time>
      </trkpt>
      <trkpt lat="47.29329" lon="-2.24801">
        <ele>-38.799999237061</ele>
        <time>2021-07-04T08:30:53.000Z</time>
      </trkpt>
      <trkpt lat="47.29323" lon="-2.24783">
        <ele>-38.799999237061</ele>
        <time>2021-07-04T08:30:56.000Z</time>
      </trkpt>
      <trkpt lat="47.29313" lon="-2.24757">
        <ele>-38.799999237061</ele>
        <time>2021-07-04T08:31:01.000Z</time>
      </trkpt>
      <trkpt lat="47.29311" lon="-2.24738">
        <ele>-38.799999237061</ele>
        <time>2021-07-04T08:31:03.000Z</time>
      </trkpt>
      <trkpt lat="47.29301" lon="-2.24682">
        <ele>-38.799999237061</ele>
        <time>2021-07-04T08:31:10.000Z</time>
      </trkpt>
      <trkpt lat="47.29296" lon="-2.24643">
        <ele>-38.799999237061</ele>
        <time>2021-07-04T08:31:14.000Z</time>
      </trkpt>
      <trkpt lat="47.29294" lon="-2.24617">
        <ele>-38.799999237061</ele>
        <time>2021-07-04T08:31:17.000Z</time>
      </trkpt>
      <trkpt lat="47.29294" lon="-2.24556">
        <ele>-38.799999237061</ele>
        <time>2021-07-04T08:31:23.000Z</time>
      </trkpt>
      <trkpt lat="47.29291" lon="-2.24513">
        <ele>-38.799999237061</ele>
        <time>2021-07-04T08:31:28.000Z</time>
      </trkpt>
      <trkpt lat="47.29293" lon="-2.24468">
        <ele>-38.799999237061</ele>
        <time>2021-07-04T08:31:34.000Z</time>
      </trkpt>
      <trkpt lat="47.293" lon="-2.24459">
        <ele>-38.799999237061</ele>
        <time>2021-07-04T08:31:38.000Z</time>
      </trkpt>
      <trkpt lat="47.29315" lon="-2.24447">
        <ele>-38.799999237061</ele>
        <time>2021-07-04T08:31:44.000Z</time>
      </trkpt>
      <trkpt lat="47.29328" lon="-2.24431">
        <ele>-38.799999237061</ele>
        <time>2021-07-04T08:31:50.000Z</time>
      </trkpt>
      <trkpt lat="47.29342" lon="-2.24411">
        <ele>-38.799999237061</ele>
        <time>2021-07-04T08:31:55.000Z</time>
      </trkpt>
      <trkpt lat="47.29346" lon="-2.24406">
        <ele>-38.799999237061</ele>
        <time>2021-07-04T08:31:56.000Z</time>
      </trkpt>
      <trkpt lat="47.29364" lon="-2.24384">
        <ele>-38.799999237061</ele>
        <time>2021-07-04T08:32:01.000Z</time>
      </trkpt>
      <trkpt lat="47.29368" lon="-2.2438">
        <ele>-38.799999237061</ele>
        <time>2021-07-04T08:32:02.000Z</time>
      </trkpt>
      <trkpt lat="47.29388" lon="-2.24362">
        <ele>-38.799999237061</ele>
        <time>2021-07-04T08:32:07.000Z</time>
      </trkpt>
      <trkpt lat="47.29403" lon="-2.24346">
        <ele>-38.799999237061</ele>
        <time>2021-07-04T08:32:11.000Z</time>
      </trkpt>
      <trkpt lat="47.29412" lon="-2.24339">
        <ele>-39.200000762939</ele>
        <time>2021-07-04T08:32:13.000Z</time>
      </trkpt>
      <trkpt lat="47.29417" lon="-2.24335">
        <ele>-39.599998474121</ele>
        <time>2021-07-04T08:32:14.000Z</time>
      </trkpt>
      <trkpt lat="47.29421" lon="-2.24331">
        <ele>-40</ele>
        <time>2021-07-04T08:32:15.000Z</time>
      </trkpt>
      <trkpt lat="47.29426" lon="-2.24327">
        <ele>-40.400001525879</ele>
        <time>2021-07-04T08:32:16.000Z</time>
      </trkpt>
      <trkpt lat="47.29431" lon="-2.24324">
        <ele>-40.799999237061</ele>
        <time>2021-07-04T08:32:17.000Z</time>
      </trkpt>
      <trkpt lat="47.2944" lon="-2.24317">
        <ele>-40.799999237061</ele>
        <time>2021-07-04T08:32:19.000Z</time>
      </trkpt>
      <trkpt lat="47.29445" lon="-2.24315">
        <ele>-40.799999237061</ele>
        <time>2021-07-04T08:32:20.000Z</time>
      </trkpt>
      <trkpt lat="47.29473" lon="-2.24306">
        <ele>-40.799999237061</ele>
        <time>2021-07-04T08:32:25.000Z</time>
      </trkpt>
      <trkpt lat="47.29512" lon="-2.24289">
        <ele>-40.799999237061</ele>
        <time>2021-07-04T08:32:31.000Z</time>
      </trkpt>
      <trkpt lat="47.29532" lon="-2.24282">
        <ele>-40.799999237061</ele>
        <time>2021-07-04T08:32:34.000Z</time>
      </trkpt>
      <trkpt lat="47.29542" lon="-2.24281">
        <ele>-40.799999237061</ele>
        <time>2021-07-04T08:32:36.000Z</time>
      </trkpt>
      <trkpt lat="47.29546" lon="-2.24282">
        <ele>-41.200000762939</ele>
        <time>2021-07-04T08:32:37.000Z</time>
      </trkpt>
      <trkpt lat="47.29551" lon="-2.24284">
        <ele>-41.799999237061</ele>
        <time>2021-07-04T08:32:38.000Z</time>
      </trkpt>
      <trkpt lat="47.29555" lon="-2.24288">
        <ele>-42.200000762939</ele>
        <time>2021-07-04T08:32:39.000Z</time>
      </trkpt>
      <trkpt lat="47.29559" lon="-2.24293">
        <ele>-42.599998474121</ele>
        <time>2021-07-04T08:32:40.000Z</time>
      </trkpt>
      <trkpt lat="47.29563" lon="-2.24298">
        <ele>-43</ele>
        <time>2021-07-04T08:32:41.000Z</time>
      </trkpt>
      <trkpt lat="47.29576" lon="-2.24311">
        <ele>-43</ele>
        <time>2021-07-04T08:32:44.000Z</time>
      </trkpt>
      <trkpt lat="47.29585" lon="-2.24314">
        <ele>-43</ele>
        <time>2021-07-04T08:32:46.000Z</time>
      </trkpt>
      <trkpt lat="47.29594" lon="-2.24313">
        <ele>-43</ele>
        <time>2021-07-04T08:32:48.000Z</time>
      </trkpt>
      <trkpt lat="47.29609" lon="-2.2431">
        <ele>-43</ele>
        <time>2021-07-04T08:32:51.000Z</time>
      </trkpt>
      <trkpt lat="47.2963" lon="-2.24304">
        <ele>-43</ele>
        <time>2021-07-04T08:32:55.000Z</time>
      </trkpt>
      <trkpt lat="47.29635" lon="-2.24301">
        <ele>-43</ele>
        <time>2021-07-04T08:32:56.000Z</time>
      </trkpt>
      <trkpt lat="47.29665" lon="-2.24286">
        <ele>-43</ele>
        <time>2021-07-04T08:33:02.000Z</time>
      </trkpt>
      <trkpt lat="47.29693" lon="-2.2427">
        <ele>-43</ele>
        <time>2021-07-04T08:33:08.000Z</time>
      </trkpt>
      <trkpt lat="47.29699" lon="-2.24268">
        <ele>-43</ele>
        <time>2021-07-04T08:33:09.000Z</time>
      </trkpt>
      <trkpt lat="47.29735" lon="-2.24248">
        <ele>-43</ele>
        <time>2021-07-04T08:33:16.000Z</time>
      </trkpt>
      <trkpt lat="47.29764" lon="-2.24232">
        <ele>-43</ele>
        <time>2021-07-04T08:33:22.000Z</time>
      </trkpt>
      <trkpt lat="47.29797" lon="-2.24213">
        <ele>-43</ele>
        <time>2021-07-04T08:33:29.000Z</time>
      </trkpt>
      <trkpt lat="47.2981" lon="-2.24217">
        <ele>-43</ele>
        <time>2021-07-04T08:33:32.000Z</time>
      </trkpt>
      <trkpt lat="47.29814" lon="-2.2422">
        <ele>-43</ele>
        <time>2021-07-04T08:33:33.000Z</time>
      </trkpt>
      <trkpt lat="47.29838" lon="-2.24236">
        <ele>-43</ele>
        <time>2021-07-04T08:33:39.000Z</time>
      </trkpt>
      <trkpt lat="47.29846" lon="-2.24239">
        <ele>-43</ele>
        <time>2021-07-04T08:33:41.000Z</time>
      </trkpt>
      <trkpt lat="47.29864" lon="-2.24247">
        <ele>-43</ele>
        <time>2021-07-04T08:33:45.000Z</time>
      </trkpt>
      <trkpt lat="47.29897" lon="-2.2427">
        <ele>-43</ele>
        <time>2021-07-04T08:33:52.000Z</time>
      </trkpt>
      <trkpt lat="47.29902" lon="-2.24273">
        <ele>-43</ele>
        <time>2021-07-04T08:33:53.000Z</time>
      </trkpt>
      <trkpt lat="47.29922" lon="-2.24286">
        <ele>-43</ele>
        <time>2021-07-04T08:33:57.000Z</time>
      </trkpt>
      <trkpt lat="47.29933" lon="-2.24294">
        <ele>-43</ele>
        <time>2021-07-04T08:33:59.000Z</time>
      </trkpt>
      <trkpt lat="47.29941" lon="-2.24305">
        <ele>-43</ele>
        <time>2021-07-04T08:34:01.000Z</time>
      </trkpt>
      <trkpt lat="47.29957" lon="-2.24325">
        <ele>-43</ele>
        <time>2021-07-04T08:34:06.000Z</time>
      </trkpt>
      <trkpt lat="47.29974" lon="-2.24344">
        <ele>-43</ele>
        <time>2021-07-04T08:34:11.000Z</time>
      </trkpt>
      <trkpt lat="47.29991" lon="-2.24357">
        <ele>-43</ele>
        <time>2021-07-04T08:34:16.000Z</time>
      </trkpt>
      <trkpt lat="47.29997" lon="-2.24349">
        <ele>-43</ele>
        <time>2021-07-04T08:34:19.000Z</time>
      </trkpt>
      <trkpt lat="47.30004" lon="-2.24324">
        <ele>-43</ele>
        <time>2021-07-04T08:34:25.000Z</time>
      </trkpt>
      <trkpt lat="47.30014" lon="-2.24305">
        <ele>-43</ele>
        <time>2021-07-04T08:34:30.000Z</time>
      </trkpt>
      <trkpt lat="47.30017" lon="-2.24288">
        <ele>-43</ele>
        <time>2021-07-04T08:34:34.000Z</time>
      </trkpt>
      <trkpt lat="47.30019" lon="-2.24285">
        <ele>-43</ele>
        <time>2021-07-04T08:34:35.000Z</time>
      </trkpt>
      <trkpt lat="47.30026" lon="-2.24267">
        <ele>-43</ele>
        <time>2021-07-04T08:34:41.000Z</time>
      </trkpt>
      <trkpt lat="47.30026" lon="-2.24258">
        <ele>-43</ele>
        <time>2021-07-04T08:34:43.000Z</time>
      </trkpt>
      <trkpt lat="47.30024" lon="-2.24246">
        <ele>-43</ele>
        <time>2021-07-04T08:34:45.000Z</time>
      </trkpt>
      <trkpt lat="47.30025" lon="-2.24227">
        <ele>-43</ele>
        <time>2021-07-04T08:34:48.000Z</time>
      </trkpt>
      <trkpt lat="47.30026" lon="-2.24218">
        <ele>-43</ele>
        <time>2021-07-04T08:34:50.000Z</time>
      </trkpt>
      <trkpt lat="47.30025" lon="-2.24197">
        <ele>-43</ele>
        <time>2021-07-04T08:34:54.000Z</time>
      </trkpt>
      <trkpt lat="47.30024" lon="-2.24171">
        <ele>-43</ele>
        <time>2021-07-04T08:35:00.000Z</time>
      </trkpt>
      <trkpt lat="47.30022" lon="-2.2416">
        <ele>-43</ele>
        <time>2021-07-04T08:35:04.000Z</time>
      </trkpt>
      <trkpt lat="47.30025" lon="-2.24155">
        <ele>-43</ele>
        <time>2021-07-04T08:35:06.000Z</time>
      </trkpt>
      <trkpt lat="47.30031" lon="-2.24149">
        <ele>-43</ele>
        <time>2021-07-04T08:35:09.000Z</time>
      </trkpt>
      <trkpt lat="47.30039" lon="-2.24141">
        <ele>-43</ele>
        <time>2021-07-04T08:35:12.000Z</time>
      </trkpt>
      <trkpt lat="47.30054" lon="-2.2413">
        <ele>-43</ele>
        <time>2021-07-04T08:35:18.000Z</time>
      </trkpt>
      <trkpt lat="47.30071" lon="-2.24117">
        <ele>-43</ele>
        <time>2021-07-04T08:35:23.000Z</time>
      </trkpt>
      <trkpt lat="47.30095" lon="-2.24104">
        <ele>-43</ele>
        <time>2021-07-04T08:35:29.000Z</time>
      </trkpt>
      <trkpt lat="47.30122" lon="-2.24082">
        <ele>-43</ele>
        <time>2021-07-04T08:35:35.000Z</time>
      </trkpt>
      <trkpt lat="47.30153" lon="-2.24069">
        <ele>-43</ele>
        <time>2021-07-04T08:35:41.000Z</time>
      </trkpt>
      <trkpt lat="47.30185" lon="-2.24061">
        <ele>-43</ele>
        <time>2021-07-04T08:35:46.000Z</time>
      </trkpt>
      <trkpt lat="47.30209" lon="-2.24059">
        <ele>-43</ele>
        <time>2021-07-04T08:35:50.000Z</time>
      </trkpt>
      <trkpt lat="47.30221" lon="-2.24057">
        <ele>-43</ele>
        <time>2021-07-04T08:35:52.000Z</time>
      </trkpt>
      <trkpt lat="47.30231" lon="-2.24058">
        <ele>-43</ele>
        <time>2021-07-04T08:35:54.000Z</time>
      </trkpt>
      <trkpt lat="47.3024" lon="-2.24059">
        <ele>-42.599998474121</ele>
        <time>2021-07-04T08:35:56.000Z</time>
      </trkpt>
      <trkpt lat="47.30245" lon="-2.2406">
        <ele>-42.200000762939</ele>
        <time>2021-07-04T08:35:57.000Z</time>
      </trkpt>
      <trkpt lat="47.3025" lon="-2.24061">
        <ele>-41.799999237061</ele>
        <time>2021-07-04T08:35:58.000Z</time>
      </trkpt>
      <trkpt lat="47.30255" lon="-2.24062">
        <ele>-41.400001525879</ele>
        <time>2021-07-04T08:35:59.000Z</time>
      </trkpt>
      <trkpt lat="47.30259" lon="-2.24061">
        <ele>-41</ele>
        <time>2021-07-04T08:36:00.000Z</time>
      </trkpt>
      <trkpt lat="47.30267" lon="-2.24054">
        <ele>-41</ele>
        <time>2021-07-04T08:36:02.000Z</time>
      </trkpt>
      <trkpt lat="47.3027" lon="-2.24031">
        <ele>-41</ele>
        <time>2021-07-04T08:36:05.000Z</time>
      </trkpt>
      <trkpt lat="47.3027" lon="-2.24023">
        <ele>-41</ele>
        <time>2021-07-04T08:36:06.000Z</time>
      </trkpt>
      <trkpt lat="47.30269" lon="-2.23991">
        <ele>-41</ele>
        <time>2021-07-04T08:36:09.000Z</time>
      </trkpt>
      <trkpt lat="47.30256" lon="-2.23927">
        <ele>-41</ele>
        <time>2021-07-04T08:36:15.000Z</time>
      </trkpt>
      <trkpt lat="47.30257" lon="-2.23917">
        <ele>-41</ele>
        <time>2021-07-04T08:36:16.000Z</time>
      </trkpt>
      <trkpt lat="47.30261" lon="-2.23904">
        <ele>-41</ele>
        <time>2021-07-04T08:36:18.000Z</time>
      </trkpt>
      <trkpt lat="47.30268" lon="-2.23894">
        <ele>-41</ele>
        <time>2021-07-04T08:36:21.000Z</time>
      </trkpt>
      <trkpt lat="47.30276" lon="-2.23884">
        <ele>-41</ele>
        <time>2021-07-04T08:36:25.000Z</time>
      </trkpt>
      <trkpt lat="47.30279" lon="-2.23883">
        <ele>-41</ele>
        <time>2021-07-04T08:36:26.000Z</time>
      </trkpt>
      <trkpt lat="47.30297" lon="-2.23881">
        <ele>-41</ele>
        <time>2021-07-04T08:36:32.000Z</time>
      </trkpt>
      <trkpt lat="47.30313" lon="-2.23874">
        <ele>-41</ele>
        <time>2021-07-04T08:36:36.000Z</time>
      </trkpt>
      <trkpt lat="47.30318" lon="-2.23871">
        <ele>-41</ele>
        <time>2021-07-04T08:36:37.000Z</time>
      </trkpt>
      <trkpt lat="47.30347" lon="-2.23857">
        <ele>-41</ele>
        <time>2021-07-04T08:36:43.000Z</time>
      </trkpt>
      <trkpt lat="47.30387" lon="-2.2385">
        <ele>-41</ele>
        <time>2021-07-04T08:36:50.000Z</time>
      </trkpt>
      <trkpt lat="47.30442" lon="-2.23842">
        <ele>-41</ele>
        <time>2021-07-04T08:36:59.000Z</time>
      </trkpt>
      <trkpt lat="47.3046" lon="-2.23839">
        <ele>-41.400001525879</ele>
        <time>2021-07-04T08:37:02.000Z</time>
      </trkpt>
      <trkpt lat="47.30466" lon="-2.23838">
        <ele>-41.799999237061</ele>
        <time>2021-07-04T08:37:03.000Z</time>
      </trkpt>
      <trkpt lat="47.30472" lon="-2.23837">
        <ele>-42.200000762939</ele>
        <time>2021-07-04T08:37:04.000Z</time>
      </trkpt>
      <trkpt lat="47.30478" lon="-2.23837">
        <ele>-42.599998474121</ele>
        <time>2021-07-04T08:37:05.000Z</time>
      </trkpt>
      <trkpt lat="47.30484" lon="-2.23838">
        <ele>-43</ele>
        <time>2021-07-04T08:37:06.000Z</time>
      </trkpt>
      <trkpt lat="47.30505" lon="-2.23855">
        <ele>-43</ele>
        <time>2021-07-04T08:37:10.000Z</time>
      </trkpt>
      <trkpt lat="47.30509" lon="-2.23861">
        <ele>-43</ele>
        <time>2021-07-04T08:37:11.000Z</time>
      </trkpt>
      <trkpt lat="47.30534" lon="-2.23897">
        <ele>-43</ele>
        <time>2021-07-04T08:37:17.000Z</time>
      </trkpt>
      <trkpt lat="47.30549" lon="-2.23918">
        <ele>-43</ele>
        <time>2021-07-04T08:37:21.000Z</time>
      </trkpt>
      <trkpt lat="47.30552" lon="-2.23931">
        <ele>-43</ele>
        <time>2021-07-04T08:37:23.000Z</time>
      </trkpt>
      <trkpt lat="47.30545" lon="-2.2395">
        <ele>-43</ele>
        <time>2021-07-04T08:37:26.000Z</time>
      </trkpt>
      <trkpt lat="47.30538" lon="-2.2396">
        <ele>-43</ele>
        <time>2021-07-04T08:37:28.000Z</time>
      </trkpt>
      <trkpt lat="47.3053" lon="-2.23969">
        <ele>-43</ele>
        <time>2021-07-04T08:37:30.000Z</time>
      </trkpt>
      <trkpt lat="47.3051" lon="-2.23992">
        <ele>-43</ele>
        <time>2021-07-04T08:37:35.000Z</time>
      </trkpt>
      <trkpt lat="47.30507" lon="-2.23997">
        <ele>-43</ele>
        <time>2021-07-04T08:37:36.000Z</time>
      </trkpt>
      <trkpt lat="47.3049" lon="-2.24022">
        <ele>-43</ele>
        <time>2021-07-04T08:37:41.000Z</time>
      </trkpt>
      <trkpt lat="47.30476" lon="-2.24034">
        <ele>-43</ele>
        <time>2021-07-04T08:37:45.000Z</time>
      </trkpt>
      <trkpt lat="47.30473" lon="-2.24036">
        <ele>-43</ele>
        <time>2021-07-04T08:37:46.000Z</time>
      </trkpt>
      <trkpt lat="47.30456" lon="-2.24047">
        <ele>-43</ele>
        <time>2021-07-04T08:37:51.000Z</time>
      </trkpt>
      <trkpt lat="47.30437" lon="-2.24066">
        <ele>-43</ele>
        <time>2021-07-04T08:37:57.000Z</time>
      </trkpt>
      <trkpt lat="47.30422" lon="-2.24085">
        <ele>-43</ele>
        <time>2021-07-04T08:38:03.000Z</time>
      </trkpt>
      <trkpt lat="47.30406" lon="-2.24104">
        <ele>-43</ele>
        <time>2021-07-04T08:38:10.000Z</time>
      </trkpt>
      <trkpt lat="47.3038" lon="-2.24131">
        <ele>-43</ele>
        <time>2021-07-04T08:38:17.000Z</time>
      </trkpt>
      <trkpt lat="47.30355" lon="-2.24169">
        <ele>-43</ele>
        <time>2021-07-04T08:38:23.000Z</time>
      </trkpt>
      <trkpt lat="47.30353" lon="-2.24176">
        <ele>-43</ele>
        <time>2021-07-04T08:38:24.000Z</time>
      </trkpt>
      <trkpt lat="47.30354" lon="-2.24192">
        <ele>-43</ele>
        <time>2021-07-04T08:38:26.000Z</time>
      </trkpt>
      <trkpt lat="47.30363" lon="-2.24209">
        <ele>-43</ele>
        <time>2021-07-04T08:38:29.000Z</time>
      </trkpt>
      <trkpt lat="47.30367" lon="-2.24214">
        <ele>-43</ele>
        <time>2021-07-04T08:38:30.000Z</time>
      </trkpt>
      <trkpt lat="47.30382" lon="-2.2423">
        <ele>-43</ele>
        <time>2021-07-04T08:38:34.000Z</time>
      </trkpt>
      <trkpt lat="47.30389" lon="-2.24238">
        <ele>-43</ele>
        <time>2021-07-04T08:38:36.000Z</time>
      </trkpt>
      <trkpt lat="47.30405" lon="-2.24255">
        <ele>-43</ele>
        <time>2021-07-04T08:38:40.000Z</time>
      </trkpt>
      <trkpt lat="47.30417" lon="-2.24266">
        <ele>-43</ele>
        <time>2021-07-04T08:38:43.000Z</time>
      </trkpt>
      <trkpt lat="47.30432" lon="-2.24273">
        <ele>-43</ele>
        <time>2021-07-04T08:38:46.000Z</time>
      </trkpt>
      <trkpt lat="47.30448" lon="-2.24276">
        <ele>-43</ele>
        <time>2021-07-04T08:38:49.000Z</time>
      </trkpt>
      <trkpt lat="47.30458" lon="-2.24279">
        <ele>-43</ele>
        <time>2021-07-04T08:38:51.000Z</time>
      </trkpt>
      <trkpt lat="47.30464" lon="-2.24281">
        <ele>-43</ele>
        <time>2021-07-04T08:38:52.000Z</time>
      </trkpt>
      <trkpt lat="47.30491" lon="-2.24294">
        <ele>-43</ele>
        <time>2021-07-04T08:38:57.000Z</time>
      </trkpt>
      <trkpt lat="47.305" lon="-2.24301">
        <ele>-43</ele>
        <time>2021-07-04T08:38:59.000Z</time>
      </trkpt>
      <trkpt lat="47.30508" lon="-2.2431">
        <ele>-43</ele>
        <time>2021-07-04T08:39:01.000Z</time>
      </trkpt>
      <trkpt lat="47.3054" lon="-2.24345">
        <ele>-43</ele>
        <time>2021-07-04T08:39:09.000Z</time>
      </trkpt>
      <trkpt lat="47.3057" lon="-2.24377">
        <ele>-43</ele>
        <time>2021-07-04T08:39:16.000Z</time>
      </trkpt>
      <trkpt lat="47.30602" lon="-2.24408">
        <ele>-43</ele>
        <time>2021-07-04T08:39:23.000Z</time>
      </trkpt>
      <trkpt lat="47.30607" lon="-2.24412">
        <ele>-43</ele>
        <time>2021-07-04T08:39:24.000Z</time>
      </trkpt>
      <trkpt lat="47.30625" lon="-2.2442">
        <ele>-43</ele>
        <time>2021-07-04T08:39:28.000Z</time>
      </trkpt>
      <trkpt lat="47.30632" lon="-2.24421">
        <ele>-43</ele>
        <time>2021-07-04T08:39:32.000Z</time>
      </trkpt>
      <trkpt lat="47.30632" lon="-2.24421">
        <ele>-43</ele>
        <time>2021-07-04T08:39:34.000Z</time>
      </trkpt>
      <trkpt lat="47.30632" lon="-2.24422">
        <ele>-43</ele>
        <time>2021-07-04T08:40:20.000Z</time>
      </trkpt>
      <trkpt lat="47.30633" lon="-2.24428">
        <ele>-43</ele>
        <time>2021-07-04T08:40:22.000Z</time>
      </trkpt>
      <trkpt lat="47.30633" lon="-2.24451">
        <ele>-43</ele>
        <time>2021-07-04T08:40:26.000Z</time>
      </trkpt>
      <trkpt lat="47.30627" lon="-2.24494">
        <ele>-43</ele>
        <time>2021-07-04T08:40:31.000Z</time>
      </trkpt>
      <trkpt lat="47.30617" lon="-2.24562">
        <ele>-43</ele>
        <time>2021-07-04T08:40:37.000Z</time>
      </trkpt>
      <trkpt lat="47.30614" lon="-2.24612">
        <ele>-43</ele>
        <time>2021-07-04T08:40:41.000Z</time>
      </trkpt>
      <trkpt lat="47.30615" lon="-2.24623">
        <ele>-43</ele>
        <time>2021-07-04T08:40:42.000Z</time>
      </trkpt>
      <trkpt lat="47.30622" lon="-2.24655">
        <ele>-43</ele>
        <time>2021-07-04T08:40:45.000Z</time>
      </trkpt>
      <trkpt lat="47.30625" lon="-2.24665">
        <ele>-43</ele>
        <time>2021-07-04T08:40:46.000Z</time>
      </trkpt>
      <trkpt lat="47.30648" lon="-2.24738">
        <ele>-43</ele>
        <time>2021-07-04T08:40:54.000Z</time>
      </trkpt>
      <trkpt lat="47.30665" lon="-2.24773">
        <ele>-43</ele>
        <time>2021-07-04T08:40:59.000Z</time>
      </trkpt>
      <trkpt lat="47.30688" lon="-2.24802">
        <ele>-43</ele>
        <time>2021-07-04T08:41:04.000Z</time>
      </trkpt>
      <trkpt lat="47.30702" lon="-2.24819">
        <ele>-43.400001525879</ele>
        <time>2021-07-04T08:41:07.000Z</time>
      </trkpt>
      <trkpt lat="47.30706" lon="-2.24824">
        <ele>-43.799999237061</ele>
        <time>2021-07-04T08:41:08.000Z</time>
      </trkpt>
      <trkpt lat="47.30709" lon="-2.24829">
        <ele>-44.200000762939</ele>
        <time>2021-07-04T08:41:09.000Z</time>
      </trkpt>
      <trkpt lat="47.30713" lon="-2.24834">
        <ele>-44.599998474121</ele>
        <time>2021-07-04T08:41:10.000Z</time>
      </trkpt>
      <trkpt lat="47.30716" lon="-2.2484">
        <ele>-45</ele>
        <time>2021-07-04T08:41:11.000Z</time>
      </trkpt>
      <trkpt lat="47.30733" lon="-2.24864">
        <ele>-45</ele>
        <time>2021-07-04T08:41:15.000Z</time>
      </trkpt>
      <trkpt lat="47.30739" lon="-2.24871">
        <ele>-45</ele>
        <time>2021-07-04T08:41:16.000Z</time>
      </trkpt>
      <trkpt lat="47.3076" lon="-2.24886">
        <ele>-45</ele>
        <time>2021-07-04T08:41:19.000Z</time>
      </trkpt>
      <trkpt lat="47.30814" lon="-2.24912">
        <ele>-45</ele>
        <time>2021-07-04T08:41:27.000Z</time>
      </trkpt>
      <trkpt lat="47.30821" lon="-2.24913">
        <ele>-45</ele>
        <time>2021-07-04T08:41:28.000Z</time>
      </trkpt>
      <trkpt lat="47.30835" lon="-2.24913">
        <ele>-45</ele>
        <time>2021-07-04T08:41:30.000Z</time>
      </trkpt>
      <trkpt lat="47.30848" lon="-2.24907">
        <ele>-45</ele>
        <time>2021-07-04T08:41:32.000Z</time>
      </trkpt>
      <trkpt lat="47.30854" lon="-2.24903">
        <ele>-45</ele>
        <time>2021-07-04T08:41:33.000Z</time>
      </trkpt>
      <trkpt lat="47.30871" lon="-2.24882">
        <ele>-45</ele>
        <time>2021-07-04T08:41:36.000Z</time>
      </trkpt>
      <trkpt lat="47.30913" lon="-2.24822">
        <ele>-45</ele>
        <time>2021-07-04T08:41:44.000Z</time>
      </trkpt>
      <trkpt lat="47.30945" lon="-2.24779">
        <ele>-45</ele>
        <time>2021-07-04T08:41:51.000Z</time>
      </trkpt>
      <trkpt lat="47.3096" lon="-2.24764">
        <ele>-45</ele>
        <time>2021-07-04T08:41:54.000Z</time>
      </trkpt>
      <trkpt lat="47.30971" lon="-2.24757">
        <ele>-45</ele>
        <time>2021-07-04T08:41:56.000Z</time>
      </trkpt>
      <trkpt lat="47.30983" lon="-2.24753">
        <ele>-45.400001525879</ele>
        <time>2021-07-04T08:41:58.000Z</time>
      </trkpt>
      <trkpt lat="47.3099" lon="-2.24752">
        <ele>-45.799999237061</ele>
        <time>2021-07-04T08:41:59.000Z</time>
      </trkpt>
      <trkpt lat="47.30996" lon="-2.24751">
        <ele>-46.200000762939</ele>
        <time>2021-07-04T08:42:00.000Z</time>
      </trkpt>
      <trkpt lat="47.31003" lon="-2.24752">
        <ele>-46.599998474121</ele>
        <time>2021-07-04T08:42:01.000Z</time>
      </trkpt>
      <trkpt lat="47.3101" lon="-2.24753">
        <ele>-47</ele>
        <time>2021-07-04T08:42:02.000Z</time>
      </trkpt>
      <trkpt lat="47.31016" lon="-2.24754">
        <ele>-47</ele>
        <time>2021-07-04T08:42:03.000Z</time>
      </trkpt>
      <trkpt lat="47.31029" lon="-2.24757">
        <ele>-47</ele>
        <time>2021-07-04T08:42:05.000Z</time>
      </trkpt>
      <trkpt lat="47.31071" lon="-2.24773">
        <ele>-47</ele>
        <time>2021-07-04T08:42:12.000Z</time>
      </trkpt>
      <trkpt lat="47.31078" lon="-2.24774">
        <ele>-47.599998474121</ele>
        <time>2021-07-04T08:42:13.000Z</time>
      </trkpt>
      <trkpt lat="47.31084" lon="-2.24774">
        <ele>-48</ele>
        <time>2021-07-04T08:42:14.000Z</time>
      </trkpt>
      <trkpt lat="47.3109" lon="-2.24775">
        <ele>-48.400001525879</ele>
        <time>2021-07-04T08:42:15.000Z</time>
      </trkpt>
      <trkpt lat="47.31097" lon="-2.24775">
        <ele>-48.799999237061</ele>
        <time>2021-07-04T08:42:16.000Z</time>
      </trkpt>
      <trkpt lat="47.31103" lon="-2.24774">
        <ele>-49.200000762939</ele>
        <time>2021-07-04T08:42:17.000Z</time>
      </trkpt>
      <trkpt lat="47.31116" lon="-2.24774">
        <ele>-49.200000762939</ele>
        <time>2021-07-04T08:42:19.000Z</time>
      </trkpt>
      <trkpt lat="47.3113" lon="-2.2479">
        <ele>-49.200000762939</ele>
        <time>2021-07-04T08:42:22.000Z</time>
      </trkpt>
      <trkpt lat="47.31137" lon="-2.24809">
        <ele>-49.200000762939</ele>
        <time>2021-07-04T08:42:24.000Z</time>
      </trkpt>
      <trkpt lat="47.31141" lon="-2.24828">
        <ele>-49.200000762939</ele>
        <time>2021-07-04T08:42:26.000Z</time>
      </trkpt>
      <trkpt lat="47.31154" lon="-2.24894">
        <ele>-49.200000762939</ele>
        <time>2021-07-04T08:42:33.000Z</time>
      </trkpt>
      <trkpt lat="47.31164" lon="-2.24959">
        <ele>-49.200000762939</ele>
        <time>2021-07-04T08:42:40.000Z</time>
      </trkpt>
      <trkpt lat="47.31169" lon="-2.24983">
        <ele>-49.200000762939</ele>
        <time>2021-07-04T08:42:43.000Z</time>
      </trkpt>
      <trkpt lat="47.31173" lon="-2.24988">
        <ele>-49.200000762939</ele>
        <time>2021-07-04T08:42:44.000Z</time>
      </trkpt>
      <trkpt lat="47.31191" lon="-2.24997">
        <ele>-49.200000762939</ele>
        <time>2021-07-04T08:42:47.000Z</time>
      </trkpt>
      <trkpt lat="47.31203" lon="-2.25021">
        <ele>-49.200000762939</ele>
        <time>2021-07-04T08:42:50.000Z</time>
      </trkpt>
      <trkpt lat="47.31206" lon="-2.2503">
        <ele>-49.200000762939</ele>
        <time>2021-07-04T08:42:51.000Z</time>
      </trkpt>
      <trkpt lat="47.31223" lon="-2.25077">
        <ele>-49.200000762939</ele>
        <time>2021-07-04T08:42:56.000Z</time>
      </trkpt>
      <trkpt lat="47.31254" lon="-2.25145">
        <ele>-49.200000762939</ele>
        <time>2021-07-04T08:43:04.000Z</time>
      </trkpt>
      <trkpt lat="47.31284" lon="-2.25202">
        <ele>-49.200000762939</ele>
        <time>2021-07-04T08:43:11.000Z</time>
      </trkpt>
      <trkpt lat="47.31294" lon="-2.25217">
        <ele>-49.200000762939</ele>
        <time>2021-07-04T08:43:13.000Z</time>
      </trkpt>
      <trkpt lat="47.31305" lon="-2.2523">
        <ele>-49.200000762939</ele>
        <time>2021-07-04T08:43:15.000Z</time>
      </trkpt>
      <trkpt lat="47.31347" lon="-2.25284">
        <ele>-49.200000762939</ele>
        <time>2021-07-04T08:43:23.000Z</time>
      </trkpt>
      <trkpt lat="47.31357" lon="-2.25309">
        <ele>-49.200000762939</ele>
        <time>2021-07-04T08:43:26.000Z</time>
      </trkpt>
      <trkpt lat="47.31358" lon="-2.25321">
        <ele>-49.200000762939</ele>
        <time>2021-07-04T08:43:27.000Z</time>
      </trkpt>
      <trkpt lat="47.31361" lon="-2.25365">
        <ele>-49.200000762939</ele>
        <time>2021-07-04T08:43:31.000Z</time>
      </trkpt>
      <trkpt lat="47.31364" lon="-2.25374">
        <ele>-49.200000762939</ele>
        <time>2021-07-04T08:43:32.000Z</time>
      </trkpt>
      <trkpt lat="47.31367" lon="-2.25383">
        <ele>-49.200000762939</ele>
        <time>2021-07-04T08:43:33.000Z</time>
      </trkpt>
      <trkpt lat="47.31382" lon="-2.25403">
        <ele>-49.200000762939</ele>
        <time>2021-07-04T08:43:36.000Z</time>
      </trkpt>
      <trkpt lat="47.31388" lon="-2.25409">
        <ele>-49.599998474121</ele>
        <time>2021-07-04T08:43:37.000Z</time>
      </trkpt>
      <trkpt lat="47.31394" lon="-2.25414">
        <ele>-50</ele>
        <time>2021-07-04T08:43:38.000Z</time>
      </trkpt>
      <trkpt lat="47.31398" lon="-2.25421">
        <ele>-50.400001525879</ele>
        <time>2021-07-04T08:43:39.000Z</time>
      </trkpt>
      <trkpt lat="47.31403" lon="-2.25427">
        <ele>-50.799999237061</ele>
        <time>2021-07-04T08:43:40.000Z</time>
      </trkpt>
      <trkpt lat="47.31406" lon="-2.25434">
        <ele>-51.200000762939</ele>
        <time>2021-07-04T08:43:41.000Z</time>
      </trkpt>
      <trkpt lat="47.3141" lon="-2.25442">
        <ele>-51.200000762939</ele>
        <time>2021-07-04T08:43:42.000Z</time>
      </trkpt>
      <trkpt lat="47.3143" lon="-2.25495">
        <ele>-51.200000762939</ele>
        <time>2021-07-04T08:43:48.000Z</time>
      </trkpt>
      <trkpt lat="47.31446" lon="-2.25528">
        <ele>-51.200000762939</ele>
        <time>2021-07-04T08:43:52.000Z</time>
      </trkpt>
      <trkpt lat="47.31452" lon="-2.25535">
        <ele>-51.200000762939</ele>
        <time>2021-07-04T08:43:53.000Z</time>
      </trkpt>
      <trkpt lat="47.31469" lon="-2.25552">
        <ele>-51.200000762939</ele>
        <time>2021-07-04T08:43:56.000Z</time>
      </trkpt>
      <trkpt lat="47.3148" lon="-2.25562">
        <ele>-51.200000762939</ele>
        <time>2021-07-04T08:43:58.000Z</time>
      </trkpt>
      <trkpt lat="47.31497" lon="-2.25582">
        <ele>-51.200000762939</ele>
        <time>2021-07-04T08:44:01.000Z</time>
      </trkpt>
      <trkpt lat="47.31506" lon="-2.25598">
        <ele>-51.200000762939</ele>
        <time>2021-07-04T08:44:03.000Z</time>
      </trkpt>
      <trkpt lat="47.31513" lon="-2.25616">
        <ele>-51.200000762939</ele>
        <time>2021-07-04T08:44:05.000Z</time>
      </trkpt>
      <trkpt lat="47.31521" lon="-2.25642">
        <ele>-51.200000762939</ele>
        <time>2021-07-04T08:44:08.000Z</time>
      </trkpt>
      <trkpt lat="47.31533" lon="-2.25697">
        <ele>-51.200000762939</ele>
        <time>2021-07-04T08:44:14.000Z</time>
      </trkpt>
      <trkpt lat="47.31541" lon="-2.25724">
        <ele>-51.200000762939</ele>
        <time>2021-07-04T08:44:17.000Z</time>
      </trkpt>
      <trkpt lat="47.31544" lon="-2.25743">
        <ele>-51.200000762939</ele>
        <time>2021-07-04T08:44:19.000Z</time>
      </trkpt>
      <trkpt lat="47.31545" lon="-2.25753">
        <ele>-51.200000762939</ele>
        <time>2021-07-04T08:44:20.000Z</time>
      </trkpt>
      <trkpt lat="47.31549" lon="-2.25793">
        <ele>-51.200000762939</ele>
        <time>2021-07-04T08:44:24.000Z</time>
      </trkpt>
      <trkpt lat="47.31554" lon="-2.25856">
        <ele>-51.200000762939</ele>
        <time>2021-07-04T08:44:30.000Z</time>
      </trkpt>
      <trkpt lat="47.31552" lon="-2.25866">
        <ele>-51.200000762939</ele>
        <time>2021-07-04T08:44:31.000Z</time>
      </trkpt>
      <trkpt lat="47.31547" lon="-2.25896">
        <ele>-51.200000762939</ele>
        <time>2021-07-04T08:44:35.000Z</time>
      </trkpt>
      <trkpt lat="47.31546" lon="-2.25902">
        <ele>-51.200000762939</ele>
        <time>2021-07-04T08:44:36.000Z</time>
      </trkpt>
      <trkpt lat="47.31547" lon="-2.25908">
        <ele>-51.200000762939</ele>
        <time>2021-07-04T08:44:38.000Z</time>
      </trkpt>
      <trkpt lat="47.31548" lon="-2.2591">
        <ele>-51.200000762939</ele>
        <time>2021-07-04T08:44:39.000Z</time>
      </trkpt>
      <trkpt lat="47.31547" lon="-2.25912">
        <ele>-51.200000762939</ele>
        <time>2021-07-04T08:44:42.000Z</time>
      </trkpt>
      <trkpt lat="47.31546" lon="-2.25917">
        <ele>-63.400001525879</ele>
        <time>2021-07-04T08:52:49.000Z</time>
      </trkpt>
      <trkpt lat="47.31545" lon="-2.25916">
        <ele>-63.400001525879</ele>
        <time>2021-07-04T08:52:50.000Z</time>
      </trkpt>
      <trkpt lat="47.31544" lon="-2.25916">
        <ele>-63.400001525879</ele>
        <time>2021-07-04T08:52:52.000Z</time>
      </trkpt>
      <trkpt lat="47.31539" lon="-2.2592">
        <ele>-63.400001525879</ele>
        <time>2021-07-04T08:53:09.000Z</time>
      </trkpt>
      <trkpt lat="47.31538" lon="-2.2592">
        <ele>-63.400001525879</ele>
        <time>2021-07-04T08:53:10.000Z</time>
      </trkpt>
      <trkpt lat="47.31536" lon="-2.2592">
        <ele>-63.400001525879</ele>
        <time>2021-07-04T08:53:12.000Z</time>
      </trkpt>
      <trkpt lat="47.31532" lon="-2.2592">
        <ele>-63.400001525879</ele>
        <time>2021-07-04T08:53:24.000Z</time>
      </trkpt>
      <trkpt lat="47.31531" lon="-2.2592">
        <ele>-63.400001525879</ele>
        <time>2021-07-04T08:53:25.000Z</time>
      </trkpt>
      <trkpt lat="47.31529" lon="-2.25921">
        <ele>-63.400001525879</ele>
        <time>2021-07-04T08:53:26.000Z</time>
      </trkpt>
      <trkpt lat="47.31522" lon="-2.25929">
        <ele>-63.400001525879</ele>
        <time>2021-07-04T08:53:30.000Z</time>
      </trkpt>
      <trkpt lat="47.31509" lon="-2.25946">
        <ele>-63.400001525879</ele>
        <time>2021-07-04T08:53:36.000Z</time>
      </trkpt>
      <trkpt lat="47.31495" lon="-2.25976">
        <ele>-63.400001525879</ele>
        <time>2021-07-04T08:53:44.000Z</time>
      </trkpt>
      <trkpt lat="47.31479" lon="-2.26003">
        <ele>-63.400001525879</ele>
        <time>2021-07-04T08:53:53.000Z</time>
      </trkpt>
      <trkpt lat="47.31467" lon="-2.26025">
        <ele>-63.400001525879</ele>
        <time>2021-07-04T08:53:59.000Z</time>
      </trkpt>
      <trkpt lat="47.31449" lon="-2.26051">
        <ele>-63.400001525879</ele>
        <time>2021-07-04T08:54:06.000Z</time>
      </trkpt>
      <trkpt lat="47.31441" lon="-2.26063">
        <ele>-63.400001525879</ele>
        <time>2021-07-04T08:54:08.000Z</time>
      </trkpt>
      <trkpt lat="47.31432" lon="-2.26081">
        <ele>-63.400001525879</ele>
        <time>2021-07-04T08:54:11.000Z</time>
      </trkpt>
      <trkpt lat="47.31412" lon="-2.26123">
        <ele>-63.400001525879</ele>
        <time>2021-07-04T08:54:18.000Z</time>
      </trkpt>
      <trkpt lat="47.31404" lon="-2.26133">
        <ele>-63.400001525879</ele>
        <time>2021-07-04T08:54:20.000Z</time>
      </trkpt>
      <trkpt lat="47.31392" lon="-2.26144">
        <ele>-63.400001525879</ele>
        <time>2021-07-04T08:54:23.000Z</time>
      </trkpt>
      <trkpt lat="47.31388" lon="-2.26147">
        <ele>-63.400001525879</ele>
        <time>2021-07-04T08:54:24.000Z</time>
      </trkpt>
      <trkpt lat="47.31377" lon="-2.26155">
        <ele>-63.400001525879</ele>
        <time>2021-07-04T08:54:27.000Z</time>
      </trkpt>
      <trkpt lat="47.31374" lon="-2.26153">
        <ele>-63.400001525879</ele>
        <time>2021-07-04T08:54:28.000Z</time>
      </trkpt>
      <trkpt lat="47.31369" lon="-2.26137">
        <ele>-63.400001525879</ele>
        <time>2021-07-04T08:54:31.000Z</time>
      </trkpt>
      <trkpt lat="47.31368" lon="-2.26133">
        <ele>-63.400001525879</ele>
        <time>2021-07-04T08:54:32.000Z</time>
      </trkpt>
      <trkpt lat="47.31361" lon="-2.26109">
        <ele>-63.400001525879</ele>
        <time>2021-07-04T08:54:37.000Z</time>
      </trkpt>
      <trkpt lat="47.31346" lon="-2.26076">
        <ele>-63.400001525879</ele>
        <time>2021-07-04T08:54:44.000Z</time>
      </trkpt>
      <trkpt lat="47.31334" lon="-2.2605">
        <ele>-63.400001525879</ele>
        <time>2021-07-04T08:54:49.000Z</time>
      </trkpt>
      <trkpt lat="47.3132" lon="-2.26021">
        <ele>-63.400001525879</ele>
        <time>2021-07-04T08:54:56.000Z</time>
      </trkpt>
      <trkpt lat="47.31308" lon="-2.25995">
        <ele>-63.400001525879</ele>
        <time>2021-07-04T08:55:02.000Z</time>
      </trkpt>
      <trkpt lat="47.31296" lon="-2.25989">
        <ele>-63.400001525879</ele>
        <time>2021-07-04T08:55:06.000Z</time>
      </trkpt>
      <trkpt lat="47.3128" lon="-2.25994">
        <ele>-63.400001525879</ele>
        <time>2021-07-04T08:55:11.000Z</time>
      </trkpt>
      <trkpt lat="47.31254" lon="-2.26016">
        <ele>-63.400001525879</ele>
        <time>2021-07-04T08:55:18.000Z</time>
      </trkpt>
      <trkpt lat="47.31241" lon="-2.26026">
        <ele>-63.400001525879</ele>
        <time>2021-07-04T08:55:23.000Z</time>
      </trkpt>
      <trkpt lat="47.31214" lon="-2.26042">
        <ele>-63.400001525879</ele>
        <time>2021-07-04T08:55:30.000Z</time>
      </trkpt>
      <trkpt lat="47.31191" lon="-2.26058">
        <ele>-63.400001525879</ele>
        <time>2021-07-04T08:55:36.000Z</time>
      </trkpt>
      <trkpt lat="47.31187" lon="-2.26056">
        <ele>-63.400001525879</ele>
        <time>2021-07-04T08:55:37.000Z</time>
      </trkpt>
      <trkpt lat="47.31179" lon="-2.2605">
        <ele>-63.400001525879</ele>
        <time>2021-07-04T08:55:39.000Z</time>
      </trkpt>
      <trkpt lat="47.31168" lon="-2.26041">
        <ele>-63.400001525879</ele>
        <time>2021-07-04T08:55:41.000Z</time>
      </trkpt>
      <trkpt lat="47.31158" lon="-2.26035">
        <ele>-63.400001525879</ele>
        <time>2021-07-04T08:55:43.000Z</time>
      </trkpt>
      <trkpt lat="47.31122" lon="-2.26017">
        <ele>-63.400001525879</ele>
        <time>2021-07-04T08:55:50.000Z</time>
      </trkpt>
      <trkpt lat="47.31118" lon="-2.26014">
        <ele>-63.400001525879</ele>
        <time>2021-07-04T08:55:51.000Z</time>
      </trkpt>
      <trkpt lat="47.31105" lon="-2.26006">
        <ele>-63.400001525879</ele>
        <time>2021-07-04T08:55:54.000Z</time>
      </trkpt>
      <trkpt lat="47.31096" lon="-2.26003">
        <ele>-63.400001525879</ele>
        <time>2021-07-04T08:55:56.000Z</time>
      </trkpt>
      <trkpt lat="47.31077" lon="-2.26005">
        <ele>-63.400001525879</ele>
        <time>2021-07-04T08:56:00.000Z</time>
      </trkpt>
      <trkpt lat="47.31073" lon="-2.26007">
        <ele>-63.400001525879</ele>
        <time>2021-07-04T08:56:01.000Z</time>
      </trkpt>
      <trkpt lat="47.3106" lon="-2.26011">
        <ele>-63.400001525879</ele>
        <time>2021-07-04T08:56:04.000Z</time>
      </trkpt>
      <trkpt lat="47.31055" lon="-2.26012">
        <ele>-63.400001525879</ele>
        <time>2021-07-04T08:56:05.000Z</time>
      </trkpt>
      <trkpt lat="47.31027" lon="-2.26011">
        <ele>-63.400001525879</ele>
        <time>2021-07-04T08:56:10.000Z</time>
      </trkpt>
      <trkpt lat="47.31016" lon="-2.26011">
        <ele>-63.400001525879</ele>
        <time>2021-07-04T08:56:12.000Z</time>
      </trkpt>
      <trkpt lat="47.30999" lon="-2.26009">
        <ele>-63.400001525879</ele>
        <time>2021-07-04T08:56:15.000Z</time>
      </trkpt>
      <trkpt lat="47.30972" lon="-2.2601">
        <ele>-63.400001525879</ele>
        <time>2021-07-04T08:56:20.000Z</time>
      </trkpt>
      <trkpt lat="47.30952" lon="-2.26014">
        <ele>-63.400001525879</ele>
        <time>2021-07-04T08:56:24.000Z</time>
      </trkpt>
      <trkpt lat="47.30947" lon="-2.26015">
        <ele>-63.400001525879</ele>
        <time>2021-07-04T08:56:25.000Z</time>
      </trkpt>
      <trkpt lat="47.30919" lon="-2.2602">
        <ele>-63.400001525879</ele>
        <time>2021-07-04T08:56:31.000Z</time>
      </trkpt>
      <trkpt lat="47.30901" lon="-2.26024">
        <ele>-63.400001525879</ele>
        <time>2021-07-04T08:56:36.000Z</time>
      </trkpt>
      <trkpt lat="47.30883" lon="-2.26026">
        <ele>-63.400001525879</ele>
        <time>2021-07-04T08:56:41.000Z</time>
      </trkpt>
      <trkpt lat="47.30863" lon="-2.26023">
        <ele>-63.400001525879</ele>
        <time>2021-07-04T08:56:46.000Z</time>
      </trkpt>
      <trkpt lat="47.30846" lon="-2.26023">
        <ele>-63.400001525879</ele>
        <time>2021-07-04T08:56:52.000Z</time>
      </trkpt>
      <trkpt lat="47.3082" lon="-2.26016">
        <ele>-63.400001525879</ele>
        <time>2021-07-04T08:57:00.000Z</time>
      </trkpt>
      <trkpt lat="47.30818" lon="-2.26014">
        <ele>-63</ele>
        <time>2021-07-04T08:57:01.000Z</time>
      </trkpt>
      <trkpt lat="47.30815" lon="-2.26013">
        <ele>-62.599998474121</ele>
        <time>2021-07-04T08:57:02.000Z</time>
      </trkpt>
      <trkpt lat="47.30812" lon="-2.26011">
        <ele>-62.200000762939</ele>
        <time>2021-07-04T08:57:03.000Z</time>
      </trkpt>
      <trkpt lat="47.30809" lon="-2.26012">
        <ele>-61.799999237061</ele>
        <time>2021-07-04T08:57:04.000Z</time>
      </trkpt>
      <trkpt lat="47.30806" lon="-2.26015">
        <ele>-61.400001525879</ele>
        <time>2021-07-04T08:57:05.000Z</time>
      </trkpt>
      <trkpt lat="47.30778" lon="-2.26034">
        <ele>-61.400001525879</ele>
        <time>2021-07-04T08:57:12.000Z</time>
      </trkpt>
      <trkpt lat="47.30743" lon="-2.26052">
        <ele>-61.400001525879</ele>
        <time>2021-07-04T08:57:18.000Z</time>
      </trkpt>
      <trkpt lat="47.30707" lon="-2.26071">
        <ele>-61.400001525879</ele>
        <time>2021-07-04T08:57:24.000Z</time>
      </trkpt>
      <trkpt lat="47.30662" lon="-2.26095">
        <ele>-61.400001525879</ele>
        <time>2021-07-04T08:57:32.000Z</time>
      </trkpt>
      <trkpt lat="47.30649" lon="-2.26102">
        <ele>-61.799999237061</ele>
        <time>2021-07-04T08:57:34.000Z</time>
      </trkpt>
      <trkpt lat="47.30643" lon="-2.26106">
        <ele>-62.200000762939</ele>
        <time>2021-07-04T08:57:35.000Z</time>
      </trkpt>
      <trkpt lat="47.30637" lon="-2.26109">
        <ele>-62.599998474121</ele>
        <time>2021-07-04T08:57:36.000Z</time>
      </trkpt>
      <trkpt lat="47.30633" lon="-2.26111">
        <ele>-63</ele>
        <time>2021-07-04T08:57:37.000Z</time>
      </trkpt>
      <trkpt lat="47.30629" lon="-2.26113">
        <ele>-63.400001525879</ele>
        <time>2021-07-04T08:57:38.000Z</time>
      </trkpt>
      <trkpt lat="47.30625" lon="-2.26125">
        <ele>-63.400001525879</ele>
        <time>2021-07-04T08:57:41.000Z</time>
      </trkpt>
      <trkpt lat="47.30623" lon="-2.26128">
        <ele>-63.400001525879</ele>
        <time>2021-07-04T08:57:42.000Z</time>
      </trkpt>
      <trkpt lat="47.30615" lon="-2.2614">
        <ele>-63.400001525879</ele>
        <time>2021-07-04T08:57:46.000Z</time>
      </trkpt>
      <trkpt lat="47.30609" lon="-2.2615">
        <ele>-63.799999237061</ele>
        <time>2021-07-04T08:57:49.000Z</time>
      </trkpt>
      <trkpt lat="47.30607" lon="-2.26154">
        <ele>-64.199996948242</ele>
        <time>2021-07-04T08:57:50.000Z</time>
      </trkpt>
      <trkpt lat="47.30605" lon="-2.26158">
        <ele>-64.599998474121</ele>
        <time>2021-07-04T08:57:51.000Z</time>
      </trkpt>
      <trkpt lat="47.30602" lon="-2.26163">
        <ele>-65</ele>
        <time>2021-07-04T08:57:52.000Z</time>
      </trkpt>
      <trkpt lat="47.306" lon="-2.26167">
        <ele>-65.400001525879</ele>
        <time>2021-07-04T08:57:53.000Z</time>
      </trkpt>
      <trkpt lat="47.30598" lon="-2.26172">
        <ele>-65.400001525879</ele>
        <time>2021-07-04T08:57:54.000Z</time>
      </trkpt>
      <trkpt lat="47.30592" lon="-2.26188">
        <ele>-65.400001525879</ele>
        <time>2021-07-04T08:57:57.000Z</time>
      </trkpt>
      <trkpt lat="47.30586" lon="-2.26211">
        <ele>-65.400001525879</ele>
        <time>2021-07-04T08:58:01.000Z</time>
      </trkpt>
      <trkpt lat="47.30585" lon="-2.26218">
        <ele>-65.400001525879</ele>
        <time>2021-07-04T08:58:02.000Z</time>
      </trkpt>
      <trkpt lat="47.30577" lon="-2.26252">
        <ele>-65.400001525879</ele>
        <time>2021-07-04T08:58:07.000Z</time>
      </trkpt>
      <trkpt lat="47.30575" lon="-2.26259">
        <ele>-65.400001525879</ele>
        <time>2021-07-04T08:58:08.000Z</time>
      </trkpt>
      <trkpt lat="47.30559" lon="-2.26313">
        <ele>-65.400001525879</ele>
        <time>2021-07-04T08:58:15.000Z</time>
      </trkpt>
      <trkpt lat="47.30549" lon="-2.26362">
        <ele>-65.400001525879</ele>
        <time>2021-07-04T08:58:21.000Z</time>
      </trkpt>
      <trkpt lat="47.30546" lon="-2.26371">
        <ele>-65.400001525879</ele>
        <time>2021-07-04T08:58:22.000Z</time>
      </trkpt>
      <trkpt lat="47.30528" lon="-2.26412">
        <ele>-65.400001525879</ele>
        <time>2021-07-04T08:58:28.000Z</time>
      </trkpt>
      <trkpt lat="47.30504" lon="-2.26463">
        <ele>-65.400001525879</ele>
        <time>2021-07-04T08:58:35.000Z</time>
      </trkpt>
      <trkpt lat="47.30494" lon="-2.26489">
        <ele>-65.400001525879</ele>
        <time>2021-07-04T08:58:40.000Z</time>
      </trkpt>
      <trkpt lat="47.30485" lon="-2.26502">
        <ele>-65.400001525879</ele>
        <time>2021-07-04T08:58:44.000Z</time>
      </trkpt>
      <trkpt lat="47.30477" lon="-2.26523">
        <ele>-65.400001525879</ele>
        <time>2021-07-04T08:58:49.000Z</time>
      </trkpt>
      <trkpt lat="47.30465" lon="-2.26554">
        <ele>-65.400001525879</ele>
        <time>2021-07-04T08:58:56.000Z</time>
      </trkpt>
      <trkpt lat="47.30452" lon="-2.26577">
        <ele>-65.400001525879</ele>
        <time>2021-07-04T08:59:02.000Z</time>
      </trkpt>
      <trkpt lat="47.30438" lon="-2.26608">
        <ele>-65.400001525879</ele>
        <time>2021-07-04T08:59:08.000Z</time>
      </trkpt>
      <trkpt lat="47.30418" lon="-2.2665">
        <ele>-65.400001525879</ele>
        <time>2021-07-04T08:59:16.000Z</time>
      </trkpt>
      <trkpt lat="47.30408" lon="-2.26674">
        <ele>-65.400001525879</ele>
        <time>2021-07-04T08:59:20.000Z</time>
      </trkpt>
      <trkpt lat="47.30402" lon="-2.26686">
        <ele>-65.400001525879</ele>
        <time>2021-07-04T08:59:22.000Z</time>
      </trkpt>
      <trkpt lat="47.30396" lon="-2.26696">
        <ele>-65.400001525879</ele>
        <time>2021-07-04T08:59:23.000Z</time>
      </trkpt>
      <trkpt lat="47.30381" lon="-2.26719">
        <ele>-65.400001525879</ele>
        <time>2021-07-04T08:59:27.000Z</time>
      </trkpt>
      <trkpt lat="47.30362" lon="-2.26752">
        <ele>-65.400001525879</ele>
        <time>2021-07-04T08:59:33.000Z</time>
      </trkpt>
      <trkpt lat="47.30353" lon="-2.26774">
        <ele>-65</ele>
        <time>2021-07-04T08:59:37.000Z</time>
      </trkpt>
      <trkpt lat="47.30351" lon="-2.26781">
        <ele>-64.599998474121</ele>
        <time>2021-07-04T08:59:38.000Z</time>
      </trkpt>
      <trkpt lat="47.30351" lon="-2.26788">
        <ele>-64</ele>
        <time>2021-07-04T08:59:39.000Z</time>
      </trkpt>
      <trkpt lat="47.30351" lon="-2.26796">
        <ele>-63.599998474121</ele>
        <time>2021-07-04T08:59:40.000Z</time>
      </trkpt>
      <trkpt lat="47.30352" lon="-2.26804">
        <ele>-63.200000762939</ele>
        <time>2021-07-04T08:59:41.000Z</time>
      </trkpt>
      <trkpt lat="47.30355" lon="-2.26844">
        <ele>-63.200000762939</ele>
        <time>2021-07-04T08:59:46.000Z</time>
      </trkpt>
      <trkpt lat="47.30355" lon="-2.26853">
        <ele>-63.200000762939</ele>
        <time>2021-07-04T08:59:47.000Z</time>
      </trkpt>
      <trkpt lat="47.30364" lon="-2.26916">
        <ele>-63.200000762939</ele>
        <time>2021-07-04T08:59:54.000Z</time>
      </trkpt>
      <trkpt lat="47.3037" lon="-2.26971">
        <ele>-63.200000762939</ele>
        <time>2021-07-04T09:00:00.000Z</time>
      </trkpt>
      <trkpt lat="47.3037" lon="-2.27015">
        <ele>-62.799999237061</ele>
        <time>2021-07-04T09:00:06.000Z</time>
      </trkpt>
      <trkpt lat="47.30371" lon="-2.27023">
        <ele>-62.400001525879</ele>
        <time>2021-07-04T09:00:07.000Z</time>
      </trkpt>
      <trkpt lat="47.30371" lon="-2.27031">
        <ele>-62</ele>
        <time>2021-07-04T09:00:08.000Z</time>
      </trkpt>
      <trkpt lat="47.30371" lon="-2.27038">
        <ele>-61.599998474121</ele>
        <time>2021-07-04T09:00:09.000Z</time>
      </trkpt>
      <trkpt lat="47.30372" lon="-2.27045">
        <ele>-61.200000762939</ele>
        <time>2021-07-04T09:00:10.000Z</time>
      </trkpt>
      <trkpt lat="47.30374" lon="-2.27051">
        <ele>-61.200000762939</ele>
        <time>2021-07-04T09:00:11.000Z</time>
      </trkpt>
      <trkpt lat="47.30387" lon="-2.27059">
        <ele>-61.200000762939</ele>
        <time>2021-07-04T09:00:14.000Z</time>
      </trkpt>
      <trkpt lat="47.30401" lon="-2.27073">
        <ele>-61.200000762939</ele>
        <time>2021-07-04T09:00:17.000Z</time>
      </trkpt>
      <trkpt lat="47.30409" lon="-2.271">
        <ele>-61.200000762939</ele>
        <time>2021-07-04T09:00:20.000Z</time>
      </trkpt>
      <trkpt lat="47.30415" lon="-2.27144">
        <ele>-61.200000762939</ele>
        <time>2021-07-04T09:00:25.000Z</time>
      </trkpt>
      <trkpt lat="47.30415" lon="-2.27151">
        <ele>-61.200000762939</ele>
        <time>2021-07-04T09:00:26.000Z</time>
      </trkpt>
      <trkpt lat="47.3041" lon="-2.27159">
        <ele>-61.200000762939</ele>
        <time>2021-07-04T09:00:28.000Z</time>
      </trkpt>
      <trkpt lat="47.30401" lon="-2.27161">
        <ele>-61.200000762939</ele>
        <time>2021-07-04T09:00:31.000Z</time>
      </trkpt>
      <trkpt lat="47.30398" lon="-2.27161">
        <ele>-61.200000762939</ele>
        <time>2021-07-04T09:00:32.000Z</time>
      </trkpt>
      <trkpt lat="47.30375" lon="-2.27167">
        <ele>-61.200000762939</ele>
        <time>2021-07-04T09:00:38.000Z</time>
      </trkpt>
      <trkpt lat="47.30355" lon="-2.27172">
        <ele>-61.599998474121</ele>
        <time>2021-07-04T09:00:42.000Z</time>
      </trkpt>
      <trkpt lat="47.30349" lon="-2.27172">
        <ele>-62</ele>
        <time>2021-07-04T09:00:43.000Z</time>
      </trkpt>
      <trkpt lat="47.30344" lon="-2.27174">
        <ele>-62.400001525879</ele>
        <time>2021-07-04T09:00:44.000Z</time>
      </trkpt>
      <trkpt lat="47.30338" lon="-2.27175">
        <ele>-62.799999237061</ele>
        <time>2021-07-04T09:00:45.000Z</time>
      </trkpt>
      <trkpt lat="47.30332" lon="-2.27176">
        <ele>-63.200000762939</ele>
        <time>2021-07-04T09:00:46.000Z</time>
      </trkpt>
      <trkpt lat="47.30311" lon="-2.27181">
        <ele>-63.200000762939</ele>
        <time>2021-07-04T09:00:50.000Z</time>
      </trkpt>
      <trkpt lat="47.303" lon="-2.27183">
        <ele>-63.200000762939</ele>
        <time>2021-07-04T09:00:52.000Z</time>
      </trkpt>
      <trkpt lat="47.30279" lon="-2.27184">
        <ele>-63.200000762939</ele>
        <time>2021-07-04T09:00:56.000Z</time>
      </trkpt>
      <trkpt lat="47.30268" lon="-2.27182">
        <ele>-63.200000762939</ele>
        <time>2021-07-04T09:00:58.000Z</time>
      </trkpt>
      <trkpt lat="47.30251" lon="-2.27175">
        <ele>-63.200000762939</ele>
        <time>2021-07-04T09:01:01.000Z</time>
      </trkpt>
      <trkpt lat="47.30223" lon="-2.2716">
        <ele>-63.200000762939</ele>
        <time>2021-07-04T09:01:07.000Z</time>
      </trkpt>
      <trkpt lat="47.30219" lon="-2.27159">
        <ele>-63.200000762939</ele>
        <time>2021-07-04T09:01:08.000Z</time>
      </trkpt>
      <trkpt lat="47.30209" lon="-2.27162">
        <ele>-63.200000762939</ele>
        <time>2021-07-04T09:01:10.000Z</time>
      </trkpt>
      <trkpt lat="47.302" lon="-2.27172">
        <ele>-63.200000762939</ele>
        <time>2021-07-04T09:01:12.000Z</time>
      </trkpt>
      <trkpt lat="47.30189" lon="-2.27184">
        <ele>-63.200000762939</ele>
        <time>2021-07-04T09:01:14.000Z</time>
      </trkpt>
      <trkpt lat="47.30153" lon="-2.27226">
        <ele>-63.200000762939</ele>
        <time>2021-07-04T09:01:21.000Z</time>
      </trkpt>
      <trkpt lat="47.30149" lon="-2.27232">
        <ele>-63.599998474121</ele>
        <time>2021-07-04T09:01:22.000Z</time>
      </trkpt>
      <trkpt lat="47.30144" lon="-2.27238">
        <ele>-64</ele>
        <time>2021-07-04T09:01:23.000Z</time>
      </trkpt>
      <trkpt lat="47.30139" lon="-2.27244">
        <ele>-64.400001525879</ele>
        <time>2021-07-04T09:01:24.000Z</time>
      </trkpt>
      <trkpt lat="47.30134" lon="-2.2725">
        <ele>-64.800003051758</ele>
        <time>2021-07-04T09:01:25.000Z</time>
      </trkpt>
      <trkpt lat="47.3013" lon="-2.27256">
        <ele>-65.199996948242</ele>
        <time>2021-07-04T09:01:26.000Z</time>
      </trkpt>
      <trkpt lat="47.30121" lon="-2.27268">
        <ele>-65.199996948242</ele>
        <time>2021-07-04T09:01:28.000Z</time>
      </trkpt>
      <trkpt lat="47.30093" lon="-2.27315">
        <ele>-65.199996948242</ele>
        <time>2021-07-04T09:01:35.000Z</time>
      </trkpt>
      <trkpt lat="47.30064" lon="-2.27381">
        <ele>-65.199996948242</ele>
        <time>2021-07-04T09:01:44.000Z</time>
      </trkpt>
      <trkpt lat="47.30042" lon="-2.27421">
        <ele>-65.199996948242</ele>
        <time>2021-07-04T09:01:50.000Z</time>
      </trkpt>
      <trkpt lat="47.30016" lon="-2.27457">
        <ele>-65.199996948242</ele>
        <time>2021-07-04T09:01:56.000Z</time>
      </trkpt>
      <trkpt lat="47.3" lon="-2.27495">
        <ele>-65.199996948242</ele>
        <time>2021-07-04T09:02:01.000Z</time>
      </trkpt>
      <trkpt lat="47.29989" lon="-2.27537">
        <ele>-65.199996948242</ele>
        <time>2021-07-04T09:02:06.000Z</time>
      </trkpt>
      <trkpt lat="47.29977" lon="-2.2758">
        <ele>-65.199996948242</ele>
        <time>2021-07-04T09:02:11.000Z</time>
      </trkpt>
      <trkpt lat="47.29963" lon="-2.27636">
        <ele>-65.199996948242</ele>
        <time>2021-07-04T09:02:18.000Z</time>
      </trkpt>
      <trkpt lat="47.29959" lon="-2.27673">
        <ele>-65.199996948242</ele>
        <time>2021-07-04T09:02:22.000Z</time>
      </trkpt>
      <trkpt lat="47.29958" lon="-2.27691">
        <ele>-65.199996948242</ele>
        <time>2021-07-04T09:02:24.000Z</time>
      </trkpt>
      <trkpt lat="47.29951" lon="-2.27762">
        <ele>-65.199996948242</ele>
        <time>2021-07-04T09:02:32.000Z</time>
      </trkpt>
      <trkpt lat="47.29947" lon="-2.27825">
        <ele>-65.199996948242</ele>
        <time>2021-07-04T09:02:39.000Z</time>
      </trkpt>
      <trkpt lat="47.2994" lon="-2.27891">
        <ele>-65.199996948242</ele>
        <time>2021-07-04T09:02:46.000Z</time>
      </trkpt>
      <trkpt lat="47.29938" lon="-2.27927">
        <ele>-65.199996948242</ele>
        <time>2021-07-04T09:02:50.000Z</time>
      </trkpt>
      <trkpt lat="47.29937" lon="-2.27936">
        <ele>-65.199996948242</ele>
        <time>2021-07-04T09:02:51.000Z</time>
      </trkpt>
      <trkpt lat="47.29935" lon="-2.27982">
        <ele>-65.599998474121</ele>
        <time>2021-07-04T09:02:56.000Z</time>
      </trkpt>
      <trkpt lat="47.29935" lon="-2.27992">
        <ele>-66</ele>
        <time>2021-07-04T09:02:57.000Z</time>
      </trkpt>
      <trkpt lat="47.29936" lon="-2.28002">
        <ele>-66.400001525879</ele>
        <time>2021-07-04T09:02:58.000Z</time>
      </trkpt>
      <trkpt lat="47.29937" lon="-2.28011">
        <ele>-66.800003051758</ele>
        <time>2021-07-04T09:02:59.000Z</time>
      </trkpt>
      <trkpt lat="47.29939" lon="-2.2802">
        <ele>-67.199996948242</ele>
        <time>2021-07-04T09:03:00.000Z</time>
      </trkpt>
      <trkpt lat="47.29943" lon="-2.28037">
        <ele>-67.199996948242</ele>
        <time>2021-07-04T09:03:02.000Z</time>
      </trkpt>
      <trkpt lat="47.29947" lon="-2.28044">
        <ele>-67.199996948242</ele>
        <time>2021-07-04T09:03:03.000Z</time>
      </trkpt>
      <trkpt lat="47.29953" lon="-2.28052">
        <ele>-67.199996948242</ele>
        <time>2021-07-04T09:03:05.000Z</time>
      </trkpt>
      <trkpt lat="47.29961" lon="-2.28049">
        <ele>-67.199996948242</ele>
        <time>2021-07-04T09:03:07.000Z</time>
      </trkpt>
      <trkpt lat="47.29967" lon="-2.28046">
        <ele>-67.199996948242</ele>
        <time>2021-07-04T09:03:08.000Z</time>
      </trkpt>
      <trkpt lat="47.29986" lon="-2.28037">
        <ele>-67.199996948242</ele>
        <time>2021-07-04T09:03:12.000Z</time>
      </trkpt>
      <trkpt lat="47.2999" lon="-2.28046">
        <ele>-67.199996948242</ele>
        <time>2021-07-04T09:03:15.000Z</time>
      </trkpt>
      <trkpt lat="47.29986" lon="-2.28059">
        <ele>-67.199996948242</ele>
        <time>2021-07-04T09:03:18.000Z</time>
      </trkpt>
      <trkpt lat="47.29984" lon="-2.28064">
        <ele>-67.599998474121</ele>
        <time>2021-07-04T09:03:19.000Z</time>
      </trkpt>
      <trkpt lat="47.29983" lon="-2.28069">
        <ele>-68</ele>
        <time>2021-07-04T09:03:20.000Z</time>
      </trkpt>
      <trkpt lat="47.29981" lon="-2.28075">
        <ele>-68.400001525879</ele>
        <time>2021-07-04T09:03:21.000Z</time>
      </trkpt>
      <trkpt lat="47.2998" lon="-2.2808">
        <ele>-69</ele>
        <time>2021-07-04T09:03:22.000Z</time>
      </trkpt>
      <trkpt lat="47.29978" lon="-2.28086">
        <ele>-69.400001525879</ele>
        <time>2021-07-04T09:03:23.000Z</time>
      </trkpt>
      <trkpt lat="47.29974" lon="-2.28099">
        <ele>-69.400001525879</ele>
        <time>2021-07-04T09:03:25.000Z</time>
      </trkpt>
      <trkpt lat="47.29967" lon="-2.28122">
        <ele>-69.400001525879</ele>
        <time>2021-07-04T09:03:28.000Z</time>
      </trkpt>
      <trkpt lat="47.29962" lon="-2.28135">
        <ele>-69.400001525879</ele>
        <time>2021-07-04T09:03:30.000Z</time>
      </trkpt>
      <trkpt lat="47.29945" lon="-2.28187">
        <ele>-69.400001525879</ele>
        <time>2021-07-04T09:03:37.000Z</time>
      </trkpt>
      <trkpt lat="47.29944" lon="-2.28193">
        <ele>-69.400001525879</ele>
        <time>2021-07-04T09:03:38.000Z</time>
      </trkpt>
      <trkpt lat="47.29943" lon="-2.28211">
        <ele>-69.400001525879</ele>
        <time>2021-07-04T09:03:41.000Z</time>
      </trkpt>
      <trkpt lat="47.29946" lon="-2.2823">
        <ele>-69.400001525879</ele>
        <time>2021-07-04T09:03:44.000Z</time>
      </trkpt>
      <trkpt lat="47.29948" lon="-2.28253">
        <ele>-69.400001525879</ele>
        <time>2021-07-04T09:03:47.000Z</time>
      </trkpt>
      <trkpt lat="47.29952" lon="-2.28293">
        <ele>-69.400001525879</ele>
        <time>2021-07-04T09:03:52.000Z</time>
      </trkpt>
      <trkpt lat="47.29952" lon="-2.28302">
        <ele>-69.400001525879</ele>
        <time>2021-07-04T09:03:53.000Z</time>
      </trkpt>
      <trkpt lat="47.29951" lon="-2.2832">
        <ele>-69.400001525879</ele>
        <time>2021-07-04T09:03:55.000Z</time>
      </trkpt>
      <trkpt lat="47.29947" lon="-2.28347">
        <ele>-69.400001525879</ele>
        <time>2021-07-04T09:03:58.000Z</time>
      </trkpt>
      <trkpt lat="47.29944" lon="-2.28408">
        <ele>-69.400001525879</ele>
        <time>2021-07-04T09:04:05.000Z</time>
      </trkpt>
      <trkpt lat="47.29937" lon="-2.28429">
        <ele>-68.599998474121</ele>
        <time>2021-07-04T09:04:08.000Z</time>
      </trkpt>
      <trkpt lat="47.29935" lon="-2.28436">
        <ele>-68.199996948242</ele>
        <time>2021-07-04T09:04:09.000Z</time>
      </trkpt>
      <trkpt lat="47.29934" lon="-2.28443">
        <ele>-67.800003051758</ele>
        <time>2021-07-04T09:04:10.000Z</time>
      </trkpt>
      <trkpt lat="47.29933" lon="-2.28451">
        <ele>-67.400001525879</ele>
        <time>2021-07-04T09:04:11.000Z</time>
      </trkpt>
      <trkpt lat="47.29932" lon="-2.28458">
        <ele>-67.400001525879</ele>
        <time>2021-07-04T09:04:12.000Z</time>
      </trkpt>
      <trkpt lat="47.29932" lon="-2.28475">
        <ele>-67.400001525879</ele>
        <time>2021-07-04T09:04:14.000Z</time>
      </trkpt>
      <trkpt lat="47.29927" lon="-2.28514">
        <ele>-67.400001525879</ele>
        <time>2021-07-04T09:04:18.000Z</time>
      </trkpt>
      <trkpt lat="47.29925" lon="-2.28547">
        <ele>-67.400001525879</ele>
        <time>2021-07-04T09:04:22.000Z</time>
      </trkpt>
      <trkpt lat="47.29936" lon="-2.28564">
        <ele>-67.400001525879</ele>
        <time>2021-07-04T09:04:25.000Z</time>
      </trkpt>
      <trkpt lat="47.29939" lon="-2.28582">
        <ele>-67.400001525879</ele>
        <time>2021-07-04T09:04:28.000Z</time>
      </trkpt>
      <trkpt lat="47.29936" lon="-2.28596">
        <ele>-67.400001525879</ele>
        <time>2021-07-04T09:04:30.000Z</time>
      </trkpt>
      <trkpt lat="47.29931" lon="-2.28619">
        <ele>-67.400001525879</ele>
        <time>2021-07-04T09:04:33.000Z</time>
      </trkpt>
      <trkpt lat="47.29927" lon="-2.28644">
        <ele>-67.400001525879</ele>
        <time>2021-07-04T09:04:36.000Z</time>
      </trkpt>
      <trkpt lat="47.2992" lon="-2.28669">
        <ele>-67.400001525879</ele>
        <time>2021-07-04T09:04:39.000Z</time>
      </trkpt>
      <trkpt lat="47.2991" lon="-2.28711">
        <ele>-67.400001525879</ele>
        <time>2021-07-04T09:04:44.000Z</time>
      </trkpt>
      <trkpt lat="47.29905" lon="-2.2873">
        <ele>-67.400001525879</ele>
        <time>2021-07-04T09:04:46.000Z</time>
      </trkpt>
      <trkpt lat="47.299" lon="-2.28757">
        <ele>-67.400001525879</ele>
        <time>2021-07-04T09:04:49.000Z</time>
      </trkpt>
      <trkpt lat="47.29895" lon="-2.28792">
        <ele>-67.400001525879</ele>
        <time>2021-07-04T09:04:53.000Z</time>
      </trkpt>
      <trkpt lat="47.29891" lon="-2.28812">
        <ele>-67.400001525879</ele>
        <time>2021-07-04T09:04:55.000Z</time>
      </trkpt>
      <trkpt lat="47.2989" lon="-2.2882">
        <ele>-67.400001525879</ele>
        <time>2021-07-04T09:04:56.000Z</time>
      </trkpt>
      <trkpt lat="47.29885" lon="-2.28847">
        <ele>-67.400001525879</ele>
        <time>2021-07-04T09:04:59.000Z</time>
      </trkpt>
      <trkpt lat="47.29875" lon="-2.2889">
        <ele>-67.400001525879</ele>
        <time>2021-07-04T09:05:04.000Z</time>
      </trkpt>
      <trkpt lat="47.29872" lon="-2.28897">
        <ele>-67.400001525879</ele>
        <time>2021-07-04T09:05:05.000Z</time>
      </trkpt>
      <trkpt lat="47.29868" lon="-2.28922">
        <ele>-67.400001525879</ele>
        <time>2021-07-04T09:05:08.000Z</time>
      </trkpt>
      <trkpt lat="47.29876" lon="-2.28946">
        <ele>-67.400001525879</ele>
        <time>2021-07-04T09:05:12.000Z</time>
      </trkpt>
      <trkpt lat="47.29885" lon="-2.28948">
        <ele>-67.400001525879</ele>
        <time>2021-07-04T09:05:14.000Z</time>
      </trkpt>
      <trkpt lat="47.29896" lon="-2.2895">
        <ele>-67.400001525879</ele>
        <time>2021-07-04T09:05:16.000Z</time>
      </trkpt>
      <trkpt lat="47.29917" lon="-2.28955">
        <ele>-67.400001525879</ele>
        <time>2021-07-04T09:05:20.000Z</time>
      </trkpt>
      <trkpt lat="47.29924" lon="-2.28964">
        <ele>-67.400001525879</ele>
        <time>2021-07-04T09:05:22.000Z</time>
      </trkpt>
      <trkpt lat="47.29943" lon="-2.28994">
        <ele>-67.400001525879</ele>
        <time>2021-07-04T09:05:27.000Z</time>
      </trkpt>
      <trkpt lat="47.29963" lon="-2.29032">
        <ele>-67.400001525879</ele>
        <time>2021-07-04T09:05:32.000Z</time>
      </trkpt>
      <trkpt lat="47.29987" lon="-2.29078">
        <ele>-67.400001525879</ele>
        <time>2021-07-04T09:05:38.000Z</time>
      </trkpt>
      <trkpt lat="47.29991" lon="-2.29085">
        <ele>-67.400001525879</ele>
        <time>2021-07-04T09:05:39.000Z</time>
      </trkpt>
      <trkpt lat="47.30008" lon="-2.29102">
        <ele>-67.400001525879</ele>
        <time>2021-07-04T09:05:42.000Z</time>
      </trkpt>
      <trkpt lat="47.30044" lon="-2.29132">
        <ele>-67.400001525879</ele>
        <time>2021-07-04T09:05:48.000Z</time>
      </trkpt>
      <trkpt lat="47.30056" lon="-2.29139">
        <ele>-67.400001525879</ele>
        <time>2021-07-04T09:05:50.000Z</time>
      </trkpt>
      <trkpt lat="47.30067" lon="-2.29152">
        <ele>-67.400001525879</ele>
        <time>2021-07-04T09:05:52.000Z</time>
      </trkpt>
      <trkpt lat="47.30094" lon="-2.29193">
        <ele>-67.400001525879</ele>
        <time>2021-07-04T09:05:57.000Z</time>
      </trkpt>
      <trkpt lat="47.30117" lon="-2.29226">
        <ele>-67</ele>
        <time>2021-07-04T09:06:01.000Z</time>
      </trkpt>
      <trkpt lat="47.30122" lon="-2.29235">
        <ele>-66.400001525879</ele>
        <time>2021-07-04T09:06:02.000Z</time>
      </trkpt>
      <trkpt lat="47.30128" lon="-2.29244">
        <ele>-66</ele>
        <time>2021-07-04T09:06:03.000Z</time>
      </trkpt>
      <trkpt lat="47.30133" lon="-2.29253">
        <ele>-65.599998474121</ele>
        <time>2021-07-04T09:06:04.000Z</time>
      </trkpt>
      <trkpt lat="47.30139" lon="-2.29262">
        <ele>-65.199996948242</ele>
        <time>2021-07-04T09:06:05.000Z</time>
      </trkpt>
      <trkpt lat="47.30167" lon="-2.29304">
        <ele>-65.199996948242</ele>
        <time>2021-07-04T09:06:10.000Z</time>
      </trkpt>
      <trkpt lat="47.30198" lon="-2.29355">
        <ele>-65.199996948242</ele>
        <time>2021-07-04T09:06:17.000Z</time>
      </trkpt>
      <trkpt lat="47.30201" lon="-2.29362">
        <ele>-65.199996948242</ele>
        <time>2021-07-04T09:06:18.000Z</time>
      </trkpt>
      <trkpt lat="47.30207" lon="-2.29386">
        <ele>-65.199996948242</ele>
        <time>2021-07-04T09:06:21.000Z</time>
      </trkpt>
      <trkpt lat="47.30215" lon="-2.29406">
        <ele>-65.199996948242</ele>
        <time>2021-07-04T09:06:24.000Z</time>
      </trkpt>
      <trkpt lat="47.30216" lon="-2.29413">
        <ele>-65.199996948242</ele>
        <time>2021-07-04T09:06:25.000Z</time>
      </trkpt>
      <trkpt lat="47.30213" lon="-2.29436">
        <ele>-65.199996948242</ele>
        <time>2021-07-04T09:06:28.000Z</time>
      </trkpt>
      <trkpt lat="47.30203" lon="-2.29456">
        <ele>-65.199996948242</ele>
        <time>2021-07-04T09:06:31.000Z</time>
      </trkpt>
      <trkpt lat="47.30199" lon="-2.29462">
        <ele>-65.199996948242</ele>
        <time>2021-07-04T09:06:32.000Z</time>
      </trkpt>
      <trkpt lat="47.30176" lon="-2.29509">
        <ele>-65.199996948242</ele>
        <time>2021-07-04T09:06:39.000Z</time>
      </trkpt>
      <trkpt lat="47.30166" lon="-2.29531">
        <ele>-65.199996948242</ele>
        <time>2021-07-04T09:06:42.000Z</time>
      </trkpt>
      <trkpt lat="47.30153" lon="-2.29554">
        <ele>-65.199996948242</ele>
        <time>2021-07-04T09:06:45.000Z</time>
      </trkpt>
      <trkpt lat="47.30144" lon="-2.29579">
        <ele>-65.199996948242</ele>
        <time>2021-07-04T09:06:48.000Z</time>
      </trkpt>
      <trkpt lat="47.30142" lon="-2.29588">
        <ele>-64.800003051758</ele>
        <time>2021-07-04T09:06:49.000Z</time>
      </trkpt>
      <trkpt lat="47.30141" lon="-2.29597">
        <ele>-64.400001525879</ele>
        <time>2021-07-04T09:06:50.000Z</time>
      </trkpt>
      <trkpt lat="47.30141" lon="-2.29605">
        <ele>-64</ele>
        <time>2021-07-04T09:06:51.000Z</time>
      </trkpt>
      <trkpt lat="47.30141" lon="-2.29613">
        <ele>-63.599998474121</ele>
        <time>2021-07-04T09:06:52.000Z</time>
      </trkpt>
      <trkpt lat="47.30141" lon="-2.29621">
        <ele>-63.200000762939</ele>
        <time>2021-07-04T09:06:53.000Z</time>
      </trkpt>
      <trkpt lat="47.3014" lon="-2.29635">
        <ele>-63.200000762939</ele>
        <time>2021-07-04T09:06:55.000Z</time>
      </trkpt>
      <trkpt lat="47.3014" lon="-2.29648">
        <ele>-63.200000762939</ele>
        <time>2021-07-04T09:06:57.000Z</time>
      </trkpt>
      <trkpt lat="47.30146" lon="-2.29658">
        <ele>-63.200000762939</ele>
        <time>2021-07-04T09:06:59.000Z</time>
      </trkpt>
      <trkpt lat="47.30163" lon="-2.29668">
        <ele>-63.200000762939</ele>
        <time>2021-07-04T09:07:03.000Z</time>
      </trkpt>
      <trkpt lat="47.30192" lon="-2.29683">
        <ele>-63.200000762939</ele>
        <time>2021-07-04T09:07:10.000Z</time>
      </trkpt>
      <trkpt lat="47.30207" lon="-2.29692">
        <ele>-63.200000762939</ele>
        <time>2021-07-04T09:07:14.000Z</time>
      </trkpt>
      <trkpt lat="47.30217" lon="-2.29699">
        <ele>-63.200000762939</ele>
        <time>2021-07-04T09:07:16.000Z</time>
      </trkpt>
      <trkpt lat="47.30235" lon="-2.29707">
        <ele>-63.200000762939</ele>
        <time>2021-07-04T09:07:20.000Z</time>
      </trkpt>
      <trkpt lat="47.30241" lon="-2.29709">
        <ele>-63.200000762939</ele>
        <time>2021-07-04T09:07:24.000Z</time>
      </trkpt>
      <trkpt lat="47.30247" lon="-2.29714">
        <ele>-63.200000762939</ele>
        <time>2021-07-04T09:07:30.000Z</time>
      </trkpt>
      <trkpt lat="47.30246" lon="-2.29718">
        <ele>-63.200000762939</ele>
        <time>2021-07-04T09:07:32.000Z</time>
      </trkpt>
      <trkpt lat="47.30244" lon="-2.29722">
        <ele>-63.200000762939</ele>
        <time>2021-07-04T09:07:34.000Z</time>
      </trkpt>
      <trkpt lat="47.30242" lon="-2.29726">
        <ele>-63.200000762939</ele>
        <time>2021-07-04T09:07:36.000Z</time>
      </trkpt>
      <trkpt lat="47.30237" lon="-2.29732">
        <ele>-63.200000762939</ele>
        <time>2021-07-04T09:07:42.000Z</time>
      </trkpt>
      <trkpt lat="47.30229" lon="-2.29745">
        <ele>-63.200000762939</ele>
        <time>2021-07-04T09:07:49.000Z</time>
      </trkpt>
      <trkpt lat="47.3022" lon="-2.29764">
        <ele>-63.200000762939</ele>
        <time>2021-07-04T09:07:55.000Z</time>
      </trkpt>
      <trkpt lat="47.30212" lon="-2.29779">
        <ele>-63.200000762939</ele>
        <time>2021-07-04T09:08:01.000Z</time>
      </trkpt>
      <trkpt lat="47.30201" lon="-2.2979">
        <ele>-63.200000762939</ele>
        <time>2021-07-04T09:08:07.000Z</time>
      </trkpt>
      <trkpt lat="47.30195" lon="-2.29798">
        <ele>-62.799999237061</ele>
        <time>2021-07-04T09:08:10.000Z</time>
      </trkpt>
      <trkpt lat="47.30193" lon="-2.29801">
        <ele>-62.400001525879</ele>
        <time>2021-07-04T09:08:11.000Z</time>
      </trkpt>
      <trkpt lat="47.30192" lon="-2.29803">
        <ele>-62</ele>
        <time>2021-07-04T09:08:12.000Z</time>
      </trkpt>
      <trkpt lat="47.30191" lon="-2.29805">
        <ele>-61.599998474121</ele>
        <time>2021-07-04T09:08:13.000Z</time>
      </trkpt>
      <trkpt lat="47.3019" lon="-2.29806">
        <ele>-61.200000762939</ele>
        <time>2021-07-04T09:08:14.000Z</time>
      </trkpt>
      <trkpt lat="47.30189" lon="-2.29808">
        <ele>-61.200000762939</ele>
        <time>2021-07-04T09:08:15.000Z</time>
      </trkpt>
      <trkpt lat="47.30187" lon="-2.29811">
        <ele>-61.200000762939</ele>
        <time>2021-07-04T09:08:18.000Z</time>
      </trkpt>
      <trkpt lat="47.30173" lon="-2.29835">
        <ele>-61.200000762939</ele>
        <time>2021-07-04T09:08:29.000Z</time>
      </trkpt>
      <trkpt lat="47.30169" lon="-2.29841">
        <ele>-61.200000762939</ele>
        <time>2021-07-04T09:08:31.000Z</time>
      </trkpt>
      <trkpt lat="47.30153" lon="-2.29861">
        <ele>-61.200000762939</ele>
        <time>2021-07-04T09:08:38.000Z</time>
      </trkpt>
      <trkpt lat="47.30141" lon="-2.2987">
        <ele>-61.200000762939</ele>
        <time>2021-07-04T09:08:42.000Z</time>
      </trkpt>
      <trkpt lat="47.30128" lon="-2.29883">
        <ele>-61.200000762939</ele>
        <time>2021-07-04T09:08:47.000Z</time>
      </trkpt>
      <trkpt lat="47.3011" lon="-2.29901">
        <ele>-61.200000762939</ele>
        <time>2021-07-04T09:08:53.000Z</time>
      </trkpt>
      <trkpt lat="47.30096" lon="-2.29911">
        <ele>-61.200000762939</ele>
        <time>2021-07-04T09:08:58.000Z</time>
      </trkpt>
      <trkpt lat="47.30095" lon="-2.29931">
        <ele>-61.200000762939</ele>
        <time>2021-07-04T09:09:03.000Z</time>
      </trkpt>
      <trkpt lat="47.30101" lon="-2.29941">
        <ele>-61.200000762939</ele>
        <time>2021-07-04T09:09:07.000Z</time>
      </trkpt>
      <trkpt lat="47.30101" lon="-2.29955">
        <ele>-61.200000762939</ele>
        <time>2021-07-04T09:09:11.000Z</time>
      </trkpt>
      <trkpt lat="47.30099" lon="-2.29961">
        <ele>-61.200000762939</ele>
        <time>2021-07-04T09:09:12.000Z</time>
      </trkpt>
      <trkpt lat="47.301" lon="-2.29971">
        <ele>-60.599998474121</ele>
        <time>2021-07-04T09:09:14.000Z</time>
      </trkpt>
      <trkpt lat="47.30099" lon="-2.29976">
        <ele>-60.200000762939</ele>
        <time>2021-07-04T09:09:15.000Z</time>
      </trkpt>
      <trkpt lat="47.301" lon="-2.2998">
        <ele>-59.799999237061</ele>
        <time>2021-07-04T09:09:16.000Z</time>
      </trkpt>
      <trkpt lat="47.30103" lon="-2.29985">
        <ele>-59.400001525879</ele>
        <time>2021-07-04T09:09:17.000Z</time>
      </trkpt>
      <trkpt lat="47.30104" lon="-2.2999">
        <ele>-59</ele>
        <time>2021-07-04T09:09:18.000Z</time>
      </trkpt>
      <trkpt lat="47.30112" lon="-2.29997">
        <ele>-59</ele>
        <time>2021-07-04T09:09:22.000Z</time>
      </trkpt>
      <trkpt lat="47.30127" lon="-2.30019">
        <ele>-59</ele>
        <time>2021-07-04T09:09:28.000Z</time>
      </trkpt>
      <trkpt lat="47.30141" lon="-2.30045">
        <ele>-59</ele>
        <time>2021-07-04T09:09:34.000Z</time>
      </trkpt>
      <trkpt lat="47.30155" lon="-2.30082">
        <ele>-59</ele>
        <time>2021-07-04T09:09:40.000Z</time>
      </trkpt>
      <trkpt lat="47.30167" lon="-2.30117">
        <ele>-59</ele>
        <time>2021-07-04T09:09:46.000Z</time>
      </trkpt>
      <trkpt lat="47.30185" lon="-2.30164">
        <ele>-59</ele>
        <time>2021-07-04T09:09:53.000Z</time>
      </trkpt>
      <trkpt lat="47.30198" lon="-2.30198">
        <ele>-59</ele>
        <time>2021-07-04T09:09:59.000Z</time>
      </trkpt>
      <trkpt lat="47.30204" lon="-2.30214">
        <ele>-59</ele>
        <time>2021-07-04T09:10:04.000Z</time>
      </trkpt>
      <trkpt lat="47.30201" lon="-2.30223">
        <ele>-59</ele>
        <time>2021-07-04T09:10:10.000Z</time>
      </trkpt>
      <trkpt lat="47.302" lon="-2.30225">
        <ele>-59</ele>
        <time>2021-07-04T09:10:11.000Z</time>
      </trkpt>
      <trkpt lat="47.30192" lon="-2.30234">
        <ele>-59</ele>
        <time>2021-07-04T09:10:19.000Z</time>
      </trkpt>
      <trkpt lat="47.3018" lon="-2.30242">
        <ele>-59</ele>
        <time>2021-07-04T09:10:24.000Z</time>
      </trkpt>
      <trkpt lat="47.30152" lon="-2.30253">
        <ele>-59</ele>
        <time>2021-07-04T09:10:30.000Z</time>
      </trkpt>
      <trkpt lat="47.30114" lon="-2.30267">
        <ele>-59</ele>
        <time>2021-07-04T09:10:38.000Z</time>
      </trkpt>
      <trkpt lat="47.30111" lon="-2.30273">
        <ele>-59.400001525879</ele>
        <time>2021-07-04T09:10:39.000Z</time>
      </trkpt>
      <trkpt lat="47.30109" lon="-2.30278">
        <ele>-59.799999237061</ele>
        <time>2021-07-04T09:10:40.000Z</time>
      </trkpt>
      <trkpt lat="47.30107" lon="-2.30284">
        <ele>-60.200000762939</ele>
        <time>2021-07-04T09:10:41.000Z</time>
      </trkpt>
      <trkpt lat="47.30107" lon="-2.30291">
        <ele>-60.599998474121</ele>
        <time>2021-07-04T09:10:42.000Z</time>
      </trkpt>
      <trkpt lat="47.30107" lon="-2.30298">
        <ele>-61</ele>
        <time>2021-07-04T09:10:43.000Z</time>
      </trkpt>
      <trkpt lat="47.3011" lon="-2.30312">
        <ele>-61</ele>
        <time>2021-07-04T09:10:45.000Z</time>
      </trkpt>
      <trkpt lat="47.30111" lon="-2.30319">
        <ele>-61</ele>
        <time>2021-07-04T09:10:46.000Z</time>
      </trkpt>
      <trkpt lat="47.30126" lon="-2.30371">
        <ele>-61</ele>
        <time>2021-07-04T09:10:53.000Z</time>
      </trkpt>
      <trkpt lat="47.30142" lon="-2.3043">
        <ele>-61</ele>
        <time>2021-07-04T09:11:01.000Z</time>
      </trkpt>
      <trkpt lat="47.30163" lon="-2.30475">
        <ele>-61</ele>
        <time>2021-07-04T09:11:08.000Z</time>
      </trkpt>
      <trkpt lat="47.30167" lon="-2.30481">
        <ele>-61.400001525879</ele>
        <time>2021-07-04T09:11:09.000Z</time>
      </trkpt>
      <trkpt lat="47.30171" lon="-2.30486">
        <ele>-61.799999237061</ele>
        <time>2021-07-04T09:11:10.000Z</time>
      </trkpt>
      <trkpt lat="47.30175" lon="-2.3049">
        <ele>-62.200000762939</ele>
        <time>2021-07-04T09:11:11.000Z</time>
      </trkpt>
      <trkpt lat="47.30179" lon="-2.30494">
        <ele>-62.599998474121</ele>
        <time>2021-07-04T09:11:12.000Z</time>
      </trkpt>
      <trkpt lat="47.30183" lon="-2.30499">
        <ele>-63</ele>
        <time>2021-07-04T09:11:13.000Z</time>
      </trkpt>
      <trkpt lat="47.30208" lon="-2.30522">
        <ele>-63</ele>
        <time>2021-07-04T09:11:19.000Z</time>
      </trkpt>
      <trkpt lat="47.30221" lon="-2.30537">
        <ele>-63</ele>
        <time>2021-07-04T09:11:23.000Z</time>
      </trkpt>
      <trkpt lat="47.30226" lon="-2.30548">
        <ele>-63</ele>
        <time>2021-07-04T09:11:25.000Z</time>
      </trkpt>
      <trkpt lat="47.30228" lon="-2.30576">
        <ele>-63</ele>
        <time>2021-07-04T09:11:29.000Z</time>
      </trkpt>
      <trkpt lat="47.30216" lon="-2.30596">
        <ele>-63</ele>
        <time>2021-07-04T09:11:33.000Z</time>
      </trkpt>
      <trkpt lat="47.30207" lon="-2.30602">
        <ele>-63</ele>
        <time>2021-07-04T09:11:35.000Z</time>
      </trkpt>
      <trkpt lat="47.30203" lon="-2.30606">
        <ele>-63</ele>
        <time>2021-07-04T09:11:36.000Z</time>
      </trkpt>
      <trkpt lat="47.302" lon="-2.30611">
        <ele>-63</ele>
        <time>2021-07-04T09:11:37.000Z</time>
      </trkpt>
      <trkpt lat="47.30182" lon="-2.30631">
        <ele>-63</ele>
        <time>2021-07-04T09:11:42.000Z</time>
      </trkpt>
      <trkpt lat="47.30173" lon="-2.30637">
        <ele>-63</ele>
        <time>2021-07-04T09:11:44.000Z</time>
      </trkpt>
      <trkpt lat="47.30168" lon="-2.30639">
        <ele>-63</ele>
        <time>2021-07-04T09:11:45.000Z</time>
      </trkpt>
      <trkpt lat="47.30158" lon="-2.30636">
        <ele>-63</ele>
        <time>2021-07-04T09:11:47.000Z</time>
      </trkpt>
      <trkpt lat="47.30146" lon="-2.30619">
        <ele>-63</ele>
        <time>2021-07-04T09:11:50.000Z</time>
      </trkpt>
      <trkpt lat="47.30137" lon="-2.30594">
        <ele>-63</ele>
        <time>2021-07-04T09:11:53.000Z</time>
      </trkpt>
      <trkpt lat="47.30131" lon="-2.30578">
        <ele>-63</ele>
        <time>2021-07-04T09:11:55.000Z</time>
      </trkpt>
      <trkpt lat="47.30127" lon="-2.30571">
        <ele>-63</ele>
        <time>2021-07-04T09:11:56.000Z</time>
      </trkpt>
      <trkpt lat="47.30112" lon="-2.3055">
        <ele>-63</ele>
        <time>2021-07-04T09:11:59.000Z</time>
      </trkpt>
      <trkpt lat="47.301" lon="-2.30541">
        <ele>-63</ele>
        <time>2021-07-04T09:12:01.000Z</time>
      </trkpt>
      <trkpt lat="47.3008" lon="-2.30541">
        <ele>-63</ele>
        <time>2021-07-04T09:12:04.000Z</time>
      </trkpt>
      <trkpt lat="47.30074" lon="-2.30541">
        <ele>-63</ele>
        <time>2021-07-04T09:12:05.000Z</time>
      </trkpt>
      <trkpt lat="47.30061" lon="-2.30542">
        <ele>-63.400001525879</ele>
        <time>2021-07-04T09:12:07.000Z</time>
      </trkpt>
      <trkpt lat="47.30054" lon="-2.30542">
        <ele>-63.799999237061</ele>
        <time>2021-07-04T09:12:08.000Z</time>
      </trkpt>
      <trkpt lat="47.30048" lon="-2.30543">
        <ele>-64.199996948242</ele>
        <time>2021-07-04T09:12:09.000Z</time>
      </trkpt>
      <trkpt lat="47.30041" lon="-2.30543">
        <ele>-64.599998474121</ele>
        <time>2021-07-04T09:12:10.000Z</time>
      </trkpt>
      <trkpt lat="47.30034" lon="-2.30544">
        <ele>-65</ele>
        <time>2021-07-04T09:12:11.000Z</time>
      </trkpt>
      <trkpt lat="47.30001" lon="-2.3054">
        <ele>-65</ele>
        <time>2021-07-04T09:12:16.000Z</time>
      </trkpt>
      <trkpt lat="47.29957" lon="-2.30519">
        <ele>-65</ele>
        <time>2021-07-04T09:12:23.000Z</time>
      </trkpt>
      <trkpt lat="47.29915" lon="-2.30494">
        <ele>-65</ele>
        <time>2021-07-04T09:12:30.000Z</time>
      </trkpt>
      <trkpt lat="47.29879" lon="-2.3048">
        <ele>-65</ele>
        <time>2021-07-04T09:12:36.000Z</time>
      </trkpt>
      <trkpt lat="47.29867" lon="-2.3048">
        <ele>-65</ele>
        <time>2021-07-04T09:12:38.000Z</time>
      </trkpt>
      <trkpt lat="47.2985" lon="-2.30483">
        <ele>-65</ele>
        <time>2021-07-04T09:12:41.000Z</time>
      </trkpt>
      <trkpt lat="47.29808" lon="-2.30491">
        <ele>-65</ele>
        <time>2021-07-04T09:12:48.000Z</time>
      </trkpt>
      <trkpt lat="47.29769" lon="-2.30501">
        <ele>-65</ele>
        <time>2021-07-04T09:12:55.000Z</time>
      </trkpt>
      <trkpt lat="47.29732" lon="-2.30515">
        <ele>-65</ele>
        <time>2021-07-04T09:13:03.000Z</time>
      </trkpt>
      <trkpt lat="47.29696" lon="-2.30527">
        <ele>-65</ele>
        <time>2021-07-04T09:13:10.000Z</time>
      </trkpt>
      <trkpt lat="47.29643" lon="-2.30545">
        <ele>-65</ele>
        <time>2021-07-04T09:13:20.000Z</time>
      </trkpt>
      <trkpt lat="47.296" lon="-2.3056">
        <ele>-65</ele>
        <time>2021-07-04T09:13:28.000Z</time>
      </trkpt>
      <trkpt lat="47.29554" lon="-2.30567">
        <ele>-65</ele>
        <time>2021-07-04T09:13:36.000Z</time>
      </trkpt>
      <trkpt lat="47.29514" lon="-2.30573">
        <ele>-65</ele>
        <time>2021-07-04T09:13:43.000Z</time>
      </trkpt>
      <trkpt lat="47.29468" lon="-2.3058">
        <ele>-65</ele>
        <time>2021-07-04T09:13:50.000Z</time>
      </trkpt>
      <trkpt lat="47.29411" lon="-2.30581">
        <ele>-65</ele>
        <time>2021-07-04T09:13:58.000Z</time>
      </trkpt>
      <trkpt lat="47.29373" lon="-2.30562">
        <ele>-65</ele>
        <time>2021-07-04T09:14:03.000Z</time>
      </trkpt>
      <trkpt lat="47.29318" lon="-2.30526">
        <ele>-65</ele>
        <time>2021-07-04T09:14:10.000Z</time>
      </trkpt>
      <trkpt lat="47.29303" lon="-2.30517">
        <ele>-65</ele>
        <time>2021-07-04T09:14:12.000Z</time>
      </trkpt>
      <trkpt lat="47.29254" lon="-2.30491">
        <ele>-65</ele>
        <time>2021-07-04T09:14:19.000Z</time>
      </trkpt>
      <trkpt lat="47.29222" lon="-2.3049">
        <ele>-65</ele>
        <time>2021-07-04T09:14:24.000Z</time>
      </trkpt>
      <trkpt lat="47.29186" lon="-2.30502">
        <ele>-65</ele>
        <time>2021-07-04T09:14:30.000Z</time>
      </trkpt>
      <trkpt lat="47.2918" lon="-2.30505">
        <ele>-65</ele>
        <time>2021-07-04T09:14:31.000Z</time>
      </trkpt>
      <trkpt lat="47.29175" lon="-2.30508">
        <ele>-65</ele>
        <time>2021-07-04T09:14:32.000Z</time>
      </trkpt>
      <trkpt lat="47.29152" lon="-2.30524">
        <ele>-65</ele>
        <time>2021-07-04T09:14:36.000Z</time>
      </trkpt>
      <trkpt lat="47.29112" lon="-2.30552">
        <ele>-65</ele>
        <time>2021-07-04T09:14:43.000Z</time>
      </trkpt>
      <trkpt lat="47.2907" lon="-2.30582">
        <ele>-64.599998474121</ele>
        <time>2021-07-04T09:14:50.000Z</time>
      </trkpt>
      <trkpt lat="47.29065" lon="-2.30586">
        <ele>-64.199996948242</ele>
        <time>2021-07-04T09:14:51.000Z</time>
      </trkpt>
      <trkpt lat="47.29059" lon="-2.3059">
        <ele>-63.799999237061</ele>
        <time>2021-07-04T09:14:52.000Z</time>
      </trkpt>
      <trkpt lat="47.29053" lon="-2.30594">
        <ele>-63.400001525879</ele>
        <time>2021-07-04T09:14:53.000Z</time>
      </trkpt>
      <trkpt lat="47.29048" lon="-2.30598">
        <ele>-63</ele>
        <time>2021-07-04T09:14:54.000Z</time>
      </trkpt>
      <trkpt lat="47.29019" lon="-2.30616">
        <ele>-63</ele>
        <time>2021-07-04T09:14:59.000Z</time>
      </trkpt>
      <trkpt lat="47.28974" lon="-2.30645">
        <ele>-63</ele>
        <time>2021-07-04T09:15:07.000Z</time>
      </trkpt>
      <trkpt lat="47.28937" lon="-2.30681">
        <ele>-63</ele>
        <time>2021-07-04T09:15:14.000Z</time>
      </trkpt>
      <trkpt lat="47.28906" lon="-2.30722">
        <ele>-63</ele>
        <time>2021-07-04T09:15:21.000Z</time>
      </trkpt>
      <trkpt lat="47.28886" lon="-2.30753">
        <ele>-63</ele>
        <time>2021-07-04T09:15:26.000Z</time>
      </trkpt>
      <trkpt lat="47.28862" lon="-2.30789">
        <ele>-63</ele>
        <time>2021-07-04T09:15:32.000Z</time>
      </trkpt>
      <trkpt lat="47.28855" lon="-2.30803">
        <ele>-63</ele>
        <time>2021-07-04T09:15:34.000Z</time>
      </trkpt>
      <trkpt lat="47.28836" lon="-2.3084">
        <ele>-63</ele>
        <time>2021-07-04T09:15:40.000Z</time>
      </trkpt>
      <trkpt lat="47.28811" lon="-2.30891">
        <ele>-63</ele>
        <time>2021-07-04T09:15:48.000Z</time>
      </trkpt>
      <trkpt lat="47.28786" lon="-2.30942">
        <ele>-63</ele>
        <time>2021-07-04T09:15:56.000Z</time>
      </trkpt>
      <trkpt lat="47.28771" lon="-2.30984">
        <ele>-63</ele>
        <time>2021-07-04T09:16:02.000Z</time>
      </trkpt>
      <trkpt lat="47.28754" lon="-2.31032">
        <ele>-63</ele>
        <time>2021-07-04T09:16:09.000Z</time>
      </trkpt>
      <trkpt lat="47.2874" lon="-2.31073">
        <ele>-63</ele>
        <time>2021-07-04T09:16:15.000Z</time>
      </trkpt>
      <trkpt lat="47.2873" lon="-2.31119">
        <ele>-63</ele>
        <time>2021-07-04T09:16:21.000Z</time>
      </trkpt>
      <trkpt lat="47.28722" lon="-2.31164">
        <ele>-63</ele>
        <time>2021-07-04T09:16:27.000Z</time>
      </trkpt>
      <trkpt lat="47.28719" lon="-2.31171">
        <ele>-63</ele>
        <time>2021-07-04T09:16:28.000Z</time>
      </trkpt>
      <trkpt lat="47.28708" lon="-2.31187">
        <ele>-63</ele>
        <time>2021-07-04T09:16:31.000Z</time>
      </trkpt>
      <trkpt lat="47.28703" lon="-2.31191">
        <ele>-63</ele>
        <time>2021-07-04T09:16:32.000Z</time>
      </trkpt>
      <trkpt lat="47.28678" lon="-2.31217">
        <ele>-63</ele>
        <time>2021-07-04T09:16:38.000Z</time>
      </trkpt>
      <trkpt lat="47.28674" lon="-2.31222">
        <ele>-63</ele>
        <time>2021-07-04T09:16:39.000Z</time>
      </trkpt>
      <trkpt lat="47.28664" lon="-2.31235">
        <ele>-63</ele>
        <time>2021-07-04T09:16:42.000Z</time>
      </trkpt>
      <trkpt lat="47.28658" lon="-2.31247">
        <ele>-63</ele>
        <time>2021-07-04T09:16:44.000Z</time>
      </trkpt>
      <trkpt lat="47.28652" lon="-2.31277">
        <ele>-63</ele>
        <time>2021-07-04T09:16:48.000Z</time>
      </trkpt>
      <trkpt lat="47.28654" lon="-2.313">
        <ele>-63.400001525879</ele>
        <time>2021-07-04T09:16:51.000Z</time>
      </trkpt>
      <trkpt lat="47.28655" lon="-2.31307">
        <ele>-63.799999237061</ele>
        <time>2021-07-04T09:16:52.000Z</time>
      </trkpt>
      <trkpt lat="47.28657" lon="-2.31315">
        <ele>-64.599998474121</ele>
        <time>2021-07-04T09:16:53.000Z</time>
      </trkpt>
      <trkpt lat="47.28658" lon="-2.31323">
        <ele>-65</ele>
        <time>2021-07-04T09:16:54.000Z</time>
      </trkpt>
      <trkpt lat="47.28664" lon="-2.31344">
        <ele>-65</ele>
        <time>2021-07-04T09:16:57.000Z</time>
      </trkpt>
      <trkpt lat="47.28669" lon="-2.31356">
        <ele>-65</ele>
        <time>2021-07-04T09:16:59.000Z</time>
      </trkpt>
      <trkpt lat="47.28689" lon="-2.31401">
        <ele>-65</ele>
        <time>2021-07-04T09:17:06.000Z</time>
      </trkpt>
      <trkpt lat="47.28691" lon="-2.31408">
        <ele>-65</ele>
        <time>2021-07-04T09:17:07.000Z</time>
      </trkpt>
      <trkpt lat="47.28689" lon="-2.31423">
        <ele>-65</ele>
        <time>2021-07-04T09:17:09.000Z</time>
      </trkpt>
      <trkpt lat="47.2868" lon="-2.31441">
        <ele>-65</ele>
        <time>2021-07-04T09:17:12.000Z</time>
      </trkpt>
      <trkpt lat="47.28676" lon="-2.31446">
        <ele>-65</ele>
        <time>2021-07-04T09:17:13.000Z</time>
      </trkpt>
      <trkpt lat="47.28661" lon="-2.31454">
        <ele>-65</ele>
        <time>2021-07-04T09:17:16.000Z</time>
      </trkpt>
      <trkpt lat="47.28656" lon="-2.31456">
        <ele>-65</ele>
        <time>2021-07-04T09:17:17.000Z</time>
      </trkpt>
      <trkpt lat="47.28642" lon="-2.31463">
        <ele>-65.400001525879</ele>
        <time>2021-07-04T09:17:20.000Z</time>
      </trkpt>
      <trkpt lat="47.28637" lon="-2.31466">
        <ele>-65.800003051758</ele>
        <time>2021-07-04T09:17:21.000Z</time>
      </trkpt>
      <trkpt lat="47.28632" lon="-2.31469">
        <ele>-66.199996948242</ele>
        <time>2021-07-04T09:17:22.000Z</time>
      </trkpt>
      <trkpt lat="47.28627" lon="-2.31471">
        <ele>-66.599998474121</ele>
        <time>2021-07-04T09:17:23.000Z</time>
      </trkpt>
      <trkpt lat="47.28622" lon="-2.31474">
        <ele>-67</ele>
        <time>2021-07-04T09:17:24.000Z</time>
      </trkpt>
      <trkpt lat="47.28576" lon="-2.31494">
        <ele>-67</ele>
        <time>2021-07-04T09:17:32.000Z</time>
      </trkpt>
      <trkpt lat="47.28564" lon="-2.31497">
        <ele>-67.400001525879</ele>
        <time>2021-07-04T09:17:34.000Z</time>
      </trkpt>
      <trkpt lat="47.28558" lon="-2.31499">
        <ele>-67.800003051758</ele>
        <time>2021-07-04T09:17:35.000Z</time>
      </trkpt>
      <trkpt lat="47.28551" lon="-2.315">
        <ele>-68.400001525879</ele>
        <time>2021-07-04T09:17:36.000Z</time>
      </trkpt>
      <trkpt lat="47.28545" lon="-2.31502">
        <ele>-68.800003051758</ele>
        <time>2021-07-04T09:17:37.000Z</time>
      </trkpt>
      <trkpt lat="47.28538" lon="-2.31503">
        <ele>-69.199996948242</ele>
        <time>2021-07-04T09:17:38.000Z</time>
      </trkpt>
      <trkpt lat="47.28525" lon="-2.31506">
        <ele>-69.199996948242</ele>
        <time>2021-07-04T09:17:40.000Z</time>
      </trkpt>
      <trkpt lat="47.28507" lon="-2.31509">
        <ele>-70</ele>
        <time>2021-07-04T09:17:43.000Z</time>
      </trkpt>
      <trkpt lat="47.28501" lon="-2.3151">
        <ele>-70.400001525879</ele>
        <time>2021-07-04T09:17:44.000Z</time>
      </trkpt>
      <trkpt lat="47.28495" lon="-2.31511">
        <ele>-70.800003051758</ele>
        <time>2021-07-04T09:17:45.000Z</time>
      </trkpt>
      <trkpt lat="47.2849" lon="-2.31512">
        <ele>-71.199996948242</ele>
        <time>2021-07-04T09:17:46.000Z</time>
      </trkpt>
      <trkpt lat="47.28484" lon="-2.31513">
        <ele>-71.599998474121</ele>
        <time>2021-07-04T09:17:47.000Z</time>
      </trkpt>
      <trkpt lat="47.28478" lon="-2.31514">
        <ele>-72.199996948242</ele>
        <time>2021-07-04T09:17:48.000Z</time>
      </trkpt>
      <trkpt lat="47.28472" lon="-2.31516">
        <ele>-72.599998474121</ele>
        <time>2021-07-04T09:17:49.000Z</time>
      </trkpt>
      <trkpt lat="47.28467" lon="-2.31517">
        <ele>-73</ele>
        <time>2021-07-04T09:17:50.000Z</time>
      </trkpt>
      <trkpt lat="47.28461" lon="-2.3152">
        <ele>-73.599998474121</ele>
        <time>2021-07-04T09:17:51.000Z</time>
      </trkpt>
      <trkpt lat="47.2845" lon="-2.31526">
        <ele>-73.599998474121</ele>
        <time>2021-07-04T09:17:53.000Z</time>
      </trkpt>
      <trkpt lat="47.28445" lon="-2.3153">
        <ele>-73.599998474121</ele>
        <time>2021-07-04T09:17:54.000Z</time>
      </trkpt>
      <trkpt lat="47.28436" lon="-2.3154">
        <ele>-74</ele>
        <time>2021-07-04T09:17:56.000Z</time>
      </trkpt>
      <trkpt lat="47.28431" lon="-2.31545">
        <ele>-74.599998474121</ele>
        <time>2021-07-04T09:17:57.000Z</time>
      </trkpt>
      <trkpt lat="47.28426" lon="-2.3155">
        <ele>-75</ele>
        <time>2021-07-04T09:17:58.000Z</time>
      </trkpt>
      <trkpt lat="47.2842" lon="-2.31555">
        <ele>-75.400001525879</ele>
        <time>2021-07-04T09:17:59.000Z</time>
      </trkpt>
      <trkpt lat="47.28415" lon="-2.31559">
        <ele>-76</ele>
        <time>2021-07-04T09:18:00.000Z</time>
      </trkpt>
      <trkpt lat="47.28404" lon="-2.31565">
        <ele>-76.400001525879</ele>
        <time>2021-07-04T09:18:02.000Z</time>
      </trkpt>
      <trkpt lat="47.28399" lon="-2.31567">
        <ele>-76.800003051758</ele>
        <time>2021-07-04T09:18:03.000Z</time>
      </trkpt>
      <trkpt lat="47.28393" lon="-2.31569">
        <ele>-77.199996948242</ele>
        <time>2021-07-04T09:18:04.000Z</time>
      </trkpt>
      <trkpt lat="47.28388" lon="-2.31571">
        <ele>-77.599998474121</ele>
        <time>2021-07-04T09:18:05.000Z</time>
      </trkpt>
      <trkpt lat="47.28382" lon="-2.31573">
        <ele>-78</ele>
        <time>2021-07-04T09:18:06.000Z</time>
      </trkpt>
      <trkpt lat="47.28377" lon="-2.31575">
        <ele>-78.400001525879</ele>
        <time>2021-07-04T09:18:07.000Z</time>
      </trkpt>
      <trkpt lat="47.28372" lon="-2.31576">
        <ele>-78.800003051758</ele>
        <time>2021-07-04T09:18:08.000Z</time>
      </trkpt>
      <trkpt lat="47.28366" lon="-2.31578">
        <ele>-79.400001525879</ele>
        <time>2021-07-04T09:18:09.000Z</time>
      </trkpt>
      <trkpt lat="47.28361" lon="-2.3158">
        <ele>-79.800003051758</ele>
        <time>2021-07-04T09:18:10.000Z</time>
      </trkpt>
      <trkpt lat="47.28356" lon="-2.31582">
        <ele>-80.199996948242</ele>
        <time>2021-07-04T09:18:11.000Z</time>
      </trkpt>
      <trkpt lat="47.28341" lon="-2.31587">
        <ele>-80.199996948242</ele>
        <time>2021-07-04T09:18:14.000Z</time>
      </trkpt>
      <trkpt lat="47.28333" lon="-2.3159">
        <ele>-80.599998474121</ele>
        <time>2021-07-04T09:18:16.000Z</time>
      </trkpt>
      <trkpt lat="47.28331" lon="-2.31591">
        <ele>-81</ele>
        <time>2021-07-04T09:18:17.000Z</time>
      </trkpt>
      <trkpt lat="47.28329" lon="-2.31592">
        <ele>-81.599998474121</ele>
        <time>2021-07-04T09:18:18.000Z</time>
      </trkpt>
      <trkpt lat="47.28327" lon="-2.31592">
        <ele>-82</ele>
        <time>2021-07-04T09:18:19.000Z</time>
      </trkpt>
      <trkpt lat="47.28327" lon="-2.31592">
        <ele>-82.400001525879</ele>
        <time>2021-07-04T09:18:20.000Z</time>
      </trkpt>
      <trkpt lat="47.28328" lon="-2.31592">
        <ele>-82.400001525879</ele>
        <time>2021-07-04T09:18:21.000Z</time>
      </trkpt>
      <trkpt lat="47.28325" lon="-2.31593">
        <ele>-86.800003051758</ele>
        <time>2021-07-04T09:18:33.000Z</time>
      </trkpt>
      <trkpt lat="47.28321" lon="-2.31596">
        <ele>-87.199996948242</ele>
        <time>2021-07-04T09:18:35.000Z</time>
      </trkpt>
      <trkpt lat="47.28319" lon="-2.31597">
        <ele>-87.800003051758</ele>
        <time>2021-07-04T09:18:36.000Z</time>
      </trkpt>
      <trkpt lat="47.28316" lon="-2.31597">
        <ele>-88.199996948242</ele>
        <time>2021-07-04T09:18:37.000Z</time>
      </trkpt>
      <trkpt lat="47.28312" lon="-2.31597">
        <ele>-88.599998474121</ele>
        <time>2021-07-04T09:18:38.000Z</time>
      </trkpt>
      <trkpt lat="47.28308" lon="-2.31596">
        <ele>-89.199996948242</ele>
        <time>2021-07-04T09:18:39.000Z</time>
      </trkpt>
      <trkpt lat="47.28299" lon="-2.31594">
        <ele>-89.199996948242</ele>
        <time>2021-07-04T09:18:41.000Z</time>
      </trkpt>
      <trkpt lat="47.28276" lon="-2.316">
        <ele>-89.199996948242</ele>
        <time>2021-07-04T09:18:46.000Z</time>
      </trkpt>
      <trkpt lat="47.28271" lon="-2.31602">
        <ele>-89.599998474121</ele>
        <time>2021-07-04T09:18:47.000Z</time>
      </trkpt>
      <trkpt lat="47.28267" lon="-2.31604">
        <ele>-90</ele>
        <time>2021-07-04T09:18:48.000Z</time>
      </trkpt>
      <trkpt lat="47.28262" lon="-2.31606">
        <ele>-90.400001525879</ele>
        <time>2021-07-04T09:18:49.000Z</time>
      </trkpt>
      <trkpt lat="47.28257" lon="-2.31607">
        <ele>-90.800003051758</ele>
        <time>2021-07-04T09:18:50.000Z</time>
      </trkpt>
      <trkpt lat="47.28251" lon="-2.31609">
        <ele>-91.199996948242</ele>
        <time>2021-07-04T09:18:51.000Z</time>
      </trkpt>
      <trkpt lat="47.2824" lon="-2.31611">
        <ele>-91.199996948242</ele>
        <time>2021-07-04T09:18:53.000Z</time>
      </trkpt>
      <trkpt lat="47.2823" lon="-2.31614">
        <ele>-91.599998474121</ele>
        <time>2021-07-04T09:18:55.000Z</time>
      </trkpt>
      <trkpt lat="47.28224" lon="-2.31615">
        <ele>-92</ele>
        <time>2021-07-04T09:18:56.000Z</time>
      </trkpt>
      <trkpt lat="47.28219" lon="-2.31616">
        <ele>-92.400001525879</ele>
        <time>2021-07-04T09:18:57.000Z</time>
      </trkpt>
      <trkpt lat="47.28214" lon="-2.31618">
        <ele>-92.800003051758</ele>
        <time>2021-07-04T09:18:58.000Z</time>
      </trkpt>
      <trkpt lat="47.28208" lon="-2.3162">
        <ele>-93.199996948242</ele>
        <time>2021-07-04T09:18:59.000Z</time>
      </trkpt>
      <trkpt lat="47.28197" lon="-2.31622">
        <ele>-93.199996948242</ele>
        <time>2021-07-04T09:19:01.000Z</time>
      </trkpt>
      <trkpt lat="47.28184" lon="-2.31624">
        <ele>-93.199996948242</ele>
        <time>2021-07-04T09:19:03.000Z</time>
      </trkpt>
      <trkpt lat="47.28166" lon="-2.31626">
        <ele>-93.199996948242</ele>
        <time>2021-07-04T09:19:06.000Z</time>
      </trkpt>
      <trkpt lat="47.28137" lon="-2.31628">
        <ele>-93.599998474121</ele>
        <time>2021-07-04T09:19:11.000Z</time>
      </trkpt>
      <trkpt lat="47.28131" lon="-2.31628">
        <ele>-94</ele>
        <time>2021-07-04T09:19:12.000Z</time>
      </trkpt>
      <trkpt lat="47.28125" lon="-2.31629">
        <ele>-94.400001525879</ele>
        <time>2021-07-04T09:19:13.000Z</time>
      </trkpt>
      <trkpt lat="47.28119" lon="-2.31629">
        <ele>-95</ele>
        <time>2021-07-04T09:19:14.000Z</time>
      </trkpt>
      <trkpt lat="47.28113" lon="-2.3163">
        <ele>-95.400001525879</ele>
        <time>2021-07-04T09:19:15.000Z</time>
      </trkpt>
      <trkpt lat="47.28089" lon="-2.3163">
        <ele>-95.400001525879</ele>
        <time>2021-07-04T09:19:19.000Z</time>
      </trkpt>
      <trkpt lat="47.28046" lon="-2.31632">
        <ele>-95.400001525879</ele>
        <time>2021-07-04T09:19:26.000Z</time>
      </trkpt>
      <trkpt lat="47.2801" lon="-2.31646">
        <ele>-95.400001525879</ele>
        <time>2021-07-04T09:19:32.000Z</time>
      </trkpt>
      <trkpt lat="47.27987" lon="-2.31658">
        <ele>-95</ele>
        <time>2021-07-04T09:19:36.000Z</time>
      </trkpt>
      <trkpt lat="47.27982" lon="-2.31661">
        <ele>-94.400001525879</ele>
        <time>2021-07-04T09:19:37.000Z</time>
      </trkpt>
      <trkpt lat="47.27976" lon="-2.31664">
        <ele>-94</ele>
        <time>2021-07-04T09:19:38.000Z</time>
      </trkpt>
      <trkpt lat="47.27971" lon="-2.31668">
        <ele>-93.599998474121</ele>
        <time>2021-07-04T09:19:39.000Z</time>
      </trkpt>
      <trkpt lat="47.27966" lon="-2.31671">
        <ele>-93.199996948242</ele>
        <time>2021-07-04T09:19:40.000Z</time>
      </trkpt>
      <trkpt lat="47.27929" lon="-2.317">
        <ele>-93.199996948242</ele>
        <time>2021-07-04T09:19:47.000Z</time>
      </trkpt>
      <trkpt lat="47.27909" lon="-2.31717">
        <ele>-92.800003051758</ele>
        <time>2021-07-04T09:19:51.000Z</time>
      </trkpt>
      <trkpt lat="47.27905" lon="-2.31721">
        <ele>-92.400001525879</ele>
        <time>2021-07-04T09:19:52.000Z</time>
      </trkpt>
      <trkpt lat="47.27899" lon="-2.31724">
        <ele>-92</ele>
        <time>2021-07-04T09:19:53.000Z</time>
      </trkpt>
      <trkpt lat="47.27895" lon="-2.31726">
        <ele>-91.599998474121</ele>
        <time>2021-07-04T09:19:54.000Z</time>
      </trkpt>
      <trkpt lat="47.2789" lon="-2.31729">
        <ele>-91</ele>
        <time>2021-07-04T09:19:55.000Z</time>
      </trkpt>
      <trkpt lat="47.27877" lon="-2.31741">
        <ele>-91</ele>
        <time>2021-07-04T09:19:58.000Z</time>
      </trkpt>
      <trkpt lat="47.2787" lon="-2.31754">
        <ele>-91</ele>
        <time>2021-07-04T09:20:00.000Z</time>
      </trkpt>
      <trkpt lat="47.27869" lon="-2.31781">
        <ele>-91</ele>
        <time>2021-07-04T09:20:03.000Z</time>
      </trkpt>
      <trkpt lat="47.2787" lon="-2.31789">
        <ele>-91</ele>
        <time>2021-07-04T09:20:04.000Z</time>
      </trkpt>
      <trkpt lat="47.27874" lon="-2.31822">
        <ele>-90.599998474121</ele>
        <time>2021-07-04T09:20:08.000Z</time>
      </trkpt>
      <trkpt lat="47.27875" lon="-2.3183">
        <ele>-90.199996948242</ele>
        <time>2021-07-04T09:20:09.000Z</time>
      </trkpt>
      <trkpt lat="47.27876" lon="-2.31838">
        <ele>-89.400001525879</ele>
        <time>2021-07-04T09:20:10.000Z</time>
      </trkpt>
      <trkpt lat="47.27877" lon="-2.31846">
        <ele>-89</ele>
        <time>2021-07-04T09:20:11.000Z</time>
      </trkpt>
      <trkpt lat="47.27879" lon="-2.31892">
        <ele>-89</ele>
        <time>2021-07-04T09:20:17.000Z</time>
      </trkpt>
      <trkpt lat="47.27877" lon="-2.31908">
        <ele>-88.599998474121</ele>
        <time>2021-07-04T09:20:19.000Z</time>
      </trkpt>
      <trkpt lat="47.27876" lon="-2.31916">
        <ele>-88.199996948242</ele>
        <time>2021-07-04T09:20:20.000Z</time>
      </trkpt>
      <trkpt lat="47.27874" lon="-2.31924">
        <ele>-87.800003051758</ele>
        <time>2021-07-04T09:20:21.000Z</time>
      </trkpt>
      <trkpt lat="47.27871" lon="-2.31931">
        <ele>-87.400001525879</ele>
        <time>2021-07-04T09:20:22.000Z</time>
      </trkpt>
      <trkpt lat="47.27869" lon="-2.31939">
        <ele>-87</ele>
        <time>2021-07-04T09:20:23.000Z</time>
      </trkpt>
      <trkpt lat="47.27862" lon="-2.31952">
        <ele>-87</ele>
        <time>2021-07-04T09:20:25.000Z</time>
      </trkpt>
      <trkpt lat="47.27854" lon="-2.31961">
        <ele>-87</ele>
        <time>2021-07-04T09:20:27.000Z</time>
      </trkpt>
      <trkpt lat="47.27838" lon="-2.31967">
        <ele>-87</ele>
        <time>2021-07-04T09:20:30.000Z</time>
      </trkpt>
      <trkpt lat="47.27833" lon="-2.3197">
        <ele>-87</ele>
        <time>2021-07-04T09:20:31.000Z</time>
      </trkpt>
      <trkpt lat="47.27828" lon="-2.31974">
        <ele>-87</ele>
        <time>2021-07-04T09:20:32.000Z</time>
      </trkpt>
      <trkpt lat="47.27815" lon="-2.31993">
        <ele>-87</ele>
        <time>2021-07-04T09:20:35.000Z</time>
      </trkpt>
      <trkpt lat="47.27808" lon="-2.32008">
        <ele>-87</ele>
        <time>2021-07-04T09:20:37.000Z</time>
      </trkpt>
      <trkpt lat="47.27793" lon="-2.3204">
        <ele>-87</ele>
        <time>2021-07-04T09:20:41.000Z</time>
      </trkpt>
      <trkpt lat="47.2778" lon="-2.32064">
        <ele>-86.599998474121</ele>
        <time>2021-07-04T09:20:44.000Z</time>
      </trkpt>
      <trkpt lat="47.27774" lon="-2.3207">
        <ele>-86.199996948242</ele>
        <time>2021-07-04T09:20:45.000Z</time>
      </trkpt>
      <trkpt lat="47.27767" lon="-2.32074">
        <ele>-85.800003051758</ele>
        <time>2021-07-04T09:20:46.000Z</time>
      </trkpt>
      <trkpt lat="47.2776" lon="-2.32077">
        <ele>-85.400001525879</ele>
        <time>2021-07-04T09:20:47.000Z</time>
      </trkpt>
      <trkpt lat="47.27752" lon="-2.32078">
        <ele>-84.800003051758</ele>
        <time>2021-07-04T09:20:48.000Z</time>
      </trkpt>
      <trkpt lat="47.27745" lon="-2.32077">
        <ele>-84.800003051758</ele>
        <time>2021-07-04T09:20:49.000Z</time>
      </trkpt>
      <trkpt lat="47.27737" lon="-2.32076">
        <ele>-84.800003051758</ele>
        <time>2021-07-04T09:20:50.000Z</time>
      </trkpt>
      <trkpt lat="47.27698" lon="-2.32075">
        <ele>-84.800003051758</ele>
        <time>2021-07-04T09:20:55.000Z</time>
      </trkpt>
      <trkpt lat="47.2769" lon="-2.32078">
        <ele>-84.800003051758</ele>
        <time>2021-07-04T09:20:56.000Z</time>
      </trkpt>
      <trkpt lat="47.27673" lon="-2.321">
        <ele>-84.800003051758</ele>
        <time>2021-07-04T09:20:59.000Z</time>
      </trkpt>
      <trkpt lat="47.27668" lon="-2.32118">
        <ele>-84.800003051758</ele>
        <time>2021-07-04T09:21:01.000Z</time>
      </trkpt>
      <trkpt lat="47.27663" lon="-2.32134">
        <ele>-84.800003051758</ele>
        <time>2021-07-04T09:21:03.000Z</time>
      </trkpt>
      <trkpt lat="47.2765" lon="-2.32175">
        <ele>-84.800003051758</ele>
        <time>2021-07-04T09:21:09.000Z</time>
      </trkpt>
      <trkpt lat="47.27649" lon="-2.32182">
        <ele>-84.400001525879</ele>
        <time>2021-07-04T09:21:10.000Z</time>
      </trkpt>
      <trkpt lat="47.27647" lon="-2.32189">
        <ele>-84</ele>
        <time>2021-07-04T09:21:11.000Z</time>
      </trkpt>
      <trkpt lat="47.27645" lon="-2.32195">
        <ele>-83.599998474121</ele>
        <time>2021-07-04T09:21:12.000Z</time>
      </trkpt>
      <trkpt lat="47.27643" lon="-2.32202">
        <ele>-83.199996948242</ele>
        <time>2021-07-04T09:21:13.000Z</time>
      </trkpt>
      <trkpt lat="47.27641" lon="-2.32209">
        <ele>-82.800003051758</ele>
        <time>2021-07-04T09:21:14.000Z</time>
      </trkpt>
      <trkpt lat="47.27638" lon="-2.32222">
        <ele>-82.800003051758</ele>
        <time>2021-07-04T09:21:16.000Z</time>
      </trkpt>
      <trkpt lat="47.27621" lon="-2.32272">
        <ele>-82.800003051758</ele>
        <time>2021-07-04T09:21:24.000Z</time>
      </trkpt>
      <trkpt lat="47.27615" lon="-2.32285">
        <ele>-82.800003051758</ele>
        <time>2021-07-04T09:21:26.000Z</time>
      </trkpt>
      <trkpt lat="47.27606" lon="-2.32289">
        <ele>-82.800003051758</ele>
        <time>2021-07-04T09:21:28.000Z</time>
      </trkpt>
      <trkpt lat="47.27593" lon="-2.32278">
        <ele>-82.800003051758</ele>
        <time>2021-07-04T09:21:31.000Z</time>
      </trkpt>
      <trkpt lat="47.27588" lon="-2.32272">
        <ele>-82.800003051758</ele>
        <time>2021-07-04T09:21:32.000Z</time>
      </trkpt>
      <trkpt lat="47.2756" lon="-2.32246">
        <ele>-82.800003051758</ele>
        <time>2021-07-04T09:21:37.000Z</time>
      </trkpt>
      <trkpt lat="47.27521" lon="-2.32209">
        <ele>-82.800003051758</ele>
        <time>2021-07-04T09:21:43.000Z</time>
      </trkpt>
      <trkpt lat="47.27515" lon="-2.322">
        <ele>-82.800003051758</ele>
        <time>2021-07-04T09:21:44.000Z</time>
      </trkpt>
      <trkpt lat="47.2747" lon="-2.3214">
        <ele>-82.800003051758</ele>
        <time>2021-07-04T09:21:51.000Z</time>
      </trkpt>
      <trkpt lat="47.27431" lon="-2.32085">
        <ele>-82.800003051758</ele>
        <time>2021-07-04T09:21:58.000Z</time>
      </trkpt>
      <trkpt lat="47.27393" lon="-2.32045">
        <ele>-82.800003051758</ele>
        <time>2021-07-04T09:22:04.000Z</time>
      </trkpt>
      <trkpt lat="47.27343" lon="-2.31994">
        <ele>-82.800003051758</ele>
        <time>2021-07-04T09:22:11.000Z</time>
      </trkpt>
      <trkpt lat="47.27307" lon="-2.31956">
        <ele>-82.800003051758</ele>
        <time>2021-07-04T09:22:17.000Z</time>
      </trkpt>
      <trkpt lat="47.27288" lon="-2.31942">
        <ele>-82.800003051758</ele>
        <time>2021-07-04T09:22:21.000Z</time>
      </trkpt>
      <trkpt lat="47.27284" lon="-2.3194">
        <ele>-82.800003051758</ele>
        <time>2021-07-04T09:22:22.000Z</time>
      </trkpt>
      <trkpt lat="47.27261" lon="-2.31932">
        <ele>-82.800003051758</ele>
        <time>2021-07-04T09:22:27.000Z</time>
      </trkpt>
      <trkpt lat="47.27249" lon="-2.31928">
        <ele>-82.800003051758</ele>
        <time>2021-07-04T09:22:29.000Z</time>
      </trkpt>
      <trkpt lat="47.27238" lon="-2.31924">
        <ele>-82.800003051758</ele>
        <time>2021-07-04T09:22:31.000Z</time>
      </trkpt>
      <trkpt lat="47.27233" lon="-2.31922">
        <ele>-82.800003051758</ele>
        <time>2021-07-04T09:22:32.000Z</time>
      </trkpt>
      <trkpt lat="47.27219" lon="-2.3192">
        <ele>-82.400001525879</ele>
        <time>2021-07-04T09:22:35.000Z</time>
      </trkpt>
      <trkpt lat="47.27215" lon="-2.31923">
        <ele>-82</ele>
        <time>2021-07-04T09:22:36.000Z</time>
      </trkpt>
      <trkpt lat="47.27212" lon="-2.31928">
        <ele>-81.599998474121</ele>
        <time>2021-07-04T09:22:37.000Z</time>
      </trkpt>
      <trkpt lat="47.27209" lon="-2.31933">
        <ele>-80.800003051758</ele>
        <time>2021-07-04T09:22:38.000Z</time>
      </trkpt>
      <trkpt lat="47.27206" lon="-2.31939">
        <ele>-80.800003051758</ele>
        <time>2021-07-04T09:22:39.000Z</time>
      </trkpt>
      <trkpt lat="47.27203" lon="-2.31945">
        <ele>-80.800003051758</ele>
        <time>2021-07-04T09:22:40.000Z</time>
      </trkpt>
      <trkpt lat="47.272" lon="-2.31951">
        <ele>-80.800003051758</ele>
        <time>2021-07-04T09:22:41.000Z</time>
      </trkpt>
      <trkpt lat="47.27181" lon="-2.31973">
        <ele>-80.800003051758</ele>
        <time>2021-07-04T09:22:45.000Z</time>
      </trkpt>
      <trkpt lat="47.27173" lon="-2.31984">
        <ele>-80.400001525879</ele>
        <time>2021-07-04T09:22:47.000Z</time>
      </trkpt>
      <trkpt lat="47.27169" lon="-2.3199">
        <ele>-80</ele>
        <time>2021-07-04T09:22:48.000Z</time>
      </trkpt>
      <trkpt lat="47.27165" lon="-2.31994">
        <ele>-79.599998474121</ele>
        <time>2021-07-04T09:22:49.000Z</time>
      </trkpt>
      <trkpt lat="47.27161" lon="-2.31995">
        <ele>-79.199996948242</ele>
        <time>2021-07-04T09:22:50.000Z</time>
      </trkpt>
      <trkpt lat="47.27159" lon="-2.31996">
        <ele>-78.800003051758</ele>
        <time>2021-07-04T09:22:51.000Z</time>
      </trkpt>
      <trkpt lat="47.27156" lon="-2.31994">
        <ele>-78.800003051758</ele>
        <time>2021-07-04T09:22:53.000Z</time>
      </trkpt>
      <trkpt lat="47.27152" lon="-2.31989">
        <ele>-78.800003051758</ele>
        <time>2021-07-04T09:22:55.000Z</time>
      </trkpt>
      <trkpt lat="47.27144" lon="-2.31984">
        <ele>-78.199996948242</ele>
        <time>2021-07-04T09:22:58.000Z</time>
      </trkpt>
      <trkpt lat="47.27141" lon="-2.31982">
        <ele>-77.800003051758</ele>
        <time>2021-07-04T09:22:59.000Z</time>
      </trkpt>
      <trkpt lat="47.27138" lon="-2.31981">
        <ele>-77.400001525879</ele>
        <time>2021-07-04T09:23:00.000Z</time>
      </trkpt>
      <trkpt lat="47.27133" lon="-2.31978">
        <ele>-77</ele>
        <time>2021-07-04T09:23:01.000Z</time>
      </trkpt>
      <trkpt lat="47.27128" lon="-2.31975">
        <ele>-76.599998474121</ele>
        <time>2021-07-04T09:23:02.000Z</time>
      </trkpt>
      <trkpt lat="47.27122" lon="-2.31972">
        <ele>-76.599998474121</ele>
        <time>2021-07-04T09:23:03.000Z</time>
      </trkpt>
      <trkpt lat="47.27116" lon="-2.31971">
        <ele>-76.599998474121</ele>
        <time>2021-07-04T09:23:04.000Z</time>
      </trkpt>
      <trkpt lat="47.27098" lon="-2.31969">
        <ele>-76.599998474121</ele>
        <time>2021-07-04T09:23:07.000Z</time>
      </trkpt>
      <trkpt lat="47.2707" lon="-2.31966">
        <ele>-76.199996948242</ele>
        <time>2021-07-04T09:23:12.000Z</time>
      </trkpt>
      <trkpt lat="47.27066" lon="-2.31966">
        <ele>-75.800003051758</ele>
        <time>2021-07-04T09:23:13.000Z</time>
      </trkpt>
      <trkpt lat="47.27061" lon="-2.31965">
        <ele>-75.400001525879</ele>
        <time>2021-07-04T09:23:14.000Z</time>
      </trkpt>
      <trkpt lat="47.27057" lon="-2.31965">
        <ele>-75</ele>
        <time>2021-07-04T09:23:15.000Z</time>
      </trkpt>
      <trkpt lat="47.27053" lon="-2.31965">
        <ele>-74.599998474121</ele>
        <time>2021-07-04T09:23:16.000Z</time>
      </trkpt>
      <trkpt lat="47.27044" lon="-2.31967">
        <ele>-74.599998474121</ele>
        <time>2021-07-04T09:23:18.000Z</time>
      </trkpt>
      <trkpt lat="47.2701" lon="-2.31983">
        <ele>-74.599998474121</ele>
        <time>2021-07-04T09:23:25.000Z</time>
      </trkpt>
      <trkpt lat="47.2701" lon="-2.31999">
        <ele>-74.599998474121</ele>
        <time>2021-07-04T09:23:28.000Z</time>
      </trkpt>
      <trkpt lat="47.27014" lon="-2.32013">
        <ele>-74.599998474121</ele>
        <time>2021-07-04T09:23:30.000Z</time>
      </trkpt>
      <trkpt lat="47.27018" lon="-2.32029">
        <ele>-74</ele>
        <time>2021-07-04T09:23:32.000Z</time>
      </trkpt>
      <trkpt lat="47.27021" lon="-2.32036">
        <ele>-73.599998474121</ele>
        <time>2021-07-04T09:23:33.000Z</time>
      </trkpt>
      <trkpt lat="47.27024" lon="-2.32045">
        <ele>-73.199996948242</ele>
        <time>2021-07-04T09:23:34.000Z</time>
      </trkpt>
      <trkpt lat="47.27026" lon="-2.32054">
        <ele>-72.800003051758</ele>
        <time>2021-07-04T09:23:35.000Z</time>
      </trkpt>
      <trkpt lat="47.27028" lon="-2.32062">
        <ele>-72.400001525879</ele>
        <time>2021-07-04T09:23:36.000Z</time>
      </trkpt>
      <trkpt lat="47.27029" lon="-2.3207">
        <ele>-72.400001525879</ele>
        <time>2021-07-04T09:23:37.000Z</time>
      </trkpt>
      <trkpt lat="47.2703" lon="-2.32076">
        <ele>-72.400001525879</ele>
        <time>2021-07-04T09:23:38.000Z</time>
      </trkpt>
      <trkpt lat="47.2703" lon="-2.32084">
        <ele>-72.400001525879</ele>
        <time>2021-07-04T09:23:39.000Z</time>
      </trkpt>
      <trkpt lat="47.27025" lon="-2.32106">
        <ele>-72.400001525879</ele>
        <time>2021-07-04T09:23:42.000Z</time>
      </trkpt>
      <trkpt lat="47.2701" lon="-2.32122">
        <ele>-72.400001525879</ele>
        <time>2021-07-04T09:23:45.000Z</time>
      </trkpt>
      <trkpt lat="47.27002" lon="-2.32136">
        <ele>-72.400001525879</ele>
        <time>2021-07-04T09:23:47.000Z</time>
      </trkpt>
      <trkpt lat="47.27003" lon="-2.32144">
        <ele>-72.400001525879</ele>
        <time>2021-07-04T09:23:48.000Z</time>
      </trkpt>
      <trkpt lat="47.27006" lon="-2.32151">
        <ele>-72</ele>
        <time>2021-07-04T09:23:49.000Z</time>
      </trkpt>
      <trkpt lat="47.27009" lon="-2.32158">
        <ele>-71.599998474121</ele>
        <time>2021-07-04T09:23:50.000Z</time>
      </trkpt>
      <trkpt lat="47.27012" lon="-2.32164">
        <ele>-71.199996948242</ele>
        <time>2021-07-04T09:23:51.000Z</time>
      </trkpt>
      <trkpt lat="47.27016" lon="-2.32171">
        <ele>-70.400001525879</ele>
        <time>2021-07-04T09:23:52.000Z</time>
      </trkpt>
      <trkpt lat="47.2702" lon="-2.32177">
        <ele>-70.400001525879</ele>
        <time>2021-07-04T09:23:53.000Z</time>
      </trkpt>
      <trkpt lat="47.2703" lon="-2.32199">
        <ele>-70.400001525879</ele>
        <time>2021-07-04T09:23:56.000Z</time>
      </trkpt>
      <trkpt lat="47.27032" lon="-2.32205">
        <ele>-70.400001525879</ele>
        <time>2021-07-04T09:23:57.000Z</time>
      </trkpt>
      <trkpt lat="47.27046" lon="-2.32252">
        <ele>-70.400001525879</ele>
        <time>2021-07-04T09:24:04.000Z</time>
      </trkpt>
      <trkpt lat="47.27047" lon="-2.32261">
        <ele>-70.400001525879</ele>
        <time>2021-07-04T09:24:05.000Z</time>
      </trkpt>
      <trkpt lat="47.27047" lon="-2.32269">
        <ele>-70</ele>
        <time>2021-07-04T09:24:06.000Z</time>
      </trkpt>
      <trkpt lat="47.27047" lon="-2.32278">
        <ele>-69.599998474121</ele>
        <time>2021-07-04T09:24:07.000Z</time>
      </trkpt>
      <trkpt lat="47.27047" lon="-2.32287">
        <ele>-69.199996948242</ele>
        <time>2021-07-04T09:24:08.000Z</time>
      </trkpt>
      <trkpt lat="47.27049" lon="-2.32295">
        <ele>-68.800003051758</ele>
        <time>2021-07-04T09:24:09.000Z</time>
      </trkpt>
      <trkpt lat="47.27049" lon="-2.32302">
        <ele>-68.199996948242</ele>
        <time>2021-07-04T09:24:10.000Z</time>
      </trkpt>
      <trkpt lat="47.27049" lon="-2.3231">
        <ele>-68.199996948242</ele>
        <time>2021-07-04T09:24:11.000Z</time>
      </trkpt>
      <trkpt lat="47.27048" lon="-2.32361">
        <ele>-68.199996948242</ele>
        <time>2021-07-04T09:24:17.000Z</time>
      </trkpt>
      <trkpt lat="47.27048" lon="-2.3237">
        <ele>-67.800003051758</ele>
        <time>2021-07-04T09:24:18.000Z</time>
      </trkpt>
      <trkpt lat="47.27047" lon="-2.32381">
        <ele>-67.400001525879</ele>
        <time>2021-07-04T09:24:19.000Z</time>
      </trkpt>
      <trkpt lat="47.27047" lon="-2.32391">
        <ele>-67</ele>
        <time>2021-07-04T09:24:20.000Z</time>
      </trkpt>
      <trkpt lat="47.27046" lon="-2.32403">
        <ele>-66.599998474121</ele>
        <time>2021-07-04T09:24:21.000Z</time>
      </trkpt>
      <trkpt lat="47.27047" lon="-2.32414">
        <ele>-66.199996948242</ele>
        <time>2021-07-04T09:24:22.000Z</time>
      </trkpt>
      <trkpt lat="47.27046" lon="-2.32425">
        <ele>-66.199996948242</ele>
        <time>2021-07-04T09:24:23.000Z</time>
      </trkpt>
      <trkpt lat="47.27046" lon="-2.32464">
        <ele>-66.199996948242</ele>
        <time>2021-07-04T09:24:28.000Z</time>
      </trkpt>
      <trkpt lat="47.27043" lon="-2.32476">
        <ele>-66.199996948242</ele>
        <time>2021-07-04T09:24:30.000Z</time>
      </trkpt>
      <trkpt lat="47.27033" lon="-2.32485">
        <ele>-66.199996948242</ele>
        <time>2021-07-04T09:24:32.000Z</time>
      </trkpt>
      <trkpt lat="47.27018" lon="-2.32493">
        <ele>-66.199996948242</ele>
        <time>2021-07-04T09:24:35.000Z</time>
      </trkpt>
      <trkpt lat="47.27013" lon="-2.32494">
        <ele>-66.199996948242</ele>
        <time>2021-07-04T09:24:36.000Z</time>
      </trkpt>
      <trkpt lat="47.27005" lon="-2.32494">
        <ele>-65.800003051758</ele>
        <time>2021-07-04T09:24:38.000Z</time>
      </trkpt>
      <trkpt lat="47.27001" lon="-2.3249">
        <ele>-65.400001525879</ele>
        <time>2021-07-04T09:24:39.000Z</time>
      </trkpt>
      <trkpt lat="47.26998" lon="-2.32486">
        <ele>-65</ele>
        <time>2021-07-04T09:24:40.000Z</time>
      </trkpt>
      <trkpt lat="47.26996" lon="-2.32482">
        <ele>-64.599998474121</ele>
        <time>2021-07-04T09:24:41.000Z</time>
      </trkpt>
      <trkpt lat="47.26993" lon="-2.32476">
        <ele>-64.199996948242</ele>
        <time>2021-07-04T09:24:42.000Z</time>
      </trkpt>
      <trkpt lat="47.26985" lon="-2.32458">
        <ele>-64.199996948242</ele>
        <time>2021-07-04T09:24:45.000Z</time>
      </trkpt>
      <trkpt lat="47.2697" lon="-2.32438">
        <ele>-64.199996948242</ele>
        <time>2021-07-04T09:24:49.000Z</time>
      </trkpt>
      <trkpt lat="47.26963" lon="-2.32428">
        <ele>-64.199996948242</ele>
        <time>2021-07-04T09:24:51.000Z</time>
      </trkpt>
      <trkpt lat="47.26951" lon="-2.32405">
        <ele>-64.199996948242</ele>
        <time>2021-07-04T09:24:55.000Z</time>
      </trkpt>
      <trkpt lat="47.26947" lon="-2.32391">
        <ele>-64.199996948242</ele>
        <time>2021-07-04T09:24:57.000Z</time>
      </trkpt>
      <trkpt lat="47.26935" lon="-2.3235">
        <ele>-64.199996948242</ele>
        <time>2021-07-04T09:25:03.000Z</time>
      </trkpt>
      <trkpt lat="47.26932" lon="-2.32345">
        <ele>-64.199996948242</ele>
        <time>2021-07-04T09:25:04.000Z</time>
      </trkpt>
      <trkpt lat="47.26923" lon="-2.32332">
        <ele>-64.199996948242</ele>
        <time>2021-07-04T09:25:07.000Z</time>
      </trkpt>
      <trkpt lat="47.26912" lon="-2.32332">
        <ele>-64.199996948242</ele>
        <time>2021-07-04T09:25:10.000Z</time>
      </trkpt>
      <trkpt lat="47.26901" lon="-2.32337">
        <ele>-64.199996948242</ele>
        <time>2021-07-04T09:25:13.000Z</time>
      </trkpt>
      <trkpt lat="47.26893" lon="-2.32339">
        <ele>-64.199996948242</ele>
        <time>2021-07-04T09:25:15.000Z</time>
      </trkpt>
      <trkpt lat="47.26868" lon="-2.32346">
        <ele>-64.199996948242</ele>
        <time>2021-07-04T09:25:21.000Z</time>
      </trkpt>
      <trkpt lat="47.26847" lon="-2.32351">
        <ele>-64.199996948242</ele>
        <time>2021-07-04T09:25:26.000Z</time>
      </trkpt>
      <trkpt lat="47.26839" lon="-2.3235">
        <ele>-63.799999237061</ele>
        <time>2021-07-04T09:25:28.000Z</time>
      </trkpt>
      <trkpt lat="47.26834" lon="-2.32351">
        <ele>-63</ele>
        <time>2021-07-04T09:25:29.000Z</time>
      </trkpt>
      <trkpt lat="47.26826" lon="-2.32352">
        <ele>-62.200000762939</ele>
        <time>2021-07-04T09:25:31.000Z</time>
      </trkpt>
      <trkpt lat="47.26814" lon="-2.32354">
        <ele>-62.200000762939</ele>
        <time>2021-07-04T09:25:34.000Z</time>
      </trkpt>
      <trkpt lat="47.26791" lon="-2.32362">
        <ele>-62.200000762939</ele>
        <time>2021-07-04T09:25:40.000Z</time>
      </trkpt>
      <trkpt lat="47.26779" lon="-2.32377">
        <ele>-61.599998474121</ele>
        <time>2021-07-04T09:25:44.000Z</time>
      </trkpt>
      <trkpt lat="47.26779" lon="-2.32383">
        <ele>-61.200000762939</ele>
        <time>2021-07-04T09:25:45.000Z</time>
      </trkpt>
      <trkpt lat="47.2678" lon="-2.32389">
        <ele>-60.799999237061</ele>
        <time>2021-07-04T09:25:46.000Z</time>
      </trkpt>
      <trkpt lat="47.26781" lon="-2.32396">
        <ele>-60.400001525879</ele>
        <time>2021-07-04T09:25:47.000Z</time>
      </trkpt>
      <trkpt lat="47.26782" lon="-2.32402">
        <ele>-60</ele>
        <time>2021-07-04T09:25:48.000Z</time>
      </trkpt>
      <trkpt lat="47.26783" lon="-2.32408">
        <ele>-60</ele>
        <time>2021-07-04T09:25:49.000Z</time>
      </trkpt>
      <trkpt lat="47.26784" lon="-2.32415">
        <ele>-60</ele>
        <time>2021-07-04T09:25:50.000Z</time>
      </trkpt>
      <trkpt lat="47.26792" lon="-2.32461">
        <ele>-60</ele>
        <time>2021-07-04T09:25:56.000Z</time>
      </trkpt>
      <trkpt lat="47.26799" lon="-2.32522">
        <ele>-60</ele>
        <time>2021-07-04T09:26:03.000Z</time>
      </trkpt>
      <trkpt lat="47.26801" lon="-2.32567">
        <ele>-60</ele>
        <time>2021-07-04T09:26:08.000Z</time>
      </trkpt>
      <trkpt lat="47.26801" lon="-2.32576">
        <ele>-60</ele>
        <time>2021-07-04T09:26:09.000Z</time>
      </trkpt>
      <trkpt lat="47.26805" lon="-2.32601">
        <ele>-60</ele>
        <time>2021-07-04T09:26:12.000Z</time>
      </trkpt>
      <trkpt lat="47.26808" lon="-2.32616">
        <ele>-60</ele>
        <time>2021-07-04T09:26:14.000Z</time>
      </trkpt>
      <trkpt lat="47.26812" lon="-2.32662">
        <ele>-60</ele>
        <time>2021-07-04T09:26:20.000Z</time>
      </trkpt>
      <trkpt lat="47.26808" lon="-2.32669">
        <ele>-60</ele>
        <time>2021-07-04T09:26:21.000Z</time>
      </trkpt>
      <trkpt lat="47.26802" lon="-2.32689">
        <ele>-60</ele>
        <time>2021-07-04T09:26:24.000Z</time>
      </trkpt>
      <trkpt lat="47.26803" lon="-2.32698">
        <ele>-60</ele>
        <time>2021-07-04T09:26:25.000Z</time>
      </trkpt>
      <trkpt lat="47.26809" lon="-2.32712">
        <ele>-60</ele>
        <time>2021-07-04T09:26:27.000Z</time>
      </trkpt>
      <trkpt lat="47.26829" lon="-2.3276">
        <ele>-60</ele>
        <time>2021-07-04T09:26:33.000Z</time>
      </trkpt>
      <trkpt lat="47.26841" lon="-2.32803">
        <ele>-60</ele>
        <time>2021-07-04T09:26:37.000Z</time>
      </trkpt>
      <trkpt lat="47.26854" lon="-2.32842">
        <ele>-60</ele>
        <time>2021-07-04T09:26:41.000Z</time>
      </trkpt>
      <trkpt lat="47.26859" lon="-2.32858">
        <ele>-60</ele>
        <time>2021-07-04T09:26:43.000Z</time>
      </trkpt>
      <trkpt lat="47.26861" lon="-2.32865">
        <ele>-60</ele>
        <time>2021-07-04T09:26:44.000Z</time>
      </trkpt>
      <trkpt lat="47.26861" lon="-2.32876">
        <ele>-60</ele>
        <time>2021-07-04T09:26:46.000Z</time>
      </trkpt>
      <trkpt lat="47.26856" lon="-2.32882">
        <ele>-60</ele>
        <time>2021-07-04T09:26:48.000Z</time>
      </trkpt>
      <trkpt lat="47.26852" lon="-2.32883">
        <ele>-60</ele>
        <time>2021-07-04T09:26:49.000Z</time>
      </trkpt>
      <trkpt lat="47.26848" lon="-2.32883">
        <ele>-60</ele>
        <time>2021-07-04T09:26:50.000Z</time>
      </trkpt>
      <trkpt lat="47.26834" lon="-2.3289">
        <ele>-60</ele>
        <time>2021-07-04T09:26:53.000Z</time>
      </trkpt>
      <trkpt lat="47.26829" lon="-2.32893">
        <ele>-60</ele>
        <time>2021-07-04T09:26:54.000Z</time>
      </trkpt>
      <trkpt lat="47.26824" lon="-2.32898">
        <ele>-60</ele>
        <time>2021-07-04T09:26:55.000Z</time>
      </trkpt>
      <trkpt lat="47.26806" lon="-2.32916">
        <ele>-60</ele>
        <time>2021-07-04T09:26:59.000Z</time>
      </trkpt>
      <trkpt lat="47.26785" lon="-2.32931">
        <ele>-60</ele>
        <time>2021-07-04T09:27:03.000Z</time>
      </trkpt>
      <trkpt lat="47.26775" lon="-2.32942">
        <ele>-60</ele>
        <time>2021-07-04T09:27:05.000Z</time>
      </trkpt>
      <trkpt lat="47.26746" lon="-2.32977">
        <ele>-60</ele>
        <time>2021-07-04T09:27:11.000Z</time>
      </trkpt>
      <trkpt lat="47.26741" lon="-2.32984">
        <ele>-60</ele>
        <time>2021-07-04T09:27:12.000Z</time>
      </trkpt>
      <trkpt lat="47.26734" lon="-2.33008">
        <ele>-60</ele>
        <time>2021-07-04T09:27:15.000Z</time>
      </trkpt>
      <trkpt lat="47.26732" lon="-2.33041">
        <ele>-60</ele>
        <time>2021-07-04T09:27:19.000Z</time>
      </trkpt>
      <trkpt lat="47.26728" lon="-2.33056">
        <ele>-60</ele>
        <time>2021-07-04T09:27:21.000Z</time>
      </trkpt>
      <trkpt lat="47.26724" lon="-2.33064">
        <ele>-60</ele>
        <time>2021-07-04T09:27:22.000Z</time>
      </trkpt>
      <trkpt lat="47.26719" lon="-2.33071">
        <ele>-60</ele>
        <time>2021-07-04T09:27:23.000Z</time>
      </trkpt>
      <trkpt lat="47.2669" lon="-2.33105">
        <ele>-60</ele>
        <time>2021-07-04T09:27:29.000Z</time>
      </trkpt>
      <trkpt lat="47.2666" lon="-2.33131">
        <ele>-60</ele>
        <time>2021-07-04T09:27:35.000Z</time>
      </trkpt>
      <trkpt lat="47.26631" lon="-2.3315">
        <ele>-60</ele>
        <time>2021-07-04T09:27:41.000Z</time>
      </trkpt>
      <trkpt lat="47.26627" lon="-2.33152">
        <ele>-60</ele>
        <time>2021-07-04T09:27:42.000Z</time>
      </trkpt>
      <trkpt lat="47.26622" lon="-2.33151">
        <ele>-60</ele>
        <time>2021-07-04T09:27:43.000Z</time>
      </trkpt>
      <trkpt lat="47.26608" lon="-2.33155">
        <ele>-60</ele>
        <time>2021-07-04T09:27:46.000Z</time>
      </trkpt>
      <trkpt lat="47.26599" lon="-2.33169">
        <ele>-60</ele>
        <time>2021-07-04T09:27:49.000Z</time>
      </trkpt>
      <trkpt lat="47.26597" lon="-2.33175">
        <ele>-60</ele>
        <time>2021-07-04T09:27:50.000Z</time>
      </trkpt>
      <trkpt lat="47.26592" lon="-2.33188">
        <ele>-60</ele>
        <time>2021-07-04T09:27:53.000Z</time>
      </trkpt>
      <trkpt lat="47.26588" lon="-2.332">
        <ele>-60</ele>
        <time>2021-07-04T09:27:56.000Z</time>
      </trkpt>
      <trkpt lat="47.26586" lon="-2.33203">
        <ele>-60</ele>
        <time>2021-07-04T09:27:57.000Z</time>
      </trkpt>
      <trkpt lat="47.26565" lon="-2.33217">
        <ele>-60</ele>
        <time>2021-07-04T09:28:02.000Z</time>
      </trkpt>
      <trkpt lat="47.2654" lon="-2.33233">
        <ele>-60</ele>
        <time>2021-07-04T09:28:07.000Z</time>
      </trkpt>
      <trkpt lat="47.26532" lon="-2.33239">
        <ele>-60</ele>
        <time>2021-07-04T09:28:09.000Z</time>
      </trkpt>
      <trkpt lat="47.26516" lon="-2.33249">
        <ele>-60</ele>
        <time>2021-07-04T09:28:13.000Z</time>
      </trkpt>
      <trkpt lat="47.26503" lon="-2.33261">
        <ele>-60</ele>
        <time>2021-07-04T09:28:18.000Z</time>
      </trkpt>
      <trkpt lat="47.26493" lon="-2.33275">
        <ele>-60</ele>
        <time>2021-07-04T09:28:24.000Z</time>
      </trkpt>
      <trkpt lat="47.26491" lon="-2.33278">
        <ele>-60</ele>
        <time>2021-07-04T09:28:26.000Z</time>
      </trkpt>
      <trkpt lat="47.26489" lon="-2.33279">
        <ele>-60</ele>
        <time>2021-07-04T09:28:29.000Z</time>
      </trkpt>
      <trkpt lat="47.26486" lon="-2.33278">
        <ele>-77</ele>
        <time>2021-07-04T09:30:19.000Z</time>
      </trkpt>
      <trkpt lat="47.26484" lon="-2.33279">
        <ele>-77.400001525879</ele>
        <time>2021-07-04T09:30:20.000Z</time>
      </trkpt>
      <trkpt lat="47.26483" lon="-2.3328">
        <ele>-77.800003051758</ele>
        <time>2021-07-04T09:30:21.000Z</time>
      </trkpt>
      <trkpt lat="47.26482" lon="-2.33282">
        <ele>-78.199996948242</ele>
        <time>2021-07-04T09:30:22.000Z</time>
      </trkpt>
      <trkpt lat="47.2648" lon="-2.33285">
        <ele>-78.800003051758</ele>
        <time>2021-07-04T09:30:23.000Z</time>
      </trkpt>
      <trkpt lat="47.26479" lon="-2.33288">
        <ele>-79.199996948242</ele>
        <time>2021-07-04T09:30:24.000Z</time>
      </trkpt>
      <trkpt lat="47.26476" lon="-2.33294">
        <ele>-80</ele>
        <time>2021-07-04T09:30:26.000Z</time>
      </trkpt>
      <trkpt lat="47.26475" lon="-2.33297">
        <ele>-80.400001525879</ele>
        <time>2021-07-04T09:30:27.000Z</time>
      </trkpt>
      <trkpt lat="47.26474" lon="-2.33301">
        <ele>-80.800003051758</ele>
        <time>2021-07-04T09:30:28.000Z</time>
      </trkpt>
      <trkpt lat="47.26472" lon="-2.33304">
        <ele>-81.400001525879</ele>
        <time>2021-07-04T09:30:29.000Z</time>
      </trkpt>
      <trkpt lat="47.26463" lon="-2.33313">
        <ele>-81.800003051758</ele>
        <time>2021-07-04T09:30:32.000Z</time>
      </trkpt>
      <trkpt lat="47.2646" lon="-2.33316">
        <ele>-82.199996948242</ele>
        <time>2021-07-04T09:30:33.000Z</time>
      </trkpt>
      <trkpt lat="47.26457" lon="-2.33318">
        <ele>-82.599998474121</ele>
        <time>2021-07-04T09:30:34.000Z</time>
      </trkpt>
      <trkpt lat="47.26453" lon="-2.33321">
        <ele>-83</ele>
        <time>2021-07-04T09:30:35.000Z</time>
      </trkpt>
      <trkpt lat="47.2645" lon="-2.33323">
        <ele>-83.400001525879</ele>
        <time>2021-07-04T09:30:36.000Z</time>
      </trkpt>
      <trkpt lat="47.26443" lon="-2.33328">
        <ele>-83.800003051758</ele>
        <time>2021-07-04T09:30:38.000Z</time>
      </trkpt>
      <trkpt lat="47.26439" lon="-2.33331">
        <ele>-84.400001525879</ele>
        <time>2021-07-04T09:30:39.000Z</time>
      </trkpt>
      <trkpt lat="47.26436" lon="-2.33334">
        <ele>-84.800003051758</ele>
        <time>2021-07-04T09:30:40.000Z</time>
      </trkpt>
      <trkpt lat="47.26432" lon="-2.33337">
        <ele>-85.199996948242</ele>
        <time>2021-07-04T09:30:41.000Z</time>
      </trkpt>
      <trkpt lat="47.26428" lon="-2.3334">
        <ele>-85.599998474121</ele>
        <time>2021-07-04T09:30:42.000Z</time>
      </trkpt>
      <trkpt lat="47.26413" lon="-2.3335">
        <ele>-86.199996948242</ele>
        <time>2021-07-04T09:30:46.000Z</time>
      </trkpt>
      <trkpt lat="47.26409" lon="-2.33353">
        <ele>-86.599998474121</ele>
        <time>2021-07-04T09:30:47.000Z</time>
      </trkpt>
      <trkpt lat="47.26406" lon="-2.33355">
        <ele>-87</ele>
        <time>2021-07-04T09:30:48.000Z</time>
      </trkpt>
      <trkpt lat="47.26402" lon="-2.33358">
        <ele>-87.400001525879</ele>
        <time>2021-07-04T09:30:49.000Z</time>
      </trkpt>
      <trkpt lat="47.26399" lon="-2.3336">
        <ele>-88</ele>
        <time>2021-07-04T09:30:50.000Z</time>
      </trkpt>
      <trkpt lat="47.26392" lon="-2.33365">
        <ele>-88.400001525879</ele>
        <time>2021-07-04T09:30:52.000Z</time>
      </trkpt>
      <trkpt lat="47.26388" lon="-2.33367">
        <ele>-88.800003051758</ele>
        <time>2021-07-04T09:30:53.000Z</time>
      </trkpt>
      <trkpt lat="47.26384" lon="-2.3337">
        <ele>-89.199996948242</ele>
        <time>2021-07-04T09:30:54.000Z</time>
      </trkpt>
      <trkpt lat="47.2638" lon="-2.33372">
        <ele>-89.599998474121</ele>
        <time>2021-07-04T09:30:55.000Z</time>
      </trkpt>
      <trkpt lat="47.26376" lon="-2.33375">
        <ele>-90.199996948242</ele>
        <time>2021-07-04T09:30:56.000Z</time>
      </trkpt>
      <trkpt lat="47.26371" lon="-2.33378">
        <ele>-90.599998474121</ele>
        <time>2021-07-04T09:30:57.000Z</time>
      </trkpt>
      <trkpt lat="47.26367" lon="-2.3338">
        <ele>-91</ele>
        <time>2021-07-04T09:30:58.000Z</time>
      </trkpt>
      <trkpt lat="47.26363" lon="-2.33382">
        <ele>-91.400001525879</ele>
        <time>2021-07-04T09:30:59.000Z</time>
      </trkpt>
      <trkpt lat="47.26359" lon="-2.33384">
        <ele>-91.800003051758</ele>
        <time>2021-07-04T09:31:00.000Z</time>
      </trkpt>
      <trkpt lat="47.26355" lon="-2.33386">
        <ele>-92.199996948242</ele>
        <time>2021-07-04T09:31:01.000Z</time>
      </trkpt>
      <trkpt lat="47.26346" lon="-2.33391">
        <ele>-92.599998474121</ele>
        <time>2021-07-04T09:31:03.000Z</time>
      </trkpt>
      <trkpt lat="47.26341" lon="-2.33392">
        <ele>-93</ele>
        <time>2021-07-04T09:31:04.000Z</time>
      </trkpt>
      <trkpt lat="47.26337" lon="-2.33394">
        <ele>-93.400001525879</ele>
        <time>2021-07-04T09:31:05.000Z</time>
      </trkpt>
      <trkpt lat="47.26332" lon="-2.33397">
        <ele>-93.800003051758</ele>
        <time>2021-07-04T09:31:06.000Z</time>
      </trkpt>
      <trkpt lat="47.26328" lon="-2.334">
        <ele>-94.199996948242</ele>
        <time>2021-07-04T09:31:07.000Z</time>
      </trkpt>
      <trkpt lat="47.26319" lon="-2.33406">
        <ele>-94.199996948242</ele>
        <time>2021-07-04T09:31:09.000Z</time>
      </trkpt>
      <trkpt lat="47.26316" lon="-2.3341">
        <ele>-94.599998474121</ele>
        <time>2021-07-04T09:31:10.000Z</time>
      </trkpt>
      <trkpt lat="47.26312" lon="-2.33414">
        <ele>-95</ele>
        <time>2021-07-04T09:31:11.000Z</time>
      </trkpt>
      <trkpt lat="47.26309" lon="-2.33417">
        <ele>-95.599998474121</ele>
        <time>2021-07-04T09:31:12.000Z</time>
      </trkpt>
      <trkpt lat="47.26304" lon="-2.33419">
        <ele>-96</ele>
        <time>2021-07-04T09:31:13.000Z</time>
      </trkpt>
      <trkpt lat="47.263" lon="-2.33421">
        <ele>-96.400001525879</ele>
        <time>2021-07-04T09:31:14.000Z</time>
      </trkpt>
      <trkpt lat="47.26295" lon="-2.33422">
        <ele>-96.400001525879</ele>
        <time>2021-07-04T09:31:15.000Z</time>
      </trkpt>
      <trkpt lat="47.2626" lon="-2.33428">
        <ele>-96.400001525879</ele>
        <time>2021-07-04T09:31:22.000Z</time>
      </trkpt>
      <trkpt lat="47.26227" lon="-2.33435">
        <ele>-96.400001525879</ele>
        <time>2021-07-04T09:31:29.000Z</time>
      </trkpt>
      <trkpt lat="47.2619" lon="-2.33442">
        <ele>-96.400001525879</ele>
        <time>2021-07-04T09:31:37.000Z</time>
      </trkpt>
      <trkpt lat="47.26171" lon="-2.3344">
        <ele>-95.599998474121</ele>
        <time>2021-07-04T09:31:41.000Z</time>
      </trkpt>
      <trkpt lat="47.26167" lon="-2.33439">
        <ele>-95.199996948242</ele>
        <time>2021-07-04T09:31:42.000Z</time>
      </trkpt>
      <trkpt lat="47.26162" lon="-2.33438">
        <ele>-94.599998474121</ele>
        <time>2021-07-04T09:31:43.000Z</time>
      </trkpt>
      <trkpt lat="47.26158" lon="-2.33436">
        <ele>-94.199996948242</ele>
        <time>2021-07-04T09:31:44.000Z</time>
      </trkpt>
      <trkpt lat="47.2614" lon="-2.33434">
        <ele>-94.199996948242</ele>
        <time>2021-07-04T09:31:49.000Z</time>
      </trkpt>
      <trkpt lat="47.26133" lon="-2.33448">
        <ele>-94.199996948242</ele>
        <time>2021-07-04T09:31:52.000Z</time>
      </trkpt>
      <trkpt lat="47.26119" lon="-2.33488">
        <ele>-94.199996948242</ele>
        <time>2021-07-04T09:31:59.000Z</time>
      </trkpt>
      <trkpt lat="47.26108" lon="-2.33493">
        <ele>-94.199996948242</ele>
        <time>2021-07-04T09:32:02.000Z</time>
      </trkpt>
      <trkpt lat="47.26098" lon="-2.3349">
        <ele>-94.199996948242</ele>
        <time>2021-07-04T09:32:05.000Z</time>
      </trkpt>
      <trkpt lat="47.26095" lon="-2.33489">
        <ele>-94.199996948242</ele>
        <time>2021-07-04T09:32:07.000Z</time>
      </trkpt>
      <trkpt lat="47.26087" lon="-2.33488">
        <ele>-94.800003051758</ele>
        <time>2021-07-04T09:32:11.000Z</time>
      </trkpt>
      <trkpt lat="47.26084" lon="-2.33486">
        <ele>-95.199996948242</ele>
        <time>2021-07-04T09:32:12.000Z</time>
      </trkpt>
      <trkpt lat="47.26081" lon="-2.33484">
        <ele>-95.599998474121</ele>
        <time>2021-07-04T09:32:13.000Z</time>
      </trkpt>
      <trkpt lat="47.26078" lon="-2.33482">
        <ele>-96</ele>
        <time>2021-07-04T09:32:14.000Z</time>
      </trkpt>
      <trkpt lat="47.26074" lon="-2.33482">
        <ele>-96.400001525879</ele>
        <time>2021-07-04T09:32:15.000Z</time>
      </trkpt>
      <trkpt lat="47.2607" lon="-2.33483">
        <ele>-96.400001525879</ele>
        <time>2021-07-04T09:32:16.000Z</time>
      </trkpt>
      <trkpt lat="47.26056" lon="-2.33487">
        <ele>-96.400001525879</ele>
        <time>2021-07-04T09:32:21.000Z</time>
      </trkpt>
      <trkpt lat="47.26055" lon="-2.33485">
        <ele>-96.400001525879</ele>
        <time>2021-07-04T09:32:23.000Z</time>
      </trkpt>
      <trkpt lat="47.26053" lon="-2.33481">
        <ele>-98.599998474121</ele>
        <time>2021-07-04T09:32:38.000Z</time>
      </trkpt>
      <trkpt lat="47.26051" lon="-2.33479">
        <ele>-98.599998474121</ele>
        <time>2021-07-04T09:32:39.000Z</time>
      </trkpt>
      <trkpt lat="47.2605" lon="-2.33477">
        <ele>-99</ele>
        <time>2021-07-04T09:32:40.000Z</time>
      </trkpt>
      <trkpt lat="47.26048" lon="-2.33475">
        <ele>-99.400001525879</ele>
        <time>2021-07-04T09:32:41.000Z</time>
      </trkpt>
      <trkpt lat="47.26047" lon="-2.33474">
        <ele>-99.800003051758</ele>
        <time>2021-07-04T09:32:42.000Z</time>
      </trkpt>
      <trkpt lat="47.26044" lon="-2.33474">
        <ele>-100.19999694824</ele>
        <time>2021-07-04T09:32:43.000Z</time>
      </trkpt>
      <trkpt lat="47.26042" lon="-2.33476">
        <ele>-100.80000305176</ele>
        <time>2021-07-04T09:32:44.000Z</time>
      </trkpt>
      <trkpt lat="47.26037" lon="-2.33482">
        <ele>-101.19999694824</ele>
        <time>2021-07-04T09:32:46.000Z</time>
      </trkpt>
      <trkpt lat="47.26034" lon="-2.33485">
        <ele>-101.59999847412</ele>
        <time>2021-07-04T09:32:47.000Z</time>
      </trkpt>
      <trkpt lat="47.2603" lon="-2.33487">
        <ele>-102</ele>
        <time>2021-07-04T09:32:48.000Z</time>
      </trkpt>
      <trkpt lat="47.26027" lon="-2.33489">
        <ele>-102.40000152588</ele>
        <time>2021-07-04T09:32:49.000Z</time>
      </trkpt>
      <trkpt lat="47.26023" lon="-2.3349">
        <ele>-102.80000305176</ele>
        <time>2021-07-04T09:32:50.000Z</time>
      </trkpt>
      <trkpt lat="47.26019" lon="-2.33491">
        <ele>-102.80000305176</ele>
        <time>2021-07-04T09:32:51.000Z</time>
      </trkpt>
      <trkpt lat="47.26011" lon="-2.33492">
        <ele>-103.19999694824</ele>
        <time>2021-07-04T09:32:53.000Z</time>
      </trkpt>
      <trkpt lat="47.26007" lon="-2.33493">
        <ele>-103.59999847412</ele>
        <time>2021-07-04T09:32:54.000Z</time>
      </trkpt>
      <trkpt lat="47.26003" lon="-2.33493">
        <ele>-104.40000152588</ele>
        <time>2021-07-04T09:32:55.000Z</time>
      </trkpt>
      <trkpt lat="47.25998" lon="-2.33494">
        <ele>-105</ele>
        <time>2021-07-04T09:32:56.000Z</time>
      </trkpt>
      <trkpt lat="47.25991" lon="-2.33498">
        <ele>-105</ele>
        <time>2021-07-04T09:32:58.000Z</time>
      </trkpt>
      <trkpt lat="47.25983" lon="-2.33503">
        <ele>-105</ele>
        <time>2021-07-04T09:33:00.000Z</time>
      </trkpt>
      <trkpt lat="47.25968" lon="-2.3351">
        <ele>-105</ele>
        <time>2021-07-04T09:33:04.000Z</time>
      </trkpt>
      <trkpt lat="47.25959" lon="-2.33512">
        <ele>-105</ele>
        <time>2021-07-04T09:33:06.000Z</time>
      </trkpt>
      <trkpt lat="47.25951" lon="-2.3352">
        <ele>-105.40000152588</ele>
        <time>2021-07-04T09:33:08.000Z</time>
      </trkpt>
      <trkpt lat="47.25946" lon="-2.33523">
        <ele>-105.80000305176</ele>
        <time>2021-07-04T09:33:09.000Z</time>
      </trkpt>
      <trkpt lat="47.25942" lon="-2.33527">
        <ele>-106.19999694824</ele>
        <time>2021-07-04T09:33:10.000Z</time>
      </trkpt>
      <trkpt lat="47.25937" lon="-2.3353">
        <ele>-106.59999847412</ele>
        <time>2021-07-04T09:33:11.000Z</time>
      </trkpt>
      <trkpt lat="47.25933" lon="-2.33534">
        <ele>-107</ele>
        <time>2021-07-04T09:33:12.000Z</time>
      </trkpt>
      <trkpt lat="47.25919" lon="-2.33545">
        <ele>-107</ele>
        <time>2021-07-04T09:33:15.000Z</time>
      </trkpt>
      <trkpt lat="47.25898" lon="-2.33563">
        <ele>-107.40000152588</ele>
        <time>2021-07-04T09:33:20.000Z</time>
      </trkpt>
      <trkpt lat="47.25894" lon="-2.33566">
        <ele>-107.80000305176</ele>
        <time>2021-07-04T09:33:21.000Z</time>
      </trkpt>
      <trkpt lat="47.2589" lon="-2.33569">
        <ele>-108.19999694824</ele>
        <time>2021-07-04T09:33:22.000Z</time>
      </trkpt>
      <trkpt lat="47.25886" lon="-2.33572">
        <ele>-108.59999847412</ele>
        <time>2021-07-04T09:33:23.000Z</time>
      </trkpt>
      <trkpt lat="47.25881" lon="-2.33574">
        <ele>-109</ele>
        <time>2021-07-04T09:33:24.000Z</time>
      </trkpt>
      <trkpt lat="47.25876" lon="-2.33577">
        <ele>-109</ele>
        <time>2021-07-04T09:33:25.000Z</time>
      </trkpt>
      <trkpt lat="47.2586" lon="-2.33579">
        <ele>-109</ele>
        <time>2021-07-04T09:33:28.000Z</time>
      </trkpt>
      <trkpt lat="47.25834" lon="-2.3358">
        <ele>-109.59999847412</ele>
        <time>2021-07-04T09:33:33.000Z</time>
      </trkpt>
      <trkpt lat="47.25828" lon="-2.3358">
        <ele>-110</ele>
        <time>2021-07-04T09:33:34.000Z</time>
      </trkpt>
      <trkpt lat="47.25823" lon="-2.3358">
        <ele>-110.40000152588</ele>
        <time>2021-07-04T09:33:35.000Z</time>
      </trkpt>
      <trkpt lat="47.25818" lon="-2.3358">
        <ele>-110.80000305176</ele>
        <time>2021-07-04T09:33:36.000Z</time>
      </trkpt>
      <trkpt lat="47.25813" lon="-2.33581">
        <ele>-111.19999694824</ele>
        <time>2021-07-04T09:33:37.000Z</time>
      </trkpt>
      <trkpt lat="47.25783" lon="-2.33582">
        <ele>-111.19999694824</ele>
        <time>2021-07-04T09:33:43.000Z</time>
      </trkpt>
      <trkpt lat="47.25758" lon="-2.33583">
        <ele>-111.19999694824</ele>
        <time>2021-07-04T09:33:48.000Z</time>
      </trkpt>
      <trkpt lat="47.25748" lon="-2.33587">
        <ele>-111.19999694824</ele>
        <time>2021-07-04T09:33:50.000Z</time>
      </trkpt>
      <trkpt lat="47.25734" lon="-2.33585">
        <ele>-111.19999694824</ele>
        <time>2021-07-04T09:33:53.000Z</time>
      </trkpt>
      <trkpt lat="47.25729" lon="-2.33584">
        <ele>-111.19999694824</ele>
        <time>2021-07-04T09:33:54.000Z</time>
      </trkpt>
      <trkpt lat="47.25718" lon="-2.33584">
        <ele>-111.59999847412</ele>
        <time>2021-07-04T09:33:56.000Z</time>
      </trkpt>
      <trkpt lat="47.25713" lon="-2.33584">
        <ele>-112</ele>
        <time>2021-07-04T09:33:57.000Z</time>
      </trkpt>
      <trkpt lat="47.25708" lon="-2.33584">
        <ele>-112.40000152588</ele>
        <time>2021-07-04T09:33:58.000Z</time>
      </trkpt>
      <trkpt lat="47.25702" lon="-2.33584">
        <ele>-113</ele>
        <time>2021-07-04T09:33:59.000Z</time>
      </trkpt>
      <trkpt lat="47.25697" lon="-2.33584">
        <ele>-113.40000152588</ele>
        <time>2021-07-04T09:34:00.000Z</time>
      </trkpt>
      <trkpt lat="47.25682" lon="-2.33582">
        <ele>-113.40000152588</ele>
        <time>2021-07-04T09:34:03.000Z</time>
      </trkpt>
      <trkpt lat="47.25671" lon="-2.33579">
        <ele>-113.40000152588</ele>
        <time>2021-07-04T09:34:05.000Z</time>
      </trkpt>
      <trkpt lat="47.25659" lon="-2.33575">
        <ele>-113.40000152588</ele>
        <time>2021-07-04T09:34:07.000Z</time>
      </trkpt>
      <trkpt lat="47.25642" lon="-2.33567">
        <ele>-113.40000152588</ele>
        <time>2021-07-04T09:34:10.000Z</time>
      </trkpt>
      <trkpt lat="47.25625" lon="-2.33558">
        <ele>-113.80000305176</ele>
        <time>2021-07-04T09:34:13.000Z</time>
      </trkpt>
      <trkpt lat="47.2562" lon="-2.33553">
        <ele>-114.19999694824</ele>
        <time>2021-07-04T09:34:14.000Z</time>
      </trkpt>
      <trkpt lat="47.25615" lon="-2.33549">
        <ele>-114.59999847412</ele>
        <time>2021-07-04T09:34:15.000Z</time>
      </trkpt>
      <trkpt lat="47.2561" lon="-2.33545">
        <ele>-115</ele>
        <time>2021-07-04T09:34:16.000Z</time>
      </trkpt>
      <trkpt lat="47.25606" lon="-2.3354">
        <ele>-115.40000152588</ele>
        <time>2021-07-04T09:34:17.000Z</time>
      </trkpt>
      <trkpt lat="47.25575" lon="-2.33503">
        <ele>-115.40000152588</ele>
        <time>2021-07-04T09:34:24.000Z</time>
      </trkpt>
      <trkpt lat="47.25548" lon="-2.3345">
        <ele>-115.40000152588</ele>
        <time>2021-07-04T09:34:32.000Z</time>
      </trkpt>
      <trkpt lat="47.25533" lon="-2.334">
        <ele>-115.40000152588</ele>
        <time>2021-07-04T09:34:38.000Z</time>
      </trkpt>
      <trkpt lat="47.25525" lon="-2.33347">
        <ele>-115.40000152588</ele>
        <time>2021-07-04T09:34:44.000Z</time>
      </trkpt>
      <trkpt lat="47.25516" lon="-2.33275">
        <ele>-115.40000152588</ele>
        <time>2021-07-04T09:34:52.000Z</time>
      </trkpt>
      <trkpt lat="47.25506" lon="-2.33198">
        <ele>-115.40000152588</ele>
        <time>2021-07-04T09:35:01.000Z</time>
      </trkpt>
      <trkpt lat="47.25498" lon="-2.33137">
        <ele>-115.40000152588</ele>
        <time>2021-07-04T09:35:08.000Z</time>
      </trkpt>
      <trkpt lat="47.25492" lon="-2.33098">
        <ele>-115.40000152588</ele>
        <time>2021-07-04T09:35:13.000Z</time>
      </trkpt>
      <trkpt lat="47.25489" lon="-2.33093">
        <ele>-115.40000152588</ele>
        <time>2021-07-04T09:35:14.000Z</time>
      </trkpt>
      <trkpt lat="47.25479" lon="-2.33093">
        <ele>-115.40000152588</ele>
        <time>2021-07-04T09:35:16.000Z</time>
      </trkpt>
      <trkpt lat="47.25469" lon="-2.33099">
        <ele>-115.40000152588</ele>
        <time>2021-07-04T09:35:18.000Z</time>
      </trkpt>
      <trkpt lat="47.25448" lon="-2.33109">
        <ele>-115.40000152588</ele>
        <time>2021-07-04T09:35:22.000Z</time>
      </trkpt>
      <trkpt lat="47.25434" lon="-2.33116">
        <ele>-115.80000305176</ele>
        <time>2021-07-04T09:35:25.000Z</time>
      </trkpt>
      <trkpt lat="47.25429" lon="-2.33118">
        <ele>-116.19999694824</ele>
        <time>2021-07-04T09:35:26.000Z</time>
      </trkpt>
      <trkpt lat="47.25424" lon="-2.3312">
        <ele>-116.59999847412</ele>
        <time>2021-07-04T09:35:27.000Z</time>
      </trkpt>
      <trkpt lat="47.25419" lon="-2.33122">
        <ele>-117</ele>
        <time>2021-07-04T09:35:28.000Z</time>
      </trkpt>
      <trkpt lat="47.25415" lon="-2.33124">
        <ele>-117.40000152588</ele>
        <time>2021-07-04T09:35:29.000Z</time>
      </trkpt>
      <trkpt lat="47.25407" lon="-2.33127">
        <ele>-117.40000152588</ele>
        <time>2021-07-04T09:35:31.000Z</time>
      </trkpt>
      <trkpt lat="47.25384" lon="-2.33136">
        <ele>-117.40000152588</ele>
        <time>2021-07-04T09:35:37.000Z</time>
      </trkpt>
      <trkpt lat="47.25376" lon="-2.33126">
        <ele>-117.40000152588</ele>
        <time>2021-07-04T09:35:40.000Z</time>
      </trkpt>
      <trkpt lat="47.25374" lon="-2.33122">
        <ele>-117.40000152588</ele>
        <time>2021-07-04T09:35:41.000Z</time>
      </trkpt>
      <trkpt lat="47.25369" lon="-2.33107">
        <ele>-117.40000152588</ele>
        <time>2021-07-04T09:35:46.000Z</time>
      </trkpt>
      <trkpt lat="47.25369" lon="-2.33105">
        <ele>-117.40000152588</ele>
        <time>2021-07-04T09:35:48.000Z</time>
      </trkpt>
      <trkpt lat="47.25367" lon="-2.331">
        <ele>-100.40000152588</ele>
        <time>2021-07-04T09:52:55.000Z</time>
      </trkpt>
      <trkpt lat="47.25366" lon="-2.33099">
        <ele>-100.40000152588</ele>
        <time>2021-07-04T09:52:56.000Z</time>
      </trkpt>
      <trkpt lat="47.2536" lon="-2.3308">
        <ele>-100.40000152588</ele>
        <time>2021-07-04T09:53:02.000Z</time>
      </trkpt>
      <trkpt lat="47.25351" lon="-2.3305">
        <ele>-100.40000152588</ele>
        <time>2021-07-04T09:53:08.000Z</time>
      </trkpt>
      <trkpt lat="47.25341" lon="-2.33022">
        <ele>-100.40000152588</ele>
        <time>2021-07-04T09:53:14.000Z</time>
      </trkpt>
      <trkpt lat="47.2533" lon="-2.32994">
        <ele>-100.40000152588</ele>
        <time>2021-07-04T09:53:20.000Z</time>
      </trkpt>
      <trkpt lat="47.25326" lon="-2.32984">
        <ele>-100</ele>
        <time>2021-07-04T09:53:22.000Z</time>
      </trkpt>
      <trkpt lat="47.25324" lon="-2.3298">
        <ele>-99.599998474121</ele>
        <time>2021-07-04T09:53:23.000Z</time>
      </trkpt>
      <trkpt lat="47.25322" lon="-2.32975">
        <ele>-99.199996948242</ele>
        <time>2021-07-04T09:53:24.000Z</time>
      </trkpt>
      <trkpt lat="47.2532" lon="-2.3297">
        <ele>-98.800003051758</ele>
        <time>2021-07-04T09:53:25.000Z</time>
      </trkpt>
      <trkpt lat="47.25318" lon="-2.32966">
        <ele>-98.400001525879</ele>
        <time>2021-07-04T09:53:26.000Z</time>
      </trkpt>
      <trkpt lat="47.25313" lon="-2.32957">
        <ele>-98.400001525879</ele>
        <time>2021-07-04T09:53:28.000Z</time>
      </trkpt>
      <trkpt lat="47.25307" lon="-2.32928">
        <ele>-98.400001525879</ele>
        <time>2021-07-04T09:53:34.000Z</time>
      </trkpt>
      <trkpt lat="47.25314" lon="-2.32915">
        <ele>-98.400001525879</ele>
        <time>2021-07-04T09:53:37.000Z</time>
      </trkpt>
      <trkpt lat="47.25318" lon="-2.32912">
        <ele>-98.400001525879</ele>
        <time>2021-07-04T09:53:38.000Z</time>
      </trkpt>
      <trkpt lat="47.25339" lon="-2.3289">
        <ele>-98.400001525879</ele>
        <time>2021-07-04T09:53:44.000Z</time>
      </trkpt>
      <trkpt lat="47.25361" lon="-2.32871">
        <ele>-98.400001525879</ele>
        <time>2021-07-04T09:53:50.000Z</time>
      </trkpt>
      <trkpt lat="47.25386" lon="-2.32845">
        <ele>-98.400001525879</ele>
        <time>2021-07-04T09:53:56.000Z</time>
      </trkpt>
      <trkpt lat="47.25411" lon="-2.32815">
        <ele>-98.400001525879</ele>
        <time>2021-07-04T09:54:03.000Z</time>
      </trkpt>
      <trkpt lat="47.25427" lon="-2.32787">
        <ele>-98.400001525879</ele>
        <time>2021-07-04T09:54:09.000Z</time>
      </trkpt>
      <trkpt lat="47.25429" lon="-2.32782">
        <ele>-98.400001525879</ele>
        <time>2021-07-04T09:54:10.000Z</time>
      </trkpt>
      <trkpt lat="47.25437" lon="-2.32765">
        <ele>-98.400001525879</ele>
        <time>2021-07-04T09:54:14.000Z</time>
      </trkpt>
      <trkpt lat="47.2544" lon="-2.32762">
        <ele>-98.400001525879</ele>
        <time>2021-07-04T09:54:15.000Z</time>
      </trkpt>
      <trkpt lat="47.25444" lon="-2.32757">
        <ele>-98.400001525879</ele>
        <time>2021-07-04T09:54:16.000Z</time>
      </trkpt>
      <trkpt lat="47.25455" lon="-2.32743">
        <ele>-98.400001525879</ele>
        <time>2021-07-04T09:54:19.000Z</time>
      </trkpt>
      <trkpt lat="47.25472" lon="-2.32718">
        <ele>-98.400001525879</ele>
        <time>2021-07-04T09:54:24.000Z</time>
      </trkpt>
      <trkpt lat="47.25491" lon="-2.32689">
        <ele>-98.400001525879</ele>
        <time>2021-07-04T09:54:30.000Z</time>
      </trkpt>
      <trkpt lat="47.25492" lon="-2.32683">
        <ele>-98.400001525879</ele>
        <time>2021-07-04T09:54:31.000Z</time>
      </trkpt>
      <trkpt lat="47.2549" lon="-2.32658">
        <ele>-98.400001525879</ele>
        <time>2021-07-04T09:54:35.000Z</time>
      </trkpt>
      <trkpt lat="47.25487" lon="-2.32646">
        <ele>-98.400001525879</ele>
        <time>2021-07-04T09:54:37.000Z</time>
      </trkpt>
      <trkpt lat="47.2548" lon="-2.32607">
        <ele>-98</ele>
        <time>2021-07-04T09:54:43.000Z</time>
      </trkpt>
      <trkpt lat="47.25479" lon="-2.326">
        <ele>-97.199996948242</ele>
        <time>2021-07-04T09:54:44.000Z</time>
      </trkpt>
      <trkpt lat="47.25479" lon="-2.32594">
        <ele>-96.800003051758</ele>
        <time>2021-07-04T09:54:45.000Z</time>
      </trkpt>
      <trkpt lat="47.25479" lon="-2.32588">
        <ele>-96.400001525879</ele>
        <time>2021-07-04T09:54:46.000Z</time>
      </trkpt>
      <trkpt lat="47.25479" lon="-2.32582">
        <ele>-96.400001525879</ele>
        <time>2021-07-04T09:54:47.000Z</time>
      </trkpt>
      <trkpt lat="47.25481" lon="-2.3257">
        <ele>-96.400001525879</ele>
        <time>2021-07-04T09:54:49.000Z</time>
      </trkpt>
      <trkpt lat="47.25492" lon="-2.32554">
        <ele>-96.400001525879</ele>
        <time>2021-07-04T09:54:53.000Z</time>
      </trkpt>
      <trkpt lat="47.25496" lon="-2.3255">
        <ele>-96.400001525879</ele>
        <time>2021-07-04T09:54:54.000Z</time>
      </trkpt>
      <trkpt lat="47.255" lon="-2.32546">
        <ele>-96.400001525879</ele>
        <time>2021-07-04T09:54:55.000Z</time>
      </trkpt>
      <trkpt lat="47.25514" lon="-2.32532">
        <ele>-96.400001525879</ele>
        <time>2021-07-04T09:54:58.000Z</time>
      </trkpt>
      <trkpt lat="47.25536" lon="-2.32512">
        <ele>-96.400001525879</ele>
        <time>2021-07-04T09:55:03.000Z</time>
      </trkpt>
      <trkpt lat="47.25547" lon="-2.32503">
        <ele>-96.400001525879</ele>
        <time>2021-07-04T09:55:05.000Z</time>
      </trkpt>
      <trkpt lat="47.25588" lon="-2.32464">
        <ele>-96.400001525879</ele>
        <time>2021-07-04T09:55:12.000Z</time>
      </trkpt>
      <trkpt lat="47.25623" lon="-2.32424">
        <ele>-96.400001525879</ele>
        <time>2021-07-04T09:55:18.000Z</time>
      </trkpt>
      <trkpt lat="47.25649" lon="-2.32402">
        <ele>-96.400001525879</ele>
        <time>2021-07-04T09:55:22.000Z</time>
      </trkpt>
      <trkpt lat="47.2566" lon="-2.324">
        <ele>-96.400001525879</ele>
        <time>2021-07-04T09:55:24.000Z</time>
      </trkpt>
      <trkpt lat="47.25669" lon="-2.32411">
        <ele>-96.400001525879</ele>
        <time>2021-07-04T09:55:27.000Z</time>
      </trkpt>
      <trkpt lat="47.25687" lon="-2.32421">
        <ele>-96.400001525879</ele>
        <time>2021-07-04T09:55:31.000Z</time>
      </trkpt>
      <trkpt lat="47.25697" lon="-2.32421">
        <ele>-96.400001525879</ele>
        <time>2021-07-04T09:55:33.000Z</time>
      </trkpt>
      <trkpt lat="47.25713" lon="-2.32421">
        <ele>-96</ele>
        <time>2021-07-04T09:55:36.000Z</time>
      </trkpt>
      <trkpt lat="47.25717" lon="-2.32421">
        <ele>-95.599998474121</ele>
        <time>2021-07-04T09:55:37.000Z</time>
      </trkpt>
      <trkpt lat="47.25722" lon="-2.32422">
        <ele>-95.199996948242</ele>
        <time>2021-07-04T09:55:38.000Z</time>
      </trkpt>
      <trkpt lat="47.25727" lon="-2.32422">
        <ele>-94.800003051758</ele>
        <time>2021-07-04T09:55:39.000Z</time>
      </trkpt>
      <trkpt lat="47.25732" lon="-2.32421">
        <ele>-94.199996948242</ele>
        <time>2021-07-04T09:55:40.000Z</time>
      </trkpt>
      <trkpt lat="47.25751" lon="-2.32422">
        <ele>-94.199996948242</ele>
        <time>2021-07-04T09:55:44.000Z</time>
      </trkpt>
      <trkpt lat="47.25755" lon="-2.32421">
        <ele>-94.199996948242</ele>
        <time>2021-07-04T09:55:45.000Z</time>
      </trkpt>
      <trkpt lat="47.25759" lon="-2.3242">
        <ele>-93.800003051758</ele>
        <time>2021-07-04T09:55:46.000Z</time>
      </trkpt>
      <trkpt lat="47.25763" lon="-2.32419">
        <ele>-93.400001525879</ele>
        <time>2021-07-04T09:55:47.000Z</time>
      </trkpt>
      <trkpt lat="47.25767" lon="-2.32416">
        <ele>-93</ele>
        <time>2021-07-04T09:55:48.000Z</time>
      </trkpt>
      <trkpt lat="47.2577" lon="-2.32414">
        <ele>-92.599998474121</ele>
        <time>2021-07-04T09:55:49.000Z</time>
      </trkpt>
      <trkpt lat="47.25775" lon="-2.32413">
        <ele>-92</ele>
        <time>2021-07-04T09:55:50.000Z</time>
      </trkpt>
      <trkpt lat="47.25785" lon="-2.32426">
        <ele>-92</ele>
        <time>2021-07-04T09:55:53.000Z</time>
      </trkpt>
      <trkpt lat="47.25791" lon="-2.32439">
        <ele>-91.599998474121</ele>
        <time>2021-07-04T09:55:55.000Z</time>
      </trkpt>
      <trkpt lat="47.25795" lon="-2.32445">
        <ele>-91.199996948242</ele>
        <time>2021-07-04T09:55:56.000Z</time>
      </trkpt>
      <trkpt lat="47.25799" lon="-2.32451">
        <ele>-90.800003051758</ele>
        <time>2021-07-04T09:55:57.000Z</time>
      </trkpt>
      <trkpt lat="47.25804" lon="-2.32454">
        <ele>-90</ele>
        <time>2021-07-04T09:55:58.000Z</time>
      </trkpt>
      <trkpt lat="47.25814" lon="-2.3246">
        <ele>-89.599998474121</ele>
        <time>2021-07-04T09:56:00.000Z</time>
      </trkpt>
      <trkpt lat="47.25819" lon="-2.32463">
        <ele>-89.199996948242</ele>
        <time>2021-07-04T09:56:01.000Z</time>
      </trkpt>
      <trkpt lat="47.25824" lon="-2.32466">
        <ele>-88.800003051758</ele>
        <time>2021-07-04T09:56:02.000Z</time>
      </trkpt>
      <trkpt lat="47.2583" lon="-2.32469">
        <ele>-88.400001525879</ele>
        <time>2021-07-04T09:56:03.000Z</time>
      </trkpt>
      <trkpt lat="47.25835" lon="-2.32471">
        <ele>-87.800003051758</ele>
        <time>2021-07-04T09:56:04.000Z</time>
      </trkpt>
      <trkpt lat="47.25845" lon="-2.32474">
        <ele>-87.400001525879</ele>
        <time>2021-07-04T09:56:06.000Z</time>
      </trkpt>
      <trkpt lat="47.2585" lon="-2.32474">
        <ele>-87</ele>
        <time>2021-07-04T09:56:07.000Z</time>
      </trkpt>
      <trkpt lat="47.25855" lon="-2.32475">
        <ele>-86.599998474121</ele>
        <time>2021-07-04T09:56:08.000Z</time>
      </trkpt>
      <trkpt lat="47.2586" lon="-2.32474">
        <ele>-86</ele>
        <time>2021-07-04T09:56:09.000Z</time>
      </trkpt>
      <trkpt lat="47.25865" lon="-2.32473">
        <ele>-85.599998474121</ele>
        <time>2021-07-04T09:56:10.000Z</time>
      </trkpt>
      <trkpt lat="47.25885" lon="-2.32469">
        <ele>-85.199996948242</ele>
        <time>2021-07-04T09:56:14.000Z</time>
      </trkpt>
      <trkpt lat="47.2589" lon="-2.32467">
        <ele>-84.800003051758</ele>
        <time>2021-07-04T09:56:15.000Z</time>
      </trkpt>
      <trkpt lat="47.25894" lon="-2.32462">
        <ele>-84.400001525879</ele>
        <time>2021-07-04T09:56:16.000Z</time>
      </trkpt>
      <trkpt lat="47.25898" lon="-2.32458">
        <ele>-84</ele>
        <time>2021-07-04T09:56:17.000Z</time>
      </trkpt>
      <trkpt lat="47.25903" lon="-2.32454">
        <ele>-83.599998474121</ele>
        <time>2021-07-04T09:56:18.000Z</time>
      </trkpt>
      <trkpt lat="47.25924" lon="-2.3243">
        <ele>-82.800003051758</ele>
        <time>2021-07-04T09:56:23.000Z</time>
      </trkpt>
      <trkpt lat="47.25928" lon="-2.32424">
        <ele>-82.199996948242</ele>
        <time>2021-07-04T09:56:24.000Z</time>
      </trkpt>
      <trkpt lat="47.25932" lon="-2.32419">
        <ele>-81.800003051758</ele>
        <time>2021-07-04T09:56:25.000Z</time>
      </trkpt>
      <trkpt lat="47.25936" lon="-2.32413">
        <ele>-81.400001525879</ele>
        <time>2021-07-04T09:56:26.000Z</time>
      </trkpt>
      <trkpt lat="47.25951" lon="-2.32391">
        <ele>-81.400001525879</ele>
        <time>2021-07-04T09:56:30.000Z</time>
      </trkpt>
      <trkpt lat="47.25966" lon="-2.32371">
        <ele>-81</ele>
        <time>2021-07-04T09:56:34.000Z</time>
      </trkpt>
      <trkpt lat="47.2597" lon="-2.32366">
        <ele>-80.599998474121</ele>
        <time>2021-07-04T09:56:35.000Z</time>
      </trkpt>
      <trkpt lat="47.25974" lon="-2.32361">
        <ele>-80.199996948242</ele>
        <time>2021-07-04T09:56:36.000Z</time>
      </trkpt>
      <trkpt lat="47.25979" lon="-2.32356">
        <ele>-79.800003051758</ele>
        <time>2021-07-04T09:56:37.000Z</time>
      </trkpt>
      <trkpt lat="47.25983" lon="-2.32351">
        <ele>-79.400001525879</ele>
        <time>2021-07-04T09:56:38.000Z</time>
      </trkpt>
      <trkpt lat="47.2601" lon="-2.32316">
        <ele>-79.400001525879</ele>
        <time>2021-07-04T09:56:45.000Z</time>
      </trkpt>
      <trkpt lat="47.2602" lon="-2.32301">
        <ele>-79.400001525879</ele>
        <time>2021-07-04T09:56:48.000Z</time>
      </trkpt>
      <trkpt lat="47.26029" lon="-2.32293">
        <ele>-79.400001525879</ele>
        <time>2021-07-04T09:56:50.000Z</time>
      </trkpt>
      <trkpt lat="47.26033" lon="-2.32289">
        <ele>-79.400001525879</ele>
        <time>2021-07-04T09:56:51.000Z</time>
      </trkpt>
      <trkpt lat="47.26064" lon="-2.32254">
        <ele>-79.400001525879</ele>
        <time>2021-07-04T09:56:59.000Z</time>
      </trkpt>
      <trkpt lat="47.26073" lon="-2.32241">
        <ele>-79</ele>
        <time>2021-07-04T09:57:02.000Z</time>
      </trkpt>
      <trkpt lat="47.26076" lon="-2.32236">
        <ele>-78.599998474121</ele>
        <time>2021-07-04T09:57:03.000Z</time>
      </trkpt>
      <trkpt lat="47.26079" lon="-2.32231">
        <ele>-78.199996948242</ele>
        <time>2021-07-04T09:57:04.000Z</time>
      </trkpt>
      <trkpt lat="47.26083" lon="-2.32226">
        <ele>-77.599998474121</ele>
        <time>2021-07-04T09:57:05.000Z</time>
      </trkpt>
      <trkpt lat="47.26087" lon="-2.32221">
        <ele>-77.199996948242</ele>
        <time>2021-07-04T09:57:06.000Z</time>
      </trkpt>
      <trkpt lat="47.26102" lon="-2.32198">
        <ele>-76.800003051758</ele>
        <time>2021-07-04T09:57:10.000Z</time>
      </trkpt>
      <trkpt lat="47.26105" lon="-2.32191">
        <ele>-76.400001525879</ele>
        <time>2021-07-04T09:57:11.000Z</time>
      </trkpt>
      <trkpt lat="47.26108" lon="-2.32186">
        <ele>-75.400001525879</ele>
        <time>2021-07-04T09:57:12.000Z</time>
      </trkpt>
      <trkpt lat="47.26111" lon="-2.3218">
        <ele>-75</ele>
        <time>2021-07-04T09:57:13.000Z</time>
      </trkpt>
      <trkpt lat="47.26114" lon="-2.32173">
        <ele>-74.599998474121</ele>
        <time>2021-07-04T09:57:14.000Z</time>
      </trkpt>
      <trkpt lat="47.26117" lon="-2.32167">
        <ele>-74.199996948242</ele>
        <time>2021-07-04T09:57:15.000Z</time>
      </trkpt>
      <trkpt lat="47.26119" lon="-2.3216">
        <ele>-73.800003051758</ele>
        <time>2021-07-04T09:57:16.000Z</time>
      </trkpt>
      <trkpt lat="47.26122" lon="-2.32154">
        <ele>-73.400001525879</ele>
        <time>2021-07-04T09:57:17.000Z</time>
      </trkpt>
      <trkpt lat="47.26125" lon="-2.32148">
        <ele>-73</ele>
        <time>2021-07-04T09:57:18.000Z</time>
      </trkpt>
      <trkpt lat="47.26127" lon="-2.32142">
        <ele>-73</ele>
        <time>2021-07-04T09:57:19.000Z</time>
      </trkpt>
      <trkpt lat="47.26132" lon="-2.32121">
        <ele>-72.599998474121</ele>
        <time>2021-07-04T09:57:22.000Z</time>
      </trkpt>
      <trkpt lat="47.26135" lon="-2.32114">
        <ele>-72.199996948242</ele>
        <time>2021-07-04T09:57:23.000Z</time>
      </trkpt>
      <trkpt lat="47.26137" lon="-2.32107">
        <ele>-71.800003051758</ele>
        <time>2021-07-04T09:57:24.000Z</time>
      </trkpt>
      <trkpt lat="47.26139" lon="-2.321">
        <ele>-71.199996948242</ele>
        <time>2021-07-04T09:57:25.000Z</time>
      </trkpt>
      <trkpt lat="47.26142" lon="-2.32094">
        <ele>-70.800003051758</ele>
        <time>2021-07-04T09:57:26.000Z</time>
      </trkpt>
      <trkpt lat="47.26144" lon="-2.32087">
        <ele>-70.400001525879</ele>
        <time>2021-07-04T09:57:27.000Z</time>
      </trkpt>
      <trkpt lat="47.26146" lon="-2.3208">
        <ele>-70</ele>
        <time>2021-07-04T09:57:28.000Z</time>
      </trkpt>
      <trkpt lat="47.26148" lon="-2.32073">
        <ele>-69.599998474121</ele>
        <time>2021-07-04T09:57:29.000Z</time>
      </trkpt>
      <trkpt lat="47.2615" lon="-2.32066">
        <ele>-69.199996948242</ele>
        <time>2021-07-04T09:57:30.000Z</time>
      </trkpt>
      <trkpt lat="47.26152" lon="-2.3206">
        <ele>-68.800003051758</ele>
        <time>2021-07-04T09:57:31.000Z</time>
      </trkpt>
      <trkpt lat="47.26153" lon="-2.32054">
        <ele>-68.400001525879</ele>
        <time>2021-07-04T09:57:32.000Z</time>
      </trkpt>
      <trkpt lat="47.26155" lon="-2.32048">
        <ele>-67.800003051758</ele>
        <time>2021-07-04T09:57:33.000Z</time>
      </trkpt>
      <trkpt lat="47.26157" lon="-2.32042">
        <ele>-67.400001525879</ele>
        <time>2021-07-04T09:57:34.000Z</time>
      </trkpt>
      <trkpt lat="47.26159" lon="-2.32036">
        <ele>-67</ele>
        <time>2021-07-04T09:57:35.000Z</time>
      </trkpt>
      <trkpt lat="47.26161" lon="-2.32032">
        <ele>-66.599998474121</ele>
        <time>2021-07-04T09:57:36.000Z</time>
      </trkpt>
      <trkpt lat="47.26163" lon="-2.32027">
        <ele>-66.599998474121</ele>
        <time>2021-07-04T09:57:37.000Z</time>
      </trkpt>
      <trkpt lat="47.26166" lon="-2.32024">
        <ele>-66.199996948242</ele>
        <time>2021-07-04T09:57:38.000Z</time>
      </trkpt>
      <trkpt lat="47.26169" lon="-2.32021">
        <ele>-65.800003051758</ele>
        <time>2021-07-04T09:57:39.000Z</time>
      </trkpt>
      <trkpt lat="47.26172" lon="-2.3202">
        <ele>-65.400001525879</ele>
        <time>2021-07-04T09:57:40.000Z</time>
      </trkpt>
      <trkpt lat="47.26176" lon="-2.32019">
        <ele>-65</ele>
        <time>2021-07-04T09:57:41.000Z</time>
      </trkpt>
      <trkpt lat="47.26179" lon="-2.3202">
        <ele>-64.599998474121</ele>
        <time>2021-07-04T09:57:42.000Z</time>
      </trkpt>
      <trkpt lat="47.26188" lon="-2.32023">
        <ele>-64.599998474121</ele>
        <time>2021-07-04T09:57:45.000Z</time>
      </trkpt>
      <trkpt lat="47.2619" lon="-2.32024">
        <ele>-64.199996948242</ele>
        <time>2021-07-04T09:57:47.000Z</time>
      </trkpt>
      <trkpt lat="47.26192" lon="-2.32025">
        <ele>-63.799999237061</ele>
        <time>2021-07-04T09:57:48.000Z</time>
      </trkpt>
      <trkpt lat="47.26194" lon="-2.32025">
        <ele>-63.400001525879</ele>
        <time>2021-07-04T09:57:49.000Z</time>
      </trkpt>
      <trkpt lat="47.26195" lon="-2.32025">
        <ele>-63</ele>
        <time>2021-07-04T09:57:50.000Z</time>
      </trkpt>
      <trkpt lat="47.26197" lon="-2.32022">
        <ele>-62.400001525879</ele>
        <time>2021-07-04T09:57:51.000Z</time>
      </trkpt>
      <trkpt lat="47.26199" lon="-2.32015">
        <ele>-62</ele>
        <time>2021-07-04T09:57:53.000Z</time>
      </trkpt>
      <trkpt lat="47.262" lon="-2.32012">
        <ele>-61.599998474121</ele>
        <time>2021-07-04T09:57:54.000Z</time>
      </trkpt>
      <trkpt lat="47.262" lon="-2.32008">
        <ele>-61</ele>
        <time>2021-07-04T09:57:55.000Z</time>
      </trkpt>
      <trkpt lat="47.26202" lon="-2.32006">
        <ele>-60.599998474121</ele>
        <time>2021-07-04T09:57:56.000Z</time>
      </trkpt>
      <trkpt lat="47.26203" lon="-2.32005">
        <ele>-60.200000762939</ele>
        <time>2021-07-04T09:57:57.000Z</time>
      </trkpt>
      <trkpt lat="47.26206" lon="-2.32003">
        <ele>-59.599998474121</ele>
        <time>2021-07-04T09:57:59.000Z</time>
      </trkpt>
      <trkpt lat="47.26208" lon="-2.32002">
        <ele>-59.200000762939</ele>
        <time>2021-07-04T09:58:00.000Z</time>
      </trkpt>
      <trkpt lat="47.26209" lon="-2.32">
        <ele>-58.799999237061</ele>
        <time>2021-07-04T09:58:01.000Z</time>
      </trkpt>
      <trkpt lat="47.26211" lon="-2.31997">
        <ele>-57.799999237061</ele>
        <time>2021-07-04T09:58:02.000Z</time>
      </trkpt>
      <trkpt lat="47.26213" lon="-2.31995">
        <ele>-57.400001525879</ele>
        <time>2021-07-04T09:58:03.000Z</time>
      </trkpt>
      <trkpt lat="47.26215" lon="-2.31992">
        <ele>-57</ele>
        <time>2021-07-04T09:58:04.000Z</time>
      </trkpt>
      <trkpt lat="47.26217" lon="-2.3199">
        <ele>-56.400001525879</ele>
        <time>2021-07-04T09:58:05.000Z</time>
      </trkpt>
      <trkpt lat="47.26218" lon="-2.31987">
        <ele>-56</ele>
        <time>2021-07-04T09:58:06.000Z</time>
      </trkpt>
      <trkpt lat="47.2622" lon="-2.31984">
        <ele>-55.400001525879</ele>
        <time>2021-07-04T09:58:07.000Z</time>
      </trkpt>
      <trkpt lat="47.26223" lon="-2.31984">
        <ele>-55</ele>
        <time>2021-07-04T09:58:08.000Z</time>
      </trkpt>
      <trkpt lat="47.26226" lon="-2.31983">
        <ele>-54.400001525879</ele>
        <time>2021-07-04T09:58:09.000Z</time>
      </trkpt>
      <trkpt lat="47.26228" lon="-2.31983">
        <ele>-53.799999237061</ele>
        <time>2021-07-04T09:58:10.000Z</time>
      </trkpt>
      <trkpt lat="47.26231" lon="-2.31981">
        <ele>-53.200000762939</ele>
        <time>2021-07-04T09:58:11.000Z</time>
      </trkpt>
      <trkpt lat="47.26234" lon="-2.31979">
        <ele>-52.799999237061</ele>
        <time>2021-07-04T09:58:12.000Z</time>
      </trkpt>
      <trkpt lat="47.26238" lon="-2.31973">
        <ele>-52.200000762939</ele>
        <time>2021-07-04T09:58:13.000Z</time>
      </trkpt>
      <trkpt lat="47.26241" lon="-2.31968">
        <ele>-51.599998474121</ele>
        <time>2021-07-04T09:58:14.000Z</time>
      </trkpt>
      <trkpt lat="47.26243" lon="-2.31965">
        <ele>-51</ele>
        <time>2021-07-04T09:58:15.000Z</time>
      </trkpt>
      <trkpt lat="47.26245" lon="-2.31962">
        <ele>-50.599998474121</ele>
        <time>2021-07-04T09:58:16.000Z</time>
      </trkpt>
      <trkpt lat="47.26247" lon="-2.31959">
        <ele>-50.200000762939</ele>
        <time>2021-07-04T09:58:17.000Z</time>
      </trkpt>
      <trkpt lat="47.26249" lon="-2.31956">
        <ele>-49.799999237061</ele>
        <time>2021-07-04T09:58:18.000Z</time>
      </trkpt>
      <trkpt lat="47.2625" lon="-2.31953">
        <ele>-49.400001525879</ele>
        <time>2021-07-04T09:58:19.000Z</time>
      </trkpt>
      <trkpt lat="47.26251" lon="-2.31949">
        <ele>-48.799999237061</ele>
        <time>2021-07-04T09:58:20.000Z</time>
      </trkpt>
      <trkpt lat="47.26252" lon="-2.31945">
        <ele>-48.400001525879</ele>
        <time>2021-07-04T09:58:21.000Z</time>
      </trkpt>
      <trkpt lat="47.26254" lon="-2.31942">
        <ele>-47.799999237061</ele>
        <time>2021-07-04T09:58:22.000Z</time>
      </trkpt>
      <trkpt lat="47.26256" lon="-2.31939">
        <ele>-47.400001525879</ele>
        <time>2021-07-04T09:58:23.000Z</time>
      </trkpt>
      <trkpt lat="47.26258" lon="-2.31937">
        <ele>-46.799999237061</ele>
        <time>2021-07-04T09:58:24.000Z</time>
      </trkpt>
      <trkpt lat="47.2626" lon="-2.31934">
        <ele>-46.400001525879</ele>
        <time>2021-07-04T09:58:25.000Z</time>
      </trkpt>
      <trkpt lat="47.26262" lon="-2.3193">
        <ele>-45.799999237061</ele>
        <time>2021-07-04T09:58:26.000Z</time>
      </trkpt>
      <trkpt lat="47.26264" lon="-2.31927">
        <ele>-44.799999237061</ele>
        <time>2021-07-04T09:58:27.000Z</time>
      </trkpt>
      <trkpt lat="47.26267" lon="-2.31923">
        <ele>-44.200000762939</ele>
        <time>2021-07-04T09:58:28.000Z</time>
      </trkpt>
      <trkpt lat="47.26272" lon="-2.31917">
        <ele>-43.799999237061</ele>
        <time>2021-07-04T09:58:29.000Z</time>
      </trkpt>
      <trkpt lat="47.26276" lon="-2.31912">
        <ele>-43.200000762939</ele>
        <time>2021-07-04T09:58:30.000Z</time>
      </trkpt>
      <trkpt lat="47.26281" lon="-2.31908">
        <ele>-42.799999237061</ele>
        <time>2021-07-04T09:58:31.000Z</time>
      </trkpt>
      <trkpt lat="47.26284" lon="-2.31905">
        <ele>-42.400001525879</ele>
        <time>2021-07-04T09:58:32.000Z</time>
      </trkpt>
      <trkpt lat="47.26287" lon="-2.31902">
        <ele>-42</ele>
        <time>2021-07-04T09:58:33.000Z</time>
      </trkpt>
      <trkpt lat="47.2629" lon="-2.319">
        <ele>-41.400001525879</ele>
        <time>2021-07-04T09:58:34.000Z</time>
      </trkpt>
      <trkpt lat="47.26292" lon="-2.31898">
        <ele>-41</ele>
        <time>2021-07-04T09:58:35.000Z</time>
      </trkpt>
      <trkpt lat="47.26295" lon="-2.31894">
        <ele>-40.599998474121</ele>
        <time>2021-07-04T09:58:36.000Z</time>
      </trkpt>
      <trkpt lat="47.26297" lon="-2.3189">
        <ele>-40.200000762939</ele>
        <time>2021-07-04T09:58:37.000Z</time>
      </trkpt>
      <trkpt lat="47.26297" lon="-2.31887">
        <ele>-39.799999237061</ele>
        <time>2021-07-04T09:58:38.000Z</time>
      </trkpt>
      <trkpt lat="47.26298" lon="-2.31882">
        <ele>-39.400001525879</ele>
        <time>2021-07-04T09:58:39.000Z</time>
      </trkpt>
      <trkpt lat="47.26299" lon="-2.31876">
        <ele>-39</ele>
        <time>2021-07-04T09:58:40.000Z</time>
      </trkpt>
      <trkpt lat="47.263" lon="-2.31871">
        <ele>-38.599998474121</ele>
        <time>2021-07-04T09:58:41.000Z</time>
      </trkpt>
      <trkpt lat="47.263" lon="-2.31868">
        <ele>-38.200000762939</ele>
        <time>2021-07-04T09:58:42.000Z</time>
      </trkpt>
      <trkpt lat="47.263" lon="-2.31863">
        <ele>-37.599998474121</ele>
        <time>2021-07-04T09:58:43.000Z</time>
      </trkpt>
      <trkpt lat="47.26301" lon="-2.31858">
        <ele>-37.200000762939</ele>
        <time>2021-07-04T09:58:44.000Z</time>
      </trkpt>
      <trkpt lat="47.26301" lon="-2.31853">
        <ele>-36.799999237061</ele>
        <time>2021-07-04T09:58:45.000Z</time>
      </trkpt>
      <trkpt lat="47.26301" lon="-2.31848">
        <ele>-36.400001525879</ele>
        <time>2021-07-04T09:58:46.000Z</time>
      </trkpt>
      <trkpt lat="47.26301" lon="-2.31842">
        <ele>-35.799999237061</ele>
        <time>2021-07-04T09:58:47.000Z</time>
      </trkpt>
      <trkpt lat="47.26301" lon="-2.31838">
        <ele>-35.400001525879</ele>
        <time>2021-07-04T09:58:48.000Z</time>
      </trkpt>
      <trkpt lat="47.26301" lon="-2.31833">
        <ele>-34.799999237061</ele>
        <time>2021-07-04T09:58:49.000Z</time>
      </trkpt>
      <trkpt lat="47.26302" lon="-2.31828">
        <ele>-34.400001525879</ele>
        <time>2021-07-04T09:58:50.000Z</time>
      </trkpt>
      <trkpt lat="47.26301" lon="-2.31823">
        <ele>-34.400001525879</ele>
        <time>2021-07-04T09:58:51.000Z</time>
      </trkpt>
      <trkpt lat="47.26302" lon="-2.31818">
        <ele>-33.400001525879</ele>
        <time>2021-07-04T09:58:52.000Z</time>
      </trkpt>
      <trkpt lat="47.26302" lon="-2.31813">
        <ele>-33</ele>
        <time>2021-07-04T09:58:53.000Z</time>
      </trkpt>
      <trkpt lat="47.26303" lon="-2.31807">
        <ele>-32.599998474121</ele>
        <time>2021-07-04T09:58:54.000Z</time>
      </trkpt>
      <trkpt lat="47.26303" lon="-2.31801">
        <ele>-32.200000762939</ele>
        <time>2021-07-04T09:58:55.000Z</time>
      </trkpt>
      <trkpt lat="47.26303" lon="-2.31796">
        <ele>-31.799999237061</ele>
        <time>2021-07-04T09:58:56.000Z</time>
      </trkpt>
      <trkpt lat="47.26302" lon="-2.3179">
        <ele>-31.39999961853</ele>
        <time>2021-07-04T09:58:57.000Z</time>
      </trkpt>
      <trkpt lat="47.26302" lon="-2.31785">
        <ele>-31</ele>
        <time>2021-07-04T09:58:58.000Z</time>
      </trkpt>
      <trkpt lat="47.26302" lon="-2.31779">
        <ele>-30.60000038147</ele>
        <time>2021-07-04T09:58:59.000Z</time>
      </trkpt>
      <trkpt lat="47.26302" lon="-2.31774">
        <ele>-30.200000762939</ele>
        <time>2021-07-04T09:59:00.000Z</time>
      </trkpt>
      <trkpt lat="47.26301" lon="-2.31769">
        <ele>-29.60000038147</ele>
        <time>2021-07-04T09:59:01.000Z</time>
      </trkpt>
      <trkpt lat="47.263" lon="-2.31764">
        <ele>-29.200000762939</ele>
        <time>2021-07-04T09:59:02.000Z</time>
      </trkpt>
      <trkpt lat="47.263" lon="-2.31758">
        <ele>-28.60000038147</ele>
        <time>2021-07-04T09:59:03.000Z</time>
      </trkpt>
      <trkpt lat="47.26299" lon="-2.31752">
        <ele>-28.200000762939</ele>
        <time>2021-07-04T09:59:04.000Z</time>
      </trkpt>
      <trkpt lat="47.26299" lon="-2.31745">
        <ele>-27.60000038147</ele>
        <time>2021-07-04T09:59:05.000Z</time>
      </trkpt>
      <trkpt lat="47.26299" lon="-2.31738">
        <ele>-27.200000762939</ele>
        <time>2021-07-04T09:59:06.000Z</time>
      </trkpt>
      <trkpt lat="47.26299" lon="-2.31731">
        <ele>-26.799999237061</ele>
        <time>2021-07-04T09:59:07.000Z</time>
      </trkpt>
      <trkpt lat="47.26301" lon="-2.31725">
        <ele>-26.39999961853</ele>
        <time>2021-07-04T09:59:08.000Z</time>
      </trkpt>
      <trkpt lat="47.26304" lon="-2.31721">
        <ele>-26</ele>
        <time>2021-07-04T09:59:09.000Z</time>
      </trkpt>
      <trkpt lat="47.26307" lon="-2.3172">
        <ele>-25.60000038147</ele>
        <time>2021-07-04T09:59:10.000Z</time>
      </trkpt>
      <trkpt lat="47.26315" lon="-2.31716">
        <ele>-25.200000762939</ele>
        <time>2021-07-04T09:59:13.000Z</time>
      </trkpt>
      <trkpt lat="47.26317" lon="-2.31715">
        <ele>-24.799999237061</ele>
        <time>2021-07-04T09:59:14.000Z</time>
      </trkpt>
      <trkpt lat="47.2632" lon="-2.31713">
        <ele>-24.200000762939</ele>
        <time>2021-07-04T09:59:15.000Z</time>
      </trkpt>
      <trkpt lat="47.26323" lon="-2.31711">
        <ele>-23.799999237061</ele>
        <time>2021-07-04T09:59:16.000Z</time>
      </trkpt>
      <trkpt lat="47.26326" lon="-2.3171">
        <ele>-23.39999961853</ele>
        <time>2021-07-04T09:59:17.000Z</time>
      </trkpt>
      <trkpt lat="47.26329" lon="-2.31707">
        <ele>-23</ele>
        <time>2021-07-04T09:59:18.000Z</time>
      </trkpt>
      <trkpt lat="47.26331" lon="-2.31704">
        <ele>-22.39999961853</ele>
        <time>2021-07-04T09:59:19.000Z</time>
      </trkpt>
      <trkpt lat="47.26332" lon="-2.31699">
        <ele>-22</ele>
        <time>2021-07-04T09:59:20.000Z</time>
      </trkpt>
      <trkpt lat="47.26332" lon="-2.31695">
        <ele>-21.60000038147</ele>
        <time>2021-07-04T09:59:21.000Z</time>
      </trkpt>
      <trkpt lat="47.26335" lon="-2.31691">
        <ele>-21.200000762939</ele>
        <time>2021-07-04T09:59:22.000Z</time>
      </trkpt>
      <trkpt lat="47.26341" lon="-2.31688">
        <ele>-21.200000762939</ele>
        <time>2021-07-04T09:59:24.000Z</time>
      </trkpt>
      <trkpt lat="47.26344" lon="-2.31687">
        <ele>-21.200000762939</ele>
        <time>2021-07-04T09:59:25.000Z</time>
      </trkpt>
      <trkpt lat="47.26349" lon="-2.31683">
        <ele>-20.799999237061</ele>
        <time>2021-07-04T09:59:27.000Z</time>
      </trkpt>
      <trkpt lat="47.26353" lon="-2.31681">
        <ele>-20.39999961853</ele>
        <time>2021-07-04T09:59:28.000Z</time>
      </trkpt>
      <trkpt lat="47.26356" lon="-2.31679">
        <ele>-20</ele>
        <time>2021-07-04T09:59:29.000Z</time>
      </trkpt>
      <trkpt lat="47.26359" lon="-2.31678">
        <ele>-19.60000038147</ele>
        <time>2021-07-04T09:59:30.000Z</time>
      </trkpt>
      <trkpt lat="47.26362" lon="-2.31677">
        <ele>-19.200000762939</ele>
        <time>2021-07-04T09:59:31.000Z</time>
      </trkpt>
      <trkpt lat="47.26371" lon="-2.31674">
        <ele>-18.799999237061</ele>
        <time>2021-07-04T09:59:34.000Z</time>
      </trkpt>
      <trkpt lat="47.26374" lon="-2.31672">
        <ele>-18.39999961853</ele>
        <time>2021-07-04T09:59:35.000Z</time>
      </trkpt>
      <trkpt lat="47.26378" lon="-2.31671">
        <ele>-18</ele>
        <time>2021-07-04T09:59:36.000Z</time>
      </trkpt>
      <trkpt lat="47.26381" lon="-2.31669">
        <ele>-17.60000038147</ele>
        <time>2021-07-04T09:59:37.000Z</time>
      </trkpt>
      <trkpt lat="47.26384" lon="-2.31666">
        <ele>-17.200000762939</ele>
        <time>2021-07-04T09:59:38.000Z</time>
      </trkpt>
      <trkpt lat="47.26393" lon="-2.31661">
        <ele>-16.200000762939</ele>
        <time>2021-07-04T09:59:41.000Z</time>
      </trkpt>
      <trkpt lat="47.26396" lon="-2.3166">
        <ele>-15.800000190735</ele>
        <time>2021-07-04T09:59:42.000Z</time>
      </trkpt>
      <trkpt lat="47.26398" lon="-2.31659">
        <ele>-15.39999961853</ele>
        <time>2021-07-04T09:59:43.000Z</time>
      </trkpt>
      <trkpt lat="47.26401" lon="-2.31658">
        <ele>-15</ele>
        <time>2021-07-04T09:59:44.000Z</time>
      </trkpt>
      <trkpt lat="47.2641" lon="-2.31648">
        <ele>-15</ele>
        <time>2021-07-04T09:59:48.000Z</time>
      </trkpt>
      <trkpt lat="47.26411" lon="-2.31644">
        <ele>-15</ele>
        <time>2021-07-04T09:59:49.000Z</time>
      </trkpt>
      <trkpt lat="47.2641" lon="-2.3164">
        <ele>-14.39999961853</ele>
        <time>2021-07-04T09:59:50.000Z</time>
      </trkpt>
      <trkpt lat="47.2641" lon="-2.31635">
        <ele>-14</ele>
        <time>2021-07-04T09:59:51.000Z</time>
      </trkpt>
      <trkpt lat="47.26409" lon="-2.31631">
        <ele>-13.60000038147</ele>
        <time>2021-07-04T09:59:52.000Z</time>
      </trkpt>
      <trkpt lat="47.26409" lon="-2.31627">
        <ele>-13.199999809265</ele>
        <time>2021-07-04T09:59:53.000Z</time>
      </trkpt>
      <trkpt lat="47.26409" lon="-2.31621">
        <ele>-12.800000190735</ele>
        <time>2021-07-04T09:59:54.000Z</time>
      </trkpt>
      <trkpt lat="47.2641" lon="-2.31599">
        <ele>-12.800000190735</ele>
        <time>2021-07-04T09:59:59.000Z</time>
      </trkpt>
      <trkpt lat="47.2641" lon="-2.31594">
        <ele>-12.39999961853</ele>
        <time>2021-07-04T10:00:00.000Z</time>
      </trkpt>
      <trkpt lat="47.2641" lon="-2.31589">
        <ele>-12</ele>
        <time>2021-07-04T10:00:01.000Z</time>
      </trkpt>
      <trkpt lat="47.2641" lon="-2.31586">
        <ele>-11.39999961853</ele>
        <time>2021-07-04T10:00:02.000Z</time>
      </trkpt>
      <trkpt lat="47.2641" lon="-2.31581">
        <ele>-11</ele>
        <time>2021-07-04T10:00:03.000Z</time>
      </trkpt>
      <trkpt lat="47.2641" lon="-2.31577">
        <ele>-10.60000038147</ele>
        <time>2021-07-04T10:00:04.000Z</time>
      </trkpt>
      <trkpt lat="47.2641" lon="-2.31564">
        <ele>-10.60000038147</ele>
        <time>2021-07-04T10:00:07.000Z</time>
      </trkpt>
      <trkpt lat="47.26412" lon="-2.31553">
        <ele>-10.60000038147</ele>
        <time>2021-07-04T10:00:10.000Z</time>
      </trkpt>
      <trkpt lat="47.26417" lon="-2.31552">
        <ele>-10.60000038147</ele>
        <time>2021-07-04T10:00:12.000Z</time>
      </trkpt>
      <trkpt lat="47.26418" lon="-2.31553">
        <ele>-10.199999809265</ele>
        <time>2021-07-04T10:00:13.000Z</time>
      </trkpt>
      <trkpt lat="47.26419" lon="-2.31553">
        <ele>-9.8000001907349</ele>
        <time>2021-07-04T10:00:14.000Z</time>
      </trkpt>
      <trkpt lat="47.26419" lon="-2.31553">
        <ele>-9.3999996185303</ele>
        <time>2021-07-04T10:00:15.000Z</time>
      </trkpt>
    </trkseg>
  </trk>
</gpx>